Wetterdaten: Sonntag, 31.12.2017
Datum Zeit Temp. A. Pool Temp. Feuchte A. Luftdruck Regen Wind Richtung Richtung Sonnenschein ET UV Solar Taupunkt Windchill Windben Empfang
31.12.2017 00:00 1,8 C 3,9 C 98 % 1010,6 hPa 0,2 l/m 0,0 km/h (0 Bft) SO 135 0 min 0,000 mm 0,0 UV-I 0 W/m 1,5 C 1,8 C 1,6 km/h (1 Bft) 91,30 %
31.12.2017 00:01 1,7 C 3,9 C 98 % 1010,6 hPa 0,0 l/m 1,6 km/h (1 Bft) SO 135 0 min 0,000 mm 0,0 UV-I 0 W/m 1,4 C 1,7 C 1,6 km/h (1 Bft) 95,65 %
31.12.2017 00:02 1,6 C 3,9 C 98 % 1010,6 hPa 0,0 l/m 0,0 km/h (0 Bft) SO 135 0 min 0,000 mm 0,0 UV-I 0 W/m 1,3 C 1,6 C 1,6 km/h (1 Bft) 95,65 %
31.12.2017 00:03 1,6 C 3,9 C 98 % 1010,5 hPa 0,2 l/m 1,6 km/h (1 Bft) SO 135 0 min 0,000 mm 0,0 UV-I 0 W/m 1,3 C 1,6 C 3,2 km/h (1 Bft) 100,00 %
31.12.2017 00:04 1,6 C 3,3 C 98 % 1010,5 hPa 0,0 l/m 3,2 km/h (1 Bft) SO 135 0 min 0,000 mm 0,0 UV-I 0 W/m 1,3 C 1,6 C 4,8 km/h (1 Bft) 95,65 %
31.12.2017 00:05 1,6 C 3,9 C 98 % 1010,5 hPa 0,2 l/m 3,2 km/h (1 Bft) SO 135 0 min 0,000 mm 0,0 UV-I 0 W/m 1,3 C 1,6 C 4,8 km/h (1 Bft) 95,65 %
31.12.2017 00:06 1,6 C 3,3 C 98 % 1010,5 hPa 0,0 l/m 3,2 km/h (1 Bft) SO 135 0 min 0,000 mm 0,0 UV-I 0 W/m 1,3 C 1,6 C 4,8 km/h (1 Bft) 95,65 %
31.12.2017 00:07 1,7 C 3,3 C 98 % 1010,5 hPa 0,0 l/m 1,6 km/h (1 Bft) SO 135 0 min 0,000 mm 0,0 UV-I 0 W/m 1,4 C 1,7 C 3,2 km/h (1 Bft) 91,30 %
31.12.2017 00:08 1,7 C 3,3 C 98 % 1010,5 hPa 0,0 l/m 0,0 km/h (0 Bft) SO 135 0 min 0,000 mm 0,0 UV-I 0 W/m 1,4 C 1,7 C 1,6 km/h (1 Bft) 100,00 %
31.12.2017 00:09 1,8 C 3,3 C 98 % 1010,5 hPa 0,0 l/m 1,6 km/h (1 Bft) SO 135 0 min 0,000 mm 0,0 UV-I 0 W/m 1,5 C 1,8 C 3,2 km/h (1 Bft) 95,65 %
31.12.2017 00:10 1,9 C 3,9 C 98 % 1010,4 hPa 0,2 l/m 3,2 km/h (1 Bft) SO 135 0 min 0,000 mm 0,0 UV-I 0 W/m 1,6 C 1,9 C 4,8 km/h (1 Bft) 100,00 %
31.12.2017 00:11 1,9 C 3,9 C 98 % 1010,5 hPa 0,0 l/m 3,2 km/h (1 Bft) SO 135 0 min 0,000 mm 0,0 UV-I 0 W/m 1,6 C 1,9 C 3,2 km/h (1 Bft) 95,65 %
31.12.2017 00:12 1,8 C 3,9 C 98 % 1010,5 hPa 0,2 l/m 3,2 km/h (1 Bft) SO 135 0 min 0,000 mm 0,0 UV-I 0 W/m 1,5 C 1,8 C 3,2 km/h (1 Bft) 100,00 %
31.12.2017 00:13 1,8 C 3,9 C 98 % 1010,6 hPa 0,0 l/m 1,6 km/h (1 Bft) SO 135 0 min 0,000 mm 0,0 UV-I 0 W/m 1,5 C 1,8 C 3,2 km/h (1 Bft) 95,65 %
31.12.2017 00:14 1,8 C 3,9 C 98 % 1010,6 hPa 0,0 l/m 1,6 km/h (1 Bft) SO 135 0 min 0,000 mm 0,0 UV-I 0 W/m 1,5 C 1,8 C 3,2 km/h (1 Bft) 100,00 %
31.12.2017 00:15 1,8 C 3,9 C 98 % 1010,6 hPa 0,2 l/m 1,6 km/h (1 Bft) SO 135 0 min 0,000 mm 0,0 UV-I 0 W/m 1,5 C 1,8 C 3,2 km/h (1 Bft) 100,00 %
31.12.2017 00:16 1,9 C 3,9 C 98 % 1010,5 hPa 0,0 l/m 3,2 km/h (1 Bft) SO 135 0 min 0,000 mm 0,0 UV-I 0 W/m 1,6 C 1,9 C 4,8 km/h (1 Bft) 100,00 %
31.12.2017 00:17 2,0 C 3,9 C 98 % 1010,5 hPa 0,2 l/m 1,6 km/h (1 Bft) SO 135 0 min 0,000 mm 0,0 UV-I 0 W/m 1,7 C 2,0 C 3,2 km/h (1 Bft) 100,00 %
31.12.2017 00:18 2,1 C 3,3 C 98 % 1010,5 hPa 0,0 l/m 3,2 km/h (1 Bft) SO 135 0 min 0,000 mm 0,0 UV-I 0 W/m 1,8 C 2,1 C 3,2 km/h (1 Bft) 100,00 %
31.12.2017 00:19 2,2 C 3,3 C 98 % 1010,3 hPa 0,2 l/m 1,6 km/h (1 Bft) SO 135 0 min 0,000 mm 0,0 UV-I 0 W/m 1,9 C 2,2 C 3,2 km/h (1 Bft) 95,65 %
31.12.2017 00:20 2,2 C 3,3 C 98 % 1010,3 hPa 0,0 l/m 1,6 km/h (1 Bft) SO 135 0 min 0,000 mm 0,0 UV-I 0 W/m 1,9 C 2,2 C 3,2 km/h (1 Bft) 95,65 %
31.12.2017 00:21 2,2 C 3,3 C 98 % 1010,3 hPa 0,0 l/m 1,6 km/h (1 Bft) SO 135 0 min 0,000 mm 0,0 UV-I 0 W/m 1,9 C 2,2 C 3,2 km/h (1 Bft) 100,00 %
31.12.2017 00:22 2,1 C 3,3 C 98 % 1010,5 hPa 0,2 l/m 0,0 km/h (0 Bft) N 0 0 min 0,000 mm 0,0 UV-I 0 W/m 1,8 C 2,1 C 0,0 km/h (0 Bft) 100,00 %
31.12.2017 00:23 2,1 C 3,3 C 98 % 1010,5 hPa 0,0 l/m 3,2 km/h (1 Bft) SO 135 0 min 0,000 mm 0,0 UV-I 0 W/m 1,8 C 2,1 C 6,4 km/h (2 Bft) 95,65 %
31.12.2017 00:24 2,1 C 3,3 C 98 % 1010,2 hPa 0,0 l/m 6,4 km/h (2 Bft) SO 135 0 min 0,000 mm 0,0 UV-I 0 W/m 1,8 C 2,1 C 8,0 km/h (2 Bft) 95,65 %
31.12.2017 00:25 2,1 C 3,3 C 98 % 1010,1 hPa 0,0 l/m 6,4 km/h (2 Bft) SO 135 0 min 0,000 mm 0,0 UV-I 0 W/m 1,8 C 2,1 C 8,0 km/h (2 Bft) 100,00 %
31.12.2017 00:26 2,2 C 3,3 C 98 % 1010,0 hPa 0,0 l/m 4,8 km/h (1 Bft) S-SO 157 0 min 0,000 mm 0,0 UV-I 0 W/m 1,9 C 2,2 C 8,0 km/h (2 Bft) 100,00 %
31.12.2017 00:27 2,3 C 3,3 C 98 % 1010,0 hPa 0,2 l/m 1,6 km/h (1 Bft) S-SO 157 0 min 0,000 mm 0,0 UV-I 0 W/m 2,0 C 2,3 C 4,8 km/h (1 Bft) 95,65 %
31.12.2017 00:28 2,5 C 3,3 C 98 % 1010,1 hPa 0,0 l/m 3,2 km/h (1 Bft) S 180 0 min 0,000 mm 0,0 UV-I 0 W/m 2,2 C 2,5 C 9,7 km/h (2 Bft) 100,00 %
31.12.2017 00:29 2,6 C 3,9 C 98 % 1010,3 hPa 0,0 l/m 3,2 km/h (1 Bft) N-NW 337 0 min 0,000 mm 0,0 UV-I 0 W/m 2,3 C 2,6 C 6,4 km/h (2 Bft) 100,00 %
31.12.2017 00:30 2,5 C 3,9 C 98 % 1010,4 hPa 0,2 l/m 0,0 km/h (0 Bft) N-NW 337 0 min 0,000 mm 0,0 UV-I 0 W/m 2,2 C 2,5 C 3,2 km/h (1 Bft) 100,00 %
31.12.2017 00:31 2,3 C 3,9 C 98 % 1010,4 hPa 0,0 l/m 1,6 km/h (1 Bft) N-NW 337 0 min 0,000 mm 0,0 UV-I 0 W/m 2,0 C 2,3 C 4,8 km/h (1 Bft) 100,00 %
31.12.2017 00:32 2,2 C 3,9 C 98 % 1010,4 hPa 0,0 l/m 3,2 km/h (1 Bft) N 360 0 min 0,000 mm 0,0 UV-I 0 W/m 1,9 C 2,2 C 4,8 km/h (1 Bft) 100,00 %
31.12.2017 00:33 2,0 C 3,3 C 98 % 1010,4 hPa 0,0 l/m 3,2 km/h (1 Bft) N 360 0 min 0,000 mm 0,0 UV-I 0 W/m 1,7 C 2,0 C 4,8 km/h (1 Bft) 100,00 %
31.12.2017 00:34 1,9 C 3,3 C 98 % 1010,4 hPa 0,0 l/m 3,2 km/h (1 Bft) N 360 0 min 0,000 mm 0,0 UV-I 0 W/m 1,6 C 1,9 C 4,8 km/h (1 Bft) 95,65 %
31.12.2017 00:35 1,9 C 3,3 C 98 % 1010,4 hPa 0,0 l/m 6,4 km/h (2 Bft) N-NO 22 0 min 0,000 mm 0,0 UV-I 0 W/m 1,6 C 1,9 C 14,5 km/h (3 Bft) 100,00 %
31.12.2017 00:36 1,9 C 3,3 C 98 % 1010,4 hPa 0,2 l/m 4,8 km/h (1 Bft) N-NO 22 0 min 0,000 mm 0,0 UV-I 0 W/m 1,6 C 1,9 C 14,5 km/h (3 Bft) 95,65 %
31.12.2017 00:37 2,1 C 3,3 C 98 % 1010,4 hPa 0,0 l/m 8,0 km/h (2 Bft) N-NO 22 0 min 0,000 mm 0,0 UV-I 0 W/m 1,8 C 0,6 C 12,9 km/h (3 Bft) 100,00 %
31.12.2017 00:38 2,2 C 3,3 C 98 % 1010,4 hPa 0,0 l/m 8,0 km/h (2 Bft) NO 45 0 min 0,000 mm 0,0 UV-I 0 W/m 1,9 C 0,7 C 9,7 km/h (2 Bft) 100,00 %
31.12.2017 00:39 2,2 C 3,3 C 98 % 1010,4 hPa 0,0 l/m 9,7 km/h (2 Bft) NO 45 0 min 0,000 mm 0,0 UV-I 0 W/m 1,9 C -0,8 C 11,3 km/h (2 Bft) 100,00 %
31.12.2017 00:40 2,2 C 3,3 C 98 % 1010,4 hPa 0,2 l/m 8,0 km/h (2 Bft) NO 45 0 min 0,000 mm 0,0 UV-I 0 W/m 1,9 C 0,7 C 11,3 km/h (2 Bft) 100,00 %
31.12.2017 00:41 2,2 C 3,3 C 98 % 1010,4 hPa 0,0 l/m 8,0 km/h (2 Bft) NO 45 0 min 0,000 mm 0,0 UV-I 0 W/m 1,9 C 0,7 C 9,7 km/h (2 Bft) 95,65 %
31.12.2017 00:42 2,1 C 3,3 C 98 % 1010,4 hPa 0,0 l/m 9,7 km/h (2 Bft) NO 45 0 min 0,000 mm 0,0 UV-I 0 W/m 1,8 C -0,9 C 11,3 km/h (2 Bft) 100,00 %
31.12.2017 00:43 2,1 C 3,3 C 98 % 1010,3 hPa 0,0 l/m 9,7 km/h (2 Bft) O-NO 67 0 min 0,000 mm 0,0 UV-I 0 W/m 1,8 C -0,9 C 11,3 km/h (2 Bft) 100,00 %
31.12.2017 00:44 2,1 C 3,3 C 98 % 1010,3 hPa 0,0 l/m 8,0 km/h (2 Bft) NO 45 0 min 0,000 mm 0,0 UV-I 0 W/m 1,8 C 0,6 C 9,7 km/h (2 Bft) 100,00 %
31.12.2017 00:45 2,2 C 3,3 C 98 % 1010,4 hPa 0,0 l/m 6,4 km/h (2 Bft) NO 45 0 min 0,000 mm 0,0 UV-I 0 W/m 1,9 C 2,2 C 8,0 km/h (2 Bft) 100,00 %
31.12.2017 00:46 2,2 C 3,3 C 98 % 1010,3 hPa 0,2 l/m 6,4 km/h (2 Bft) NO 45 0 min 0,000 mm 0,0 UV-I 0 W/m 1,9 C 2,2 C 9,7 km/h (2 Bft) 100,00 %
31.12.2017 00:47 2,1 C 3,9 C 98 % 1010,4 hPa 0,0 l/m 8,0 km/h (2 Bft) NO 45 0 min 0,000 mm 0,0 UV-I 0 W/m 1,8 C 0,6 C 9,7 km/h (2 Bft) 100,00 %
31.12.2017 00:48 2,0 C 3,9 C 98 % 1010,4 hPa 0,0 l/m 8,0 km/h (2 Bft) N-NO 22 0 min 0,000 mm 0,0 UV-I 0 W/m 1,7 C 0,5 C 12,9 km/h (3 Bft) 86,96 %
31.12.2017 00:49 1,9 C 3,9 C 98 % 1010,5 hPa 0,0 l/m 6,4 km/h (2 Bft) N-NO 22 0 min 0,000 mm 0,0 UV-I 0 W/m 1,6 C 1,9 C 11,3 km/h (2 Bft) 100,00 %
31.12.2017 00:50 1,9 C 3,3 C 98 % 1010,5 hPa 0,2 l/m 9,7 km/h (2 Bft) N-NO 22 0 min 0,000 mm 0,0 UV-I 0 W/m 1,6 C -1,1 C 12,9 km/h (3 Bft) 95,65 %
31.12.2017 00:51 1,9 C 3,3 C 98 % 1010,5 hPa 0,0 l/m 8,0 km/h (2 Bft) N-NO 22 0 min 0,000 mm 0,0 UV-I 0 W/m 1,6 C 0,3 C 12,9 km/h (3 Bft) 100,00 %
31.12.2017 00:52 1,9 C 3,3 C 98 % 1010,5 hPa 0,0 l/m 8,0 km/h (2 Bft) N-NO 22 0 min 0,000 mm 0,0 UV-I 0 W/m 1,6 C 0,3 C 12,9 km/h (3 Bft) 95,65 %
31.12.2017 00:53 1,9 C 3,3 C 98 % 1010,5 hPa 0,0 l/m 9,7 km/h (2 Bft) N-NO 22 0 min 0,000 mm 0,0 UV-I 0 W/m 1,6 C -1,1 C 12,9 km/h (3 Bft) 86,96 %
31.12.2017 00:54 2,0 C 3,9 C 98 % 1010,5 hPa 0,0 l/m 9,7 km/h (2 Bft) N-NO 22 0 min 0,000 mm 0,0 UV-I 0 W/m 1,7 C -1,0 C 12,9 km/h (3 Bft) 100,00 %
31.12.2017 00:55 2,0 C 3,9 C 98 % 1010,5 hPa 0,0 l/m 8,0 km/h (2 Bft) NO 45 0 min 0,000 mm 0,0 UV-I 0 W/m 1,7 C 0,5 C 9,7 km/h (2 Bft) 91,30 %
31.12.2017 00:56 2,0 C 3,9 C 98 % 1010,5 hPa 0,0 l/m 8,0 km/h (2 Bft) NO 45 0 min 0,000 mm 0,0 UV-I 0 W/m 1,7 C 0,5 C 11,3 km/h (2 Bft) 95,65 %
31.12.2017 00:57 2,0 C 3,9 C 98 % 1010,4 hPa 0,2 l/m 9,7 km/h (2 Bft) NO 45 0 min 0,000 mm 0,0 UV-I 0 W/m 1,7 C -1,0 C 11,3 km/h (2 Bft) 95,65 %
31.12.2017 00:58 2,0 C 3,3 C 98 % 1010,5 hPa 0,0 l/m 6,4 km/h (2 Bft) NO 45 0 min 0,000 mm 0,0 UV-I 0 W/m 1,7 C 2,0 C 8,0 km/h (2 Bft) 100,00 %
31.12.2017 00:59 1,9 C 3,3 C 98 % 1010,4 hPa 0,0 l/m 6,4 km/h (2 Bft) NO 45 0 min 0,000 mm 0,0 UV-I 0 W/m 1,6 C 1,9 C 8,0 km/h (2 Bft) 95,65 %
31.12.2017 01:00 1,9 C 3,3 C 98 % 1010,5 hPa 0,0 l/m 4,8 km/h (1 Bft) NO 45 0 min 0,000 mm 0,0 UV-I 0 W/m 1,6 C 1,9 C 6,4 km/h (2 Bft) 100,00 %
31.12.2017 01:01 1,8 C 3,3 C 98 % 1010,5 hPa 0,2 l/m 8,0 km/h (2 Bft) NO 45 0 min 0,000 mm 0,0 UV-I 0 W/m 1,5 C 0,2 C 9,7 km/h (2 Bft) 91,30 %
31.12.2017 01:02 1,8 C 3,3 C 98 % 1010,4 hPa 0,0 l/m 6,4 km/h (2 Bft) NO 45 0 min 0,000 mm 0,0 UV-I 0 W/m 1,5 C 1,8 C 8,0 km/h (2 Bft) 95,65 %
31.12.2017 01:03 1,9 C 3,9 C 98 % 1010,4 hPa 0,0 l/m 3,2 km/h (1 Bft) NO 45 0 min 0,000 mm 0,0 UV-I 0 W/m 1,6 C 1,9 C 4,8 km/h (1 Bft) 95,65 %
31.12.2017 01:04 1,8 C 3,3 C 98 % 1010,4 hPa 0,0 l/m 1,6 km/h (1 Bft) NO 45 0 min 0,000 mm 0,0 UV-I 0 W/m 1,5 C 1,8 C 3,2 km/h (1 Bft) 100,00 %
31.12.2017 01:05 1,8 C 3,3 C 98 % 1010,5 hPa 0,0 l/m 1,6 km/h (1 Bft) NO 45 0 min 0,000 mm 0,0 UV-I 0 W/m 1,5 C 1,8 C 3,2 km/h (1 Bft) 95,65 %
31.12.2017 01:06 1,8 C 3,3 C 98 % 1010,4 hPa 0,2 l/m 3,2 km/h (1 Bft) NO 45 0 min 0,000 mm 0,0 UV-I 0 W/m 1,5 C 1,8 C 4,8 km/h (1 Bft) 100,00 %
31.12.2017 01:07 1,8 C 3,3 C 98 % 1010,5 hPa 0,0 l/m 0,0 km/h (0 Bft) NO 45 0 min 0,000 mm 0,0 UV-I 0 W/m 1,5 C 1,8 C 3,2 km/h (1 Bft) 95,65 %
31.12.2017 01:08 1,9 C 3,3 C 98 % 1010,6 hPa 0,0 l/m 0,0 km/h (0 Bft) N 0 0 min 0,000 mm 0,0 UV-I 0 W/m 1,6 C 1,9 C 0,0 km/h (0 Bft) 95,65 %
31.12.2017 01:09 1,9 C 3,3 C 98 % 1010,6 hPa 0,2 l/m 0,0 km/h (0 Bft) NO 45 0 min 0,000 mm 0,0 UV-I 0 W/m 1,6 C 1,9 C 1,6 km/h (1 Bft) 95,65 %
31.12.2017 01:10 1,9 C 3,3 C 98 % 1010,6 hPa 0,0 l/m 0,0 km/h (0 Bft) NO 45 0 min 0,000 mm 0,0 UV-I 0 W/m 1,6 C 1,9 C 3,2 km/h (1 Bft) 100,00 %
31.12.2017 01:11 1,9 C 3,3 C 98 % 1010,6 hPa 0,0 l/m 1,6 km/h (1 Bft) NO 45 0 min 0,000 mm 0,0 UV-I 0 W/m 1,6 C 1,9 C 3,2 km/h (1 Bft) 100,00 %
31.12.2017 01:12 1,9 C 3,3 C 98 % 1010,6 hPa 0,0 l/m 1,6 km/h (1 Bft) NO 45 0 min 0,000 mm 0,0 UV-I 0 W/m 1,6 C 1,9 C 3,2 km/h (1 Bft) 100,00 %
31.12.2017 01:13 2,0 C 3,3 C 98 % 1010,6 hPa 0,0 l/m 1,6 km/h (1 Bft) NO 45 0 min 0,000 mm 0,0 UV-I 0 W/m 1,7 C 2,0 C 1,6 km/h (1 Bft) 8,70 %
31.12.2017 01:14 2,0 C 3,9 C 98 % 1010,6 hPa 0,2 l/m 1,6 km/h (1 Bft) NO 45 0 min 0,000 mm 0,0 UV-I 0 W/m 1,7 C 2,0 C 3,2 km/h (1 Bft) 65,22 %
31.12.2017 01:15 2,0 C 3,9 C 98 % 1010,7 hPa 0,0 l/m 0,0 km/h (0 Bft) NO 45 0 min 0,000 mm 0,0 UV-I 0 W/m 1,7 C 2,0 C 1,6 km/h (1 Bft) 100,00 %
31.12.2017 01:16 2,1 C 3,3 C 98 % 1010,7 hPa 0,0 l/m 0,0 km/h (0 Bft) N 0 0 min 0,000 mm 0,0 UV-I 0 W/m 1,8 C 2,1 C 0,0 km/h (0 Bft) 95,65 %
31.12.2017 01:17 1,9 C 3,3 C 98 % 1010,6 hPa 0,2 l/m 0,0 km/h (0 Bft) N 0 0 min 0,000 mm 0,0 UV-I 0 W/m 1,6 C 1,9 C 0,0 km/h (0 Bft) 100,00 %
31.12.2017 01:18 1,9 C 3,3 C 98 % 1010,7 hPa 0,0 l/m 0,0 km/h (0 Bft) N 0 0 min 0,000 mm 0,0 UV-I 0 W/m 1,6 C 1,9 C 0,0 km/h (0 Bft) 100,00 %
31.12.2017 01:19 2,0 C 3,3 C 98 % 1010,6 hPa 0,0 l/m 1,6 km/h (1 Bft) NO 45 0 min 0,000 mm 0,0 UV-I 0 W/m 1,7 C 2,0 C 3,2 km/h (1 Bft) 100,00 %
31.12.2017 01:20 2,1 C 3,9 C 98 % 1010,6 hPa 0,0 l/m 3,2 km/h (1 Bft) NO 45 0 min 0,000 mm 0,0 UV-I 0 W/m 1,8 C 2,1 C 4,8 km/h (1 Bft) 100,00 %
31.12.2017 01:21 2,1 C 3,9 C 98 % 1010,6 hPa 0,0 l/m 3,2 km/h (1 Bft) NO 45 0 min 0,000 mm 0,0 UV-I 0 W/m 1,8 C 2,1 C 4,8 km/h (1 Bft) 95,65 %
31.12.2017 01:22 2,1 C 3,3 C 98 % 1010,7 hPa 0,0 l/m 3,2 km/h (1 Bft) NO 45 0 min 0,000 mm 0,0 UV-I 0 W/m 1,8 C 2,1 C 4,8 km/h (1 Bft) 95,65 %
31.12.2017 01:23 2,1 C 3,3 C 98 % 1010,7 hPa 0,0 l/m 4,8 km/h (1 Bft) O-NO 67 0 min 0,000 mm 0,0 UV-I 0 W/m 1,8 C 2,1 C 4,8 km/h (1 Bft) 95,65 %
31.12.2017 01:24 2,1 C 3,9 C 98 % 1010,6 hPa 0,2 l/m 1,6 km/h (1 Bft) O-NO 67 0 min 0,000 mm 0,0 UV-I 0 W/m 1,8 C 2,1 C 3,2 km/h (1 Bft) 100,00 %
31.12.2017 01:25 2,1 C 3,3 C 98 % 1010,6 hPa 0,0 l/m 1,6 km/h (1 Bft) O-NO 67 0 min 0,000 mm 0,0 UV-I 0 W/m 1,8 C 2,1 C 4,8 km/h (1 Bft) 95,65 %
31.12.2017 01:26 2,1 C 3,3 C 98 % 1010,7 hPa 0,0 l/m 1,6 km/h (1 Bft) O-NO 67 0 min 0,000 mm 0,0 UV-I 0 W/m 1,8 C 2,1 C 4,8 km/h (1 Bft) 100,00 %
31.12.2017 01:27 2,1 C 3,3 C 98 % 1010,8 hPa 0,0 l/m 0,0 km/h (0 Bft) O-NO 67 0 min 0,000 mm 0,0 UV-I 0 W/m 1,8 C 2,1 C 1,6 km/h (1 Bft) 100,00 %
31.12.2017 01:28 2,2 C 3,3 C 98 % 1010,7 hPa 0,2 l/m 0,0 km/h (0 Bft) O-NO 67 0 min 0,000 mm 0,0 UV-I 0 W/m 1,9 C 2,2 C 1,6 km/h (1 Bft) 100,00 %
31.12.2017 01:29 2,2 C 3,9 C 98 % 1010,7 hPa 0,0 l/m 0,0 km/h (0 Bft) N 0 0 min 0,000 mm 0,0 UV-I 0 W/m 1,9 C 2,2 C 0,0 km/h (0 Bft) 100,00 %
31.12.2017 01:30 2,3 C 3,9 C 98 % 1010,7 hPa 0,0 l/m 0,0 km/h (0 Bft) O-NO 67 0 min 0,000 mm 0,0 UV-I 0 W/m 2,0 C 2,3 C 1,6 km/h (1 Bft) 95,65 %
31.12.2017 01:31 2,3 C 3,9 C 98 % 1010,7 hPa 0,0 l/m 3,2 km/h (1 Bft) SO 135 0 min 0,000 mm 0,0 UV-I 0 W/m 2,0 C 2,3 C 3,2 km/h (1 Bft) 100,00 %
31.12.2017 01:32 2,3 C 3,3 C 98 % 1010,7 hPa 0,0 l/m 3,2 km/h (1 Bft) S-SW 202 0 min 0,000 mm 0,0 UV-I 0 W/m 2,0 C 2,3 C 4,8 km/h (1 Bft) 95,65 %
31.12.2017 01:33 2,4 C 3,3 C 98 % 1010,7 hPa 0,0 l/m 1,6 km/h (1 Bft) S-SW 202 0 min 0,000 mm 0,0 UV-I 0 W/m 2,1 C 2,4 C 3,2 km/h (1 Bft) 100,00 %
31.12.2017 01:34 2,6 C 3,3 C 98 % 1010,8 hPa 0,0 l/m 3,2 km/h (1 Bft) S-SW 202 0 min 0,000 mm 0,0 UV-I 0 W/m 2,3 C 2,6 C 4,8 km/h (1 Bft) 100,00 %
31.12.2017 01:35 2,7 C 3,3 C 98 % 1010,7 hPa 0,0 l/m 1,6 km/h (1 Bft) S-SW 202 0 min 0,000 mm 0,0 UV-I 0 W/m 2,4 C 2,7 C 3,2 km/h (1 Bft) 100,00 %
31.12.2017 01:36 2,7 C 3,3 C 98 % 1010,8 hPa 0,0 l/m 1,6 km/h (1 Bft) S-SW 202 0 min 0,000 mm 0,0 UV-I 0 W/m 2,4 C 2,7 C 3,2 km/h (1 Bft) 100,00 %
31.12.2017 01:37 2,7 C 3,3 C 98 % 1010,8 hPa 0,2 l/m 3,2 km/h (1 Bft) S-SW 202 0 min 0,000 mm 0,0 UV-I 0 W/m 2,4 C 2,7 C 4,8 km/h (1 Bft) 95,65 %
31.12.2017 01:38 2,8 C 3,3 C 98 % 1010,7 hPa 0,0 l/m 4,8 km/h (1 Bft) S-SW 202 0 min 0,000 mm 0,0 UV-I 0 W/m 2,5 C 2,8 C 6,4 km/h (2 Bft) 100,00 %
31.12.2017 01:39 2,8 C 3,3 C 98 % 1010,7 hPa 0,0 l/m 3,2 km/h (1 Bft) SW 225 0 min 0,000 mm 0,0 UV-I 0 W/m 2,5 C 2,8 C 4,8 km/h (1 Bft) 100,00 %
31.12.2017 01:40 2,8 C 3,3 C 98 % 1010,8 hPa 0,0 l/m 3,2 km/h (1 Bft) SW 225 0 min 0,000 mm 0,0 UV-I 0 W/m 2,5 C 2,8 C 4,8 km/h (1 Bft) 95,65 %
31.12.2017 01:41 2,9 C 3,3 C 98 % 1010,8 hPa 0,0 l/m 3,2 km/h (1 Bft) SW 225 0 min 0,000 mm 0,0 UV-I 0 W/m 2,6 C 2,9 C 4,8 km/h (1 Bft) 95,65 %
31.12.2017 01:42 3,0 C 3,3 C 98 % 1010,8 hPa 0,0 l/m 4,8 km/h (1 Bft) W-SW 247 0 min 0,000 mm 0,0 UV-I 0 W/m 2,7 C 3,0 C 6,4 km/h (2 Bft) 100,00 %
31.12.2017 01:43 3,2 C 3,3 C 98 % 1010,8 hPa 0,0 l/m 4,8 km/h (1 Bft) SW 225 0 min 0,000 mm 0,0 UV-I 0 W/m 2,9 C 3,2 C 6,4 km/h (2 Bft) 100,00 %
31.12.2017 01:44 3,3 C 3,3 C 98 % 1010,8 hPa 0,0 l/m 4,8 km/h (1 Bft) SW 225 0 min 0,000 mm 0,0 UV-I 0 W/m 3,0 C 3,3 C 6,4 km/h (2 Bft) 91,30 %
31.12.2017 01:45 3,4 C 3,3 C 98 % 1010,8 hPa 0,2 l/m 4,8 km/h (1 Bft) SW 225 0 min 0,000 mm 0,0 UV-I 0 W/m 3,1 C 3,4 C 6,4 km/h (2 Bft) 100,00 %
31.12.2017 01:46 3,6 C 3,3 C 98 % 1010,7 hPa 0,0 l/m 4,8 km/h (1 Bft) W-SW 247 0 min 0,000 mm 0,0 UV-I 0 W/m 3,3 C 3,6 C 6,4 km/h (2 Bft) 95,65 %
31.12.2017 01:47 3,8 C 3,3 C 98 % 1010,7 hPa 0,0 l/m 4,8 km/h (1 Bft) W-SW 247 0 min 0,000 mm 0,0 UV-I 0 W/m 3,5 C 3,8 C 8,0 km/h (2 Bft) 100,00 %
31.12.2017 01:48 4,1 C 3,3 C 98 % 1010,8 hPa 0,0 l/m 6,4 km/h (2 Bft) W-SW 247 0 min 0,000 mm 0,0 UV-I 0 W/m 3,8 C 4,1 C 11,3 km/h (2 Bft) 91,30 %
31.12.2017 01:49 4,4 C 3,3 C 98 % 1010,7 hPa 0,0 l/m 4,8 km/h (1 Bft) W-SW 247 0 min 0,000 mm 0,0 UV-I 0 W/m 4,1 C 4,4 C 6,4 km/h (2 Bft) 95,65 %
31.12.2017 01:50 4,6 C 3,3 C 98 % 1010,7 hPa 0,0 l/m 4,8 km/h (1 Bft) W-SW 247 0 min 0,000 mm 0,0 UV-I 0 W/m 4,3 C 4,6 C 6,4 km/h (2 Bft) 100,00 %
31.12.2017 01:51 4,6 C 3,3 C 99 % 1010,7 hPa 0,0 l/m 6,4 km/h (2 Bft) W-SW 247 0 min 0,000 mm 0,0 UV-I 0 W/m 4,5 C 4,6 C 9,7 km/h (2 Bft) 91,30 %
31.12.2017 01:52 4,7 C 3,3 C 99 % 1010,7 hPa 0,0 l/m 4,8 km/h (1 Bft) W-SW 247 0 min 0,000 mm 0,0 UV-I 0 W/m 4,6 C 4,7 C 6,4 km/h (2 Bft) 100,00 %
31.12.2017 01:53 4,7 C 3,3 C 99 % 1010,7 hPa 0,0 l/m 6,4 km/h (2 Bft) SW 225 0 min 0,000 mm 0,0 UV-I 0 W/m 4,6 C 4,7 C 11,3 km/h (2 Bft) 91,30 %
31.12.2017 01:54 4,7 C 3,3 C 98 % 1010,7 hPa 0,0 l/m 6,4 km/h (2 Bft) SW 225 0 min 0,000 mm 0,0 UV-I 0 W/m 4,4 C 4,7 C 9,7 km/h (2 Bft) 100,00 %
31.12.2017 01:55 4,7 C 3,3 C 99 % 1010,7 hPa 0,0 l/m 8,0 km/h (2 Bft) SW 225 0 min 0,000 mm 0,0 UV-I 0 W/m 4,6 C 3,3 C 9,7 km/h (2 Bft) 91,30 %
31.12.2017 01:56 4,7 C 3,3 C 99 % 1010,7 hPa 0,0 l/m 6,4 km/h (2 Bft) SW 225 0 min 0,000 mm 0,0 UV-I 0 W/m 4,6 C 4,7 C 9,7 km/h (2 Bft) 95,65 %
31.12.2017 01:57 4,7 C 3,3 C 99 % 1010,8 hPa 0,0 l/m 6,4 km/h (2 Bft) SW 225 0 min 0,000 mm 0,0 UV-I 0 W/m 4,6 C 4,7 C 9,7 km/h (2 Bft) 95,65 %
31.12.2017 01:58 4,8 C 3,3 C 99 % 1010,8 hPa 0,0 l/m 8,0 km/h (2 Bft) SW 225 0 min 0,000 mm 0,0 UV-I 0 W/m 4,7 C 3,4 C 9,7 km/h (2 Bft) 91,30 %
31.12.2017 01:59 4,8 C 3,3 C 98 % 1010,7 hPa 0,0 l/m 6,4 km/h (2 Bft) SW 225 0 min 0,000 mm 0,0 UV-I 0 W/m 4,5 C 4,8 C 8,0 km/h (2 Bft) 100,00 %
31.12.2017 02:00 4,8 C 3,9 C 98 % 1010,7 hPa 0,0 l/m 6,4 km/h (2 Bft) SW 225 0 min 0,000 mm 0,0 UV-I 0 W/m 4,5 C 4,8 C 6,4 km/h (2 Bft) 95,65 %
31.12.2017 02:01 4,8 C 3,9 C 98 % 1010,7 hPa 0,0 l/m 6,4 km/h (2 Bft) SW 225 0 min 0,000 mm 0,0 UV-I 0 W/m 4,5 C 4,8 C 6,4 km/h (2 Bft) 100,00 %
31.12.2017 02:02 4,9 C 3,3 C 98 % 1010,7 hPa 0,0 l/m 6,4 km/h (2 Bft) SW 225 0 min 0,000 mm 0,0 UV-I 0 W/m 4,6 C 4,9 C 9,7 km/h (2 Bft) 95,65 %
31.12.2017 02:03 5,0 C 3,3 C 99 % 1010,7 hPa 0,0 l/m 6,4 km/h (2 Bft) SW 225 0 min 0,000 mm 0,0 UV-I 0 W/m 4,9 C 5,0 C 9,7 km/h (2 Bft) 100,00 %
31.12.2017 02:04 4,9 C 3,3 C 99 % 1010,7 hPa 0,0 l/m 8,0 km/h (2 Bft) SW 225 0 min 0,000 mm 0,0 UV-I 0 W/m 4,8 C 3,5 C 11,3 km/h (2 Bft) 95,65 %
31.12.2017 02:05 5,0 C 3,3 C 99 % 1010,7 hPa 0,0 l/m 8,0 km/h (2 Bft) SW 225 0 min 0,000 mm 0,0 UV-I 0 W/m 4,9 C 3,6 C 11,3 km/h (2 Bft) 95,65 %
31.12.2017 02:06 5,2 C 3,3 C 98 % 1010,8 hPa 0,0 l/m 9,7 km/h (2 Bft) SW 225 0 min 0,000 mm 0,0 UV-I 0 W/m 4,9 C 2,5 C 12,9 km/h (3 Bft) 95,65 %
31.12.2017 02:07 5,3 C 3,3 C 99 % 1010,8 hPa 0,0 l/m 8,0 km/h (2 Bft) SW 225 0 min 0,000 mm 0,0 UV-I 0 W/m 5,2 C 3,9 C 11,3 km/h (2 Bft) 95,65 %
31.12.2017 02:08 5,3 C 3,3 C 99 % 1010,8 hPa 0,0 l/m 8,0 km/h (2 Bft) SW 225 0 min 0,000 mm 0,0 UV-I 0 W/m 5,2 C 3,9 C 9,7 km/h (2 Bft) 100,00 %
31.12.2017 02:09 5,3 C 3,3 C 99 % 1010,8 hPa 0,0 l/m 6,4 km/h (2 Bft) SW 225 0 min 0,000 mm 0,0 UV-I 0 W/m 5,2 C 5,3 C 8,0 km/h (2 Bft) 91,30 %
31.12.2017 02:10 5,4 C 3,3 C 98 % 1010,8 hPa 0,0 l/m 8,0 km/h (2 Bft) S-SW 202 0 min 0,000 mm 0,0 UV-I 0 W/m 5,1 C 4,0 C 11,3 km/h (2 Bft) 100,00 %
31.12.2017 02:11 5,4 C 3,3 C 98 % 1010,8 hPa 0,0 l/m 6,4 km/h (2 Bft) S-SW 202 0 min 0,000 mm 0,0 UV-I 0 W/m 5,1 C 5,4 C 8,0 km/h (2 Bft) 95,65 %
31.12.2017 02:12 5,4 C 3,3 C 98 % 1010,7 hPa 0,0 l/m 6,4 km/h (2 Bft) S-SW 202 0 min 0,000 mm 0,0 UV-I 0 W/m 5,1 C 5,4 C 11,3 km/h (2 Bft) 91,30 %
31.12.2017 02:13 5,4 C 3,3 C 98 % 1010,7 hPa 0,0 l/m 8,0 km/h (2 Bft) S-SW 202 0 min 0,000 mm 0,0 UV-I 0 W/m 5,1 C 4,0 C 11,3 km/h (2 Bft) 95,65 %
31.12.2017 02:14 5,5 C 3,3 C 98 % 1010,7 hPa 0,0 l/m 8,0 km/h (2 Bft) SW 225 0 min 0,000 mm 0,0 UV-I 0 W/m 5,2 C 4,1 C 12,9 km/h (3 Bft) 100,00 %
31.12.2017 02:15 5,6 C 3,3 C 99 % 1010,7 hPa 0,0 l/m 8,0 km/h (2 Bft) SW 225 0 min 0,000 mm 0,0 UV-I 0 W/m 5,5 C 4,2 C 12,9 km/h (3 Bft) 95,65 %
31.12.2017 02:16 5,6 C 3,3 C 99 % 1010,7 hPa 0,0 l/m 6,4 km/h (2 Bft) SW 225 0 min 0,000 mm 0,0 UV-I 0 W/m 5,5 C 5,6 C 9,7 km/h (2 Bft) 95,65 %
31.12.2017 02:17 5,6 C 3,3 C 99 % 1010,7 hPa 0,0 l/m 8,0 km/h (2 Bft) W-SW 247 0 min 0,000 mm 0,0 UV-I 0 W/m 5,5 C 4,2 C 14,5 km/h (3 Bft) 100,00 %
31.12.2017 02:18 5,7 C 3,3 C 99 % 1010,7 hPa 0,0 l/m 8,0 km/h (2 Bft) SW 225 0 min 0,000 mm 0,0 UV-I 0 W/m 5,6 C 4,3 C 12,9 km/h (3 Bft) 95,65 %
31.12.2017 02:19 5,7 C 3,3 C 98 % 1010,7 hPa 0,0 l/m 6,4 km/h (2 Bft) SW 225 0 min 0,000 mm 0,0 UV-I 0 W/m 5,4 C 5,7 C 11,3 km/h (2 Bft) 86,96 %
31.12.2017 02:20 5,7 C 3,9 C 98 % 1010,6 hPa 0,0 l/m 8,0 km/h (2 Bft) SW 225 0 min 0,000 mm 0,0 UV-I 0 W/m 5,4 C 4,3 C 12,9 km/h (3 Bft) 91,30 %
31.12.2017 02:21 5,8 C 3,3 C 98 % 1010,6 hPa 0,0 l/m 9,7 km/h (2 Bft) SW 225 0 min 0,000 mm 0,0 UV-I 0 W/m 5,5 C 3,2 C 17,7 km/h (3 Bft) 100,00 %
31.12.2017 02:22 5,8 C 3,9 C 98 % 1010,7 hPa 0,0 l/m 9,7 km/h (2 Bft) SW 225 0 min 0,000 mm 0,0 UV-I 0 W/m 5,5 C 3,2 C 17,7 km/h (3 Bft) 91,30 %
31.12.2017 02:23 5,9 C 3,3 C 99 % 1010,7 hPa 0,0 l/m 12,9 km/h (3 Bft) SW 225 0 min 0,000 mm 0,0 UV-I 0 W/m 5,8 C 1,3 C 17,7 km/h (3 Bft) 95,65 %
31.12.2017 02:24 5,9 C 3,3 C 99 % 1010,7 hPa 0,0 l/m 9,7 km/h (2 Bft) SW 225 0 min 0,000 mm 0,0 UV-I 0 W/m 5,8 C 3,3 C 16,1 km/h (3 Bft) 91,30 %
31.12.2017 02:25 5,9 C 3,3 C 99 % 1010,7 hPa 0,2 l/m 11,3 km/h (2 Bft) S-SW 202 0 min 0,000 mm 0,0 UV-I 0 W/m 5,8 C 2,2 C 16,1 km/h (3 Bft) 95,65 %
31.12.2017 02:26 6,0 C 3,3 C 99 % 1010,6 hPa 0,0 l/m 9,7 km/h (2 Bft) SW 225 0 min 0,000 mm 0,0 UV-I 0 W/m 5,9 C 3,4 C 12,9 km/h (3 Bft) 91,30 %
31.12.2017 02:27 6,1 C 3,3 C 99 % 1010,6 hPa 0,0 l/m 14,5 km/h (3 Bft) W-SW 247 0 min 0,000 mm 0,0 UV-I 0 W/m 6,0 C 0,7 C 20,9 km/h (4 Bft) 100,00 %
31.12.2017 02:28 6,2 C 3,3 C 98 % 1010,6 hPa 0,0 l/m 11,3 km/h (2 Bft) SW 225 0 min 0,000 mm 0,0 UV-I 0 W/m 5,9 C 2,6 C 20,9 km/h (4 Bft) 91,30 %
31.12.2017 02:29 6,2 C 3,9 C 98 % 1010,6 hPa 0,0 l/m 11,3 km/h (2 Bft) SW 225 0 min 0,000 mm 0,0 UV-I 0 W/m 5,9 C 2,6 C 19,3 km/h (3 Bft) 95,65 %
31.12.2017 02:30 6,2 C 3,9 C 98 % 1010,6 hPa 0,0 l/m 11,3 km/h (2 Bft) SW 225 0 min 0,000 mm 0,0 UV-I 0 W/m 5,9 C 2,6 C 14,5 km/h (3 Bft) 100,00 %
31.12.2017 02:31 6,2 C 3,9 C 98 % 1010,6 hPa 0,0 l/m 12,9 km/h (3 Bft) SW 225 0 min 0,000 mm 0,0 UV-I 0 W/m 5,9 C 1,6 C 17,7 km/h (3 Bft) 95,65 %
31.12.2017 02:32 6,2 C 3,3 C 98 % 1010,6 hPa 0,0 l/m 12,9 km/h (3 Bft) SW 225 0 min 0,000 mm 0,0 UV-I 0 W/m 5,9 C 1,6 C 17,7 km/h (3 Bft) 100,00 %
31.12.2017 02:33 6,2 C 3,3 C 99 % 1010,6 hPa 0,0 l/m 12,9 km/h (3 Bft) W-SW 247 0 min 0,000 mm 0,0 UV-I 0 W/m 6,1 C 1,6 C 17,7 km/h (3 Bft) 91,30 %
31.12.2017 02:34 6,2 C 3,3 C 99 % 1010,6 hPa 0,0 l/m 16,1 km/h (3 Bft) SW 225 0 min 0,000 mm 0,0 UV-I 0 W/m 6,1 C 0,0 C 22,5 km/h (4 Bft) 100,00 %
31.12.2017 02:35 6,3 C 3,3 C 99 % 1010,5 hPa 0,0 l/m 16,1 km/h (3 Bft) SW 225 0 min 0,000 mm 0,0 UV-I 0 W/m 6,2 C 0,1 C 20,9 km/h (4 Bft) 95,65 %
31.12.2017 02:36 6,3 C 3,3 C 99 % 1010,5 hPa 0,0 l/m 11,3 km/h (2 Bft) SW 225 0 min 0,000 mm 0,0 UV-I 0 W/m 6,2 C 2,7 C 22,5 km/h (4 Bft) 100,00 %
31.12.2017 02:37 6,4 C 3,3 C 99 % 1010,5 hPa 0,0 l/m 16,1 km/h (3 Bft) SW 225 0 min 0,000 mm 0,0 UV-I 0 W/m 6,3 C 0,3 C 25,7 km/h (4 Bft) 95,65 %
31.12.2017 02:38 6,6 C 3,3 C 99 % 1010,5 hPa 0,0 l/m 14,5 km/h (3 Bft) W-SW 247 0 min 0,000 mm 0,0 UV-I 0 W/m 6,5 C 1,3 C 25,7 km/h (4 Bft) 100,00 %
31.12.2017 02:39 6,6 C 3,3 C 99 % 1010,6 hPa 0,0 l/m 16,1 km/h (3 Bft) SW 225 0 min 0,000 mm 0,0 UV-I 0 W/m 6,5 C 0,5 C 22,5 km/h (4 Bft) 95,65 %
31.12.2017 02:40 6,7 C 3,3 C 99 % 1010,5 hPa 0,0 l/m 17,7 km/h (3 Bft) SW 225 0 min 0,000 mm 0,0 UV-I 0 W/m 6,6 C -0,1 C 27,4 km/h (4 Bft) 95,65 %
31.12.2017 02:41 6,8 C 3,3 C 98 % 1010,5 hPa 0,0 l/m 19,3 km/h (3 Bft) W-SW 247 0 min 0,000 mm 0,0 UV-I 0 W/m 6,5 C -0,6 C 27,4 km/h (4 Bft) 95,65 %
31.12.2017 02:42 6,9 C 3,3 C 99 % 1010,5 hPa 0,0 l/m 14,5 km/h (3 Bft) W-SW 247 0 min 0,000 mm 0,0 UV-I 0 W/m 6,8 C 1,6 C 25,7 km/h (4 Bft) 100,00 %
31.12.2017 02:43 7,1 C 3,3 C 99 % 1010,6 hPa 0,0 l/m 16,1 km/h (3 Bft) SW 225 0 min 0,000 mm 0,0 UV-I 0 W/m 7,0 C 1,1 C 24,1 km/h (4 Bft) 95,65 %
31.12.2017 02:44 7,2 C 3,3 C 99 % 1010,5 hPa 0,0 l/m 16,1 km/h (3 Bft) W-SW 247 0 min 0,000 mm 0,0 UV-I 0 W/m 7,1 C 1,2 C 20,9 km/h (4 Bft) 95,65 %
31.12.2017 02:45 7,3 C 3,3 C 99 % 1010,6 hPa 0,0 l/m 16,1 km/h (3 Bft) W-SW 247 0 min 0,000 mm 0,0 UV-I 0 W/m 7,2 C 1,4 C 20,9 km/h (4 Bft) 100,00 %
31.12.2017 02:46 7,3 C 3,3 C 99 % 1010,5 hPa 0,0 l/m 19,3 km/h (3 Bft) W-SW 247 0 min 0,000 mm 0,0 UV-I 0 W/m 7,2 C 0,1 C 30,6 km/h (5 Bft) 100,00 %
31.12.2017 02:47 7,4 C 3,3 C 99 % 1010,5 hPa 0,0 l/m 19,3 km/h (3 Bft) SW 225 0 min 0,000 mm 0,0 UV-I 0 W/m 7,3 C 0,2 C 30,6 km/h (5 Bft) 95,65 %
31.12.2017 02:48 7,5 C 3,3 C 99 % 1010,6 hPa 0,0 l/m 20,9 km/h (4 Bft) W-SW 247 0 min 0,000 mm 0,0 UV-I 0 W/m 7,4 C -0,3 C 30,6 km/h (5 Bft) 91,30 %
31.12.2017 02:49 7,6 C 3,3 C 99 % 1010,5 hPa 0,0 l/m 20,9 km/h (4 Bft) W-SW 247 0 min 0,000 mm 0,0 UV-I 0 W/m 7,5 C -0,1 C 29,0 km/h (5 Bft) 100,00 %
31.12.2017 02:50 7,7 C 3,3 C 99 % 1010,6 hPa 0,0 l/m 22,5 km/h (4 Bft) SW 225 0 min 0,000 mm 0,0 UV-I 0 W/m 7,6 C -0,5 C 30,6 km/h (5 Bft) 95,65 %
31.12.2017 02:51 7,8 C 3,3 C 99 % 1010,7 hPa 0,0 l/m 25,7 km/h (4 Bft) W-SW 247 0 min 0,000 mm 0,0 UV-I 0 W/m 7,7 C -1,3 C 37,0 km/h (5 Bft) 100,00 %
31.12.2017 02:52 7,8 C 3,3 C 99 % 1010,7 hPa 0,0 l/m 19,3 km/h (3 Bft) W-SW 247 0 min 0,000 mm 0,0 UV-I 0 W/m 7,7 C 0,7 C 25,7 km/h (4 Bft) 100,00 %
31.12.2017 02:53 7,9 C 3,3 C 99 % 1010,7 hPa 0,0 l/m 19,3 km/h (3 Bft) W-SW 247 0 min 0,000 mm 0,0 UV-I 0 W/m 7,8 C 0,8 C 37,0 km/h (5 Bft) 100,00 %
31.12.2017 02:54 7,9 C 3,3 C 99 % 1010,7 hPa 0,0 l/m 25,7 km/h (4 Bft) W-SW 247 0 min 0,000 mm 0,0 UV-I 0 W/m 7,8 C -1,2 C 37,0 km/h (5 Bft) 95,65 %
31.12.2017 02:55 8,0 C 3,3 C 99 % 1010,7 hPa 0,0 l/m 19,3 km/h (3 Bft) W 270 0 min 0,000 mm 0,0 UV-I 0 W/m 7,9 C 1,0 C 24,1 km/h (4 Bft) 100,00 %
31.12.2017 02:56 8,0 C 3,3 C 99 % 1010,6 hPa 0,0 l/m 19,3 km/h (3 Bft) W-SW 247 0 min 0,000 mm 0,0 UV-I 0 W/m 7,9 C 1,0 C 27,4 km/h (4 Bft) 95,65 %
31.12.2017 02:57 8,1 C 3,3 C 99 % 1010,6 hPa 0,0 l/m 16,1 km/h (3 Bft) W-SW 247 0 min 0,000 mm 0,0 UV-I 0 W/m 8,0 C 2,3 C 22,5 km/h (4 Bft) 95,65 %
31.12.2017 02:58 8,1 C 3,3 C 98 % 1010,6 hPa 0,0 l/m 20,9 km/h (4 Bft) W-SW 247 0 min 0,000 mm 0,0 UV-I 0 W/m 7,8 C 0,5 C 30,6 km/h (5 Bft) 100,00 %
31.12.2017 02:59 8,1 C 3,3 C 99 % 1010,6 hPa 0,0 l/m 24,1 km/h (4 Bft) W-SW 247 0 min 0,000 mm 0,0 UV-I 0 W/m 8,0 C -0,5 C 33,8 km/h (5 Bft) 100,00 %
31.12.2017 03:00 8,2 C 3,3 C 99 % 1010,6 hPa 0,0 l/m 27,4 km/h (4 Bft) W-SW 247 0 min 0,000 mm 0,0 UV-I 0 W/m 8,1 C -1,2 C 40,2 km/h (6 Bft) 100,00 %
31.12.2017 03:01 8,3 C 3,3 C 99 % 1010,6 hPa 0,0 l/m 20,9 km/h (4 Bft) SW 225 0 min 0,000 mm 0,0 UV-I 0 W/m 8,2 C 0,8 C 29,0 km/h (5 Bft) 95,65 %
31.12.2017 03:02 8,3 C 3,3 C 99 % 1010,7 hPa 0,0 l/m 25,7 km/h (4 Bft) W-SW 247 0 min 0,000 mm 0,0 UV-I 0 W/m 8,2 C -0,7 C 40,2 km/h (6 Bft) 95,65 %
31.12.2017 03:03 8,4 C 3,3 C 99 % 1010,6 hPa 0,0 l/m 25,7 km/h (4 Bft) W 270 0 min 0,000 mm 0,0 UV-I 0 W/m 8,3 C -0,5 C 43,5 km/h (6 Bft) 95,65 %
31.12.2017 03:04 8,4 C 3,3 C 99 % 1010,6 hPa 0,0 l/m 27,4 km/h (4 Bft) W-SW 247 0 min 0,000 mm 0,0 UV-I 0 W/m 8,3 C -1,0 C 43,5 km/h (6 Bft) 100,00 %
31.12.2017 03:05 8,5 C 3,3 C 99 % 1010,6 hPa 0,0 l/m 22,5 km/h (4 Bft) W-SW 247 0 min 0,000 mm 0,0 UV-I 0 W/m 8,4 C 0,5 C 27,4 km/h (4 Bft) 100,00 %
31.12.2017 03:06 8,5 C 3,3 C 99 % 1010,6 hPa 0,0 l/m 24,1 km/h (4 Bft) W-SW 247 0 min 0,000 mm 0,0 UV-I 0 W/m 8,4 C 0,1 C 38,6 km/h (5 Bft) 95,65 %
31.12.2017 03:07 8,6 C 3,3 C 99 % 1010,7 hPa 0,0 l/m 20,9 km/h (4 Bft) W-SW 247 0 min 0,000 mm 0,0 UV-I 0 W/m 8,5 C 1,2 C 32,2 km/h (5 Bft) 100,00 %
31.12.2017 03:08 8,6 C 3,3 C 98 % 1010,7 hPa 0,0 l/m 19,3 km/h (3 Bft) W-SW 247 0 min 0,000 mm 0,0 UV-I 0 W/m 8,3 C 1,7 C 27,4 km/h (4 Bft) 95,65 %
31.12.2017 03:09 8,6 C 3,3 C 99 % 1010,6 hPa 0,0 l/m 22,5 km/h (4 Bft) W 270 0 min 0,000 mm 0,0 UV-I 0 W/m 8,5 C 0,7 C 33,8 km/h (5 Bft) 100,00 %
31.12.2017 03:10 8,6 C 3,9 C 98 % 1010,6 hPa 0,0 l/m 17,7 km/h (3 Bft) W-SW 247 0 min 0,000 mm 0,0 UV-I 0 W/m 8,3 C 2,3 C 25,7 km/h (4 Bft) 100,00 %
31.12.2017 03:11 8,7 C 3,3 C 98 % 1010,7 hPa 0,0 l/m 27,4 km/h (4 Bft) W-SW 247 0 min 0,000 mm 0,0 UV-I 0 W/m 8,4 C -0,6 C 33,8 km/h (5 Bft) 100,00 %
31.12.2017 03:12 8,7 C 3,3 C 98 % 1010,6 hPa 0,0 l/m 22,5 km/h (4 Bft) W-SW 247 0 min 0,000 mm 0,0 UV-I 0 W/m 8,4 C 0,8 C 37,0 km/h (5 Bft) 100,00 %
31.12.2017 03:13 8,8 C 3,3 C 98 % 1010,7 hPa 0,0 l/m 29,0 km/h (5 Bft) W-SW 247 0 min 0,000 mm 0,0 UV-I 0 W/m 8,5 C -0,8 C 38,6 km/h (5 Bft) 100,00 %
31.12.2017 03:14 8,8 C 3,9 C 98 % 1010,6 hPa 0,0 l/m 24,1 km/h (4 Bft) W 270 0 min 0,000 mm 0,0 UV-I 0 W/m 8,5 C 0,5 C 33,8 km/h (5 Bft) 100,00 %
31.12.2017 03:15 8,9 C 3,3 C 98 % 1010,7 hPa 0,0 l/m 24,1 km/h (4 Bft) W-SW 247 0 min 0,000 mm 0,0 UV-I 0 W/m 8,6 C 0,6 C 43,5 km/h (6 Bft) 95,65 %
31.12.2017 03:16 8,9 C 3,3 C 96 % 1010,7 hPa 0,0 l/m 24,1 km/h (4 Bft) W-SW 247 0 min 0,000 mm 0,0 UV-I 0 W/m 8,3 C 0,6 C 35,4 km/h (5 Bft) 100,00 %
31.12.2017 03:17 8,9 C 3,3 C 96 % 1010,7 hPa 0,0 l/m 25,7 km/h (4 Bft) W-SW 247 0 min 0,000 mm 0,0 UV-I 0 W/m 8,3 C 0,2 C 43,5 km/h (6 Bft) 100,00 %
31.12.2017 03:18 9,0 C 3,3 C 96 % 1010,7 hPa 0,0 l/m 24,1 km/h (4 Bft) W-SW 247 0 min 0,000 mm 0,0 UV-I 0 W/m 8,4 C 0,7 C 33,8 km/h (5 Bft) 100,00 %
31.12.2017 03:19 9,0 C 3,3 C 95 % 1010,7 hPa 0,0 l/m 20,9 km/h (4 Bft) W-SW 247 0 min 0,000 mm 0,0 UV-I 0 W/m 8,2 C 1,7 C 29,0 km/h (5 Bft) 100,00 %
31.12.2017 03:20 9,0 C 3,3 C 95 % 1010,8 hPa 0,0 l/m 24,1 km/h (4 Bft) W-SW 247 0 min 0,000 mm 0,0 UV-I 0 W/m 8,2 C 0,7 C 35,4 km/h (5 Bft) 100,00 %
31.12.2017 03:21 9,1 C 3,9 C 95 % 1010,7 hPa 0,0 l/m 25,7 km/h (4 Bft) SW 225 0 min 0,000 mm 0,0 UV-I 0 W/m 8,3 C 0,4 C 32,2 km/h (5 Bft) 95,65 %
31.12.2017 03:22 9,1 C 3,3 C 94 % 1010,8 hPa 0,0 l/m 22,5 km/h (4 Bft) W-SW 247 0 min 0,000 mm 0,0 UV-I 0 W/m 8,2 C 1,3 C 32,2 km/h (5 Bft) 91,30 %
31.12.2017 03:23 9,1 C 3,3 C 94 % 1010,8 hPa 0,0 l/m 20,9 km/h (4 Bft) W-SW 247 0 min 0,000 mm 0,0 UV-I 0 W/m 8,2 C 1,8 C 27,4 km/h (4 Bft) 100,00 %
31.12.2017 03:24 9,1 C 3,3 C 93 % 1010,8 hPa 0,0 l/m 24,1 km/h (4 Bft) W-SW 247 0 min 0,000 mm 0,0 UV-I 0 W/m 8,0 C 0,9 C 30,6 km/h (5 Bft) 100,00 %
31.12.2017 03:25 9,1 C 3,3 C 93 % 1010,8 hPa 0,0 l/m 27,4 km/h (4 Bft) W-SW 247 0 min 0,000 mm 0,0 UV-I 0 W/m 8,0 C -0,0 C 38,6 km/h (5 Bft) 100,00 %
31.12.2017 03:26 9,2 C 3,3 C 93 % 1010,8 hPa 0,0 l/m 22,5 km/h (4 Bft) W-SW 247 0 min 0,000 mm 0,0 UV-I 0 W/m 8,1 C 1,5 C 30,6 km/h (5 Bft) 100,00 %
31.12.2017 03:27 9,2 C 3,3 C 93 % 1010,9 hPa 0,0 l/m 19,3 km/h (3 Bft) W-SW 247 0 min 0,000 mm 0,0 UV-I 0 W/m 8,1 C 2,5 C 27,4 km/h (4 Bft) 95,65 %
31.12.2017 03:28 9,2 C 3,3 C 92 % 1010,9 hPa 0,0 l/m 27,4 km/h (4 Bft) SW 225 0 min 0,000 mm 0,0 UV-I 0 W/m 8,0 C 0,1 C 38,6 km/h (5 Bft) 100,00 %
31.12.2017 03:29 9,2 C 3,3 C 92 % 1010,9 hPa 0,0 l/m 22,5 km/h (4 Bft) W-SW 247 0 min 0,000 mm 0,0 UV-I 0 W/m 8,0 C 1,5 C 27,4 km/h (4 Bft) 91,30 %
31.12.2017 03:30 9,3 C 3,3 C 92 % 1010,8 hPa 0,0 l/m 27,4 km/h (4 Bft) W-SW 247 0 min 0,000 mm 0,0 UV-I 0 W/m 8,1 C 0,3 C 38,6 km/h (5 Bft) 95,65 %
31.12.2017 03:31 9,3 C 3,3 C 91 % 1010,9 hPa 0,0 l/m 19,3 km/h (3 Bft) W-SW 247 0 min 0,000 mm 0,0 UV-I 0 W/m 7,9 C 2,6 C 29,0 km/h (5 Bft) 95,65 %
31.12.2017 03:32 9,3 C 3,3 C 91 % 1010,9 hPa 0,0 l/m 29,0 km/h (5 Bft) W-SW 247 0 min 0,000 mm 0,0 UV-I 0 W/m 7,9 C -0,1 C 38,6 km/h (5 Bft) 95,65 %
31.12.2017 03:33 9,3 C 3,3 C 91 % 1010,9 hPa 0,0 l/m 27,4 km/h (4 Bft) SW 225 0 min 0,000 mm 0,0 UV-I 0 W/m 7,9 C 0,3 C 40,2 km/h (6 Bft) 100,00 %
31.12.2017 03:34 9,3 C 3,3 C 90 % 1011,0 hPa 0,0 l/m 20,9 km/h (4 Bft) W-SW 247 0 min 0,000 mm 0,0 UV-I 0 W/m 7,7 C 2,1 C 29,0 km/h (5 Bft) 95,65 %
31.12.2017 03:35 9,3 C 3,3 C 90 % 1011,0 hPa 0,0 l/m 22,5 km/h (4 Bft) W-SW 247 0 min 0,000 mm 0,0 UV-I 0 W/m 7,7 C 1,6 C 35,4 km/h (5 Bft) 100,00 %
31.12.2017 03:36 9,3 C 3,3 C 90 % 1011,0 hPa 0,0 l/m 29,0 km/h (5 Bft) W-SW 247 0 min 0,000 mm 0,0 UV-I 0 W/m 7,7 C -0,1 C 41,8 km/h (6 Bft) 95,65 %
31.12.2017 03:37 9,3 C 3,3 C 90 % 1011,0 hPa 0,0 l/m 27,4 km/h (4 Bft) W-SW 247 0 min 0,000 mm 0,0 UV-I 0 W/m 7,7 C 0,3 C 37,0 km/h (5 Bft) 100,00 %
31.12.2017 03:38 9,4 C 3,3 C 90 % 1011,0 hPa 0,0 l/m 25,7 km/h (4 Bft) SW 225 0 min 0,000 mm 0,0 UV-I 0 W/m 7,8 C 0,8 C 37,0 km/h (5 Bft) 100,00 %
31.12.2017 03:39 9,4 C 3,3 C 90 % 1010,9 hPa 0,0 l/m 27,4 km/h (4 Bft) W-SW 247 0 min 0,000 mm 0,0 UV-I 0 W/m 7,8 C 0,4 C 37,0 km/h (5 Bft) 100,00 %
31.12.2017 03:40 9,4 C 3,3 C 89 % 1010,9 hPa 0,0 l/m 25,7 km/h (4 Bft) W-SW 247 0 min 0,000 mm 0,0 UV-I 0 W/m 7,7 C 0,8 C 38,6 km/h (5 Bft) 100,00 %
31.12.2017 03:41 9,4 C 3,3 C 89 % 1011,0 hPa 0,0 l/m 25,7 km/h (4 Bft) W-SW 247 0 min 0,000 mm 0,0 UV-I 0 W/m 7,7 C 0,8 C 33,8 km/h (5 Bft) 100,00 %
31.12.2017 03:42 9,5 C 3,3 C 89 % 1011,1 hPa 0,0 l/m 22,5 km/h (4 Bft) W-SW 247 0 min 0,000 mm 0,0 UV-I 0 W/m 7,8 C 1,9 C 32,2 km/h (5 Bft) 100,00 %
31.12.2017 03:43 9,5 C 3,3 C 89 % 1011,1 hPa 0,0 l/m 25,7 km/h (4 Bft) W-SW 247 0 min 0,000 mm 0,0 UV-I 0 W/m 7,8 C 1,0 C 37,0 km/h (5 Bft) 95,65 %
31.12.2017 03:44 9,5 C 3,3 C 89 % 1011,1 hPa 0,0 l/m 22,5 km/h (4 Bft) W-SW 247 0 min 0,000 mm 0,0 UV-I 0 W/m 7,8 C 1,9 C 30,6 km/h (5 Bft) 100,00 %
31.12.2017 03:45 9,5 C 3,3 C 89 % 1011,0 hPa 0,0 l/m 24,1 km/h (4 Bft) SW 225 0 min 0,000 mm 0,0 UV-I 0 W/m 7,8 C 1,4 C 32,2 km/h (5 Bft) 100,00 %
31.12.2017 03:46 9,5 C 3,3 C 89 % 1011,1 hPa 0,0 l/m 20,9 km/h (4 Bft) W-SW 247 0 min 0,000 mm 0,0 UV-I 0 W/m 7,8 C 2,3 C 27,4 km/h (4 Bft) 95,65 %
31.12.2017 03:47 9,5 C 3,3 C 89 % 1011,0 hPa 0,0 l/m 24,1 km/h (4 Bft) W-SW 247 0 min 0,000 mm 0,0 UV-I 0 W/m 7,8 C 1,4 C 37,0 km/h (5 Bft) 100,00 %
31.12.2017 03:48 9,4 C 3,3 C 89 % 1011,1 hPa 0,0 l/m 30,6 km/h (5 Bft) W-SW 247 0 min 0,000 mm 0,0 UV-I 0 W/m 7,7 C -0,3 C 49,9 km/h (6 Bft) 100,00 %
31.12.2017 03:49 9,4 C 3,3 C 89 % 1011,1 hPa 0,0 l/m 29,0 km/h (5 Bft) SW 225 0 min 0,000 mm 0,0 UV-I 0 W/m 7,7 C 0,0 C 40,2 km/h (6 Bft) 100,00 %
31.12.2017 03:50 9,6 C 3,3 C 89 % 1011,1 hPa 0,0 l/m 25,7 km/h (4 Bft) W-SW 247 0 min 0,000 mm 0,0 UV-I 0 W/m 7,9 C 1,1 C 49,9 km/h (6 Bft) 95,65 %
31.12.2017 03:51 9,6 C 3,3 C 88 % 1011,1 hPa 0,0 l/m 20,9 km/h (4 Bft) W-SW 247 0 min 0,000 mm 0,0 UV-I 0 W/m 7,7 C 2,5 C 27,4 km/h (4 Bft) 100,00 %
31.12.2017 03:52 9,6 C 3,3 C 88 % 1011,1 hPa 0,0 l/m 27,4 km/h (4 Bft) W-SW 247 0 min 0,000 mm 0,0 UV-I 0 W/m 7,7 C 0,7 C 40,2 km/h (6 Bft) 95,65 %
31.12.2017 03:53 9,6 C 3,3 C 88 % 1011,2 hPa 0,0 l/m 27,4 km/h (4 Bft) SW 225 0 min 0,000 mm 0,0 UV-I 0 W/m 7,7 C 0,7 C 35,4 km/h (5 Bft) 100,00 %
31.12.2017 03:54 9,6 C 3,3 C 88 % 1011,1 hPa 0,0 l/m 27,4 km/h (4 Bft) W-SW 247 0 min 0,000 mm 0,0 UV-I 0 W/m 7,7 C 0,7 C 41,8 km/h (6 Bft) 95,65 %
31.12.2017 03:55 9,6 C 3,3 C 88 % 1011,2 hPa 0,0 l/m 29,0 km/h (5 Bft) W-SW 247 0 min 0,000 mm 0,0 UV-I 0 W/m 7,7 C 0,3 C 43,5 km/h (6 Bft) 95,65 %
31.12.2017 03:56 9,6 C 3,3 C 88 % 1011,2 hPa 0,0 l/m 27,4 km/h (4 Bft) W-SW 247 0 min 0,000 mm 0,0 UV-I 0 W/m 7,7 C 0,7 C 38,6 km/h (5 Bft) 95,65 %
31.12.2017 03:57 9,6 C 3,3 C 88 % 1011,2 hPa 0,0 l/m 22,5 km/h (4 Bft) W-SW 247 0 min 0,000 mm 0,0 UV-I 0 W/m 7,7 C 2,0 C 38,6 km/h (5 Bft) 95,65 %
31.12.2017 03:58 9,6 C 3,3 C 88 % 1011,2 hPa 0,0 l/m 22,5 km/h (4 Bft) W-SW 247 0 min 0,000 mm 0,0 UV-I 0 W/m 7,7 C 2,0 C 29,0 km/h (5 Bft) 95,65 %
31.12.2017 03:59 9,6 C 3,3 C 88 % 1011,2 hPa 0,0 l/m 24,1 km/h (4 Bft) SW 225 0 min 0,000 mm 0,0 UV-I 0 W/m 7,7 C 1,5 C 33,8 km/h (5 Bft) 100,00 %
31.12.2017 04:00 9,6 C 3,3 C 88 % 1011,3 hPa 0,0 l/m 20,9 km/h (4 Bft) W-SW 247 0 min 0,025 mm 0,0 UV-I 0 W/m 7,7 C 2,5 C 35,4 km/h (5 Bft) 91,30 %
31.12.2017 04:01 9,6 C 3,3 C 88 % 1011,3 hPa 0,0 l/m 27,4 km/h (4 Bft) SW 225 0 min 0,000 mm 0,0 UV-I 0 W/m 7,7 C 0,7 C 40,2 km/h (6 Bft) 100,00 %
31.12.2017 04:02 9,6 C 3,9 C 88 % 1011,4 hPa 0,0 l/m 25,7 km/h (4 Bft) W-SW 247 0 min 0,000 mm 0,0 UV-I 0 W/m 7,7 C 1,1 C 37,0 km/h (5 Bft) 91,30 %
31.12.2017 04:03 9,6 C 3,9 C 88 % 1011,4 hPa 0,0 l/m 20,9 km/h (4 Bft) W-SW 247 0 min 0,000 mm 0,0 UV-I 0 W/m 7,7 C 2,5 C 30,6 km/h (5 Bft) 100,00 %
31.12.2017 04:04 9,6 C 3,3 C 88 % 1011,4 hPa 0,0 l/m 20,9 km/h (4 Bft) W 270 0 min 0,000 mm 0,0 UV-I 0 W/m 7,7 C 2,5 C 27,4 km/h (4 Bft) 86,96 %
31.12.2017 04:05 9,6 C 3,3 C 89 % 1011,4 hPa 0,0 l/m 19,3 km/h (3 Bft) W-SW 247 0 min 0,000 mm 0,0 UV-I 0 W/m 7,9 C 3,0 C 29,0 km/h (5 Bft) 95,65 %
31.12.2017 04:06 9,5 C 3,3 C 89 % 1011,5 hPa 0,0 l/m 22,5 km/h (4 Bft) W-SW 247 0 min 0,000 mm 0,0 UV-I 0 W/m 7,8 C 1,9 C 29,0 km/h (5 Bft) 95,65 %
31.12.2017 04:07 9,4 C 3,3 C 89 % 1011,5 hPa 0,0 l/m 16,1 km/h (3 Bft) W-SW 247 0 min 0,000 mm 0,0 UV-I 0 W/m 7,7 C 3,9 C 24,1 km/h (4 Bft) 95,65 %
31.12.2017 04:08 9,4 C 3,3 C 89 % 1011,6 hPa 0,0 l/m 22,5 km/h (4 Bft) W-SW 247 0 min 0,000 mm 0,0 UV-I 0 W/m 7,7 C 1,7 C 38,6 km/h (5 Bft) 95,65 %
31.12.2017 04:09 9,4 C 3,3 C 89 % 1011,6 hPa 0,0 l/m 24,1 km/h (4 Bft) W-SW 247 0 min 0,000 mm 0,0 UV-I 0 W/m 7,7 C 1,3 C 32,2 km/h (5 Bft) 91,30 %
31.12.2017 04:10 9,4 C 3,3 C 89 % 1011,6 hPa 0,0 l/m 25,7 km/h (4 Bft) W-SW 247 0 min 0,000 mm 0,0 UV-I 0 W/m 7,7 C 0,8 C 32,2 km/h (5 Bft) 95,65 %
31.12.2017 04:11 9,4 C 3,3 C 89 % 1011,6 hPa 0,0 l/m 25,7 km/h (4 Bft) W-SW 247 0 min 0,000 mm 0,0 UV-I 0 W/m 7,7 C 0,8 C 33,8 km/h (5 Bft) 86,96 %
31.12.2017 04:12 9,4 C 3,3 C 89 % 1011,7 hPa 0,0 l/m 19,3 km/h (3 Bft) W-SW 247 0 min 0,000 mm 0,0 UV-I 0 W/m 7,7 C 2,7 C 25,7 km/h (4 Bft) 95,65 %
31.12.2017 04:13 9,4 C 3,3 C 90 % 1011,7 hPa 0,0 l/m 17,7 km/h (3 Bft) W-SW 247 0 min 0,000 mm 0,0 UV-I 0 W/m 7,8 C 3,3 C 25,7 km/h (4 Bft) 91,30 %
31.12.2017 04:14 9,3 C 3,3 C 90 % 1011,7 hPa 0,0 l/m 19,3 km/h (3 Bft) W-SW 247 0 min 0,000 mm 0,0 UV-I 0 W/m 7,7 C 2,6 C 27,4 km/h (4 Bft) 100,00 %
31.12.2017 04:15 9,3 C 3,3 C 90 % 1011,7 hPa 0,0 l/m 16,1 km/h (3 Bft) W-SW 247 0 min 0,000 mm 0,0 UV-I 0 W/m 7,7 C 3,8 C 24,1 km/h (4 Bft) 91,30 %
31.12.2017 04:16 9,3 C 3,3 C 90 % 1011,7 hPa 0,0 l/m 25,7 km/h (4 Bft) W-SW 247 0 min 0,000 mm 0,0 UV-I 0 W/m 7,7 C 0,7 C 35,4 km/h (5 Bft) 95,65 %
31.12.2017 04:17 9,3 C 3,3 C 90 % 1011,7 hPa 0,0 l/m 20,9 km/h (4 Bft) W-SW 247 0 min 0,000 mm 0,0 UV-I 0 W/m 7,7 C 2,1 C 33,8 km/h (5 Bft) 95,65 %
31.12.2017 04:18 9,3 C 3,3 C 90 % 1011,7 hPa 0,0 l/m 20,9 km/h (4 Bft) W-SW 247 0 min 0,000 mm 0,0 UV-I 0 W/m 7,7 C 2,1 C 25,7 km/h (4 Bft) 91,30 %
31.12.2017 04:19 9,3 C 3,3 C 90 % 1011,8 hPa 0,0 l/m 22,5 km/h (4 Bft) W-SW 247 0 min 0,000 mm 0,0 UV-I 0 W/m 7,7 C 1,6 C 30,6 km/h (5 Bft) 100,00 %
31.12.2017 04:20 9,3 C 3,3 C 90 % 1011,7 hPa 0,0 l/m 19,3 km/h (3 Bft) W-SW 247 0 min 0,000 mm 0,0 UV-I 0 W/m 7,7 C 2,6 C 32,2 km/h (5 Bft) 95,65 %
31.12.2017 04:21 9,3 C 3,3 C 90 % 1011,7 hPa 0,0 l/m 20,9 km/h (4 Bft) W-SW 247 0 min 0,000 mm 0,0 UV-I 0 W/m 7,7 C 2,1 C 25,7 km/h (4 Bft) 100,00 %
31.12.2017 04:22 9,3 C 3,3 C 90 % 1011,7 hPa 0,0 l/m 22,5 km/h (4 Bft) W-SW 247 0 min 0,000 mm 0,0 UV-I 0 W/m 7,7 C 1,6 C 35,4 km/h (5 Bft) 95,65 %
31.12.2017 04:23 9,3 C 3,3 C 90 % 1011,8 hPa 0,0 l/m 24,1 km/h (4 Bft) W 270 0 min 0,000 mm 0,0 UV-I 0 W/m 7,7 C 1,1 C 32,2 km/h (5 Bft) 100,00 %
31.12.2017 04:24 9,3 C 3,3 C 90 % 1011,8 hPa 0,0 l/m 19,3 km/h (3 Bft) W-SW 247 0 min 0,000 mm 0,0 UV-I 0 W/m 7,7 C 2,6 C 29,0 km/h (5 Bft) 95,65 %
31.12.2017 04:25 9,3 C 3,3 C 90 % 1011,8 hPa 0,0 l/m 17,7 km/h (3 Bft) W-SW 247 0 min 0,000 mm 0,0 UV-I 0 W/m 7,7 C 3,2 C 22,5 km/h (4 Bft) 91,30 %
31.12.2017 04:26 9,3 C 3,3 C 90 % 1011,8 hPa 0,0 l/m 19,3 km/h (3 Bft) W-SW 247 0 min 0,000 mm 0,0 UV-I 0 W/m 7,7 C 2,6 C 27,4 km/h (4 Bft) 100,00 %
31.12.2017 04:27 9,3 C 3,3 C 90 % 1011,8 hPa 0,0 l/m 19,3 km/h (3 Bft) W-SW 247 0 min 0,000 mm 0,0 UV-I 0 W/m 7,7 C 2,6 C 22,5 km/h (4 Bft) 95,65 %
31.12.2017 04:28 9,3 C 3,3 C 90 % 1011,8 hPa 0,0 l/m 22,5 km/h (4 Bft) W-SW 247 0 min 0,000 mm 0,0 UV-I 0 W/m 7,7 C 1,6 C 29,0 km/h (5 Bft) 100,00 %
31.12.2017 04:29 9,3 C 3,3 C 90 % 1011,8 hPa 0,0 l/m 20,9 km/h (4 Bft) W-SW 247 0 min 0,000 mm 0,0 UV-I 0 W/m 7,7 C 2,1 C 29,0 km/h (5 Bft) 95,65 %
31.12.2017 04:30 9,3 C 3,3 C 90 % 1011,8 hPa 0,0 l/m 22,5 km/h (4 Bft) W-SW 247 0 min 0,000 mm 0,0 UV-I 0 W/m 7,7 C 1,6 C 30,6 km/h (5 Bft) 100,00 %
31.12.2017 04:31 9,3 C 3,3 C 90 % 1011,9 hPa 0,0 l/m 22,5 km/h (4 Bft) W-SW 247 0 min 0,000 mm 0,0 UV-I 0 W/m 7,7 C 1,6 C 29,0 km/h (5 Bft) 95,65 %
31.12.2017 04:32 9,3 C 3,3 C 90 % 1011,8 hPa 0,0 l/m 20,9 km/h (4 Bft) W-SW 247 0 min 0,000 mm 0,0 UV-I 0 W/m 7,7 C 2,1 C 27,4 km/h (4 Bft) 95,65 %
31.12.2017 04:33 9,3 C 3,3 C 89 % 1011,9 hPa 0,0 l/m 16,1 km/h (3 Bft) W-SW 247 0 min 0,000 mm 0,0 UV-I 0 W/m 7,6 C 3,8 C 22,5 km/h (4 Bft) 86,96 %
31.12.2017 04:34 9,3 C 3,3 C 90 % 1011,9 hPa 0,0 l/m 16,1 km/h (3 Bft) SW 225 0 min 0,000 mm 0,0 UV-I 0 W/m 7,7 C 3,8 C 27,4 km/h (4 Bft) 95,65 %
31.12.2017 04:35 9,3 C 3,3 C 90 % 1011,9 hPa 0,2 l/m 19,3 km/h (3 Bft) W-SW 247 0 min 0,000 mm 0,0 UV-I 0 W/m 7,7 C 2,6 C 24,1 km/h (4 Bft) 100,00 %
31.12.2017 04:36 9,3 C 3,3 C 90 % 1011,9 hPa 0,0 l/m 19,3 km/h (3 Bft) W-SW 247 0 min 0,000 mm 0,0 UV-I 0 W/m 7,7 C 2,6 C 24,1 km/h (4 Bft) 91,30 %
31.12.2017 04:37 9,3 C 3,3 C 90 % 1012,0 hPa 0,0 l/m 19,3 km/h (3 Bft) W-SW 247 0 min 0,000 mm 0,0 UV-I 0 W/m 7,7 C 2,6 C 25,7 km/h (4 Bft) 95,65 %
31.12.2017 04:38 9,2 C 3,3 C 90 % 1012,0 hPa 0,0 l/m 20,9 km/h (4 Bft) W-SW 247 0 min 0,000 mm 0,0 UV-I 0 W/m 7,6 C 2,0 C 29,0 km/h (5 Bft) 100,00 %
31.12.2017 04:39 9,2 C 3,3 C 90 % 1012,0 hPa 0,0 l/m 24,1 km/h (4 Bft) W-SW 247 0 min 0,000 mm 0,0 UV-I 0 W/m 7,6 C 1,0 C 33,8 km/h (5 Bft) 95,65 %
31.12.2017 04:40 9,2 C 3,3 C 90 % 1012,0 hPa 0,0 l/m 22,5 km/h (4 Bft) SW 225 0 min 0,000 mm 0,0 UV-I 0 W/m 7,6 C 1,5 C 33,8 km/h (5 Bft) 100,00 %
31.12.2017 04:41 9,2 C 3,3 C 90 % 1012,0 hPa 0,0 l/m 19,3 km/h (3 Bft) W-SW 247 0 min 0,000 mm 0,0 UV-I 0 W/m 7,6 C 2,5 C 25,7 km/h (4 Bft) 100,00 %
31.12.2017 04:42 9,2 C 3,3 C 90 % 1012,0 hPa 0,0 l/m 19,3 km/h (3 Bft) SW 225 0 min 0,000 mm 0,0 UV-I 0 W/m 7,6 C 2,5 C 29,0 km/h (5 Bft) 95,65 %
31.12.2017 04:43 9,2 C 3,3 C 90 % 1012,0 hPa 0,0 l/m 17,7 km/h (3 Bft) W-SW 247 0 min 0,000 mm 0,0 UV-I 0 W/m 7,6 C 3,1 C 22,5 km/h (4 Bft) 100,00 %
31.12.2017 04:44 9,2 C 3,3 C 90 % 1012,0 hPa 0,0 l/m 19,3 km/h (3 Bft) W-SW 247 0 min 0,000 mm 0,0 UV-I 0 W/m 7,6 C 2,5 C 29,0 km/h (5 Bft) 100,00 %
31.12.2017 04:45 9,2 C 3,3 C 90 % 1012,0 hPa 0,0 l/m 19,3 km/h (3 Bft) W-SW 247 0 min 0,000 mm 0,0 UV-I 0 W/m 7,6 C 2,5 C 24,1 km/h (4 Bft) 95,65 %
31.12.2017 04:46 9,2 C 3,3 C 90 % 1011,9 hPa 0,2 l/m 19,3 km/h (3 Bft) W-SW 247 0 min 0,000 mm 0,0 UV-I 0 W/m 7,6 C 2,5 C 27,4 km/h (4 Bft) 95,65 %
31.12.2017 04:47 9,2 C 3,3 C 90 % 1012,0 hPa 0,0 l/m 24,1 km/h (4 Bft) W-SW 247 0 min 0,000 mm 0,0 UV-I 0 W/m 7,6 C 1,0 C 35,4 km/h (5 Bft) 95,65 %
31.12.2017 04:48 9,2 C 3,3 C 90 % 1012,0 hPa 0,0 l/m 22,5 km/h (4 Bft) W 270 0 min 0,000 mm 0,0 UV-I 0 W/m 7,6 C 1,5 C 35,4 km/h (5 Bft) 95,65 %
31.12.2017 04:49 9,3 C 3,3 C 90 % 1011,9 hPa 0,0 l/m 19,3 km/h (3 Bft) W-SW 247 0 min 0,000 mm 0,0 UV-I 0 W/m 7,7 C 2,6 C 24,1 km/h (4 Bft) 100,00 %
31.12.2017 04:50 9,3 C 3,3 C 90 % 1012,0 hPa 0,0 l/m 16,1 km/h (3 Bft) W-SW 247 0 min 0,000 mm 0,0 UV-I 0 W/m 7,7 C 3,8 C 24,1 km/h (4 Bft) 100,00 %
31.12.2017 04:51 9,3 C 3,3 C 90 % 1012,0 hPa 0,0 l/m 19,3 km/h (3 Bft) W-SW 247 0 min 0,000 mm 0,0 UV-I 0 W/m 7,7 C 2,6 C 27,4 km/h (4 Bft) 100,00 %
31.12.2017 04:52 9,3 C 3,3 C 90 % 1011,9 hPa 0,0 l/m 17,7 km/h (3 Bft) W 270 0 min 0,000 mm 0,0 UV-I 0 W/m 7,7 C 3,2 C 25,7 km/h (4 Bft) 100,00 %
31.12.2017 04:53 9,3 C 3,3 C 90 % 1012,0 hPa 0,0 l/m 19,3 km/h (3 Bft) W-SW 247 0 min 0,000 mm 0,0 UV-I 0 W/m 7,7 C 2,6 C 22,5 km/h (4 Bft) 95,65 %
31.12.2017 04:54 9,3 C 3,3 C 90 % 1012,0 hPa 0,0 l/m 17,7 km/h (3 Bft) W-SW 247 0 min 0,000 mm 0,0 UV-I 0 W/m 7,7 C 3,2 C 22,5 km/h (4 Bft) 95,65 %
31.12.2017 04:55 9,3 C 3,3 C 90 % 1011,9 hPa 0,2 l/m 16,1 km/h (3 Bft) W-SW 247 0 min 0,000 mm 0,0 UV-I 0 W/m 7,7 C 3,8 C 24,1 km/h (4 Bft) 100,00 %
31.12.2017 04:56 9,3 C 3,3 C 90 % 1011,9 hPa 0,0 l/m 14,5 km/h (3 Bft) W-SW 247 0 min 0,000 mm 0,0 UV-I 0 W/m 7,7 C 4,5 C 22,5 km/h (4 Bft) 100,00 %
31.12.2017 04:57 9,2 C 3,3 C 90 % 1011,9 hPa 0,0 l/m 17,7 km/h (3 Bft) W-SW 247 0 min 0,000 mm 0,0 UV-I 0 W/m 7,6 C 3,1 C 24,1 km/h (4 Bft) 95,65 %
31.12.2017 04:58 9,2 C 3,3 C 90 % 1011,9 hPa 0,0 l/m 17,7 km/h (3 Bft) W-SW 247 0 min 0,000 mm 0,0 UV-I 0 W/m 7,6 C 3,1 C 22,5 km/h (4 Bft) 95,65 %
31.12.2017 04:59 9,2 C 3,3 C 90 % 1011,9 hPa 0,0 l/m 14,5 km/h (3 Bft) W-SW 247 0 min 0,000 mm 0,0 UV-I 0 W/m 7,6 C 4,4 C 19,3 km/h (3 Bft) 100,00 %
31.12.2017 05:00 9,2 C 3,3 C 90 % 1011,9 hPa 0,0 l/m 17,7 km/h (3 Bft) W-SW 247 0 min 0,025 mm 0,0 UV-I 0 W/m 7,6 C 3,1 C 24,1 km/h (4 Bft) 100,00 %
31.12.2017 05:01 9,2 C 3,3 C 90 % 1012,0 hPa 0,0 l/m 19,3 km/h (3 Bft) W-SW 247 0 min 0,000 mm 0,0 UV-I 0 W/m 7,6 C 2,5 C 27,4 km/h (4 Bft) 95,65 %
31.12.2017 05:02 9,2 C 3,3 C 90 % 1012,0 hPa 0,0 l/m 19,3 km/h (3 Bft) W-SW 247 0 min 0,000 mm 0,0 UV-I 0 W/m 7,6 C 2,5 C 30,6 km/h (5 Bft) 100,00 %
31.12.2017 05:03 9,2 C 3,3 C 90 % 1012,0 hPa 0,0 l/m 20,9 km/h (4 Bft) W-SW 247 0 min 0,000 mm 0,0 UV-I 0 W/m 7,6 C 2,0 C 24,1 km/h (4 Bft) 100,00 %
31.12.2017 05:04 9,2 C 3,3 C 90 % 1012,0 hPa 0,0 l/m 16,1 km/h (3 Bft) W-SW 247 0 min 0,000 mm 0,0 UV-I 0 W/m 7,6 C 3,7 C 20,9 km/h (4 Bft) 95,65 %
31.12.2017 05:05 9,2 C 3,3 C 90 % 1012,0 hPa 0,0 l/m 14,5 km/h (3 Bft) SW 225 0 min 0,000 mm 0,0 UV-I 0 W/m 7,6 C 4,4 C 17,7 km/h (3 Bft) 95,65 %
31.12.2017 05:06 9,2 C 3,3 C 90 % 1012,0 hPa 0,0 l/m 14,5 km/h (3 Bft) W-SW 247 0 min 0,000 mm 0,0 UV-I 0 W/m 7,6 C 4,4 C 20,9 km/h (4 Bft) 100,00 %
31.12.2017 05:07 9,2 C 3,3 C 89 % 1012,0 hPa 0,0 l/m 17,7 km/h (3 Bft) W-SW 247 0 min 0,000 mm 0,0 UV-I 0 W/m 7,5 C 3,1 C 22,5 km/h (4 Bft) 95,65 %
31.12.2017 05:08 9,2 C 3,3 C 89 % 1012,0 hPa 0,0 l/m 17,7 km/h (3 Bft) W-SW 247 0 min 0,000 mm 0,0 UV-I 0 W/m 7,5 C 3,1 C 25,7 km/h (4 Bft) 95,65 %
31.12.2017 05:09 9,2 C 3,3 C 89 % 1012,0 hPa 0,0 l/m 16,1 km/h (3 Bft) W-SW 247 0 min 0,000 mm 0,0 UV-I 0 W/m 7,5 C 3,7 C 19,3 km/h (3 Bft) 100,00 %
31.12.2017 05:10 9,2 C 3,3 C 89 % 1012,0 hPa 0,0 l/m 14,5 km/h (3 Bft) SW 225 0 min 0,000 mm 0,0 UV-I 0 W/m 7,5 C 4,4 C 22,5 km/h (4 Bft) 100,00 %
31.12.2017 05:11 9,2 C 3,3 C 89 % 1012,0 hPa 0,0 l/m 19,3 km/h (3 Bft) W-SW 247 0 min 0,000 mm 0,0 UV-I 0 W/m 7,5 C 2,5 C 25,7 km/h (4 Bft) 100,00 %
31.12.2017 05:12 9,2 C 3,3 C 89 % 1012,0 hPa 0,0 l/m 17,7 km/h (3 Bft) SW 225 0 min 0,000 mm 0,0 UV-I 0 W/m 7,5 C 3,1 C 24,1 km/h (4 Bft) 95,65 %
31.12.2017 05:13 9,3 C 3,3 C 88 % 1011,9 hPa 0,0 l/m 19,3 km/h (3 Bft) SW 225 0 min 0,000 mm 0,0 UV-I 0 W/m 7,4 C 2,6 C 24,1 km/h (4 Bft) 100,00 %
31.12.2017 05:14 9,3 C 3,3 C 88 % 1012,0 hPa 0,0 l/m 20,9 km/h (4 Bft) W-SW 247 0 min 0,000 mm 0,0 UV-I 0 W/m 7,4 C 2,1 C 29,0 km/h (5 Bft) 100,00 %
31.12.2017 05:15 9,4 C 3,3 C 87 % 1012,0 hPa 0,0 l/m 16,1 km/h (3 Bft) SW 225 0 min 0,000 mm 0,0 UV-I 0 W/m 7,3 C 3,9 C 22,5 km/h (4 Bft) 95,65 %
31.12.2017 05:16 9,4 C 3,3 C 87 % 1012,0 hPa 0,0 l/m 14,5 km/h (3 Bft) SW 225 0 min 0,000 mm 0,0 UV-I 0 W/m 7,3 C 4,6 C 19,3 km/h (3 Bft) 100,00 %
31.12.2017 05:17 9,4 C 3,3 C 87 % 1012,1 hPa 0,0 l/m 17,7 km/h (3 Bft) SW 225 0 min 0,000 mm 0,0 UV-I 0 W/m 7,3 C 3,3 C 22,5 km/h (4 Bft) 100,00 %
31.12.2017 05:18 9,5 C 3,3 C 87 % 1012,0 hPa 0,0 l/m 17,7 km/h (3 Bft) SW 225 0 min 0,000 mm 0,0 UV-I 0 W/m 7,4 C 3,4 C 25,7 km/h (4 Bft) 100,00 %
31.12.2017 05:19 9,5 C 3,3 C 86 % 1012,1 hPa 0,0 l/m 16,1 km/h (3 Bft) SW 225 0 min 0,000 mm 0,0 UV-I 0 W/m 7,3 C 4,1 C 20,9 km/h (4 Bft) 95,65 %
31.12.2017 05:20 9,5 C 3,3 C 86 % 1012,0 hPa 0,0 l/m 17,7 km/h (3 Bft) SW 225 0 min 0,000 mm 0,0 UV-I 0 W/m 7,3 C 3,4 C 22,5 km/h (4 Bft) 100,00 %
31.12.2017 05:21 9,5 C 3,3 C 86 % 1012,1 hPa 0,0 l/m 17,7 km/h (3 Bft) SW 225 0 min 0,000 mm 0,0 UV-I 0 W/m 7,3 C 3,4 C 24,1 km/h (4 Bft) 100,00 %
31.12.2017 05:22 9,5 C 3,3 C 86 % 1012,1 hPa 0,0 l/m 19,3 km/h (3 Bft) SW 225 0 min 0,000 mm 0,0 UV-I 0 W/m 7,3 C 2,9 C 27,4 km/h (4 Bft) 95,65 %
31.12.2017 05:23 9,6 C 3,3 C 86 % 1012,1 hPa 0,0 l/m 24,1 km/h (4 Bft) SW 225 0 min 0,000 mm 0,0 UV-I 0 W/m 7,4 C 1,5 C 29,0 km/h (5 Bft) 95,65 %
31.12.2017 05:24 9,6 C 3,3 C 85 % 1012,0 hPa 0,0 l/m 20,9 km/h (4 Bft) SW 225 0 min 0,000 mm 0,0 UV-I 0 W/m 7,2 C 2,5 C 27,4 km/h (4 Bft) 91,30 %
31.12.2017 05:25 9,6 C 3,3 C 85 % 1012,0 hPa 0,0 l/m 17,7 km/h (3 Bft) SW 225 0 min 0,000 mm 0,0 UV-I 0 W/m 7,2 C 3,6 C 25,7 km/h (4 Bft) 100,00 %
31.12.2017 05:26 9,6 C 3,3 C 85 % 1012,0 hPa 0,0 l/m 17,7 km/h (3 Bft) W-SW 247 0 min 0,000 mm 0,0 UV-I 0 W/m 7,2 C 3,6 C 27,4 km/h (4 Bft) 95,65 %
31.12.2017 05:27 9,6 C 3,3 C 85 % 1012,1 hPa 0,0 l/m 17,7 km/h (3 Bft) W-SW 247 0 min 0,000 mm 0,0 UV-I 0 W/m 7,2 C 3,6 C 30,6 km/h (5 Bft) 100,00 %
31.12.2017 05:28 9,5 C 3,3 C 85 % 1012,1 hPa 0,0 l/m 17,7 km/h (3 Bft) SW 225 0 min 0,000 mm 0,0 UV-I 0 W/m 7,1 C 3,4 C 22,5 km/h (4 Bft) 95,65 %
31.12.2017 05:29 9,5 C 3,3 C 85 % 1012,1 hPa 0,0 l/m 14,5 km/h (3 Bft) SW 225 0 min 0,000 mm 0,0 UV-I 0 W/m 7,1 C 4,7 C 20,9 km/h (4 Bft) 95,65 %
31.12.2017 05:30 9,6 C 3,3 C 85 % 1012,1 hPa 0,0 l/m 19,3 km/h (3 Bft) SW 225 0 min 0,000 mm 0,0 UV-I 0 W/m 7,2 C 3,0 C 24,1 km/h (4 Bft) 95,65 %
31.12.2017 05:31 9,6 C 3,3 C 85 % 1012,1 hPa 0,0 l/m 17,7 km/h (3 Bft) SW 225 0 min 0,000 mm 0,0 UV-I 0 W/m 7,2 C 3,6 C 27,4 km/h (4 Bft) 95,65 %
31.12.2017 05:32 9,6 C 3,3 C 85 % 1012,1 hPa 0,0 l/m 16,1 km/h (3 Bft) W-SW 247 0 min 0,000 mm 0,0 UV-I 0 W/m 7,2 C 4,2 C 22,5 km/h (4 Bft) 95,65 %
31.12.2017 05:33 9,6 C 3,3 C 85 % 1012,1 hPa 0,0 l/m 20,9 km/h (4 Bft) W-SW 247 0 min 0,000 mm 0,0 UV-I 0 W/m 7,2 C 2,5 C 29,0 km/h (5 Bft) 100,00 %
31.12.2017 05:34 9,6 C 3,3 C 85 % 1012,1 hPa 0,0 l/m 19,3 km/h (3 Bft) SW 225 0 min 0,000 mm 0,0 UV-I 0 W/m 7,2 C 3,0 C 25,7 km/h (4 Bft) 95,65 %
31.12.2017 05:35 9,6 C 3,3 C 85 % 1012,1 hPa 0,0 l/m 17,7 km/h (3 Bft) SW 225 0 min 0,000 mm 0,0 UV-I 0 W/m 7,2 C 3,6 C 22,5 km/h (4 Bft) 100,00 %
31.12.2017 05:36 9,6 C 3,3 C 85 % 1012,2 hPa 0,0 l/m 17,7 km/h (3 Bft) SW 225 0 min 0,000 mm 0,0 UV-I 0 W/m 7,2 C 3,6 C 22,5 km/h (4 Bft) 91,30 %
31.12.2017 05:37 9,6 C 3,3 C 85 % 1012,2 hPa 0,0 l/m 19,3 km/h (3 Bft) SW 225 0 min 0,000 mm 0,0 UV-I 0 W/m 7,2 C 3,0 C 24,1 km/h (4 Bft) 100,00 %
31.12.2017 05:38 9,6 C 3,3 C 84 % 1012,2 hPa 0,0 l/m 17,7 km/h (3 Bft) SW 225 0 min 0,000 mm 0,0 UV-I 0 W/m 7,0 C 3,6 C 27,4 km/h (4 Bft) 95,65 %
31.12.2017 05:39 9,6 C 3,3 C 84 % 1012,2 hPa 0,0 l/m 20,9 km/h (4 Bft) SW 225 0 min 0,000 mm 0,0 UV-I 0 W/m 7,0 C 2,5 C 35,4 km/h (5 Bft) 100,00 %
31.12.2017 05:40 9,7 C 3,3 C 84 % 1012,2 hPa 0,0 l/m 16,1 km/h (3 Bft) W-SW 247 0 min 0,000 mm 0,0 UV-I 0 W/m 7,1 C 4,3 C 20,9 km/h (4 Bft) 95,65 %
31.12.2017 05:41 9,6 C 3,3 C 84 % 1012,2 hPa 0,0 l/m 19,3 km/h (3 Bft) W-SW 247 0 min 0,000 mm 0,0 UV-I 0 W/m 7,0 C 3,0 C 24,1 km/h (4 Bft) 95,65 %
31.12.2017 05:42 9,6 C 3,3 C 84 % 1012,2 hPa 0,0 l/m 19,3 km/h (3 Bft) SW 225 0 min 0,000 mm 0,0 UV-I 0 W/m 7,0 C 3,0 C 32,2 km/h (5 Bft) 95,65 %
31.12.2017 05:43 9,7 C 3,3 C 84 % 1012,2 hPa 0,0 l/m 22,5 km/h (4 Bft) W-SW 247 0 min 0,000 mm 0,0 UV-I 0 W/m 7,1 C 2,1 C 27,4 km/h (4 Bft) 91,30 %
31.12.2017 05:44 9,7 C 3,3 C 84 % 1012,2 hPa 0,0 l/m 22,5 km/h (4 Bft) SW 225 0 min 0,000 mm 0,0 UV-I 0 W/m 7,1 C 2,1 C 32,2 km/h (5 Bft) 100,00 %
31.12.2017 05:45 9,7 C 3,3 C 84 % 1012,2 hPa 0,0 l/m 20,9 km/h (4 Bft) SW 225 0 min 0,000 mm 0,0 UV-I 0 W/m 7,1 C 2,6 C 29,0 km/h (5 Bft) 91,30 %
31.12.2017 05:46 9,8 C 3,3 C 83 % 1012,2 hPa 0,0 l/m 22,5 km/h (4 Bft) SW 225 0 min 0,000 mm 0,0 UV-I 0 W/m 7,1 C 2,3 C 29,0 km/h (5 Bft) 100,00 %
31.12.2017 05:47 9,8 C 3,3 C 83 % 1012,2 hPa 0,0 l/m 17,7 km/h (3 Bft) SW 225 0 min 0,000 mm 0,0 UV-I 0 W/m 7,1 C 3,8 C 22,5 km/h (4 Bft) 95,65 %
31.12.2017 05:48 9,8 C 3,3 C 83 % 1012,2 hPa 0,0 l/m 16,1 km/h (3 Bft) SW 225 0 min 0,000 mm 0,0 UV-I 0 W/m 7,1 C 4,4 C 25,7 km/h (4 Bft) 100,00 %
31.12.2017 05:49 9,8 C 3,3 C 83 % 1012,2 hPa 0,0 l/m 17,7 km/h (3 Bft) SW 225 0 min 0,000 mm 0,0 UV-I 0 W/m 7,1 C 3,8 C 25,7 km/h (4 Bft) 100,00 %
31.12.2017 05:50 9,8 C 3,3 C 83 % 1012,3 hPa 0,0 l/m 22,5 km/h (4 Bft) SW 225 0 min 0,000 mm 0,0 UV-I 0 W/m 7,1 C 2,3 C 32,2 km/h (5 Bft) 95,65 %
31.12.2017 05:51 9,8 C 3,3 C 83 % 1012,3 hPa 0,0 l/m 22,5 km/h (4 Bft) SW 225 0 min 0,000 mm 0,0 UV-I 0 W/m 7,1 C 2,3 C 30,6 km/h (5 Bft) 100,00 %
31.12.2017 05:52 9,8 C 3,3 C 83 % 1012,3 hPa 0,0 l/m 22,5 km/h (4 Bft) SW 225 0 min 0,000 mm 0,0 UV-I 0 W/m 7,1 C 2,3 C 30,6 km/h (5 Bft) 100,00 %
31.12.2017 05:53 9,9 C 3,3 C 83 % 1012,3 hPa 0,0 l/m 20,9 km/h (4 Bft) W-SW 247 0 min 0,000 mm 0,0 UV-I 0 W/m 7,2 C 2,9 C 27,4 km/h (4 Bft) 100,00 %
31.12.2017 05:54 9,9 C 3,3 C 82 % 1012,3 hPa 0,0 l/m 17,7 km/h (3 Bft) SW 225 0 min 0,000 mm 0,0 UV-I 0 W/m 7,0 C 4,0 C 24,1 km/h (4 Bft) 95,65 %
31.12.2017 05:55 9,9 C 3,3 C 82 % 1012,2 hPa 0,0 l/m 19,3 km/h (3 Bft) SW 225 0 min 0,000 mm 0,0 UV-I 0 W/m 7,0 C 3,4 C 29,0 km/h (5 Bft) 95,65 %
31.12.2017 05:56 9,9 C 3,3 C 82 % 1012,3 hPa 0,0 l/m 19,3 km/h (3 Bft) W-SW 247 0 min 0,000 mm 0,0 UV-I 0 W/m 7,0 C 3,4 C 27,4 km/h (4 Bft) 100,00 %
31.12.2017 05:57 9,9 C 3,3 C 82 % 1012,3 hPa 0,0 l/m 16,1 km/h (3 Bft) SW 225 0 min 0,000 mm 0,0 UV-I 0 W/m 7,0 C 4,6 C 24,1 km/h (4 Bft) 95,65 %
31.12.2017 05:58 9,9 C 3,3 C 82 % 1012,3 hPa 0,0 l/m 19,3 km/h (3 Bft) W-SW 247 0 min 0,000 mm 0,0 UV-I 0 W/m 7,0 C 3,4 C 27,4 km/h (4 Bft) 100,00 %
31.12.2017 05:59 10,0 C 3,3 C 81 % 1012,3 hPa 0,0 l/m 19,3 km/h (3 Bft) SW 225 0 min 0,000 mm 0,0 UV-I 0 W/m 6,9 C 3,5 C 24,1 km/h (4 Bft) 100,00 %
31.12.2017 06:00 10,0 C 3,3 C 81 % 1012,4 hPa 0,0 l/m 19,3 km/h (3 Bft) SW 225 0 min 0,025 mm 0,0 UV-I 0 W/m 6,9 C 3,5 C 32,2 km/h (5 Bft) 95,65 %
31.12.2017 06:01 10,0 C 3,3 C 81 % 1012,4 hPa 0,0 l/m 19,3 km/h (3 Bft) SW 225 0 min 0,000 mm 0,0 UV-I 0 W/m 6,9 C 3,5 C 24,1 km/h (4 Bft) 100,00 %
31.12.2017 06:02 10,1 C 3,3 C 81 % 1012,4 hPa 0,0 l/m 20,9 km/h (4 Bft) W-SW 247 0 min 0,000 mm 0,0 UV-I 0 W/m 7,0 C 3,1 C 32,2 km/h (5 Bft) 100,00 %
31.12.2017 06:03 10,1 C 3,3 C 81 % 1012,4 hPa 0,0 l/m 16,1 km/h (3 Bft) SW 225 0 min 0,000 mm 0,0 UV-I 0 W/m 7,0 C 4,8 C 22,5 km/h (4 Bft) 100,00 %
31.12.2017 06:04 10,1 C 3,3 C 81 % 1012,4 hPa 0,0 l/m 16,1 km/h (3 Bft) W-SW 247 0 min 0,000 mm 0,0 UV-I 0 W/m 7,0 C 4,8 C 19,3 km/h (3 Bft) 95,65 %
31.12.2017 06:05 10,0 C 3,3 C 81 % 1012,5 hPa 0,0 l/m 19,3 km/h (3 Bft) W-SW 247 0 min 0,000 mm 0,0 UV-I 0 W/m 6,9 C 3,5 C 29,0 km/h (5 Bft) 100,00 %
31.12.2017 06:06 10,0 C 3,3 C 81 % 1012,5 hPa 0,0 l/m 17,7 km/h (3 Bft) W-SW 247 0 min 0,000 mm 0,0 UV-I 0 W/m 6,9 C 4,1 C 22,5 km/h (4 Bft) 100,00 %
31.12.2017 06:07 10,0 C 3,3 C 81 % 1012,5 hPa 0,0 l/m 20,9 km/h (4 Bft) SW 225 0 min 0,000 mm 0,0 UV-I 0 W/m 6,9 C 3,0 C 27,4 km/h (4 Bft) 95,65 %
31.12.2017 06:08 10,1 C 3,3 C 81 % 1012,5 hPa 0,0 l/m 16,1 km/h (3 Bft) SW 225 0 min 0,000 mm 0,0 UV-I 0 W/m 7,0 C 4,8 C 22,5 km/h (4 Bft) 100,00 %
31.12.2017 06:09 10,1 C 3,3 C 81 % 1012,4 hPa 0,0 l/m 19,3 km/h (3 Bft) W-SW 247 0 min 0,000 mm 0,0 UV-I 0 W/m 7,0 C 3,6 C 25,7 km/h (4 Bft) 91,30 %
31.12.2017 06:10 10,1 C 3,3 C 80 % 1012,4 hPa 0,0 l/m 16,1 km/h (3 Bft) SW 225 0 min 0,000 mm 0,0 UV-I 0 W/m 6,8 C 4,8 C 24,1 km/h (4 Bft) 100,00 %
31.12.2017 06:11 10,1 C 3,3 C 80 % 1012,5 hPa 0,0 l/m 19,3 km/h (3 Bft) SW 225 0 min 0,000 mm 0,0 UV-I 0 W/m 6,8 C 3,6 C 29,0 km/h (5 Bft) 95,65 %
31.12.2017 06:12 10,1 C 3,3 C 80 % 1012,4 hPa 0,0 l/m 22,5 km/h (4 Bft) SW 225 0 min 0,000 mm 0,0 UV-I 0 W/m 6,8 C 2,7 C 30,6 km/h (5 Bft) 100,00 %
31.12.2017 06:13 10,2 C 3,3 C 80 % 1012,4 hPa 0,0 l/m 17,7 km/h (3 Bft) SW 225 0 min 0,000 mm 0,0 UV-I 0 W/m 6,9 C 4,3 C 24,1 km/h (4 Bft) 100,00 %
31.12.2017 06:14 10,2 C 3,3 C 80 % 1012,4 hPa 0,0 l/m 19,3 km/h (3 Bft) SW 225 0 min 0,000 mm 0,0 UV-I 0 W/m 6,9 C 3,8 C 32,2 km/h (5 Bft) 100,00 %
31.12.2017 06:15 10,2 C 3,3 C 80 % 1012,4 hPa 0,0 l/m 20,9 km/h (4 Bft) SW 225 0 min 0,000 mm 0,0 UV-I 0 W/m 6,9 C 3,3 C 29,0 km/h (5 Bft) 95,65 %
31.12.2017 06:16 10,2 C 3,3 C 80 % 1012,4 hPa 0,0 l/m 19,3 km/h (3 Bft) SW 225 0 min 0,000 mm 0,0 UV-I 0 W/m 6,9 C 3,8 C 29,0 km/h (5 Bft) 100,00 %
31.12.2017 06:17 10,2 C 3,3 C 79 % 1012,4 hPa 0,0 l/m 22,5 km/h (4 Bft) W-SW 247 0 min 0,000 mm 0,0 UV-I 0 W/m 6,7 C 2,8 C 33,8 km/h (5 Bft) 95,65 %
31.12.2017 06:18 10,2 C 3,3 C 79 % 1012,4 hPa 0,0 l/m 16,1 km/h (3 Bft) W-SW 247 0 min 0,000 mm 0,0 UV-I 0 W/m 6,7 C 4,9 C 33,8 km/h (5 Bft) 91,30 %
31.12.2017 06:19 10,3 C 3,3 C 79 % 1012,4 hPa 0,0 l/m 19,3 km/h (3 Bft) W-SW 247 0 min 0,000 mm 0,0 UV-I 0 W/m 6,8 C 3,9 C 38,6 km/h (5 Bft) 100,00 %
31.12.2017 06:20 10,3 C 3,3 C 79 % 1012,5 hPa 0,0 l/m 16,1 km/h (3 Bft) W-SW 247 0 min 0,000 mm 0,0 UV-I 0 W/m 6,8 C 5,1 C 20,9 km/h (4 Bft) 95,65 %
31.12.2017 06:21 10,3 C 3,3 C 79 % 1012,6 hPa 0,0 l/m 19,3 km/h (3 Bft) SW 225 0 min 0,000 mm 0,0 UV-I 0 W/m 6,8 C 3,9 C 27,4 km/h (4 Bft) 95,65 %
31.12.2017 06:22 10,3 C 3,3 C 79 % 1012,6 hPa 0,0 l/m 14,5 km/h (3 Bft) SW 225 0 min 0,000 mm 0,0 UV-I 0 W/m 6,8 C 5,7 C 20,9 km/h (4 Bft) 95,65 %
31.12.2017 06:23 10,3 C 3,3 C 79 % 1012,6 hPa 0,0 l/m 16,1 km/h (3 Bft) SW 225 0 min 0,000 mm 0,0 UV-I 0 W/m 6,8 C 5,1 C 24,1 km/h (4 Bft) 100,00 %
31.12.2017 06:24 10,2 C 3,3 C 79 % 1012,6 hPa 0,0 l/m 22,5 km/h (4 Bft) SW 225 0 min 0,000 mm 0,0 UV-I 0 W/m 6,7 C 2,8 C 30,6 km/h (5 Bft) 95,65 %
31.12.2017 06:25 10,2 C 3,3 C 79 % 1012,6 hPa 0,0 l/m 19,3 km/h (3 Bft) SW 225 0 min 0,000 mm 0,0 UV-I 0 W/m 6,7 C 3,8 C 32,2 km/h (5 Bft) 95,65 %
31.12.2017 06:26 10,3 C 3,3 C 79 % 1012,6 hPa 0,0 l/m 16,1 km/h (3 Bft) SW 225 0 min 0,000 mm 0,0 UV-I 0 W/m 6,8 C 5,1 C 24,1 km/h (4 Bft) 95,65 %
31.12.2017 06:27 10,3 C 3,3 C 79 % 1012,6 hPa 0,0 l/m 17,7 km/h (3 Bft) W-SW 247 0 min 0,000 mm 0,0 UV-I 0 W/m 6,8 C 4,5 C 25,7 km/h (4 Bft) 95,65 %
31.12.2017 06:28 10,2 C 3,3 C 79 % 1012,6 hPa 0,0 l/m 16,1 km/h (3 Bft) W-SW 247 0 min 0,000 mm 0,0 UV-I 0 W/m 6,7 C 4,9 C 19,3 km/h (3 Bft) 100,00 %
31.12.2017 06:29 10,2 C 3,3 C 79 % 1012,6 hPa 0,0 l/m 14,5 km/h (3 Bft) SW 225 0 min 0,000 mm 0,0 UV-I 0 W/m 6,7 C 5,6 C 19,3 km/h (3 Bft) 91,30 %
31.12.2017 06:30 10,2 C 3,3 C 79 % 1012,6 hPa 0,0 l/m 17,7 km/h (3 Bft) W-SW 247 0 min 0,000 mm 0,0 UV-I 0 W/m 6,7 C 4,3 C 24,1 km/h (4 Bft) 100,00 %
31.12.2017 06:31 10,2 C 3,3 C 79 % 1012,6 hPa 0,0 l/m 16,1 km/h (3 Bft) W-SW 247 0 min 0,000 mm 0,0 UV-I 0 W/m 6,7 C 4,9 C 25,7 km/h (4 Bft) 95,65 %
31.12.2017 06:32 10,2 C 3,3 C 79 % 1012,6 hPa 0,0 l/m 19,3 km/h (3 Bft) SW 225 0 min 0,000 mm 0,0 UV-I 0 W/m 6,7 C 3,8 C 29,0 km/h (5 Bft) 95,65 %
31.12.2017 06:33 10,2 C 3,3 C 79 % 1012,6 hPa 0,0 l/m 20,9 km/h (4 Bft) W-SW 247 0 min 0,000 mm 0,0 UV-I 0 W/m 6,7 C 3,3 C 33,8 km/h (5 Bft) 95,65 %
31.12.2017 06:34 10,2 C 3,3 C 79 % 1012,7 hPa 0,0 l/m 17,7 km/h (3 Bft) SW 225 0 min 0,000 mm 0,0 UV-I 0 W/m 6,7 C 4,3 C 29,0 km/h (5 Bft) 100,00 %
31.12.2017 06:35 10,3 C 3,3 C 78 % 1012,6 hPa 0,0 l/m 17,7 km/h (3 Bft) W-SW 247 0 min 0,000 mm 0,0 UV-I 0 W/m 6,6 C 4,5 C 24,1 km/h (4 Bft) 95,65 %
31.12.2017 06:36 10,3 C 3,3 C 78 % 1012,7 hPa 0,0 l/m 24,1 km/h (4 Bft) W-SW 247 0 min 0,000 mm 0,0 UV-I 0 W/m 6,6 C 2,5 C 30,6 km/h (5 Bft) 95,65 %
31.12.2017 06:37 10,3 C 3,3 C 78 % 1012,7 hPa 0,0 l/m 19,3 km/h (3 Bft) W-SW 247 0 min 0,000 mm 0,0 UV-I 0 W/m 6,6 C 3,9 C 27,4 km/h (4 Bft) 95,65 %
31.12.2017 06:38 10,4 C 3,3 C 77 % 1012,6 hPa 0,0 l/m 17,7 km/h (3 Bft) SW 225 0 min 0,000 mm 0,0 UV-I 0 W/m 6,5 C 4,6 C 22,5 km/h (4 Bft) 95,65 %
31.12.2017 06:39 10,4 C 3,3 C 77 % 1012,7 hPa 0,0 l/m 19,3 km/h (3 Bft) W-SW 247 0 min 0,000 mm 0,0 UV-I 0 W/m 6,5 C 4,0 C 25,7 km/h (4 Bft) 95,65 %
31.12.2017 06:40 10,4 C 3,3 C 77 % 1012,6 hPa 0,0 l/m 19,3 km/h (3 Bft) W-SW 247 0 min 0,000 mm 0,0 UV-I 0 W/m 6,5 C 4,0 C 27,4 km/h (4 Bft) 95,65 %
31.12.2017 06:41 10,4 C 3,3 C 77 % 1012,7 hPa 0,0 l/m 22,5 km/h (4 Bft) SW 225 0 min 0,000 mm 0,0 UV-I 0 W/m 6,5 C 3,0 C 33,8 km/h (5 Bft) 100,00 %
31.12.2017 06:42 10,4 C 3,3 C 77 % 1012,7 hPa 0,0 l/m 20,9 km/h (4 Bft) SW 225 0 min 0,000 mm 0,0 UV-I 0 W/m 6,5 C 3,5 C 29,0 km/h (5 Bft) 95,65 %
31.12.2017 06:43 10,4 C 3,3 C 77 % 1012,7 hPa 0,0 l/m 19,3 km/h (3 Bft) W-SW 247 0 min 0,000 mm 0,0 UV-I 0 W/m 6,5 C 4,0 C 27,4 km/h (4 Bft) 100,00 %
31.12.2017 06:44 10,4 C 3,3 C 77 % 1012,7 hPa 0,0 l/m 19,3 km/h (3 Bft) SW 225 0 min 0,000 mm 0,0 UV-I 0 W/m 6,5 C 4,0 C 27,4 km/h (4 Bft) 95,65 %
31.12.2017 06:45 10,4 C 3,3 C 77 % 1012,6 hPa 0,0 l/m 20,9 km/h (4 Bft) SW 225 0 min 0,000 mm 0,0 UV-I 0 W/m 6,5 C 3,5 C 27,4 km/h (4 Bft) 95,65 %
31.12.2017 06:46 10,4 C 3,3 C 77 % 1012,7 hPa 0,0 l/m 16,1 km/h (3 Bft) W-SW 247 0 min 0,000 mm 0,0 UV-I 0 W/m 6,5 C 5,2 C 20,9 km/h (4 Bft) 95,65 %
31.12.2017 06:47 10,5 C 3,3 C 76 % 1012,7 hPa 0,0 l/m 24,1 km/h (4 Bft) SW 225 0 min 0,000 mm 0,0 UV-I 0 W/m 6,5 C 2,7 C 33,8 km/h (5 Bft) 95,65 %
31.12.2017 06:48 10,6 C 3,3 C 76 % 1012,6 hPa 0,0 l/m 22,5 km/h (4 Bft) SW 225 0 min 0,000 mm 0,0 UV-I 0 W/m 6,5 C 3,3 C 27,4 km/h (4 Bft) 100,00 %
31.12.2017 06:49 10,6 C 3,3 C 76 % 1012,7 hPa 0,0 l/m 19,3 km/h (3 Bft) SW 225 0 min 0,000 mm 0,0 UV-I 0 W/m 6,5 C 4,3 C 24,1 km/h (4 Bft) 95,65 %
31.12.2017 06:50 10,6 C 3,3 C 76 % 1012,7 hPa 0,0 l/m 24,1 km/h (4 Bft) SW 225 0 min 0,000 mm 0,0 UV-I 0 W/m 6,5 C 2,9 C 30,6 km/h (5 Bft) 95,65 %
31.12.2017 06:51 10,6 C 3,3 C 76 % 1012,7 hPa 0,0 l/m 22,5 km/h (4 Bft) W-SW 247 0 min 0,000 mm 0,0 UV-I 0 W/m 6,5 C 3,3 C 30,6 km/h (5 Bft) 95,65 %
31.12.2017 06:52 10,6 C 3,3 C 76 % 1012,7 hPa 0,0 l/m 19,3 km/h (3 Bft) SW 225 0 min 0,000 mm 0,0 UV-I 0 W/m 6,5 C 4,3 C 24,1 km/h (4 Bft) 95,65 %
31.12.2017 06:53 10,6 C 3,3 C 76 % 1012,7 hPa 0,0 l/m 17,7 km/h (3 Bft) W-SW 247 0 min 0,000 mm 0,0 UV-I 0 W/m 6,5 C 4,8 C 30,6 km/h (5 Bft) 86,96 %
31.12.2017 06:54 10,5 C 3,3 C 76 % 1012,7 hPa 0,0 l/m 17,7 km/h (3 Bft) SW 225 0 min 0,000 mm 0,0 UV-I 0 W/m 6,5 C 4,7 C 24,1 km/h (4 Bft) 100,00 %
31.12.2017 06:55 10,5 C 3,3 C 76 % 1012,7 hPa 0,0 l/m 17,7 km/h (3 Bft) SW 225 0 min 0,000 mm 0,0 UV-I 0 W/m 6,5 C 4,7 C 20,9 km/h (4 Bft) 95,65 %
31.12.2017 06:56 10,5 C 3,3 C 76 % 1012,7 hPa 0,0 l/m 19,3 km/h (3 Bft) W-SW 247 0 min 0,000 mm 0,0 UV-I 0 W/m 6,5 C 4,2 C 25,7 km/h (4 Bft) 100,00 %
31.12.2017 06:57 10,4 C 3,3 C 76 % 1012,7 hPa 0,0 l/m 19,3 km/h (3 Bft) W-SW 247 0 min 0,000 mm 0,0 UV-I 0 W/m 6,4 C 4,0 C 29,0 km/h (5 Bft) 95,65 %
31.12.2017 06:58 10,5 C 3,3 C 76 % 1012,7 hPa 0,0 l/m 20,9 km/h (4 Bft) W-SW 247 0 min 0,000 mm 0,0 UV-I 0 W/m 6,5 C 3,7 C 30,6 km/h (5 Bft) 100,00 %
31.12.2017 06:59 10,5 C 3,3 C 76 % 1012,8 hPa 0,0 l/m 19,3 km/h (3 Bft) W-SW 247 0 min 0,000 mm 0,0 UV-I 0 W/m 6,5 C 4,2 C 27,4 km/h (4 Bft) 95,65 %
31.12.2017 07:00 10,5 C 3,3 C 76 % 1012,7 hPa 0,0 l/m 17,7 km/h (3 Bft) W-SW 247 0 min 0,051 mm 0,0 UV-I 0 W/m 6,5 C 4,7 C 22,5 km/h (4 Bft) 91,30 %
31.12.2017 07:01 10,6 C 3,3 C 76 % 1012,8 hPa 0,0 l/m 19,3 km/h (3 Bft) W-SW 247 0 min 0,000 mm 0,0 UV-I 0 W/m 6,5 C 4,3 C 25,7 km/h (4 Bft) 100,00 %
31.12.2017 07:02 10,6 C 3,3 C 76 % 1012,7 hPa 0,0 l/m 24,1 km/h (4 Bft) SW 225 0 min 0,000 mm 0,0 UV-I 0 W/m 6,5 C 2,9 C 32,2 km/h (5 Bft) 95,65 %
31.12.2017 07:03 10,6 C 3,3 C 76 % 1012,8 hPa 0,0 l/m 20,9 km/h (4 Bft) W-SW 247 0 min 0,000 mm 0,0 UV-I 0 W/m 6,5 C 3,8 C 29,0 km/h (5 Bft) 100,00 %
31.12.2017 07:04 10,6 C 3,3 C 75 % 1012,8 hPa 0,0 l/m 19,3 km/h (3 Bft) SW 225 0 min 0,000 mm 0,0 UV-I 0 W/m 6,4 C 4,3 C 24,1 km/h (4 Bft) 95,65 %
31.12.2017 07:05 10,6 C 3,3 C 75 % 1012,7 hPa 0,0 l/m 19,3 km/h (3 Bft) W-SW 247 0 min 0,000 mm 0,0 UV-I 0 W/m 6,4 C 4,3 C 24,1 km/h (4 Bft) 100,00 %
31.12.2017 07:06 10,6 C 3,3 C 75 % 1012,8 hPa 0,0 l/m 19,3 km/h (3 Bft) W-SW 247 0 min 0,000 mm 0,0 UV-I 0 W/m 6,4 C 4,3 C 22,5 km/h (4 Bft) 95,65 %
31.12.2017 07:07 10,6 C 3,3 C 75 % 1012,8 hPa 0,0 l/m 22,5 km/h (4 Bft) W-SW 247 0 min 0,000 mm 0,0 UV-I 0 W/m 6,4 C 3,3 C 27,4 km/h (4 Bft) 95,65 %
31.12.2017 07:08 10,6 C 3,3 C 75 % 1012,8 hPa 0,0 l/m 22,5 km/h (4 Bft) W-SW 247 0 min 0,000 mm 0,0 UV-I 0 W/m 6,4 C 3,3 C 27,4 km/h (4 Bft) 95,65 %
31.12.2017 07:09 10,6 C 3,3 C 75 % 1012,8 hPa 0,0 l/m 17,7 km/h (3 Bft) SW 225 0 min 0,000 mm 0,0 UV-I 0 W/m 6,4 C 4,8 C 25,7 km/h (4 Bft) 100,00 %
31.12.2017 07:10 10,6 C 3,3 C 76 % 1012,9 hPa 0,0 l/m 19,3 km/h (3 Bft) W-SW 247 0 min 0,000 mm 0,0 UV-I 0 W/m 6,5 C 4,3 C 30,6 km/h (5 Bft) 95,65 %
31.12.2017 07:11 10,6 C 3,3 C 75 % 1012,9 hPa 0,0 l/m 22,5 km/h (4 Bft) W-SW 247 0 min 0,000 mm 0,0 UV-I 0 W/m 6,4 C 3,3 C 30,6 km/h (5 Bft) 95,65 %
31.12.2017 07:12 10,6 C 3,3 C 75 % 1012,9 hPa 0,0 l/m 17,7 km/h (3 Bft) W-SW 247 0 min 0,000 mm 0,0 UV-I 0 W/m 6,4 C 4,8 C 27,4 km/h (4 Bft) 95,65 %
31.12.2017 07:13 10,6 C 3,3 C 75 % 1012,9 hPa 0,0 l/m 20,9 km/h (4 Bft) W-SW 247 0 min 0,000 mm 0,0 UV-I 0 W/m 6,4 C 3,8 C 29,0 km/h (5 Bft) 100,00 %
31.12.2017 07:14 10,6 C 3,3 C 75 % 1012,9 hPa 0,0 l/m 22,5 km/h (4 Bft) SW 225 0 min 0,000 mm 0,0 UV-I 0 W/m 6,4 C 3,3 C 29,0 km/h (5 Bft) 91,30 %
31.12.2017 07:15 10,6 C 3,3 C 75 % 1012,9 hPa 0,0 l/m 16,1 km/h (3 Bft) W-SW 247 0 min 0,000 mm 0,0 UV-I 0 W/m 6,4 C 5,4 C 24,1 km/h (4 Bft) 100,00 %
31.12.2017 07:16 10,6 C 3,3 C 75 % 1012,9 hPa 0,0 l/m 17,7 km/h (3 Bft) W-SW 247 0 min 0,000 mm 0,0 UV-I 0 W/m 6,4 C 4,8 C 22,5 km/h (4 Bft) 91,30 %
31.12.2017 07:17 10,6 C 3,3 C 75 % 1012,9 hPa 0,0 l/m 19,3 km/h (3 Bft) W-SW 247 0 min 0,000 mm 0,0 UV-I 0 W/m 6,4 C 4,3 C 25,7 km/h (4 Bft) 95,65 %
31.12.2017 07:18 10,6 C 3,3 C 75 % 1012,9 hPa 0,0 l/m 24,1 km/h (4 Bft) W-SW 247 0 min 0,000 mm 0,0 UV-I 0 W/m 6,4 C 2,9 C 32,2 km/h (5 Bft) 100,00 %
31.12.2017 07:19 10,6 C 3,3 C 74 % 1012,9 hPa 0,0 l/m 20,9 km/h (4 Bft) W-SW 247 0 min 0,000 mm 0,0 UV-I 0 W/m 6,2 C 3,8 C 24,1 km/h (4 Bft) 95,65 %
31.12.2017 07:20 10,6 C 3,3 C 75 % 1013,0 hPa 0,0 l/m 22,5 km/h (4 Bft) SW 225 0 min 0,000 mm 0,0 UV-I 0 W/m 6,4 C 3,3 C 33,8 km/h (5 Bft) 100,00 %
31.12.2017 07:21 10,6 C 3,3 C 74 % 1013,0 hPa 0,0 l/m 16,1 km/h (3 Bft) W-SW 247 0 min 0,000 mm 0,0 UV-I 0 W/m 6,2 C 5,4 C 20,9 km/h (4 Bft) 95,65 %
31.12.2017 07:22 10,6 C 3,3 C 75 % 1013,0 hPa 0,0 l/m 17,7 km/h (3 Bft) W-SW 247 0 min 0,000 mm 0,0 UV-I 0 W/m 6,4 C 4,8 C 25,7 km/h (4 Bft) 95,65 %
31.12.2017 07:23 10,6 C 3,3 C 75 % 1013,0 hPa 0,0 l/m 19,3 km/h (3 Bft) W-SW 247 0 min 0,000 mm 0,0 UV-I 0 W/m 6,4 C 4,3 C 30,6 km/h (5 Bft) 100,00 %
31.12.2017 07:24 10,6 C 3,3 C 74 % 1013,0 hPa 0,0 l/m 16,1 km/h (3 Bft) SW 225 0 min 0,000 mm 0,0 UV-I 0 W/m 6,2 C 5,4 C 22,5 km/h (4 Bft) 95,65 %
31.12.2017 07:25 10,6 C 3,3 C 75 % 1013,0 hPa 0,0 l/m 14,5 km/h (3 Bft) W-SW 247 0 min 0,000 mm 0,0 UV-I 0 W/m 6,4 C 6,1 C 19,3 km/h (3 Bft) 100,00 %
31.12.2017 07:26 10,5 C 3,3 C 75 % 1013,0 hPa 0,0 l/m 14,5 km/h (3 Bft) SW 225 0 min 0,000 mm 0,0 UV-I 0 W/m 6,3 C 5,9 C 17,7 km/h (3 Bft) 100,00 %
31.12.2017 07:27 10,4 C 3,3 C 75 % 1013,0 hPa 0,0 l/m 16,1 km/h (3 Bft) SW 225 0 min 0,000 mm 0,0 UV-I 0 W/m 6,2 C 5,2 C 25,7 km/h (4 Bft) 100,00 %
31.12.2017 07:28 10,4 C 3,3 C 75 % 1013,0 hPa 0,0 l/m 17,7 km/h (3 Bft) W-SW 247 0 min 0,000 mm 0,0 UV-I 0 W/m 6,2 C 4,6 C 24,1 km/h (4 Bft) 91,30 %
31.12.2017 07:29 10,4 C 3,3 C 75 % 1013,0 hPa 0,0 l/m 17,7 km/h (3 Bft) SW 225 0 min 0,000 mm 0,0 UV-I 0 W/m 6,2 C 4,6 C 27,4 km/h (4 Bft) 100,00 %
31.12.2017 07:30 10,4 C 3,3 C 75 % 1012,9 hPa 0,0 l/m 16,1 km/h (3 Bft) W-SW 247 0 min 0,000 mm 0,0 UV-I 0 W/m 6,2 C 5,2 C 24,1 km/h (4 Bft) 100,00 %
31.12.2017 07:31 10,4 C 3,3 C 75 % 1013,0 hPa 0,0 l/m 16,1 km/h (3 Bft) W-SW 247 0 min 0,000 mm 0,0 UV-I 0 W/m 6,2 C 5,2 C 20,9 km/h (4 Bft) 100,00 %
31.12.2017 07:32 10,4 C 3,3 C 75 % 1012,9 hPa 0,0 l/m 17,7 km/h (3 Bft) W-SW 247 0 min 0,000 mm 0,0 UV-I 0 W/m 6,2 C 4,6 C 22,5 km/h (4 Bft) 95,65 %
31.12.2017 07:33 10,4 C 3,3 C 75 % 1012,9 hPa 0,0 l/m 14,5 km/h (3 Bft) W-SW 247 0 min 0,000 mm 0,0 UV-I 0 W/m 6,2 C 5,8 C 17,7 km/h (3 Bft) 100,00 %
31.12.2017 07:34 10,4 C 3,3 C 75 % 1013,0 hPa 0,0 l/m 16,1 km/h (3 Bft) W-SW 247 0 min 0,000 mm 0,0 UV-I 0 W/m 6,2 C 5,2 C 27,4 km/h (4 Bft) 95,65 %
31.12.2017 07:35 10,4 C 3,3 C 75 % 1013,0 hPa 0,0 l/m 17,7 km/h (3 Bft) W-SW 247 0 min 0,000 mm 0,0 UV-I 0 W/m 6,2 C 4,6 C 20,9 km/h (4 Bft) 95,65 %
31.12.2017 07:36 10,4 C 3,3 C 75 % 1013,0 hPa 0,0 l/m 17,7 km/h (3 Bft) W-SW 247 0 min 0,000 mm 0,0 UV-I 0 W/m 6,2 C 4,6 C 20,9 km/h (4 Bft) 95,65 %
31.12.2017 07:37 10,4 C 3,3 C 75 % 1013,0 hPa 0,0 l/m 17,7 km/h (3 Bft) W-SW 247 0 min 0,000 mm 0,0 UV-I 0 W/m 6,2 C 4,6 C 22,5 km/h (4 Bft) 100,00 %
31.12.2017 07:38 10,3 C 3,3 C 75 % 1013,0 hPa 0,0 l/m 19,3 km/h (3 Bft) SW 225 0 min 0,000 mm 0,0 UV-I 0 W/m 6,1 C 3,9 C 24,1 km/h (4 Bft) 100,00 %
31.12.2017 07:39 10,4 C 3,3 C 75 % 1013,0 hPa 0,0 l/m 16,1 km/h (3 Bft) SW 225 0 min 0,000 mm 0,0 UV-I 0 W/m 6,2 C 5,2 C 20,9 km/h (4 Bft) 100,00 %
31.12.2017 07:40 10,3 C 3,3 C 75 % 1013,0 hPa 0,0 l/m 20,9 km/h (4 Bft) SW 225 0 min 0,000 mm 0,0 UV-I 0 W/m 6,1 C 3,4 C 27,4 km/h (4 Bft) 100,00 %
31.12.2017 07:41 10,4 C 3,3 C 75 % 1013,0 hPa 0,0 l/m 17,7 km/h (3 Bft) SW 225 0 min 0,000 mm 0,0 UV-I 5 W/m 6,2 C 4,6 C 24,1 km/h (4 Bft) 100,00 %
31.12.2017 07:42 10,3 C 3,3 C 75 % 1013,0 hPa 0,0 l/m 14,5 km/h (3 Bft) SW 225 0 min 0,000 mm 0,0 UV-I 5 W/m 6,1 C 5,7 C 24,1 km/h (4 Bft) 95,65 %
31.12.2017 07:43 10,3 C 3,3 C 75 % 1013,0 hPa 0,0 l/m 19,3 km/h (3 Bft) W-SW 247 0 min 0,000 mm 0,0 UV-I 5 W/m 6,1 C 3,9 C 24,1 km/h (4 Bft) 100,00 %
31.12.2017 07:44 10,3 C 3,3 C 75 % 1012,9 hPa 0,0 l/m 17,7 km/h (3 Bft) SW 225 0 min 0,000 mm 0,0 UV-I 5 W/m 6,1 C 4,5 C 22,5 km/h (4 Bft) 100,00 %
31.12.2017 07:45 10,3 C 3,3 C 75 % 1013,0 hPa 0,0 l/m 17,7 km/h (3 Bft) SW 225 0 min 0,000 mm 0,0 UV-I 5 W/m 6,1 C 4,5 C 22,5 km/h (4 Bft) 100,00 %
31.12.2017 07:46 10,3 C 3,3 C 75 % 1013,0 hPa 0,0 l/m 16,1 km/h (3 Bft) SW 225 0 min 0,000 mm 0,0 UV-I 5 W/m 6,1 C 5,1 C 22,5 km/h (4 Bft) 100,00 %
31.12.2017 07:47 10,3 C 3,3 C 75 % 1013,0 hPa 0,0 l/m 16,1 km/h (3 Bft) W-SW 247 0 min 0,000 mm 0,0 UV-I 5 W/m 6,1 C 5,1 C 22,5 km/h (4 Bft) 100,00 %
31.12.2017 07:48 10,3 C 3,3 C 75 % 1013,0 hPa 0,0 l/m 19,3 km/h (3 Bft) SW 225 0 min 0,000 mm 0,0 UV-I 5 W/m 6,1 C 3,9 C 22,5 km/h (4 Bft) 100,00 %
31.12.2017 07:49 10,3 C 3,3 C 75 % 1013,0 hPa 0,0 l/m 19,3 km/h (3 Bft) SW 225 0 min 0,000 mm 0,0 UV-I 5 W/m 6,1 C 3,9 C 32,2 km/h (5 Bft) 91,30 %
31.12.2017 07:50 10,3 C 3,3 C 75 % 1013,0 hPa 0,0 l/m 22,5 km/h (4 Bft) SW 225 0 min 0,000 mm 0,0 UV-I 5 W/m 6,1 C 2,9 C 35,4 km/h (5 Bft) 100,00 %
31.12.2017 07:51 10,3 C 3,3 C 75 % 1013,1 hPa 0,0 l/m 19,3 km/h (3 Bft) SW 225 0 min 0,000 mm 0,0 UV-I 5 W/m 6,1 C 3,9 C 29,0 km/h (5 Bft) 100,00 %
31.12.2017 07:52 10,4 C 3,3 C 75 % 1013,0 hPa 0,0 l/m 17,7 km/h (3 Bft) SW 225 0 min 0,000 mm 0,0 UV-I 5 W/m 6,2 C 4,6 C 25,7 km/h (4 Bft) 100,00 %
31.12.2017 07:53 10,3 C 3,3 C 75 % 1013,0 hPa 0,0 l/m 20,9 km/h (4 Bft) SW 225 0 min 0,000 mm 0,0 UV-I 6 W/m 6,1 C 3,4 C 29,0 km/h (5 Bft) 100,00 %
31.12.2017 07:54 10,4 C 3,3 C 75 % 1013,0 hPa 0,0 l/m 16,1 km/h (3 Bft) SW 225 0 min 0,000 mm 0,0 UV-I 7 W/m 6,2 C 5,2 C 22,5 km/h (4 Bft) 100,00 %
31.12.2017 07:55 10,3 C 3,3 C 75 % 1013,0 hPa 0,0 l/m 16,1 km/h (3 Bft) SW 225 0 min 0,000 mm 0,0 UV-I 7 W/m 6,1 C 5,1 C 22,5 km/h (4 Bft) 100,00 %
31.12.2017 07:56 10,3 C 3,3 C 75 % 1013,0 hPa 0,0 l/m 17,7 km/h (3 Bft) SW 225 0 min 0,000 mm 0,0 UV-I 7 W/m 6,1 C 4,5 C 22,5 km/h (4 Bft) 91,30 %
31.12.2017 07:57 10,2 C 3,3 C 75 % 1013,0 hPa 0,0 l/m 19,3 km/h (3 Bft) SW 225 0 min 0,000 mm 0,0 UV-I 7 W/m 6,0 C 3,8 C 27,4 km/h (4 Bft) 100,00 %
31.12.2017 07:58 10,2 C 3,3 C 75 % 1013,0 hPa 0,0 l/m 17,7 km/h (3 Bft) SW 225 0 min 0,000 mm 0,0 UV-I 7 W/m 6,0 C 4,3 C 24,1 km/h (4 Bft) 95,65 %
31.12.2017 07:59 10,2 C 3,3 C 76 % 1013,0 hPa 0,0 l/m 17,7 km/h (3 Bft) W-SW 247 0 min 0,000 mm 0,0 UV-I 7 W/m 6,2 C 4,3 C 25,7 km/h (4 Bft) 100,00 %
31.12.2017 08:00 10,1 C 3,3 C 76 % 1013,0 hPa 0,0 l/m 19,3 km/h (3 Bft) SW 225 0 min 0,051 mm 0,0 UV-I 9 W/m 6,1 C 3,6 C 27,4 km/h (4 Bft) 100,00 %
31.12.2017 08:01 10,1 C 3,3 C 76 % 1013,0 hPa 0,0 l/m 16,1 km/h (3 Bft) W-SW 247 0 min 0,000 mm 0,0 UV-I 9 W/m 6,1 C 4,8 C 22,5 km/h (4 Bft) 100,00 %
31.12.2017 08:02 10,1 C 3,3 C 76 % 1013,0 hPa 0,0 l/m 19,3 km/h (3 Bft) SW 225 0 min 0,000 mm 0,0 UV-I 9 W/m 6,1 C 3,6 C 25,7 km/h (4 Bft) 100,00 %
31.12.2017 08:03 10,1 C 3,3 C 76 % 1013,0 hPa 0,0 l/m 19,3 km/h (3 Bft) SW 225 0 min 0,000 mm 0,0 UV-I 11 W/m 6,1 C 3,6 C 25,7 km/h (4 Bft) 95,65 %
31.12.2017 08:04 10,1 C 3,3 C 76 % 1012,9 hPa 0,0 l/m 16,1 km/h (3 Bft) W-SW 247 0 min 0,000 mm 0,0 UV-I 12 W/m 6,1 C 4,8 C 24,1 km/h (4 Bft) 95,65 %
31.12.2017 08:05 10,1 C 3,3 C 76 % 1013,1 hPa 0,0 l/m 19,3 km/h (3 Bft) SW 225 0 min 0,000 mm 0,0 UV-I 14 W/m 6,1 C 3,6 C 20,9 km/h (4 Bft) 100,00 %
31.12.2017 08:06 10,1 C 3,3 C 76 % 1012,9 hPa 0,0 l/m 19,3 km/h (3 Bft) W-SW 247 0 min 0,000 mm 0,0 UV-I 12 W/m 6,1 C 3,6 C 27,4 km/h (4 Bft) 100,00 %
31.12.2017 08:07 10,1 C 3,3 C 76 % 1012,9 hPa 0,0 l/m 19,3 km/h (3 Bft) W-SW 247 1 min 0,000 mm 0,0 UV-I 12 W/m 6,1 C 3,6 C 25,7 km/h (4 Bft) 100,00 %
31.12.2017 08:08 10,1 C 3,3 C 75 % 1012,9 hPa 0,0 l/m 20,9 km/h (4 Bft) SW 225 1 min 0,000 mm 0,0 UV-I 12 W/m 5,9 C 3,1 C 27,4 km/h (4 Bft) 100,00 %
31.12.2017 08:09 10,2 C 3,3 C 75 % 1012,9 hPa 0,0 l/m 24,1 km/h (4 Bft) SW 225 1 min 0,000 mm 0,0 UV-I 12 W/m 6,0 C 2,3 C 32,2 km/h (5 Bft) 100,00 %
31.12.2017 08:10 10,2 C 3,3 C 74 % 1012,9 hPa 0,0 l/m 16,1 km/h (3 Bft) SW 225 0 min 0,000 mm 0,0 UV-I 12 W/m 5,8 C 4,9 C 22,5 km/h (4 Bft) 91,30 %
31.12.2017 08:11 10,2 C 3,3 C 74 % 1012,9 hPa 0,0 l/m 19,3 km/h (3 Bft) SW 225 0 min 0,000 mm 0,0 UV-I 12 W/m 5,8 C 3,8 C 22,5 km/h (4 Bft) 100,00 %
31.12.2017 08:12 10,2 C 3,3 C 74 % 1012,9 hPa 0,0 l/m 20,9 km/h (4 Bft) SW 225 0 min 0,000 mm 0,0 UV-I 12 W/m 5,8 C 3,3 C 27,4 km/h (4 Bft) 95,65 %
31.12.2017 08:13 10,3 C 3,3 C 74 % 1012,9 hPa 0,0 l/m 20,9 km/h (4 Bft) W-SW 247 0 min 0,000 mm 0,0 UV-I 14 W/m 5,9 C 3,4 C 30,6 km/h (5 Bft) 100,00 %
31.12.2017 08:14 10,3 C 3,3 C 74 % 1012,9 hPa 0,0 l/m 20,9 km/h (4 Bft) SW 225 0 min 0,000 mm 0,0 UV-I 16 W/m 5,9 C 3,4 C 27,4 km/h (4 Bft) 100,00 %
31.12.2017 08:15 10,3 C 3,3 C 74 % 1012,9 hPa 0,0 l/m 24,1 km/h (4 Bft) W-SW 247 0 min 0,000 mm 0,0 UV-I 16 W/m 5,9 C 2,5 C 33,8 km/h (5 Bft) 95,65 %
31.12.2017 08:16 10,3 C 3,3 C 74 % 1012,9 hPa 0,0 l/m 19,3 km/h (3 Bft) SW 225 0 min 0,000 mm 0,0 UV-I 18 W/m 5,9 C 3,9 C 29,0 km/h (5 Bft) 100,00 %
31.12.2017 08:17 10,3 C 3,3 C 74 % 1012,9 hPa 0,0 l/m 20,9 km/h (4 Bft) SW 225 0 min 0,000 mm 0,0 UV-I 19 W/m 5,9 C 3,4 C 29,0 km/h (5 Bft) 95,65 %
31.12.2017 08:18 10,3 C 3,3 C 74 % 1012,9 hPa 0,0 l/m 24,1 km/h (4 Bft) SW 225 0 min 0,000 mm 0,0 UV-I 18 W/m 5,9 C 2,5 C 30,6 km/h (5 Bft) 100,00 %
31.12.2017 08:19 10,3 C 3,3 C 74 % 1012,9 hPa 0,0 l/m 19,3 km/h (3 Bft) W-SW 247 0 min 0,000 mm 0,0 UV-I 18 W/m 5,9 C 3,9 C 27,4 km/h (4 Bft) 100,00 %
31.12.2017 08:20 10,3 C 3,3 C 74 % 1012,9 hPa 0,0 l/m 22,5 km/h (4 Bft) SW 225 0 min 0,000 mm 0,0 UV-I 19 W/m 5,9 C 2,9 C 27,4 km/h (4 Bft) 100,00 %
31.12.2017 08:21 10,2 C 3,3 C 74 % 1012,9 hPa 0,0 l/m 20,9 km/h (4 Bft) SW 225 0 min 0,000 mm 0,0 UV-I 19 W/m 5,8 C 3,3 C 27,4 km/h (4 Bft) 95,65 %
31.12.2017 08:22 10,2 C 3,3 C 74 % 1012,9 hPa 0,0 l/m 20,9 km/h (4 Bft) SW 225 0 min 0,000 mm 0,0 UV-I 21 W/m 5,8 C 3,3 C 27,4 km/h (4 Bft) 100,00 %
31.12.2017 08:23 10,2 C 3,3 C 74 % 1013,0 hPa 0,0 l/m 24,1 km/h (4 Bft) SW 225 0 min 0,000 mm 0,0 UV-I 27 W/m 5,8 C 2,3 C 33,8 km/h (5 Bft) 95,65 %
31.12.2017 08:24 10,3 C 3,3 C 74 % 1013,0 hPa 0,0 l/m 25,7 km/h (4 Bft) SW 225 0 min 0,000 mm 0,0 UV-I 26 W/m 5,9 C 2,1 C 33,8 km/h (5 Bft) 91,30 %
31.12.2017 08:25 10,3 C 3,3 C 73 % 1013,0 hPa 0,0 l/m 20,9 km/h (4 Bft) W-SW 247 0 min 0,000 mm 0,0 UV-I 25 W/m 5,7 C 3,4 C 29,0 km/h (5 Bft) 95,65 %
31.12.2017 08:26 10,3 C 3,3 C 73 % 1013,0 hPa 0,0 l/m 20,9 km/h (4 Bft) SW 225 0 min 0,000 mm 0,0 UV-I 23 W/m 5,7 C 3,4 C 29,0 km/h (5 Bft) 95,65 %
31.12.2017 08:27 10,3 C 3,3 C 73 % 1013,0 hPa 0,0 l/m 20,9 km/h (4 Bft) SW 225 0 min 0,000 mm 0,0 UV-I 21 W/m 5,7 C 3,4 C 32,2 km/h (5 Bft) 95,65 %
31.12.2017 08:28 10,3 C 3,3 C 73 % 1013,1 hPa 0,0 l/m 19,3 km/h (3 Bft) SW 225 0 min 0,000 mm 0,0 UV-I 18 W/m 5,7 C 3,9 C 29,0 km/h (5 Bft) 100,00 %
31.12.2017 08:29 10,4 C 3,3 C 73 % 1013,1 hPa 0,0 l/m 19,3 km/h (3 Bft) W-SW 247 0 min 0,000 mm 0,0 UV-I 16 W/m 5,8 C 4,0 C 25,7 km/h (4 Bft) 86,96 %
31.12.2017 08:30 10,3 C 3,3 C 73 % 1013,1 hPa 0,0 l/m 19,3 km/h (3 Bft) W-SW 247 0 min 0,000 mm 0,0 UV-I 16 W/m 5,7 C 3,9 C 24,1 km/h (4 Bft) 95,65 %
31.12.2017 08:31 10,4 C 3,3 C 73 % 1013,1 hPa 0,0 l/m 20,9 km/h (4 Bft) SW 225 0 min 0,000 mm 0,0 UV-I 16 W/m 5,8 C 3,5 C 35,4 km/h (5 Bft) 86,96 %
31.12.2017 08:32 10,4 C 3,3 C 73 % 1013,1 hPa 0,0 l/m 25,7 km/h (4 Bft) SW 225 0 min 0,000 mm 0,0 UV-I 16 W/m 5,8 C 2,2 C 32,2 km/h (5 Bft) 100,00 %
31.12.2017 08:33 10,5 C 3,3 C 72 % 1013,1 hPa 0,0 l/m 20,9 km/h (4 Bft) W-SW 247 0 min 0,000 mm 0,0 UV-I 18 W/m 5,7 C 3,7 C 32,2 km/h (5 Bft) 91,30 %
31.12.2017 08:34 10,5 C 3,3 C 72 % 1013,0 hPa 0,0 l/m 22,5 km/h (4 Bft) SW 225 0 min 0,000 mm 0,0 UV-I 19 W/m 5,7 C 3,2 C 30,6 km/h (5 Bft) 100,00 %
31.12.2017 08:35 10,6 C 3,3 C 72 % 1013,0 hPa 0,0 l/m 24,1 km/h (4 Bft) SW 225 0 min 0,000 mm 0,0 UV-I 19 W/m 5,8 C 2,9 C 33,8 km/h (5 Bft) 82,61 %
31.12.2017 08:36 10,6 C 3,3 C 72 % 1013,1 hPa 0,0 l/m 24,1 km/h (4 Bft) SW 225 0 min 0,000 mm 0,0 UV-I 21 W/m 5,8 C 2,9 C 32,2 km/h (5 Bft) 91,30 %
31.12.2017 08:37 10,6 C 3,3 C 72 % 1013,1 hPa 0,0 l/m 20,9 km/h (4 Bft) SW 225 0 min 0,000 mm 0,0 UV-I 23 W/m 5,8 C 3,8 C 27,4 km/h (4 Bft) 100,00 %
31.12.2017 08:38 10,6 C 3,3 C 72 % 1013,1 hPa 0,0 l/m 22,5 km/h (4 Bft) SW 225 0 min 0,000 mm 0,0 UV-I 25 W/m 5,8 C 3,3 C 29,0 km/h (5 Bft) 82,61 %
31.12.2017 08:39 10,6 C 3,3 C 72 % 1013,1 hPa 0,0 l/m 19,3 km/h (3 Bft) SW 225 0 min 0,000 mm 0,0 UV-I 25 W/m 5,8 C 4,3 C 29,0 km/h (5 Bft) 100,00 %
31.12.2017 08:40 10,6 C 3,3 C 72 % 1013,1 hPa 0,0 l/m 20,9 km/h (4 Bft) SW 225 0 min 0,000 mm 0,0 UV-I 28 W/m 5,8 C 3,8 C 27,4 km/h (4 Bft) 86,96 %
31.12.2017 08:41 10,6 C 3,3 C 72 % 1013,3 hPa 0,0 l/m 17,7 km/h (3 Bft) W-SW 247 0 min 0,000 mm 0,0 UV-I 30 W/m 5,8 C 4,8 C 24,1 km/h (4 Bft) 100,00 %
31.12.2017 08:42 10,6 C 3,3 C 72 % 1013,2 hPa 0,0 l/m 20,9 km/h (4 Bft) SW 225 0 min 0,000 mm 0,0 UV-I 30 W/m 5,8 C 3,8 C 27,4 km/h (4 Bft) 91,30 %
31.12.2017 08:43 10,6 C 3,3 C 72 % 1013,2 hPa 0,0 l/m 19,3 km/h (3 Bft) SW 225 0 min 0,000 mm 0,0 UV-I 28 W/m 5,8 C 4,3 C 27,4 km/h (4 Bft) 100,00 %
31.12.2017 08:44 10,7 C 3,3 C 72 % 1013,1 hPa 0,0 l/m 19,3 km/h (3 Bft) SW 225 0 min 0,000 mm 0,0 UV-I 26 W/m 5,9 C 4,4 C 27,4 km/h (4 Bft) 91,30 %
31.12.2017 08:45 10,7 C 3,3 C 72 % 1013,2 hPa 0,0 l/m 19,3 km/h (3 Bft) SW 225 0 min 0,000 mm 0,0 UV-I 26 W/m 5,9 C 4,4 C 24,1 km/h (4 Bft) 91,30 %
31.12.2017 08:46 10,7 C 3,3 C 72 % 1013,1 hPa 0,0 l/m 20,9 km/h (4 Bft) W-SW 247 0 min 0,000 mm 0,0 UV-I 29 W/m 5,9 C 3,9 C 29,0 km/h (5 Bft) 95,65 %
31.12.2017 08:47 10,7 C 3,3 C 72 % 1013,2 hPa 0,0 l/m 24,1 km/h (4 Bft) SW 225 0 min 0,000 mm 0,0 UV-I 33 W/m 5,9 C 3,0 C 29,0 km/h (5 Bft) 95,65 %
31.12.2017 08:48 10,7 C 3,3 C 71 % 1013,1 hPa 0,0 l/m 19,3 km/h (3 Bft) SW 225 0 min 0,000 mm 0,0 UV-I 39 W/m 5,7 C 4,4 C 24,1 km/h (4 Bft) 100,00 %
31.12.2017 08:49 10,7 C 3,3 C 72 % 1013,2 hPa 0,0 l/m 22,5 km/h (4 Bft) SW 225 0 min 0,000 mm 0,0 UV-I 40 W/m 5,9 C 3,4 C 32,2 km/h (5 Bft) 95,65 %
31.12.2017 08:50 10,7 C 3,3 C 71 % 1013,2 hPa 0,0 l/m 20,9 km/h (4 Bft) SW 225 0 min 0,000 mm 0,0 UV-I 40 W/m 5,7 C 3,9 C 29,0 km/h (5 Bft) 100,00 %
31.12.2017 08:51 10,8 C 3,3 C 71 % 1013,2 hPa 0,0 l/m 20,9 km/h (4 Bft) SW 225 0 min 0,000 mm 0,0 UV-I 35 W/m 5,8 C 4,0 C 29,0 km/h (5 Bft) 91,30 %
31.12.2017 08:52 10,8 C 3,3 C 70 % 1013,2 hPa 0,0 l/m 22,5 km/h (4 Bft) SW 225 0 min 0,000 mm 0,0 UV-I 30 W/m 5,6 C 3,6 C 29,0 km/h (5 Bft) 95,65 %
31.12.2017 08:53 10,9 C 3,3 C 71 % 1013,2 hPa 0,0 l/m 25,7 km/h (4 Bft) SW 225 0 min 0,000 mm 0,0 UV-I 26 W/m 5,9 C 2,9 C 37,0 km/h (5 Bft) 95,65 %
31.12.2017 08:54 10,9 C 3,3 C 70 % 1013,2 hPa 0,0 l/m 25,7 km/h (4 Bft) W-SW 247 0 min 0,000 mm 0,0 UV-I 25 W/m 5,6 C 2,9 C 30,6 km/h (5 Bft) 95,65 %
31.12.2017 08:55 10,9 C 3,3 C 70 % 1013,2 hPa 0,0 l/m 22,5 km/h (4 Bft) SW 225 0 min 0,000 mm 0,0 UV-I 26 W/m 5,6 C 3,7 C 33,8 km/h (5 Bft) 95,65 %
31.12.2017 08:56 11,0 C 3,3 C 69 % 1013,3 hPa 0,0 l/m 24,1 km/h (4 Bft) W-SW 247 0 min 0,000 mm 0,0 UV-I 30 W/m 5,5 C 3,4 C 32,2 km/h (5 Bft) 95,65 %
31.12.2017 08:57 11,0 C 3,3 C 70 % 1013,3 hPa 0,0 l/m 19,3 km/h (3 Bft) SW 225 0 min 0,000 mm 0,0 UV-I 30 W/m 5,7 C 4,8 C 27,4 km/h (4 Bft) 100,00 %
31.12.2017 08:58 11,1 C 3,3 C 69 % 1013,3 hPa 0,0 l/m 24,1 km/h (4 Bft) SW 225 0 min 0,000 mm 0,0 UV-I 33 W/m 5,6 C 3,6 C 33,8 km/h (5 Bft) 95,65 %
31.12.2017 08:59 11,1 C 3,3 C 69 % 1013,3 hPa 0,0 l/m 20,9 km/h (4 Bft) W-SW 247 0 min 0,000 mm 0,0 UV-I 35 W/m 5,6 C 4,4 C 30,6 km/h (5 Bft) 95,65 %
31.12.2017 09:00 11,1 C 3,3 C 69 % 1013,3 hPa 0,0 l/m 24,1 km/h (4 Bft) SW 225 0 min 0,076 mm 0,0 UV-I 35 W/m 5,6 C 3,6 C 32,2 km/h (5 Bft) 91,30 %
31.12.2017 09:01 11,1 C 3,3 C 69 % 1013,3 hPa 0,0 l/m 25,7 km/h (4 Bft) W-SW 247 0 min 0,000 mm 0,0 UV-I 35 W/m 5,6 C 3,2 C 33,8 km/h (5 Bft) 100,00 %
31.12.2017 09:02 11,2 C 3,3 C 69 % 1013,3 hPa 0,0 l/m 20,9 km/h (4 Bft) SW 225 0 min 0,000 mm 0,0 UV-I 35 W/m 5,7 C 4,6 C 30,6 km/h (5 Bft) 95,65 %
31.12.2017 09:03 11,2 C 3,3 C 69 % 1013,4 hPa 0,0 l/m 24,1 km/h (4 Bft) SW 225 0 min 0,000 mm 0,0 UV-I 33 W/m 5,7 C 3,7 C 33,8 km/h (5 Bft) 91,30 %
31.12.2017 09:04 11,2 C 3,3 C 69 % 1013,3 hPa 0,0 l/m 25,7 km/h (4 Bft) W-SW 247 0 min 0,000 mm 0,0 UV-I 36 W/m 5,7 C 3,3 C 33,8 km/h (5 Bft) 100,00 %
31.12.2017 09:05 11,2 C 3,3 C 68 % 1013,3 hPa 0,0 l/m 27,4 km/h (4 Bft) SW 225 0 min 0,000 mm 0,0 UV-I 40 W/m 5,5 C 2,9 C 37,0 km/h (5 Bft) 91,30 %
31.12.2017 09:06 11,3 C 3,3 C 68 % 1013,3 hPa 0,0 l/m 20,9 km/h (4 Bft) W-SW 247 0 min 0,000 mm 0,0 UV-I 40 W/m 5,6 C 4,7 C 30,6 km/h (5 Bft) 95,65 %
31.12.2017 09:07 11,3 C 3,3 C 68 % 1013,4 hPa 0,0 l/m 20,9 km/h (4 Bft) W-SW 247 0 min 0,000 mm 0,0 UV-I 39 W/m 5,6 C 4,7 C 25,7 km/h (4 Bft) 100,00 %
31.12.2017 09:08 11,3 C 3,3 C 68 % 1013,5 hPa 0,0 l/m 17,7 km/h (3 Bft) W-SW 247 0 min 0,000 mm 0,0 UV-I 35 W/m 5,6 C 5,7 C 27,4 km/h (4 Bft) 95,65 %
31.12.2017 09:09 11,3 C 3,3 C 68 % 1013,4 hPa 0,0 l/m 19,3 km/h (3 Bft) W-SW 247 0 min 0,000 mm 0,0 UV-I 33 W/m 5,6 C 5,2 C 24,1 km/h (4 Bft) 100,00 %
31.12.2017 09:10 11,3 C 3,3 C 69 % 1013,5 hPa 0,0 l/m 19,3 km/h (3 Bft) W-SW 247 0 min 0,000 mm 0,0 UV-I 30 W/m 5,8 C 5,2 C 29,0 km/h (5 Bft) 100,00 %
31.12.2017 09:11 11,3 C 3,3 C 68 % 1013,5 hPa 0,2 l/m 22,5 km/h (4 Bft) W-SW 247 0 min 0,000 mm 0,0 UV-I 26 W/m 5,6 C 4,2 C 35,4 km/h (5 Bft) 100,00 %
31.12.2017 09:12 11,3 C 3,3 C 68 % 1013,5 hPa 0,0 l/m 24,1 km/h (4 Bft) SW 225 0 min 0,000 mm 0,0 UV-I 26 W/m 5,6 C 3,8 C 35,4 km/h (5 Bft) 100,00 %
31.12.2017 09:13 11,3 C 3,3 C 68 % 1013,5 hPa 0,0 l/m 20,9 km/h (4 Bft) W-SW 247 0 min 0,000 mm 0,0 UV-I 25 W/m 5,6 C 4,7 C 27,4 km/h (4 Bft) 95,65 %
31.12.2017 09:14 11,3 C 3,3 C 68 % 1013,5 hPa 0,0 l/m 24,1 km/h (4 Bft) W-SW 247 0 min 0,000 mm 0,0 UV-I 26 W/m 5,6 C 3,8 C 33,8 km/h (5 Bft) 91,30 %
31.12.2017 09:15 11,3 C 3,3 C 68 % 1013,5 hPa 0,0 l/m 22,5 km/h (4 Bft) W-SW 247 0 min 0,000 mm 0,0 UV-I 35 W/m 5,6 C 4,2 C 29,0 km/h (5 Bft) 100,00 %
31.12.2017 09:16 11,3 C 3,3 C 68 % 1013,6 hPa 0,0 l/m 20,9 km/h (4 Bft) W-SW 247 0 min 0,000 mm 0,0 UV-I 42 W/m 5,6 C 4,7 C 25,7 km/h (4 Bft) 100,00 %
31.12.2017 09:17 11,3 C 3,3 C 68 % 1013,6 hPa 0,0 l/m 24,1 km/h (4 Bft) W-SW 247 0 min 0,000 mm 0,0 UV-I 51 W/m 5,6 C 3,8 C 32,2 km/h (5 Bft) 100,00 %
31.12.2017 09:18 11,4 C 3,3 C 68 % 1013,6 hPa 0,0 l/m 22,5 km/h (4 Bft) W-SW 247 0 min 0,000 mm 0,0 UV-I 58 W/m 5,7 C 4,4 C 35,4 km/h (5 Bft) 100,00 %
31.12.2017 09:19 11,4 C 3,3 C 68 % 1013,6 hPa 0,0 l/m 24,1 km/h (4 Bft) W-SW 247 0 min 0,000 mm 0,0 UV-I 62 W/m 5,7 C 4,0 C 33,8 km/h (5 Bft) 95,65 %
31.12.2017 09:20 11,4 C 3,3 C 68 % 1013,7 hPa 0,0 l/m 22,5 km/h (4 Bft) W-SW 247 0 min 0,000 mm 0,0 UV-I 58 W/m 5,7 C 4,4 C 30,6 km/h (5 Bft) 100,00 %
31.12.2017 09:21 11,4 C 3,3 C 68 % 1013,7 hPa 0,0 l/m 27,4 km/h (4 Bft) W-SW 247 0 min 0,000 mm 0,0 UV-I 53 W/m 5,7 C 3,2 C 40,2 km/h (6 Bft) 95,65 %
31.12.2017 09:22 11,5 C 3,3 C 68 % 1013,7 hPa 0,0 l/m 22,5 km/h (4 Bft) W-SW 247 0 min 0,000 mm 0,0 UV-I 54 W/m 5,8 C 4,5 C 30,6 km/h (5 Bft) 95,65 %
31.12.2017 09:23 11,5 C 3,3 C 68 % 1013,7 hPa 0,0 l/m 20,9 km/h (4 Bft) W-SW 247 0 min 0,000 mm 0,0 UV-I 63 W/m 5,8 C 5,0 C 30,6 km/h (5 Bft) 95,65 %
31.12.2017 09:24 11,6 C 3,3 C 68 % 1013,7 hPa 0,0 l/m 29,0 km/h (5 Bft) W-SW 247 0 min 0,000 mm 0,0 UV-I 70 W/m 5,9 C 3,1 C 35,4 km/h (5 Bft) 100,00 %
31.12.2017 09:25 11,6 C 3,3 C 67 % 1013,8 hPa 0,0 l/m 20,9 km/h (4 Bft) W-SW 247 0 min 0,000 mm 0,0 UV-I 76 W/m 5,7 C 5,1 C 29,0 km/h (5 Bft) 100,00 %
31.12.2017 09:26 11,6 C 3,3 C 68 % 1013,8 hPa 0,0 l/m 22,5 km/h (4 Bft) W-SW 247 0 min 0,000 mm 0,0 UV-I 74 W/m 5,9 C 4,6 C 30,6 km/h (5 Bft) 95,65 %
31.12.2017 09:27 11,6 C 3,3 C 68 % 1013,8 hPa 0,0 l/m 19,3 km/h (3 Bft) SW 225 0 min 0,000 mm 0,0 UV-I 65 W/m 5,9 C 5,6 C 29,0 km/h (5 Bft) 100,00 %
31.12.2017 09:28 11,6 C 3,3 C 68 % 1013,8 hPa 0,0 l/m 22,5 km/h (4 Bft) SW 225 0 min 0,000 mm 0,0 UV-I 60 W/m 5,9 C 4,6 C 32,2 km/h (5 Bft) 95,65 %
31.12.2017 09:29 11,6 C 3,3 C 68 % 1013,9 hPa 0,0 l/m 16,1 km/h (3 Bft) SW 225 0 min 0,000 mm 0,0 UV-I 46 W/m 5,9 C 6,7 C 20,9 km/h (4 Bft) 100,00 %
31.12.2017 09:30 11,6 C 3,3 C 68 % 1013,8 hPa 0,0 l/m 20,9 km/h (4 Bft) W-SW 247 0 min 0,000 mm 0,0 UV-I 42 W/m 5,9 C 5,1 C 30,6 km/h (5 Bft) 100,00 %
31.12.2017 09:31 11,6 C 3,3 C 67 % 1013,9 hPa 0,0 l/m 22,5 km/h (4 Bft) SW 225 0 min 0,000 mm 0,0 UV-I 42 W/m 5,7 C 4,6 C 32,2 km/h (5 Bft) 100,00 %
31.12.2017 09:32 11,6 C 3,9 C 67 % 1013,9 hPa 0,0 l/m 17,7 km/h (3 Bft) W-SW 247 0 min 0,000 mm 0,0 UV-I 40 W/m 5,7 C 6,1 C 27,4 km/h (4 Bft) 100,00 %
31.12.2017 09:33 11,6 C 3,9 C 68 % 1013,9 hPa 0,0 l/m 16,1 km/h (3 Bft) W-SW 247 0 min 0,000 mm 0,0 UV-I 41 W/m 5,9 C 6,7 C 22,5 km/h (4 Bft) 100,00 %
31.12.2017 09:34 11,6 C 3,3 C 68 % 1013,9 hPa 0,0 l/m 22,5 km/h (4 Bft) W-SW 247 0 min 0,000 mm 0,0 UV-I 44 W/m 5,9 C 4,6 C 30,6 km/h (5 Bft) 100,00 %
31.12.2017 09:35 11,6 C 3,3 C 68 % 1013,8 hPa 0,0 l/m 20,9 km/h (4 Bft) SW 225 0 min 0,000 mm 0,0 UV-I 44 W/m 5,9 C 5,1 C 27,4 km/h (4 Bft) 95,65 %
31.12.2017 09:36 11,6 C 3,3 C 68 % 1013,9 hPa 0,0 l/m 17,7 km/h (3 Bft) SW 225 0 min 0,000 mm 0,0 UV-I 44 W/m 5,9 C 6,1 C 24,1 km/h (4 Bft) 100,00 %
31.12.2017 09:37 11,6 C 3,3 C 67 % 1013,9 hPa 0,0 l/m 16,1 km/h (3 Bft) SW 225 0 min 0,000 mm 0,0 UV-I 46 W/m 5,7 C 6,7 C 24,1 km/h (4 Bft) 100,00 %
31.12.2017 09:38 11,6 C 3,3 C 68 % 1013,9 hPa 0,0 l/m 16,1 km/h (3 Bft) W-SW 247 0 min 0,000 mm 0,0 UV-I 46 W/m 5,9 C 6,7 C 27,4 km/h (4 Bft) 100,00 %
31.12.2017 09:39 11,5 C 3,3 C 68 % 1013,9 hPa 0,0 l/m 17,7 km/h (3 Bft) SW 225 0 min 0,000 mm 0,0 UV-I 44 W/m 5,8 C 6,0 C 20,9 km/h (4 Bft) 100,00 %
31.12.2017 09:40 11,5 C 3,3 C 68 % 1013,9 hPa 0,0 l/m 17,7 km/h (3 Bft) W-SW 247 0 min 0,000 mm 0,0 UV-I 39 W/m 5,8 C 6,0 C 20,9 km/h (4 Bft) 100,00 %
31.12.2017 09:41 11,5 C 3,3 C 68 % 1014,0 hPa 0,0 l/m 16,1 km/h (3 Bft) W-SW 247 0 min 0,000 mm 0,0 UV-I 37 W/m 5,8 C 6,5 C 20,9 km/h (4 Bft) 100,00 %
31.12.2017 09:42 11,4 C 3,3 C 68 % 1013,9 hPa 0,0 l/m 17,7 km/h (3 Bft) W-SW 247 0 min 0,000 mm 0,0 UV-I 37 W/m 5,7 C 5,8 C 22,5 km/h (4 Bft) 91,30 %
31.12.2017 09:43 11,5 C 3,3 C 68 % 1014,0 hPa 0,0 l/m 17,7 km/h (3 Bft) SW 225 0 min 0,000 mm 0,0 UV-I 39 W/m 5,8 C 6,0 C 29,0 km/h (5 Bft) 100,00 %
31.12.2017 09:44 11,5 C 3,3 C 68 % 1013,9 hPa 0,0 l/m 14,5 km/h (3 Bft) W-SW 247 0 min 0,000 mm 0,0 UV-I 40 W/m 5,8 C 7,2 C 22,5 km/h (4 Bft) 91,30 %
31.12.2017 09:45 11,5 C 3,3 C 68 % 1014,0 hPa 0,0 l/m 19,3 km/h (3 Bft) W-SW 247 0 min 0,000 mm 0,0 UV-I 41 W/m 5,8 C 5,4 C 27,4 km/h (4 Bft) 100,00 %
31.12.2017 09:46 11,5 C 3,3 C 68 % 1014,0 hPa 0,0 l/m 16,1 km/h (3 Bft) W-SW 247 0 min 0,000 mm 0,0 UV-I 40 W/m 5,8 C 6,5 C 22,5 km/h (4 Bft) 100,00 %
31.12.2017 09:47 11,5 C 3,3 C 68 % 1013,9 hPa 0,0 l/m 24,1 km/h (4 Bft) W-SW 247 0 min 0,000 mm 0,0 UV-I 39 W/m 5,8 C 4,1 C 32,2 km/h (5 Bft) 95,65 %
31.12.2017 09:48 11,6 C 3,3 C 68 % 1014,0 hPa 0,0 l/m 19,3 km/h (3 Bft) W-SW 247 0 min 0,000 mm 0,0 UV-I 39 W/m 5,9 C 5,6 C 24,1 km/h (4 Bft) 100,00 %
31.12.2017 09:49 11,6 C 3,3 C 68 % 1014,0 hPa 0,0 l/m 16,1 km/h (3 Bft) SW 225 0 min 0,000 mm 0,0 UV-I 40 W/m 5,9 C 6,7 C 19,3 km/h (3 Bft) 91,30 %
31.12.2017 09:50 11,6 C 3,3 C 68 % 1014,0 hPa 0,0 l/m 19,3 km/h (3 Bft) W-SW 247 0 min 0,000 mm 0,0 UV-I 40 W/m 5,9 C 5,6 C 27,4 km/h (4 Bft) 95,65 %
31.12.2017 09:51 11,6 C 3,3 C 68 % 1014,0 hPa 0,0 l/m 17,7 km/h (3 Bft) SW 225 0 min 0,000 mm 0,0 UV-I 40 W/m 5,9 C 6,1 C 27,4 km/h (4 Bft) 100,00 %
31.12.2017 09:52 11,6 C 3,3 C 68 % 1014,1 hPa 0,0 l/m 22,5 km/h (4 Bft) W-SW 247 0 min 0,000 mm 0,0 UV-I 42 W/m 5,9 C 4,6 C 37,0 km/h (5 Bft) 91,30 %
31.12.2017 09:53 11,6 C 3,3 C 68 % 1014,0 hPa 0,0 l/m 19,3 km/h (3 Bft) W 270 0 min 0,000 mm 0,0 UV-I 44 W/m 5,9 C 5,6 C 29,0 km/h (5 Bft) 100,00 %
31.12.2017 09:54 11,6 C 3,3 C 67 % 1014,0 hPa 0,0 l/m 17,7 km/h (3 Bft) W-SW 247 0 min 0,000 mm 0,0 UV-I 46 W/m 5,7 C 6,1 C 24,1 km/h (4 Bft) 95,65 %
31.12.2017 09:55 11,6 C 3,3 C 67 % 1014,0 hPa 0,0 l/m 19,3 km/h (3 Bft) W-SW 247 0 min 0,000 mm 0,0 UV-I 47 W/m 5,7 C 5,6 C 22,5 km/h (4 Bft) 95,65 %
31.12.2017 09:56 11,6 C 3,3 C 67 % 1014,1 hPa 0,0 l/m 16,1 km/h (3 Bft) W-SW 247 0 min 0,000 mm 0,0 UV-I 50 W/m 5,7 C 6,7 C 25,7 km/h (4 Bft) 95,65 %
31.12.2017 09:57 11,6 C 3,3 C 67 % 1014,1 hPa 0,0 l/m 17,7 km/h (3 Bft) W-SW 247 0 min 0,000 mm 0,0 UV-I 56 W/m 5,7 C 6,1 C 22,5 km/h (4 Bft) 91,30 %
31.12.2017 09:58 11,6 C 3,3 C 68 % 1014,1 hPa 0,0 l/m 22,5 km/h (4 Bft) W-SW 247 0 min 0,000 mm 0,0 UV-I 60 W/m 5,9 C 4,6 C 32,2 km/h (5 Bft) 95,65 %
31.12.2017 09:59 11,7 C 3,3 C 67 % 1014,1 hPa 0,0 l/m 20,9 km/h (4 Bft) W-SW 247 0 min 0,000 mm 0,0 UV-I 62 W/m 5,8 C 5,2 C 27,4 km/h (4 Bft) 95,65 %
31.12.2017 10:00 11,7 C 3,3 C 67 % 1014,0 hPa 0,0 l/m 22,5 km/h (4 Bft) W-SW 247 0 min 0,102 mm 0,0 UV-I 62 W/m 5,8 C 4,8 C 29,0 km/h (5 Bft) 100,00 %
31.12.2017 10:01 11,8 C 3,3 C 67 % 1014,1 hPa 0,0 l/m 19,3 km/h (3 Bft) W-SW 247 0 min 0,000 mm 0,0 UV-I 62 W/m 5,9 C 5,8 C 29,0 km/h (5 Bft) 95,65 %
31.12.2017 10:02 11,8 C 3,3 C 67 % 1014,1 hPa 0,0 l/m 19,3 km/h (3 Bft) W-SW 247 0 min 0,000 mm 0,0 UV-I 60 W/m 5,9 C 5,8 C 30,6 km/h (5 Bft) 100,00 %
31.12.2017 10:03 11,8 C 3,3 C 66 % 1014,1 hPa 0,0 l/m 20,9 km/h (4 Bft) W-SW 247 0 min 0,000 mm 0,0 UV-I 62 W/m 5,7 C 5,3 C 32,2 km/h (5 Bft) 91,30 %
31.12.2017 10:04 11,9 C 3,3 C 66 % 1014,1 hPa 0,0 l/m 20,9 km/h (4 Bft) W-SW 247 0 min 0,000 mm 0,0 UV-I 62 W/m 5,8 C 5,5 C 30,6 km/h (5 Bft) 100,00 %
31.12.2017 10:05 11,9 C 3,3 C 66 % 1014,1 hPa 0,0 l/m 17,7 km/h (3 Bft) W-SW 247 0 min 0,000 mm 0,0 UV-I 65 W/m 5,8 C 6,5 C 24,1 km/h (4 Bft) 91,30 %
31.12.2017 10:06 11,9 C 3,3 C 66 % 1014,2 hPa 0,0 l/m 17,7 km/h (3 Bft) W 270 0 min 0,000 mm 0,0 UV-I 67 W/m 5,8 C 6,5 C 22,5 km/h (4 Bft) 100,00 %
31.12.2017 10:07 11,9 C 3,3 C 66 % 1014,2 hPa 0,0 l/m 16,1 km/h (3 Bft) SW 225 0 min 0,000 mm 0,0 UV-I 65 W/m 5,8 C 7,0 C 24,1 km/h (4 Bft) 95,65 %
31.12.2017 10:08 11,9 C 3,3 C 66 % 1014,2 hPa 0,0 l/m 16,1 km/h (3 Bft) W-SW 247 0 min 0,000 mm 0,0 UV-I 63 W/m 5,8 C 7,0 C 25,7 km/h (4 Bft) 100,00 %
31.12.2017 10:09 11,9 C 3,3 C 66 % 1014,2 hPa 0,0 l/m 20,9 km/h (4 Bft) W-SW 247 0 min 0,000 mm 0,0 UV-I 62 W/m 5,8 C 5,5 C 27,4 km/h (4 Bft) 95,65 %
31.12.2017 10:10 11,9 C 3,3 C 66 % 1014,2 hPa 0,0 l/m 17,7 km/h (3 Bft) W-SW 247 0 min 0,000 mm 0,0 UV-I 62 W/m 5,8 C 6,5 C 25,7 km/h (4 Bft) 91,30 %
31.12.2017 10:11 11,9 C 3,3 C 66 % 1014,2 hPa 0,0 l/m 19,3 km/h (3 Bft) W-SW 247 0 min 0,000 mm 0,0 UV-I 60 W/m 5,8 C 6,0 C 25,7 km/h (4 Bft) 91,30 %
31.12.2017 10:12 11,9 C 3,3 C 66 % 1014,2 hPa 0,0 l/m 14,5 km/h (3 Bft) SW 225 0 min 0,000 mm 0,0 UV-I 58 W/m 5,8 C 7,6 C 24,1 km/h (4 Bft) 95,65 %
31.12.2017 10:13 11,9 C 3,3 C 66 % 1014,2 hPa 0,0 l/m 19,3 km/h (3 Bft) W 270 0 min 0,000 mm 0,0 UV-I 54 W/m 5,8 C 6,0 C 24,1 km/h (4 Bft) 95,65 %
31.12.2017 10:14 11,9 C 3,3 C 66 % 1014,1 hPa 0,0 l/m 24,1 km/h (4 Bft) W-SW 247 0 min 0,000 mm 0,0 UV-I 53 W/m 5,8 C 4,6 C 32,2 km/h (5 Bft) 100,00 %
31.12.2017 10:15 12,0 C 3,3 C 66 % 1014,2 hPa 0,0 l/m 22,5 km/h (4 Bft) W-SW 247 0 min 0,000 mm 0,0 UV-I 53 W/m 5,8 C 5,2 C 29,0 km/h (5 Bft) 100,00 %
31.12.2017 10:16 12,0 C 3,3 C 66 % 1014,1 hPa 0,0 l/m 19,3 km/h (3 Bft) W 270 0 min 0,000 mm 0,0 UV-I 51 W/m 5,8 C 6,1 C 24,1 km/h (4 Bft) 95,65 %
31.12.2017 10:17 12,0 C 3,3 C 66 % 1014,1 hPa 0,0 l/m 22,5 km/h (4 Bft) W-SW 247 0 min 0,000 mm 0,0 UV-I 51 W/m 5,8 C 5,2 C 32,2 km/h (5 Bft) 91,30 %
31.12.2017 10:18 12,1 C 3,3 C 66 % 1014,1 hPa 0,0 l/m 22,5 km/h (4 Bft) W 270 0 min 0,000 mm 0,0 UV-I 51 W/m 5,9 C 5,3 C 32,2 km/h (5 Bft) 100,00 %
31.12.2017 10:19 12,1 C 3,3 C 65 % 1014,1 hPa 0,0 l/m 22,5 km/h (4 Bft) W-SW 247 0 min 0,000 mm 0,0 UV-I 51 W/m 5,7 C 5,3 C 30,6 km/h (5 Bft) 95,65 %
31.12.2017 10:20 12,2 C 3,3 C 65 % 1014,1 hPa 0,0 l/m 22,5 km/h (4 Bft) W-SW 247 0 min 0,000 mm 0,0 UV-I 54 W/m 5,8 C 5,4 C 35,4 km/h (5 Bft) 100,00 %
31.12.2017 10:21 12,2 C 3,3 C 65 % 1014,2 hPa 0,0 l/m 19,3 km/h (3 Bft) W 270 0 min 0,000 mm 0,0 UV-I 56 W/m 5,8 C 6,3 C 25,7 km/h (4 Bft) 100,00 %
31.12.2017 10:22 12,2 C 3,3 C 65 % 1014,2 hPa 0,0 l/m 30,6 km/h (5 Bft) W-SW 247 0 min 0,000 mm 0,0 UV-I 58 W/m 5,8 C 3,6 C 41,8 km/h (6 Bft) 95,65 %
31.12.2017 10:23 12,2 C 3,3 C 65 % 1014,2 hPa 0,0 l/m 24,1 km/h (4 Bft) W 270 0 min 0,000 mm 0,0 UV-I 60 W/m 5,8 C 5,0 C 33,8 km/h (5 Bft) 91,30 %
31.12.2017 10:24 12,2 C 3,3 C 65 % 1014,2 hPa 0,0 l/m 19,3 km/h (3 Bft) W-SW 247 0 min 0,000 mm 0,0 UV-I 63 W/m 5,8 C 6,3 C 27,4 km/h (4 Bft) 91,30 %
31.12.2017 10:25 12,3 C 3,3 C 64 % 1014,1 hPa 0,0 l/m 20,9 km/h (4 Bft) W 270 0 min 0,000 mm 0,0 UV-I 65 W/m 5,7 C 6,0 C 30,6 km/h (5 Bft) 100,00 %
31.12.2017 10:26 12,3 C 3,3 C 64 % 1014,1 hPa 0,0 l/m 17,7 km/h (3 Bft) W-SW 247 0 min 0,000 mm 0,0 UV-I 69 W/m 5,7 C 7,0 C 20,9 km/h (4 Bft) 100,00 %
31.12.2017 10:27 12,3 C 3,3 C 65 % 1014,1 hPa 0,0 l/m 22,5 km/h (4 Bft) W-SW 247 0 min 0,000 mm 0,0 UV-I 72 W/m 5,9 C 5,6 C 35,4 km/h (5 Bft) 100,00 %
31.12.2017 10:28 12,3 C 3,3 C 64 % 1014,1 hPa 0,0 l/m 20,9 km/h (4 Bft) W-SW 247 0 min 0,000 mm 0,0 UV-I 72 W/m 5,7 C 6,0 C 29,0 km/h (5 Bft) 100,00 %
31.12.2017 10:29 12,3 C 3,3 C 64 % 1014,1 hPa 0,0 l/m 20,9 km/h (4 Bft) W-SW 247 0 min 0,000 mm 0,0 UV-I 72 W/m 5,7 C 6,0 C 33,8 km/h (5 Bft) 95,65 %
31.12.2017 10:30 12,3 C 3,9 C 64 % 1014,1 hPa 0,0 l/m 22,5 km/h (4 Bft) W-SW 247 0 min 0,000 mm 0,0 UV-I 74 W/m 5,7 C 5,6 C 30,6 km/h (5 Bft) 100,00 %
31.12.2017 10:31 12,3 C 3,9 C 64 % 1014,1 hPa 0,0 l/m 22,5 km/h (4 Bft) W 270 0 min 0,000 mm 0,0 UV-I 76 W/m 5,7 C 5,6 C 30,6 km/h (5 Bft) 95,65 %
31.12.2017 10:32 12,3 C 3,9 C 64 % 1014,1 hPa 0,0 l/m 22,5 km/h (4 Bft) W 270 0 min 0,000 mm 0,0 UV-I 76 W/m 5,7 C 5,6 C 32,2 km/h (5 Bft) 100,00 %
31.12.2017 10:33 12,3 C 3,3 C 64 % 1014,1 hPa 0,0 l/m 20,9 km/h (4 Bft) W-SW 247 0 min 0,000 mm 0,0 UV-I 76 W/m 5,7 C 6,0 C 27,4 km/h (4 Bft) 91,30 %
31.12.2017 10:34 12,4 C 3,3 C 64 % 1014,1 hPa 0,0 l/m 16,1 km/h (3 Bft) W-SW 247 0 min 0,000 mm 0,0 UV-I 74 W/m 5,8 C 7,6 C 22,5 km/h (4 Bft) 100,00 %
31.12.2017 10:35 12,4 C 3,3 C 64 % 1014,2 hPa 0,0 l/m 19,3 km/h (3 Bft) W-SW 247 0 min 0,000 mm 0,0 UV-I 72 W/m 5,8 C 6,6 C 25,7 km/h (4 Bft) 91,30 %
31.12.2017 10:36 12,3 C 3,9 C 64 % 1014,1 hPa 0,0 l/m 12,9 km/h (3 Bft) W-SW 247 0 min 0,000 mm 0,0 UV-I 72 W/m 5,7 C 8,8 C 17,7 km/h (3 Bft) 100,00 %
31.12.2017 10:37 12,3 C 3,9 C 64 % 1014,2 hPa 0,0 l/m 17,7 km/h (3 Bft) W-SW 247 0 min 0,000 mm 0,0 UV-I 71 W/m 5,7 C 7,0 C 25,7 km/h (4 Bft) 91,30 %
31.12.2017 10:38 12,3 C 3,9 C 64 % 1014,2 hPa 0,0 l/m 16,1 km/h (3 Bft) W-SW 247 0 min 0,000 mm 0,0 UV-I 72 W/m 5,7 C 7,5 C 24,1 km/h (4 Bft) 91,30 %
31.12.2017 10:39 12,3 C 3,3 C 64 % 1014,1 hPa 0,0 l/m 14,5 km/h (3 Bft) W 270 0 min 0,000 mm 0,0 UV-I 74 W/m 5,7 C 8,1 C 17,7 km/h (3 Bft) 100,00 %
31.12.2017 10:40 12,3 C 3,3 C 64 % 1014,1 hPa 0,0 l/m 16,1 km/h (3 Bft) SW 225 0 min 0,000 mm 0,0 UV-I 76 W/m 5,7 C 7,5 C 24,1 km/h (4 Bft) 95,65 %
31.12.2017 10:41 12,3 C 3,3 C 64 % 1014,1 hPa 0,0 l/m 14,5 km/h (3 Bft) W-SW 247 0 min 0,000 mm 0,0 UV-I 77 W/m 5,7 C 8,1 C 20,9 km/h (4 Bft) 100,00 %
31.12.2017 10:42 12,3 C 3,3 C 65 % 1014,2 hPa 0,0 l/m 14,5 km/h (3 Bft) SW 225 0 min 0,000 mm 0,0 UV-I 81 W/m 5,9 C 8,1 C 19,3 km/h (3 Bft) 95,65 %
31.12.2017 10:43 12,2 C 3,3 C 65 % 1014,2 hPa 0,0 l/m 14,5 km/h (3 Bft) SW 225 0 min 0,000 mm 0,0 UV-I 88 W/m 5,8 C 8,0 C 17,7 km/h (3 Bft) 100,00 %
31.12.2017 10:44 12,2 C 3,3 C 65 % 1014,1 hPa 0,0 l/m 19,3 km/h (3 Bft) W-SW 247 0 min 0,000 mm 0,0 UV-I 91 W/m 5,8 C 6,3 C 27,4 km/h (4 Bft) 95,65 %
31.12.2017 10:45 12,1 C 3,3 C 65 % 1014,1 hPa 0,0 l/m 17,7 km/h (3 Bft) SW 225 0 min 0,000 mm 0,0 UV-I 90 W/m 5,7 C 6,7 C 25,7 km/h (4 Bft) 91,30 %
31.12.2017 10:46 12,0 C 3,3 C 65 % 1014,1 hPa 0,0 l/m 16,1 km/h (3 Bft) W-SW 247 0 min 0,000 mm 0,0 UV-I 86 W/m 5,6 C 7,1 C 20,9 km/h (4 Bft) 95,65 %
31.12.2017 10:47 12,0 C 3,3 C 65 % 1014,1 hPa 0,0 l/m 20,9 km/h (4 Bft) SW 225 0 min 0,000 mm 0,0 UV-I 86 W/m 5,6 C 5,6 C 25,7 km/h (4 Bft) 95,65 %
31.12.2017 10:48 12,0 C 3,3 C 65 % 1014,1 hPa 0,0 l/m 16,1 km/h (3 Bft) W-SW 247 0 min 0,000 mm 0,0 UV-I 86 W/m 5,6 C 7,1 C 20,9 km/h (4 Bft) 95,65 %
31.12.2017 10:49 11,9 C 3,3 C 65 % 1014,2 hPa 0,0 l/m 19,3 km/h (3 Bft) SW 225 0 min 0,000 mm 0,0 UV-I 92 W/m 5,5 C 6,0 C 25,7 km/h (4 Bft) 95,65 %
31.12.2017 10:50 11,9 C 3,3 C 65 % 1014,1 hPa 0,0 l/m 16,1 km/h (3 Bft) SW 225 0 min 0,000 mm 0,0 UV-I 95 W/m 5,5 C 7,0 C 24,1 km/h (4 Bft) 91,30 %
31.12.2017 10:51 11,9 C 3,3 C 66 % 1014,1 hPa 0,0 l/m 16,1 km/h (3 Bft) SW 225 0 min 0,000 mm 0,0 UV-I 97 W/m 5,8 C 7,0 C 19,3 km/h (3 Bft) 95,65 %
31.12.2017 10:52 11,8 C 3,3 C 66 % 1014,1 hPa 0,0 l/m 14,5 km/h (3 Bft) SW 225 0 min 0,000 mm 0,0 UV-I 98 W/m 5,7 C 7,5 C 20,9 km/h (4 Bft) 95,65 %
31.12.2017 10:53 11,8 C 3,3 C 66 % 1014,1 hPa 0,0 l/m 16,1 km/h (3 Bft) SW 225 0 min 0,000 mm 0,0 UV-I 98 W/m 5,7 C 6,9 C 24,1 km/h (4 Bft) 95,65 %
31.12.2017 10:54 11,8 C 3,3 C 65 % 1014,1 hPa 0,0 l/m 16,1 km/h (3 Bft) SW 225 0 min 0,000 mm 0,0 UV-I 97 W/m 5,4 C 6,9 C 20,9 km/h (4 Bft) 100,00 %
31.12.2017 10:55 11,8 C 3,3 C 66 % 1014,1 hPa 0,0 l/m 16,1 km/h (3 Bft) SW 225 0 min 0,000 mm 0,0 UV-I 96 W/m 5,7 C 6,9 C 22,5 km/h (4 Bft) 95,65 %
31.12.2017 10:56 11,8 C 3,3 C 66 % 1014,1 hPa 0,0 l/m 11,3 km/h (2 Bft) SW 225 0 min 0,000 mm 0,0 UV-I 97 W/m 5,7 C 8,9 C 14,5 km/h (3 Bft) 95,65 %
31.12.2017 10:57 11,8 C 3,9 C 66 % 1014,0 hPa 0,0 l/m 19,3 km/h (3 Bft) SW 225 0 min 0,000 mm 0,0 UV-I 93 W/m 5,7 C 5,8 C 29,0 km/h (5 Bft) 100,00 %
31.12.2017 10:58 11,8 C 3,9 C 65 % 1014,1 hPa 0,0 l/m 17,7 km/h (3 Bft) SW 225 0 min 0,000 mm 0,0 UV-I 90 W/m 5,4 C 6,3 C 27,4 km/h (4 Bft) 95,65 %
31.12.2017 10:59 11,8 C 3,9 C 65 % 1014,0 hPa 0,0 l/m 17,7 km/h (3 Bft) SW 225 0 min 0,000 mm 0,0 UV-I 86 W/m 5,4 C 6,3 C 24,1 km/h (4 Bft) 95,65 %
31.12.2017 11:00 11,8 C 3,9 C 66 % 1014,0 hPa 0,0 l/m 16,1 km/h (3 Bft) SW 225 0 min 0,102 mm 0,0 UV-I 84 W/m 5,7 C 6,9 C 20,9 km/h (4 Bft) 91,30 %
31.12.2017 11:01 11,8 C 3,3 C 65 % 1014,1 hPa 0,0 l/m 16,1 km/h (3 Bft) SW 225 0 min 0,000 mm 0,0 UV-I 86 W/m 5,4 C 6,9 C 22,5 km/h (4 Bft) 95,65 %
31.12.2017 11:02 11,8 C 3,3 C 66 % 1014,0 hPa 0,0 l/m 16,1 km/h (3 Bft) W-SW 247 0 min 0,000 mm 0,0 UV-I 90 W/m 5,7 C 6,9 C 27,4 km/h (4 Bft) 91,30 %
31.12.2017 11:03 11,8 C 3,3 C 66 % 1014,0 hPa 0,0 l/m 19,3 km/h (3 Bft) W-SW 247 0 min 0,000 mm 0,0 UV-I 93 W/m 5,7 C 5,8 C 27,4 km/h (4 Bft) 100,00 %
31.12.2017 11:04 11,8 C 3,3 C 65 % 1014,0 hPa 0,0 l/m 19,3 km/h (3 Bft) SW 225 0 min 0,000 mm 0,0 UV-I 98 W/m 5,4 C 5,8 C 27,4 km/h (4 Bft) 91,30 %
31.12.2017 11:05 11,8 C 3,3 C 65 % 1014,0 hPa 0,0 l/m 16,1 km/h (3 Bft) SW 225 0 min 0,000 mm 0,0 UV-I 102 W/m 5,4 C 6,9 C 24,1 km/h (4 Bft) 95,65 %
31.12.2017 11:06 11,8 C 3,3 C 66 % 1014,1 hPa 0,0 l/m 14,5 km/h (3 Bft) W-SW 247 0 min 0,000 mm 0,0 UV-I 105 W/m 5,7 C 7,5 C 24,1 km/h (4 Bft) 91,30 %
31.12.2017 11:07 11,8 C 3,9 C 65 % 1014,1 hPa 0,0 l/m 17,7 km/h (3 Bft) SW 225 0 min 0,000 mm 0,0 UV-I 106 W/m 5,4 C 6,3 C 22,5 km/h (4 Bft) 95,65 %
31.12.2017 11:08 11,9 C 3,9 C 66 % 1014,1 hPa 0,0 l/m 22,5 km/h (4 Bft) SW 225 0 min 0,000 mm 0,0 UV-I 102 W/m 5,8 C 5,0 C 32,2 km/h (5 Bft) 95,65 %
31.12.2017 11:09 11,9 C 3,9 C 65 % 1014,1 hPa 0,0 l/m 19,3 km/h (3 Bft) W-SW 247 0 min 0,000 mm 0,0 UV-I 102 W/m 5,5 C 6,0 C 27,4 km/h (4 Bft) 91,30 %
31.12.2017 11:10 11,9 C 3,9 C 65 % 1014,0 hPa 0,0 l/m 19,3 km/h (3 Bft) W-SW 247 0 min 0,000 mm 0,0 UV-I 102 W/m 5,5 C 6,0 C 27,4 km/h (4 Bft) 100,00 %
31.12.2017 11:11 12,0 C 3,9 C 65 % 1013,9 hPa 0,0 l/m 14,5 km/h (3 Bft) W-SW 247 0 min 0,000 mm 0,0 UV-I 104 W/m 5,6 C 7,8 C 19,3 km/h (3 Bft) 100,00 %
31.12.2017 11:12 12,0 C 3,9 C 65 % 1014,1 hPa 0,0 l/m 14,5 km/h (3 Bft) W-SW 247 0 min 0,000 mm 0,0 UV-I 105 W/m 5,6 C 7,8 C 24,1 km/h (4 Bft) 100,00 %
31.12.2017 11:13 12,0 C 3,3 C 65 % 1014,0 hPa 0,0 l/m 19,3 km/h (3 Bft) W-SW 247 0 min 0,000 mm 0,0 UV-I 107 W/m 5,6 C 6,1 C 24,1 km/h (4 Bft) 95,65 %
31.12.2017 11:14 12,0 C 3,3 C 65 % 1014,0 hPa 0,0 l/m 19,3 km/h (3 Bft) W-SW 247 0 min 0,000 mm 0,0 UV-I 107 W/m 5,6 C 6,1 C 27,4 km/h (4 Bft) 100,00 %
31.12.2017 11:15 12,0 C 3,3 C 65 % 1014,1 hPa 0,0 l/m 20,9 km/h (4 Bft) W-SW 247 0 min 0,000 mm 0,0 UV-I 107 W/m 5,6 C 5,6 C 27,4 km/h (4 Bft) 91,30 %
31.12.2017 11:16 12,0 C 3,3 C 65 % 1014,0 hPa 0,0 l/m 22,5 km/h (4 Bft) W-SW 247 0 min 0,000 mm 0,0 UV-I 105 W/m 5,6 C 5,2 C 27,4 km/h (4 Bft) 95,65 %
31.12.2017 11:17 12,0 C 3,3 C 65 % 1014,1 hPa 0,0 l/m 19,3 km/h (3 Bft) W-SW 247 0 min 0,000 mm 0,0 UV-I 105 W/m 5,6 C 6,1 C 24,1 km/h (4 Bft) 100,00 %
31.12.2017 11:18 12,0 C 3,3 C 65 % 1013,9 hPa 0,0 l/m 19,3 km/h (3 Bft) W-SW 247 0 min 0,000 mm 0,0 UV-I 106 W/m 5,6 C 6,1 C 29,0 km/h (5 Bft) 95,65 %
31.12.2017 11:19 12,0 C 3,3 C 65 % 1014,0 hPa 0,0 l/m 22,5 km/h (4 Bft) SW 225 0 min 0,000 mm 0,0 UV-I 107 W/m 5,6 C 5,2 C 30,6 km/h (5 Bft) 100,00 %
31.12.2017 11:20 12,1 C 3,3 C 65 % 1013,9 hPa 0,0 l/m 19,3 km/h (3 Bft) SW 225 0 min 0,000 mm 0,0 UV-I 105 W/m 5,7 C 6,2 C 29,0 km/h (5 Bft) 91,30 %
31.12.2017 11:21 12,1 C 3,3 C 65 % 1013,9 hPa 0,0 l/m 16,1 km/h (3 Bft) SW 225 0 min 0,000 mm 0,0 UV-I 104 W/m 5,7 C 7,3 C 25,7 km/h (4 Bft) 100,00 %
31.12.2017 11:22 12,1 C 3,3 C 65 % 1013,9 hPa 0,0 l/m 16,1 km/h (3 Bft) SW 225 0 min 0,000 mm 0,0 UV-I 102 W/m 5,7 C 7,3 C 29,0 km/h (5 Bft) 95,65 %
31.12.2017 11:23 12,1 C 3,3 C 65 % 1013,8 hPa 0,0 l/m 20,9 km/h (4 Bft) SW 225 0 min 0,000 mm 0,0 UV-I 102 W/m 5,7 C 5,7 C 35,4 km/h (5 Bft) 100,00 %
31.12.2017 11:24 12,1 C 3,9 C 65 % 1013,8 hPa 0,0 l/m 19,3 km/h (3 Bft) SW 225 0 min 0,000 mm 0,0 UV-I 106 W/m 5,7 C 6,2 C 25,7 km/h (4 Bft) 95,65 %
31.12.2017 11:25 12,1 C 3,9 C 65 % 1013,8 hPa 0,0 l/m 25,7 km/h (4 Bft) SW 225 0 min 0,000 mm 0,0 UV-I 109 W/m 5,7 C 4,5 C 33,8 km/h (5 Bft) 95,65 %
31.12.2017 11:26 12,1 C 3,9 C 65 % 1013,8 hPa 0,0 l/m 20,9 km/h (4 Bft) SW 225 0 min 0,000 mm 0,0 UV-I 111 W/m 5,7 C 5,7 C 27,4 km/h (4 Bft) 91,30 %
31.12.2017 11:27 12,1 C 3,9 C 65 % 1013,8 hPa 0,0 l/m 17,7 km/h (3 Bft) SW 225 0 min 0,000 mm 0,0 UV-I 111 W/m 5,7 C 6,7 C 27,4 km/h (4 Bft) 95,65 %
31.12.2017 11:28 12,1 C 3,9 C 66 % 1013,8 hPa 0,0 l/m 22,5 km/h (4 Bft) SW 225 0 min 0,000 mm 0,0 UV-I 111 W/m 5,9 C 5,3 C 27,4 km/h (4 Bft) 91,30 %
31.12.2017 11:29 12,1 C 3,9 C 65 % 1013,7 hPa 0,0 l/m 24,1 km/h (4 Bft) SW 225 0 min 0,000 mm 0,0 UV-I 113 W/m 5,7 C 4,9 C 38,6 km/h (5 Bft) 100,00 %
31.12.2017 11:30 12,0 C 3,9 C 66 % 1013,7 hPa 0,0 l/m 20,9 km/h (4 Bft) W-SW 247 0 min 0,000 mm 0,0 UV-I 118 W/m 5,8 C 5,6 C 29,0 km/h (5 Bft) 95,65 %
31.12.2017 11:31 12,0 C 3,9 C 66 % 1013,7 hPa 0,0 l/m 22,5 km/h (4 Bft) SW 225 0 min 0,000 mm 0,0 UV-I 118 W/m 5,8 C 5,2 C 29,0 km/h (5 Bft) 95,65 %
31.12.2017 11:32 12,0 C 3,9 C 66 % 1013,7 hPa 0,0 l/m 24,1 km/h (4 Bft) SW 225 0 min 0,000 mm 0,0 UV-I 116 W/m 5,8 C 4,8 C 27,4 km/h (4 Bft) 100,00 %
31.12.2017 11:33 12,0 C 3,9 C 66 % 1013,7 hPa 0,0 l/m 20,9 km/h (4 Bft) SW 225 0 min 0,000 mm 0,0 UV-I 114 W/m 5,8 C 5,6 C 25,7 km/h (4 Bft) 95,65 %
31.12.2017 11:34 12,0 C 3,9 C 66 % 1013,7 hPa 0,0 l/m 20,9 km/h (4 Bft) SW 225 0 min 0,000 mm 0,0 UV-I 113 W/m 5,8 C 5,6 C 29,0 km/h (5 Bft) 95,65 %
31.12.2017 11:35 12,0 C 3,9 C 66 % 1013,7 hPa 0,0 l/m 22,5 km/h (4 Bft) SW 225 0 min 0,000 mm 0,0 UV-I 111 W/m 5,8 C 5,2 C 29,0 km/h (5 Bft) 95,65 %
31.12.2017 11:36 12,0 C 3,9 C 66 % 1013,7 hPa 0,0 l/m 24,1 km/h (4 Bft) SW 225 0 min 0,000 mm 0,0 UV-I 109 W/m 5,8 C 4,8 C 30,6 km/h (5 Bft) 100,00 %
31.12.2017 11:37 12,0 C 3,9 C 66 % 1013,7 hPa 0,0 l/m 19,3 km/h (3 Bft) SW 225 0 min 0,000 mm 0,0 UV-I 109 W/m 5,8 C 6,1 C 24,1 km/h (4 Bft) 95,65 %
31.12.2017 11:38 12,0 C 3,9 C 66 % 1013,7 hPa 0,0 l/m 14,5 km/h (3 Bft) SW 225 0 min 0,000 mm 0,0 UV-I 111 W/m 5,8 C 7,8 C 22,5 km/h (4 Bft) 95,65 %
31.12.2017 11:39 12,0 C 3,9 C 66 % 1013,7 hPa 0,0 l/m 20,9 km/h (4 Bft) SW 225 0 min 0,000 mm 0,0 UV-I 113 W/m 5,8 C 5,6 C 29,0 km/h (5 Bft) 95,65 %
31.12.2017 11:40 12,0 C 3,9 C 66 % 1013,7 hPa 0,0 l/m 20,9 km/h (4 Bft) SW 225 0 min 0,000 mm 0,0 UV-I 113 W/m 5,8 C 5,6 C 29,0 km/h (5 Bft) 100,00 %
31.12.2017 11:41 12,0 C 3,3 C 66 % 1013,7 hPa 0,0 l/m 19,3 km/h (3 Bft) SW 225 0 min 0,000 mm 0,0 UV-I 114 W/m 5,8 C 6,1 C 27,4 km/h (4 Bft) 95,65 %
31.12.2017 11:42 11,9 C 3,3 C 67 % 1013,7 hPa 0,0 l/m 14,5 km/h (3 Bft) SW 225 0 min 0,000 mm 0,0 UV-I 117 W/m 6,0 C 7,6 C 19,3 km/h (3 Bft) 95,65 %
31.12.2017 11:43 11,9 C 3,3 C 67 % 1013,8 hPa 0,0 l/m 16,1 km/h (3 Bft) SW 225 0 min 0,000 mm 0,0 UV-I 120 W/m 6,0 C 7,0 C 30,6 km/h (5 Bft) 95,65 %
31.12.2017 11:44 11,9 C 3,3 C 67 % 1013,7 hPa 0,0 l/m 17,7 km/h (3 Bft) SW 225 0 min 0,000 mm 0,0 UV-I 121 W/m 6,0 C 6,5 C 20,9 km/h (4 Bft) 95,65 %
31.12.2017 11:45 11,9 C 3,3 C 68 % 1013,7 hPa 0,0 l/m 16,1 km/h (3 Bft) SW 225 0 min 0,000 mm 0,0 UV-I 123 W/m 6,2 C 7,0 C 22,5 km/h (4 Bft) 100,00 %
31.12.2017 11:46 11,8 C 3,3 C 68 % 1013,7 hPa 0,0 l/m 16,1 km/h (3 Bft) SW 225 0 min 0,000 mm 0,0 UV-I 125 W/m 6,1 C 6,9 C 24,1 km/h (4 Bft) 100,00 %
31.12.2017 11:47 11,8 C 3,3 C 67 % 1013,7 hPa 0,0 l/m 16,1 km/h (3 Bft) S-SW 202 0 min 0,000 mm 0,0 UV-I 127 W/m 5,9 C 6,9 C 25,7 km/h (4 Bft) 100,00 %
31.12.2017 11:48 11,9 C 3,3 C 67 % 1013,7 hPa 0,0 l/m 17,7 km/h (3 Bft) SW 225 0 min 0,000 mm 0,0 UV-I 134 W/m 6,0 C 6,5 C 20,9 km/h (4 Bft) 91,30 %
31.12.2017 11:49 11,9 C 3,3 C 67 % 1013,6 hPa 0,0 l/m 16,1 km/h (3 Bft) SW 225 0 min 0,000 mm 0,3 UV-I 148 W/m 6,0 C 7,0 C 24,1 km/h (4 Bft) 95,65 %
31.12.2017 11:50 11,9 C 3,3 C 67 % 1013,8 hPa 0,0 l/m 16,1 km/h (3 Bft) SW 225 0 min 0,000 mm 0,5 UV-I 156 W/m 6,0 C 7,0 C 20,9 km/h (4 Bft) 100,00 %
31.12.2017 11:51 11,9 C 3,3 C 67 % 1013,7 hPa 0,0 l/m 17,7 km/h (3 Bft) SW 225 0 min 0,000 mm 0,5 UV-I 158 W/m 6,0 C 6,5 C 29,0 km/h (5 Bft) 100,00 %
31.12.2017 11:52 11,9 C 3,3 C 67 % 1013,7 hPa 0,0 l/m 16,1 km/h (3 Bft) SW 225 1 min 0,000 mm 0,6 UV-I 200 W/m 6,0 C 7,0 C 22,5 km/h (4 Bft) 95,65 %
31.12.2017 11:53 11,9 C 3,3 C 68 % 1013,7 hPa 0,0 l/m 16,1 km/h (3 Bft) SW 225 1 min 0,000 mm 0,6 UV-I 360 W/m 6,2 C 7,0 C 22,5 km/h (4 Bft) 100,00 %
31.12.2017 11:54 12,0 C 3,3 C 67 % 1013,7 hPa 0,0 l/m 16,1 km/h (3 Bft) W-SW 247 1 min 0,000 mm 0,6 UV-I 345 W/m 6,1 C 7,1 C 24,1 km/h (4 Bft) 100,00 %
31.12.2017 11:55 12,1 C 3,3 C 67 % 1013,7 hPa 0,0 l/m 17,7 km/h (3 Bft) SW 225 1 min 0,000 mm 0,6 UV-I 336 W/m 6,2 C 6,7 C 25,7 km/h (4 Bft) 95,65 %
31.12.2017 11:56 12,2 C 3,9 C 66 % 1013,7 hPa 0,0 l/m 22,5 km/h (4 Bft) SW 225 1 min 0,000 mm 0,6 UV-I 332 W/m 6,0 C 5,4 C 29,0 km/h (5 Bft) 100,00 %
31.12.2017 11:57 12,2 C 3,9 C 67 % 1013,7 hPa 0,0 l/m 16,1 km/h (3 Bft) SW 225 1 min 0,000 mm 0,6 UV-I 332 W/m 6,3 C 7,4 C 24,1 km/h (4 Bft) 100,00 %
31.12.2017 11:58 12,2 C 3,9 C 66 % 1013,6 hPa 0,0 l/m 19,3 km/h (3 Bft) SW 225 1 min 0,000 mm 0,6 UV-I 329 W/m 6,0 C 6,3 C 27,4 km/h (4 Bft) 100,00 %
31.12.2017 11:59 12,3 C 3,9 C 65 % 1013,6 hPa 0,0 l/m 17,7 km/h (3 Bft) SW 225 1 min 0,000 mm 0,6 UV-I 328 W/m 5,9 C 7,0 C 25,7 km/h (4 Bft) 100,00 %
31.12.2017 12:00 12,3 C 3,9 C 65 % 1013,5 hPa 0,0 l/m 17,7 km/h (3 Bft) W-SW 247 1 min 0,152 mm 0,6 UV-I 329 W/m 5,9 C 7,0 C 24,1 km/h (4 Bft) 100,00 %
31.12.2017 12:01 12,4 C 3,9 C 65 % 1013,6 hPa 0,0 l/m 17,7 km/h (3 Bft) S-SW 202 1 min 0,000 mm 0,6 UV-I 329 W/m 6,0 C 7,1 C 27,4 km/h (4 Bft) 95,65 %
31.12.2017 12:02 12,4 C 3,3 C 65 % 1013,6 hPa 0,0 l/m 20,9 km/h (4 Bft) SW 225 1 min 0,000 mm 0,6 UV-I 329 W/m 6,0 C 6,1 C 29,0 km/h (5 Bft) 95,65 %
31.12.2017 12:03 12,5 C 3,9 C 65 % 1013,5 hPa 0,0 l/m 17,7 km/h (3 Bft) W-SW 247 1 min 0,000 mm 0,6 UV-I 329 W/m 6,1 C 7,2 C 25,7 km/h (4 Bft) 100,00 %
31.12.2017 12:04 12,6 C 3,9 C 64 % 1013,5 hPa 0,0 l/m 17,7 km/h (3 Bft) SW 225 1 min 0,000 mm 0,6 UV-I 327 W/m 6,0 C 7,3 C 33,8 km/h (5 Bft) 100,00 %
31.12.2017 12:05 12,6 C 3,9 C 64 % 1013,5 hPa 0,0 l/m 17,7 km/h (3 Bft) SW 225 1 min 0,000 mm 0,6 UV-I 328 W/m 6,0 C 7,3 C 29,0 km/h (5 Bft) 100,00 %
31.12.2017 12:06 12,6 C 3,9 C 64 % 1013,5 hPa 0,0 l/m 19,3 km/h (3 Bft) SW 225 1 min 0,000 mm 0,6 UV-I 329 W/m 6,0 C 6,9 C 27,4 km/h (4 Bft) 100,00 %
31.12.2017 12:07 12,6 C 3,9 C 64 % 1013,5 hPa 0,0 l/m 19,3 km/h (3 Bft) SW 225 1 min 0,000 mm 0,6 UV-I 329 W/m 6,0 C 6,9 C 29,0 km/h (5 Bft) 100,00 %
31.12.2017 12:08 12,7 C 3,9 C 65 % 1013,5 hPa 0,0 l/m 19,3 km/h (3 Bft) SW 225 1 min 0,000 mm 0,6 UV-I 327 W/m 6,3 C 7,0 C 27,4 km/h (4 Bft) 95,65 %
31.12.2017 12:09 12,7 C 3,9 C 64 % 1013,6 hPa 0,0 l/m 17,7 km/h (3 Bft) SW 225 1 min 0,000 mm 0,6 UV-I 329 W/m 6,1 C 7,5 C 29,0 km/h (5 Bft) 95,65 %
31.12.2017 12:10 12,7 C 3,9 C 64 % 1013,5 hPa 0,0 l/m 17,7 km/h (3 Bft) SW 225 1 min 0,000 mm 0,6 UV-I 327 W/m 6,1 C 7,5 C 22,5 km/h (4 Bft) 100,00 %
31.12.2017 12:11 12,7 C 3,9 C 65 % 1013,6 hPa 0,0 l/m 19,3 km/h (3 Bft) SW 225 1 min 0,000 mm 0,6 UV-I 328 W/m 6,3 C 7,0 C 25,7 km/h (4 Bft) 95,65 %
31.12.2017 12:12 12,8 C 3,9 C 64 % 1013,5 hPa 0,0 l/m 19,3 km/h (3 Bft) S-SW 202 1 min 0,000 mm 0,6 UV-I 327 W/m 6,2 C 7,1 C 29,0 km/h (5 Bft) 95,65 %
31.12.2017 12:13 12,8 C 3,3 C 64 % 1013,5 hPa 0,0 l/m 14,5 km/h (3 Bft) SW 225 1 min 0,000 mm 0,6 UV-I 329 W/m 6,2 C 8,7 C 20,9 km/h (4 Bft) 100,00 %
31.12.2017 12:14 12,8 C 3,3 C 64 % 1013,5 hPa 0,0 l/m 14,5 km/h (3 Bft) SW 225 1 min 0,000 mm 0,6 UV-I 329 W/m 6,2 C 8,7 C 22,5 km/h (4 Bft) 100,00 %
31.12.2017 12:15 12,8 C 3,3 C 64 % 1013,5 hPa 0,0 l/m 14,5 km/h (3 Bft) S-SW 202 1 min 0,000 mm 0,6 UV-I 327 W/m 6,2 C 8,7 C 20,9 km/h (4 Bft) 100,00 %
31.12.2017 12:16 12,8 C 3,3 C 64 % 1013,5 hPa 0,0 l/m 17,7 km/h (3 Bft) SW 225 1 min 0,000 mm 0,6 UV-I 327 W/m 6,2 C 7,6 C 25,7 km/h (4 Bft) 95,65 %
31.12.2017 12:17 12,8 C 3,3 C 63 % 1013,4 hPa 0,0 l/m 16,1 km/h (3 Bft) W-SW 247 1 min 0,000 mm 0,6 UV-I 327 W/m 5,9 C 8,1 C 20,9 km/h (4 Bft) 100,00 %
31.12.2017 12:18 12,8 C 3,3 C 64 % 1013,5 hPa 0,0 l/m 14,5 km/h (3 Bft) SW 225 1 min 0,000 mm 0,6 UV-I 327 W/m 6,2 C 8,7 C 22,5 km/h (4 Bft) 100,00 %
31.12.2017 12:19 12,8 C 3,9 C 64 % 1013,5 hPa 0,0 l/m 16,1 km/h (3 Bft) W-SW 247 1 min 0,000 mm 0,6 UV-I 325 W/m 6,2 C 8,1 C 20,9 km/h (4 Bft) 100,00 %
31.12.2017 12:20 12,9 C 3,9 C 64 % 1013,5 hPa 0,0 l/m 20,9 km/h (4 Bft) W-SW 247 1 min 0,000 mm 0,6 UV-I 325 W/m 6,3 C 6,8 C 32,2 km/h (5 Bft) 100,00 %
31.12.2017 12:21 12,9 C 3,9 C 64 % 1013,4 hPa 0,0 l/m 19,3 km/h (3 Bft) SW 225 1 min 0,000 mm 0,6 UV-I 325 W/m 6,3 C 7,2 C 25,7 km/h (4 Bft) 100,00 %
31.12.2017 12:22 12,9 C 3,9 C 64 % 1013,4 hPa 0,0 l/m 16,1 km/h (3 Bft) W-SW 247 1 min 0,000 mm 0,6 UV-I 325 W/m 6,3 C 8,3 C 19,3 km/h (3 Bft) 100,00 %
31.12.2017 12:23 12,9 C 3,9 C 64 % 1013,4 hPa 0,0 l/m 20,9 km/h (4 Bft) SW 225 1 min 0,000 mm 0,6 UV-I 324 W/m 6,3 C 6,8 C 25,7 km/h (4 Bft) 95,65 %
31.12.2017 12:24 12,9 C 3,3 C 63 % 1013,5 hPa 0,0 l/m 22,5 km/h (4 Bft) SW 225 1 min 0,000 mm 0,6 UV-I 323 W/m 6,0 C 6,4 C 32,2 km/h (5 Bft) 100,00 %
31.12.2017 12:25 13,0 C 3,3 C 63 % 1013,4 hPa 0,0 l/m 17,7 km/h (3 Bft) W-SW 247 1 min 0,000 mm 0,6 UV-I 325 W/m 6,1 C 7,9 C 24,1 km/h (4 Bft) 100,00 %
31.12.2017 12:26 13,0 C 3,3 C 63 % 1013,4 hPa 0,0 l/m 14,5 km/h (3 Bft) W-SW 247 1 min 0,000 mm 0,6 UV-I 325 W/m 6,1 C 9,0 C 22,5 km/h (4 Bft) 95,65 %
31.12.2017 12:27 13,0 C 3,3 C 63 % 1013,4 hPa 0,0 l/m 16,1 km/h (3 Bft) SW 225 1 min 0,000 mm 0,6 UV-I 323 W/m 6,1 C 8,4 C 24,1 km/h (4 Bft) 100,00 %
31.12.2017 12:28 13,1 C 3,3 C 64 % 1013,4 hPa 0,0 l/m 12,9 km/h (3 Bft) SW 225 1 min 0,000 mm 0,6 UV-I 325 W/m 6,4 C 9,7 C 20,9 km/h (4 Bft) 95,65 %
31.12.2017 12:29 13,1 C 3,3 C 64 % 1013,4 hPa 0,0 l/m 16,1 km/h (3 Bft) W-SW 247 1 min 0,000 mm 0,6 UV-I 323 W/m 6,4 C 8,5 C 20,9 km/h (4 Bft) 100,00 %
31.12.2017 12:30 13,1 C 3,3 C 64 % 1013,4 hPa 0,0 l/m 14,5 km/h (3 Bft) W-SW 247 1 min 0,000 mm 0,6 UV-I 322 W/m 6,4 C 9,1 C 20,9 km/h (4 Bft) 91,30 %
31.12.2017 12:31 13,1 C 3,3 C 64 % 1013,4 hPa 0,0 l/m 19,3 km/h (3 Bft) SW 225 1 min 0,000 mm 0,6 UV-I 322 W/m 6,4 C 7,5 C 25,7 km/h (4 Bft) 86,96 %
31.12.2017 12:32 13,2 C 3,3 C 63 % 1013,4 hPa 0,0 l/m 24,1 km/h (4 Bft) SW 225 1 min 0,000 mm 0,6 UV-I 322 W/m 6,3 C 6,4 C 27,4 km/h (4 Bft) 100,00 %
31.12.2017 12:33 13,2 C 3,9 C 62 % 1013,3 hPa 0,0 l/m 19,3 km/h (3 Bft) SW 225 1 min 0,000 mm 0,6 UV-I 322 W/m 6,1 C 7,6 C 24,1 km/h (4 Bft) 95,65 %
31.12.2017 12:34 13,2 C 3,9 C 62 % 1013,4 hPa 0,0 l/m 14,5 km/h (3 Bft) SW 225 1 min 0,000 mm 0,6 UV-I 321 W/m 6,1 C 9,2 C 20,9 km/h (4 Bft) 100,00 %
31.12.2017 12:35 13,2 C 3,9 C 62 % 1013,3 hPa 0,0 l/m 22,5 km/h (4 Bft) W-SW 247 1 min 0,000 mm 0,6 UV-I 322 W/m 6,1 C 6,8 C 30,6 km/h (5 Bft) 95,65 %
31.12.2017 12:36 13,2 C 3,9 C 62 % 1013,3 hPa 0,0 l/m 20,9 km/h (4 Bft) W-SW 247 1 min 0,000 mm 0,6 UV-I 323 W/m 6,1 C 7,2 C 25,7 km/h (4 Bft) 100,00 %
31.12.2017 12:37 13,3 C 3,9 C 62 % 1013,3 hPa 0,0 l/m 22,5 km/h (4 Bft) W-SW 247 1 min 0,000 mm 0,6 UV-I 329 W/m 6,2 C 6,9 C 30,6 km/h (5 Bft) 91,30 %
31.12.2017 12:38 13,3 C 3,9 C 60 % 1013,3 hPa 0,0 l/m 25,7 km/h (4 Bft) SW 225 1 min 0,000 mm 0,6 UV-I 330 W/m 5,7 C 6,2 C 35,4 km/h (5 Bft) 95,65 %
31.12.2017 12:39 13,4 C 3,9 C 60 % 1013,2 hPa 0,0 l/m 19,3 km/h (3 Bft) W-SW 247 1 min 0,000 mm 0,6 UV-I 336 W/m 5,8 C 7,9 C 29,0 km/h (5 Bft) 95,65 %
31.12.2017 12:40 13,4 C 3,9 C 60 % 1013,3 hPa 0,0 l/m 19,3 km/h (3 Bft) W-SW 247 1 min 0,000 mm 0,6 UV-I 333 W/m 5,8 C 7,9 C 29,0 km/h (5 Bft) 95,65 %
31.12.2017 12:41 13,4 C 3,9 C 60 % 1013,3 hPa 0,0 l/m 19,3 km/h (3 Bft) W 270 1 min 0,000 mm 0,6 UV-I 336 W/m 5,8 C 7,9 C 30,6 km/h (5 Bft) 95,65 %
31.12.2017 12:42 13,5 C 3,9 C 61 % 1013,3 hPa 0,0 l/m 12,9 km/h (3 Bft) W-SW 247 1 min 0,000 mm 0,6 UV-I 336 W/m 6,1 C 10,2 C 17,7 km/h (3 Bft) 95,65 %
31.12.2017 12:43 13,5 C 3,3 C 61 % 1013,3 hPa 0,0 l/m 12,9 km/h (3 Bft) W 270 1 min 0,000 mm 0,6 UV-I 336 W/m 6,1 C 10,2 C 17,7 km/h (3 Bft) 95,65 %
31.12.2017 12:44 13,5 C 3,9 C 61 % 1013,2 hPa 0,0 l/m 17,7 km/h (3 Bft) W-SW 247 1 min 0,000 mm 0,6 UV-I 353 W/m 6,1 C 8,5 C 25,7 km/h (4 Bft) 91,30 %
31.12.2017 12:45 13,6 C 3,9 C 61 % 1013,1 hPa 0,0 l/m 17,7 km/h (3 Bft) W-SW 247 1 min 0,000 mm 0,6 UV-I 359 W/m 6,2 C 8,6 C 27,4 km/h (4 Bft) 95,65 %
31.12.2017 12:46 13,6 C 3,9 C 59 % 1013,2 hPa 0,0 l/m 27,4 km/h (4 Bft) SW 225 1 min 0,000 mm 0,6 UV-I 359 W/m 5,7 C 6,2 C 40,2 km/h (6 Bft) 95,65 %
31.12.2017 12:47 13,6 C 3,9 C 59 % 1013,2 hPa 0,0 l/m 25,7 km/h (4 Bft) W-SW 247 1 min 0,000 mm 0,6 UV-I 359 W/m 5,7 C 6,6 C 32,2 km/h (5 Bft) 91,30 %
31.12.2017 12:48 13,6 C 3,9 C 59 % 1013,2 hPa 0,0 l/m 29,0 km/h (5 Bft) W-SW 247 1 min 0,000 mm 0,6 UV-I 359 W/m 5,7 C 5,9 C 41,8 km/h (6 Bft) 95,65 %
31.12.2017 12:49 13,6 C 3,9 C 59 % 1013,2 hPa 0,0 l/m 19,3 km/h (3 Bft) W-SW 247 1 min 0,000 mm 0,6 UV-I 366 W/m 5,7 C 8,1 C 24,1 km/h (4 Bft) 91,30 %
31.12.2017 12:50 13,6 C 3,9 C 59 % 1013,2 hPa 0,0 l/m 19,3 km/h (3 Bft) W-SW 247 1 min 0,000 mm 0,6 UV-I 383 W/m 5,7 C 8,1 C 30,6 km/h (5 Bft) 100,00 %
31.12.2017 12:51 13,7 C 3,9 C 59 % 1013,3 hPa 0,0 l/m 27,4 km/h (4 Bft) W-SW 247 1 min 0,000 mm 0,6 UV-I 387 W/m 5,8 C 6,3 C 48,3 km/h (6 Bft) 86,96 %
31.12.2017 12:52 13,7 C 3,9 C 58 % 1013,3 hPa 0,0 l/m 25,7 km/h (4 Bft) W-SW 247 1 min 0,000 mm 0,6 UV-I 381 W/m 5,6 C 6,7 C 35,4 km/h (5 Bft) 95,65 %
31.12.2017 12:53 13,7 C 3,9 C 58 % 1013,2 hPa 0,0 l/m 20,9 km/h (4 Bft) W 270 1 min 0,000 mm 0,6 UV-I 387 W/m 5,6 C 7,8 C 30,6 km/h (5 Bft) 95,65 %
31.12.2017 12:54 13,7 C 3,9 C 59 % 1013,3 hPa 0,0 l/m 24,1 km/h (4 Bft) W 270 1 min 0,000 mm 0,6 UV-I 387 W/m 5,8 C 7,0 C 35,4 km/h (5 Bft) 95,65 %
31.12.2017 12:55 13,7 C 3,9 C 58 % 1013,2 hPa 0,0 l/m 19,3 km/h (3 Bft) W-SW 247 1 min 0,000 mm 0,6 UV-I 381 W/m 5,6 C 8,3 C 30,6 km/h (5 Bft) 95,65 %
31.12.2017 12:56 13,7 C 3,9 C 58 % 1013,2 hPa 0,0 l/m 24,1 km/h (4 Bft) SW 225 1 min 0,000 mm 0,6 UV-I 383 W/m 5,6 C 7,0 C 33,8 km/h (5 Bft) 95,65 %
31.12.2017 12:57 13,7 C 3,9 C 58 % 1013,3 hPa 0,0 l/m 22,5 km/h (4 Bft) W-SW 247 1 min 0,000 mm 0,6 UV-I 380 W/m 5,6 C 7,4 C 30,6 km/h (5 Bft) 100,00 %
31.12.2017 12:58 13,7 C 3,9 C 58 % 1013,2 hPa 0,0 l/m 20,9 km/h (4 Bft) W-SW 247 1 min 0,000 mm 0,6 UV-I 374 W/m 5,6 C 7,8 C 29,0 km/h (5 Bft) 91,30 %
31.12.2017 12:59 13,7 C 3,9 C 58 % 1013,2 hPa 0,0 l/m 24,1 km/h (4 Bft) SW 225 1 min 0,000 mm 0,6 UV-I 367 W/m 5,6 C 7,0 C 37,0 km/h (5 Bft) 100,00 %
31.12.2017 13:00 13,7 C 3,9 C 58 % 1013,3 hPa 0,0 l/m 29,0 km/h (5 Bft) W-SW 247 1 min 0,254 mm 0,5 UV-I 338 W/m 5,6 C 6,0 C 38,6 km/h (5 Bft) 95,65 %
31.12.2017 13:01 13,7 C 3,9 C 59 % 1013,3 hPa 0,0 l/m 22,5 km/h (4 Bft) W-SW 247 1 min 0,000 mm 0,5 UV-I 387 W/m 5,8 C 7,4 C 32,2 km/h (5 Bft) 100,00 %
31.12.2017 13:02 13,6 C 3,9 C 58 % 1013,3 hPa 0,0 l/m 27,4 km/h (4 Bft) W-SW 247 1 min 0,000 mm 0,5 UV-I 387 W/m 5,5 C 6,2 C 40,2 km/h (6 Bft) 95,65 %
31.12.2017 13:03 13,6 C 3,9 C 58 % 1013,4 hPa 0,0 l/m 27,4 km/h (4 Bft) W-SW 247 0 min 0,000 mm 0,5 UV-I 109 W/m 5,5 C 6,2 C 45,1 km/h (6 Bft) 100,00 %
31.12.2017 13:04 13,5 C 3,9 C 58 % 1013,3 hPa 0,0 l/m 35,4 km/h (5 Bft) W-SW 247 1 min 0,000 mm 0,6 UV-I 364 W/m 5,4 C 4,7 C 46,7 km/h (6 Bft) 95,65 %
31.12.2017 13:05 13,5 C 3,9 C 58 % 1013,2 hPa 0,0 l/m 24,1 km/h (4 Bft) W-SW 247 1 min 0,000 mm 0,5 UV-I 364 W/m 5,4 C 6,8 C 37,0 km/h (5 Bft) 100,00 %
31.12.2017 13:06 13,4 C 3,9 C 58 % 1013,3 hPa 0,0 l/m 25,7 km/h (4 Bft) W-SW 247 1 min 0,000 mm 0,5 UV-I 221 W/m 5,3 C 6,3 C 41,8 km/h (6 Bft) 95,65 %
31.12.2017 13:07 13,4 C 3,9 C 58 % 1013,3 hPa 0,0 l/m 25,7 km/h (4 Bft) W 270 1 min 0,000 mm 0,5 UV-I 221 W/m 5,3 C 6,3 C 33,8 km/h (5 Bft) 100,00 %
31.12.2017 13:08 13,4 C 3,9 C 58 % 1013,2 hPa 0,0 l/m 24,1 km/h (4 Bft) W-SW 247 1 min 0,000 mm 0,5 UV-I 390 W/m 5,3 C 6,6 C 33,8 km/h (5 Bft) 100,00 %
31.12.2017 13:09 13,4 C 3,9 C 58 % 1013,2 hPa 0,0 l/m 29,0 km/h (5 Bft) W 270 1 min 0,000 mm 0,5 UV-I 397 W/m 5,3 C 5,6 C 49,9 km/h (6 Bft) 100,00 %
31.12.2017 13:10 13,4 C 3,9 C 58 % 1013,4 hPa 0,0 l/m 30,6 km/h (5 Bft) W 270 1 min 0,000 mm 0,5 UV-I 362 W/m 5,3 C 5,3 C 46,7 km/h (6 Bft) 100,00 %
31.12.2017 13:11 13,4 C 3,9 C 58 % 1013,3 hPa 0,0 l/m 29,0 km/h (5 Bft) W 270 1 min 0,000 mm 0,3 UV-I 353 W/m 5,3 C 5,6 C 40,2 km/h (6 Bft) 95,65 %
31.12.2017 13:12 13,4 C 3,9 C 58 % 1013,2 hPa 0,0 l/m 25,7 km/h (4 Bft) W-SW 247 0 min 0,000 mm 0,5 UV-I 142 W/m 5,3 C 6,3 C 41,8 km/h (6 Bft) 91,30 %
31.12.2017 13:13 13,4 C 3,9 C 59 % 1013,3 hPa 0,0 l/m 27,4 km/h (4 Bft) W 270 0 min 0,000 mm 0,5 UV-I 142 W/m 5,6 C 5,9 C 40,2 km/h (6 Bft) 100,00 %
31.12.2017 13:14 13,3 C 3,9 C 58 % 1013,3 hPa 0,0 l/m 25,7 km/h (4 Bft) W 270 1 min 0,000 mm 0,5 UV-I 301 W/m 5,2 C 6,2 C 37,0 km/h (5 Bft) 100,00 %
31.12.2017 13:15 13,3 C 3,9 C 58 % 1013,2 hPa 0,0 l/m 27,4 km/h (4 Bft) W-SW 247 0 min 0,000 mm 0,5 UV-I 128 W/m 5,2 C 5,8 C 38,6 km/h (5 Bft) 100,00 %
31.12.2017 13:16 13,3 C 3,9 C 59 % 1013,3 hPa 0,0 l/m 22,5 km/h (4 Bft) W 270 0 min 0,000 mm 0,0 UV-I 142 W/m 5,5 C 6,9 C 43,5 km/h (6 Bft) 100,00 %
31.12.2017 13:17 13,3 C 3,9 C 59 % 1013,3 hPa 0,0 l/m 30,6 km/h (5 Bft) W-SW 247 0 min 0,000 mm 0,0 UV-I 160 W/m 5,5 C 5,2 C 46,7 km/h (6 Bft) 100,00 %
31.12.2017 13:18 13,3 C 3,9 C 58 % 1013,2 hPa 0,0 l/m 35,4 km/h (5 Bft) W-SW 247 1 min 0,000 mm 0,0 UV-I 171 W/m 5,2 C 4,4 C 49,9 km/h (6 Bft) 95,65 %
31.12.2017 13:19 13,3 C 3,9 C 58 % 1013,3 hPa 0,0 l/m 30,6 km/h (5 Bft) W 270 1 min 0,000 mm 0,5 UV-I 171 W/m 5,2 C 5,2 C 46,7 km/h (6 Bft) 100,00 %
31.12.2017 13:20 13,3 C 3,9 C 59 % 1013,1 hPa 0,0 l/m 30,6 km/h (5 Bft) W-SW 247 1 min 0,000 mm 0,0 UV-I 327 W/m 5,5 C 5,2 C 37,0 km/h (5 Bft) 95,65 %
31.12.2017 13:21 13,3 C 3,9 C 59 % 1013,2 hPa 0,0 l/m 22,5 km/h (4 Bft) W-SW 247 1 min 0,000 mm 0,0 UV-I 327 W/m 5,5 C 6,9 C 30,6 km/h (5 Bft) 100,00 %
31.12.2017 13:22 13,2 C 3,9 C 60 % 1013,2 hPa 0,0 l/m 22,5 km/h (4 Bft) W 270 1 min 0,000 mm 0,0 UV-I 221 W/m 5,6 C 6,8 C 37,0 km/h (5 Bft) 100,00 %
31.12.2017 13:23 13,2 C 3,9 C 60 % 1013,1 hPa 0,0 l/m 29,0 km/h (5 Bft) W 270 0 min 0,000 mm 0,0 UV-I 127 W/m 5,6 C 5,3 C 37,0 km/h (5 Bft) 100,00 %
31.12.2017 13:24 13,2 C 3,9 C 59 % 1013,2 hPa 0,0 l/m 24,1 km/h (4 Bft) W-SW 247 0 min 0,000 mm 0,0 UV-I 132 W/m 5,4 C 6,4 C 33,8 km/h (5 Bft) 100,00 %
31.12.2017 13:25 13,2 C 3,9 C 60 % 1013,1 hPa 0,0 l/m 25,7 km/h (4 Bft) W-SW 247 0 min 0,000 mm 0,0 UV-I 141 W/m 5,6 C 6,0 C 41,8 km/h (6 Bft) 100,00 %
31.12.2017 13:26 13,2 C 3,9 C 59 % 1013,2 hPa 0,0 l/m 29,0 km/h (5 Bft) W-SW 247 0 min 0,000 mm 0,0 UV-I 128 W/m 5,4 C 5,3 C 43,5 km/h (6 Bft) 100,00 %
31.12.2017 13:27 13,2 C 3,9 C 59 % 1013,1 hPa 0,0 l/m 30,6 km/h (5 Bft) W-SW 247 0 min 0,000 mm 0,0 UV-I 148 W/m 5,4 C 5,0 C 49,9 km/h (6 Bft) 91,30 %
31.12.2017 13:28 13,2 C 3,9 C 59 % 1013,1 hPa 0,0 l/m 24,1 km/h (4 Bft) W-SW 247 1 min 0,000 mm 0,0 UV-I 178 W/m 5,4 C 6,4 C 32,2 km/h (5 Bft) 100,00 %
31.12.2017 13:29 13,1 C 3,9 C 59 % 1013,0 hPa 0,0 l/m 29,0 km/h (5 Bft) W-SW 247 1 min 0,000 mm 0,0 UV-I 178 W/m 5,3 C 5,2 C 43,5 km/h (6 Bft) 100,00 %
31.12.2017 13:30 13,1 C 3,9 C 59 % 1013,1 hPa 0,0 l/m 33,8 km/h (5 Bft) W-SW 247 1 min 0,000 mm 0,0 UV-I 178 W/m 5,3 C 4,4 C 48,3 km/h (6 Bft) 100,00 %
31.12.2017 13:31 13,1 C 3,9 C 59 % 1013,0 hPa 0,0 l/m 33,8 km/h (5 Bft) W 270 1 min 0,000 mm 0,0 UV-I 178 W/m 5,3 C 4,4 C 53,1 km/h (7 Bft) 100,00 %
31.12.2017 13:32 13,1 C 3,9 C 59 % 1013,0 hPa 0,0 l/m 22,5 km/h (4 Bft) W-SW 247 1 min 0,000 mm 0,0 UV-I 165 W/m 5,3 C 6,6 C 53,1 km/h (7 Bft) 100,00 %
31.12.2017 13:33 13,1 C 3,9 C 60 % 1013,0 hPa 0,0 l/m 20,9 km/h (4 Bft) W-SW 247 0 min 0,000 mm 0,0 UV-I 130 W/m 5,5 C 7,0 C 35,4 km/h (5 Bft) 100,00 %
31.12.2017 13:34 13,1 C 3,9 C 60 % 1013,0 hPa 0,0 l/m 19,3 km/h (3 Bft) W-SW 247 0 min 0,000 mm 0,0 UV-I 130 W/m 5,5 C 7,5 C 32,2 km/h (5 Bft) 95,65 %
31.12.2017 13:35 13,1 C 3,9 C 60 % 1013,0 hPa 0,0 l/m 25,7 km/h (4 Bft) W-SW 247 0 min 0,000 mm 0,0 UV-I 146 W/m 5,5 C 5,9 C 45,1 km/h (6 Bft) 100,00 %
31.12.2017 13:36 13,1 C 3,9 C 60 % 1013,0 hPa 0,0 l/m 19,3 km/h (3 Bft) W 270 0 min 0,000 mm 0,0 UV-I 137 W/m 5,5 C 7,5 C 27,4 km/h (4 Bft) 100,00 %
31.12.2017 13:37 13,0 C 3,9 C 60 % 1013,0 hPa 0,0 l/m 19,3 km/h (3 Bft) W 270 0 min 0,000 mm 0,0 UV-I 137 W/m 5,4 C 7,4 C 22,5 km/h (4 Bft) 95,65 %
31.12.2017 13:38 13,0 C 3,9 C 60 % 1013,0 hPa 0,0 l/m 32,2 km/h (5 Bft) W 270 0 min 0,000 mm 0,0 UV-I 137 W/m 5,4 C 4,5 C 43,5 km/h (6 Bft) 100,00 %
31.12.2017 13:39 13,1 C 3,9 C 60 % 1013,0 hPa 0,0 l/m 27,4 km/h (4 Bft) W-SW 247 1 min 0,000 mm 0,0 UV-I 155 W/m 5,5 C 5,5 C 32,2 km/h (5 Bft) 100,00 %
31.12.2017 13:40 13,1 C 3,9 C 60 % 1013,0 hPa 0,0 l/m 25,7 km/h (4 Bft) W 270 1 min 0,000 mm 0,0 UV-I 155 W/m 5,5 C 5,9 C 33,8 km/h (5 Bft) 100,00 %
31.12.2017 13:41 13,1 C 3,9 C 60 % 1013,0 hPa 0,0 l/m 22,5 km/h (4 Bft) W-SW 247 0 min 0,000 mm 0,0 UV-I 149 W/m 5,5 C 6,6 C 30,6 km/h (5 Bft) 95,65 %
31.12.2017 13:42 13,1 C 3,9 C 59 % 1013,0 hPa 0,0 l/m 27,4 km/h (4 Bft) W 270 1 min 0,000 mm 0,0 UV-I 200 W/m 5,3 C 5,5 C 35,4 km/h (5 Bft) 100,00 %
31.12.2017 13:43 13,0 C 3,9 C 60 % 1013,0 hPa 0,0 l/m 19,3 km/h (3 Bft) W 270 1 min 0,000 mm 0,0 UV-I 185 W/m 5,4 C 7,4 C 27,4 km/h (4 Bft) 95,65 %
31.12.2017 13:44 13,0 C 3,9 C 60 % 1013,0 hPa 0,0 l/m 20,9 km/h (4 Bft) W-SW 247 1 min 0,000 mm 0,0 UV-I 153 W/m 5,4 C 6,9 C 25,7 km/h (4 Bft) 100,00 %
31.12.2017 13:45 13,1 C 3,9 C 59 % 1013,0 hPa 0,0 l/m 20,9 km/h (4 Bft) W-SW 247 1 min 0,000 mm 0,0 UV-I 153 W/m 5,3 C 7,0 C 33,8 km/h (5 Bft) 95,65 %
31.12.2017 13:46 13,1 C 3,9 C 60 % 1013,0 hPa 0,0 l/m 22,5 km/h (4 Bft) W-SW 247 1 min 0,000 mm 0,0 UV-I 171 W/m 5,5 C 6,6 C 40,2 km/h (6 Bft) 100,00 %
31.12.2017 13:47 13,1 C 3,9 C 60 % 1012,9 hPa 0,0 l/m 29,0 km/h (5 Bft) W-SW 247 1 min 0,000 mm 0,0 UV-I 171 W/m 5,5 C 5,2 C 40,2 km/h (6 Bft) 100,00 %
31.12.2017 13:48 13,1 C 3,9 C 59 % 1012,9 hPa 0,0 l/m 22,5 km/h (4 Bft) W-SW 247 1 min 0,000 mm 0,0 UV-I 346 W/m 5,3 C 6,6 C 30,6 km/h (5 Bft) 95,65 %
31.12.2017 13:49 13,2 C 3,9 C 60 % 1013,0 hPa 0,0 l/m 25,7 km/h (4 Bft) W 270 1 min 0,000 mm 0,0 UV-I 336 W/m 5,6 C 6,0 C 35,4 km/h (5 Bft) 100,00 %
31.12.2017 13:50 13,2 C 3,9 C 59 % 1012,9 hPa 0,0 l/m 17,7 km/h (3 Bft) W-SW 247 1 min 0,000 mm 0,0 UV-I 329 W/m 5,4 C 8,1 C 24,1 km/h (4 Bft) 100,00 %
31.12.2017 13:51 13,2 C 3,9 C 60 % 1012,9 hPa 0,0 l/m 17,7 km/h (3 Bft) W 270 1 min 0,000 mm 0,0 UV-I 327 W/m 5,6 C 8,1 C 30,6 km/h (5 Bft) 100,00 %
31.12.2017 13:52 13,3 C 3,9 C 60 % 1013,0 hPa 0,0 l/m 17,7 km/h (3 Bft) W 270 1 min 0,000 mm 0,0 UV-I 325 W/m 5,7 C 8,2 C 24,1 km/h (4 Bft) 100,00 %
31.12.2017 13:53 13,3 C 3,9 C 59 % 1013,0 hPa 0,0 l/m 19,3 km/h (3 Bft) W-SW 247 1 min 0,000 mm 0,0 UV-I 320 W/m 5,5 C 7,7 C 27,4 km/h (4 Bft) 100,00 %
31.12.2017 13:54 13,3 C 3,9 C 60 % 1012,9 hPa 0,0 l/m 19,3 km/h (3 Bft) W-SW 247 1 min 0,000 mm 0,0 UV-I 244 W/m 5,7 C 7,7 C 27,4 km/h (4 Bft) 100,00 %
31.12.2017 13:55 13,3 C 3,9 C 60 % 1012,9 hPa 0,0 l/m 22,5 km/h (4 Bft) W-SW 247 1 min 0,000 mm 0,0 UV-I 264 W/m 5,7 C 6,9 C 29,0 km/h (5 Bft) 95,65 %
31.12.2017 13:56 13,3 C 3,9 C 59 % 1012,9 hPa 0,0 l/m 22,5 km/h (4 Bft) W-SW 247 1 min 0,000 mm 0,0 UV-I 207 W/m 5,5 C 6,9 C 32,2 km/h (5 Bft) 100,00 %
31.12.2017 13:57 13,3 C 3,9 C 59 % 1012,9 hPa 0,0 l/m 20,9 km/h (4 Bft) W 270 1 min 0,000 mm 0,0 UV-I 207 W/m 5,5 C 7,3 C 37,0 km/h (5 Bft) 100,00 %
31.12.2017 13:58 13,3 C 3,9 C 59 % 1012,8 hPa 0,0 l/m 29,0 km/h (5 Bft) W-SW 247 1 min 0,000 mm 0,0 UV-I 207 W/m 5,5 C 5,5 C 40,2 km/h (6 Bft) 100,00 %
31.12.2017 13:59 13,3 C 3,9 C 59 % 1012,8 hPa 0,0 l/m 25,7 km/h (4 Bft) W-SW 247 1 min 0,000 mm 0,0 UV-I 287 W/m 5,5 C 6,2 C 37,0 km/h (5 Bft) 100,00 %
31.12.2017 14:00 13,2 C 3,9 C 59 % 1012,8 hPa 0,0 l/m 25,7 km/h (4 Bft) W 270 1 min 0,229 mm 0,0 UV-I 287 W/m 5,4 C 6,0 C 35,4 km/h (5 Bft) 100,00 %
31.12.2017 14:01 13,2 C 3,9 C 59 % 1012,8 hPa 0,0 l/m 17,7 km/h (3 Bft) W-SW 247 1 min 0,000 mm 0,0 UV-I 163 W/m 5,4 C 8,1 C 24,1 km/h (4 Bft) 95,65 %
31.12.2017 14:02 13,2 C 3,9 C 59 % 1012,8 hPa 0,0 l/m 17,7 km/h (3 Bft) W-SW 247 1 min 0,000 mm 0,0 UV-I 227 W/m 5,4 C 8,1 C 29,0 km/h (5 Bft) 95,65 %
31.12.2017 14:03 13,2 C 3,9 C 60 % 1012,8 hPa 0,0 l/m 24,1 km/h (4 Bft) W-SW 247 1 min 0,000 mm 0,0 UV-I 274 W/m 5,6 C 6,4 C 29,0 km/h (5 Bft) 100,00 %
31.12.2017 14:04 13,2 C 3,9 C 60 % 1012,9 hPa 0,0 l/m 25,7 km/h (4 Bft) W-SW 247 1 min 0,000 mm 0,0 UV-I 272 W/m 5,6 C 6,0 C 37,0 km/h (5 Bft) 100,00 %
31.12.2017 14:05 13,2 C 3,9 C 59 % 1012,8 hPa 0,0 l/m 24,1 km/h (4 Bft) W-SW 247 1 min 0,000 mm 0,0 UV-I 265 W/m 5,4 C 6,4 C 35,4 km/h (5 Bft) 95,65 %
31.12.2017 14:06 13,3 C 3,9 C 59 % 1012,8 hPa 0,0 l/m 22,5 km/h (4 Bft) W-SW 247 1 min 0,000 mm 0,0 UV-I 264 W/m 5,5 C 6,9 C 32,2 km/h (5 Bft) 91,30 %
31.12.2017 14:07 13,3 C 3,9 C 60 % 1012,8 hPa 0,0 l/m 19,3 km/h (3 Bft) W-SW 247 1 min 0,000 mm 0,0 UV-I 265 W/m 5,7 C 7,7 C 25,7 km/h (4 Bft) 100,00 %
31.12.2017 14:08 13,3 C 3,9 C 60 % 1012,8 hPa 0,0 l/m 19,3 km/h (3 Bft) W-SW 247 1 min 0,000 mm 0,0 UV-I 265 W/m 5,7 C 7,7 C 24,1 km/h (4 Bft) 95,65 %
31.12.2017 14:09 13,2 C 3,9 C 59 % 1012,7 hPa 0,0 l/m 19,3 km/h (3 Bft) W-SW 247 1 min 0,000 mm 0,0 UV-I 260 W/m 5,4 C 7,6 C 25,7 km/h (4 Bft) 95,65 %
31.12.2017 14:10 13,3 C 3,9 C 59 % 1012,7 hPa 0,0 l/m 20,9 km/h (4 Bft) W 270 1 min 0,000 mm 0,0 UV-I 262 W/m 5,5 C 7,3 C 27,4 km/h (4 Bft) 91,30 %
31.12.2017 14:11 13,3 C 3,9 C 60 % 1012,7 hPa 0,0 l/m 17,7 km/h (3 Bft) W 270 1 min 0,000 mm 0,0 UV-I 264 W/m 5,7 C 8,2 C 22,5 km/h (4 Bft) 91,30 %
31.12.2017 14:12 13,3 C 3,9 C 60 % 1012,7 hPa 0,0 l/m 14,5 km/h (3 Bft) W-SW 247 1 min 0,000 mm 0,0 UV-I 262 W/m 5,7 C 9,3 C 19,3 km/h (3 Bft) 95,65 %
31.12.2017 14:13 13,3 C 3,9 C 60 % 1012,7 hPa 0,0 l/m 22,5 km/h (4 Bft) W-SW 247 1 min 0,000 mm 0,0 UV-I 258 W/m 5,7 C 6,9 C 30,6 km/h (5 Bft) 91,30 %
31.12.2017 14:14 13,3 C 3,9 C 60 % 1012,6 hPa 0,0 l/m 17,7 km/h (3 Bft) W-SW 247 1 min 0,000 mm 0,0 UV-I 254 W/m 5,7 C 8,2 C 22,5 km/h (4 Bft) 95,65 %
31.12.2017 14:15 13,3 C 3,9 C 60 % 1012,7 hPa 0,0 l/m 25,7 km/h (4 Bft) W-SW 247 1 min 0,000 mm 0,0 UV-I 255 W/m 5,7 C 6,2 C 37,0 km/h (5 Bft) 91,30 %
31.12.2017 14:16 13,2 C 3,9 C 59 % 1012,6 hPa 0,0 l/m 24,1 km/h (4 Bft) W-SW 247 1 min 0,000 mm 0,0 UV-I 250 W/m 5,4 C 6,4 C 37,0 km/h (5 Bft) 95,65 %
31.12.2017 14:17 13,2 C 3,9 C 59 % 1012,6 hPa 0,0 l/m 17,7 km/h (3 Bft) W 270 1 min 0,000 mm 0,0 UV-I 255 W/m 5,4 C 8,1 C 24,1 km/h (4 Bft) 91,30 %
31.12.2017 14:18 13,3 C 3,9 C 60 % 1012,6 hPa 0,0 l/m 16,1 km/h (3 Bft) W 270 1 min 0,000 mm 0,0 UV-I 230 W/m 5,7 C 8,7 C 22,5 km/h (4 Bft) 95,65 %
31.12.2017 14:19 13,2 C 3,9 C 60 % 1012,6 hPa 0,0 l/m 14,5 km/h (3 Bft) W-SW 247 1 min 0,000 mm 0,0 UV-I 230 W/m 5,6 C 9,2 C 20,9 km/h (4 Bft) 91,30 %
31.12.2017 14:20 13,2 C 3,9 C 60 % 1012,6 hPa 0,0 l/m 17,7 km/h (3 Bft) W-SW 247 1 min 0,000 mm 0,0 UV-I 231 W/m 5,6 C 8,1 C 24,1 km/h (4 Bft) 100,00 %
31.12.2017 14:21 13,2 C 3,9 C 60 % 1012,7 hPa 0,0 l/m 19,3 km/h (3 Bft) W-SW 247 1 min 0,000 mm 0,0 UV-I 237 W/m 5,6 C 7,6 C 29,0 km/h (5 Bft) 91,30 %
31.12.2017 14:22 13,2 C 3,9 C 60 % 1012,7 hPa 0,0 l/m 22,5 km/h (4 Bft) W-SW 247 1 min 0,000 mm 0,0 UV-I 236 W/m 5,6 C 6,8 C 32,2 km/h (5 Bft) 100,00 %
31.12.2017 14:23 13,1 C 3,9 C 60 % 1012,7 hPa 0,0 l/m 20,9 km/h (4 Bft) W 270 1 min 0,000 mm 0,0 UV-I 236 W/m 5,5 C 7,0 C 33,8 km/h (5 Bft) 86,96 %
31.12.2017 14:24 13,1 C 3,9 C 60 % 1012,7 hPa 0,0 l/m 16,1 km/h (3 Bft) W-SW 247 1 min 0,000 mm 0,0 UV-I 236 W/m 5,5 C 8,5 C 27,4 km/h (4 Bft) 95,65 %
31.12.2017 14:25 13,1 C 3,9 C 60 % 1012,7 hPa 0,0 l/m 19,3 km/h (3 Bft) W-SW 247 1 min 0,000 mm 0,0 UV-I 232 W/m 5,5 C 7,5 C 22,5 km/h (4 Bft) 95,65 %
31.12.2017 14:26 13,1 C 3,9 C 60 % 1012,7 hPa 0,0 l/m 19,3 km/h (3 Bft) W-SW 247 1 min 0,000 mm 0,0 UV-I 235 W/m 5,5 C 7,5 C 29,0 km/h (5 Bft) 95,65 %
31.12.2017 14:27 13,1 C 3,9 C 60 % 1012,7 hPa 0,0 l/m 22,5 km/h (4 Bft) W-SW 247 1 min 0,000 mm 0,0 UV-I 236 W/m 5,5 C 6,6 C 29,0 km/h (5 Bft) 95,65 %
31.12.2017 14:28 13,1 C 3,9 C 60 % 1012,7 hPa 0,0 l/m 19,3 km/h (3 Bft) W-SW 247 1 min 0,000 mm 0,0 UV-I 232 W/m 5,5 C 7,5 C 29,0 km/h (5 Bft) 95,65 %
31.12.2017 14:29 13,1 C 3,9 C 60 % 1012,6 hPa 0,0 l/m 19,3 km/h (3 Bft) W-SW 247 1 min 0,000 mm 0,0 UV-I 230 W/m 5,5 C 7,5 C 27,4 km/h (4 Bft) 100,00 %
31.12.2017 14:30 13,1 C 3,9 C 60 % 1012,7 hPa 0,0 l/m 20,9 km/h (4 Bft) W-SW 247 1 min 0,000 mm 0,0 UV-I 206 W/m 5,5 C 7,0 C 27,4 km/h (4 Bft) 91,30 %
31.12.2017 14:31 13,1 C 3,9 C 60 % 1012,7 hPa 0,0 l/m 20,9 km/h (4 Bft) W-SW 247 1 min 0,000 mm 0,0 UV-I 188 W/m 5,5 C 7,0 C 30,6 km/h (5 Bft) 95,65 %
31.12.2017 14:32 13,1 C 3,9 C 60 % 1012,7 hPa 0,0 l/m 16,1 km/h (3 Bft) W-SW 247 1 min 0,000 mm 0,0 UV-I 186 W/m 5,5 C 8,5 C 25,7 km/h (4 Bft) 95,65 %
31.12.2017 14:33 13,1 C 3,9 C 60 % 1012,7 hPa 0,0 l/m 20,9 km/h (4 Bft) W 270 1 min 0,000 mm 0,0 UV-I 176 W/m 5,5 C 7,0 C 27,4 km/h (4 Bft) 95,65 %
31.12.2017 14:34 13,1 C 3,9 C 60 % 1012,7 hPa 0,0 l/m 19,3 km/h (3 Bft) W-SW 247 1 min 0,000 mm 0,0 UV-I 172 W/m 5,5 C 7,5 C 24,1 km/h (4 Bft) 100,00 %
31.12.2017 14:35 13,1 C 3,9 C 60 % 1012,7 hPa 0,0 l/m 12,9 km/h (3 Bft) W 270 1 min 0,000 mm 0,0 UV-I 172 W/m 5,5 C 9,7 C 20,9 km/h (4 Bft) 95,65 %
31.12.2017 14:36 13,1 C 3,9 C 60 % 1012,6 hPa 0,0 l/m 12,9 km/h (3 Bft) W-SW 247 1 min 0,000 mm 0,0 UV-I 192 W/m 5,5 C 9,7 C 20,9 km/h (4 Bft) 100,00 %
31.12.2017 14:37 13,0 C 3,9 C 60 % 1012,6 hPa 0,0 l/m 16,1 km/h (3 Bft) W 270 1 min 0,000 mm 0,0 UV-I 195 W/m 5,4 C 8,4 C 20,9 km/h (4 Bft) 91,30 %
31.12.2017 14:38 12,9 C 3,9 C 61 % 1012,6 hPa 0,0 l/m 17,7 km/h (3 Bft) W 270 1 min 0,000 mm 0,0 UV-I 190 W/m 5,6 C 7,7 C 24,1 km/h (4 Bft) 100,00 %
31.12.2017 14:39 12,9 C 3,9 C 60 % 1012,6 hPa 0,0 l/m 20,9 km/h (4 Bft) W 270 1 min 0,000 mm 0,0 UV-I 186 W/m 5,3 C 6,8 C 30,6 km/h (5 Bft) 95,65 %
31.12.2017 14:40 12,9 C 3,9 C 60 % 1012,6 hPa 0,0 l/m 17,7 km/h (3 Bft) W 270 1 min 0,000 mm 0,0 UV-I 186 W/m 5,3 C 7,7 C 22,5 km/h (4 Bft) 100,00 %
31.12.2017 14:41 12,9 C 3,9 C 60 % 1012,6 hPa 0,0 l/m 20,9 km/h (4 Bft) W 270 1 min 0,000 mm 0,0 UV-I 185 W/m 5,3 C 6,8 C 29,0 km/h (5 Bft) 95,65 %
31.12.2017 14:42 12,9 C 3,9 C 60 % 1012,6 hPa 0,0 l/m 17,7 km/h (3 Bft) W 270 1 min 0,000 mm 0,0 UV-I 183 W/m 5,3 C 7,7 C 27,4 km/h (4 Bft) 100,00 %
31.12.2017 14:43 12,9 C 3,9 C 60 % 1012,6 hPa 0,0 l/m 17,7 km/h (3 Bft) W 270 1 min 0,000 mm 0,0 UV-I 179 W/m 5,3 C 7,7 C 25,7 km/h (4 Bft) 95,65 %
31.12.2017 14:44 12,9 C 3,9 C 60 % 1012,6 hPa 0,0 l/m 14,5 km/h (3 Bft) W 270 1 min 0,000 mm 0,0 UV-I 174 W/m 5,3 C 8,8 C 25,7 km/h (4 Bft) 95,65 %
31.12.2017 14:45 12,9 C 3,9 C 61 % 1012,5 hPa 0,0 l/m 17,7 km/h (3 Bft) W-SW 247 1 min 0,000 mm 0,0 UV-I 171 W/m 5,6 C 7,7 C 25,7 km/h (4 Bft) 100,00 %
31.12.2017 14:46 12,9 C 3,9 C 61 % 1012,6 hPa 0,0 l/m 12,9 km/h (3 Bft) W-SW 247 1 min 0,000 mm 0,0 UV-I 171 W/m 5,6 C 9,5 C 17,7 km/h (3 Bft) 100,00 %
31.12.2017 14:47 12,8 C 3,9 C 61 % 1012,5 hPa 0,0 l/m 14,5 km/h (3 Bft) W 270 1 min 0,000 mm 0,0 UV-I 172 W/m 5,5 C 8,7 C 22,5 km/h (4 Bft) 95,65 %
31.12.2017 14:48 12,8 C 3,9 C 61 % 1012,5 hPa 0,0 l/m 19,3 km/h (3 Bft) W-SW 247 1 min 0,000 mm 0,0 UV-I 169 W/m 5,5 C 7,1 C 25,7 km/h (4 Bft) 100,00 %
31.12.2017 14:49 12,8 C 3,9 C 61 % 1012,5 hPa 0,0 l/m 17,7 km/h (3 Bft) W 270 1 min 0,000 mm 0,0 UV-I 166 W/m 5,5 C 7,6 C 24,1 km/h (4 Bft) 91,30 %
31.12.2017 14:50 12,8 C 3,9 C 61 % 1012,5 hPa 0,0 l/m 14,5 km/h (3 Bft) W-SW 247 1 min 0,000 mm 0,0 UV-I 163 W/m 5,5 C 8,7 C 20,9 km/h (4 Bft) 100,00 %
31.12.2017 14:51 12,8 C 3,9 C 61 % 1012,5 hPa 0,0 l/m 12,9 km/h (3 Bft) W-SW 247 1 min 0,000 mm 0,0 UV-I 162 W/m 5,5 C 9,4 C 17,7 km/h (3 Bft) 95,65 %
31.12.2017 14:52 12,8 C 3,9 C 61 % 1012,5 hPa 0,0 l/m 17,7 km/h (3 Bft) W-SW 247 1 min 0,000 mm 0,0 UV-I 158 W/m 5,5 C 7,6 C 25,7 km/h (4 Bft) 95,65 %
31.12.2017 14:53 12,8 C 3,9 C 61 % 1012,5 hPa 0,0 l/m 14,5 km/h (3 Bft) W-SW 247 1 min 0,000 mm 0,0 UV-I 155 W/m 5,5 C 8,7 C 20,9 km/h (4 Bft) 100,00 %
31.12.2017 14:54 12,7 C 3,9 C 61 % 1012,5 hPa 0,0 l/m 9,7 km/h (2 Bft) W-SW 247 1 min 0,000 mm 0,0 UV-I 156 W/m 5,4 C 10,7 C 14,5 km/h (3 Bft) 100,00 %
31.12.2017 14:55 12,8 C 3,9 C 61 % 1012,5 hPa 0,0 l/m 12,9 km/h (3 Bft) W-SW 247 1 min 0,000 mm 0,0 UV-I 154 W/m 5,5 C 9,4 C 17,7 km/h (3 Bft) 100,00 %
31.12.2017 14:56 12,7 C 3,9 C 61 % 1012,5 hPa 0,0 l/m 14,5 km/h (3 Bft) W-SW 247 1 min 0,000 mm 0,0 UV-I 153 W/m 5,4 C 8,6 C 19,3 km/h (3 Bft) 100,00 %
31.12.2017 14:57 12,7 C 3,9 C 62 % 1012,5 hPa 0,0 l/m 11,3 km/h (2 Bft) SW 225 1 min 0,000 mm 0,0 UV-I 151 W/m 5,6 C 9,9 C 17,7 km/h (3 Bft) 100,00 %
31.12.2017 14:58 12,7 C 3,9 C 62 % 1012,5 hPa 0,0 l/m 9,7 km/h (2 Bft) W-SW 247 1 min 0,000 mm 0,0 UV-I 148 W/m 5,6 C 10,7 C 14,5 km/h (3 Bft) 95,65 %
31.12.2017 14:59 12,7 C 3,9 C 62 % 1012,5 hPa 0,0 l/m 12,9 km/h (3 Bft) W-SW 247 1 min 0,000 mm 0,0 UV-I 146 W/m 5,6 C 9,2 C 19,3 km/h (3 Bft) 100,00 %
31.12.2017 15:00 12,7 C 3,9 C 62 % 1012,5 hPa 0,0 l/m 9,7 km/h (2 Bft) W-SW 247 1 min 0,178 mm 0,0 UV-I 144 W/m 5,6 C 10,7 C 14,5 km/h (3 Bft) 95,65 %
31.12.2017 15:01 12,6 C 3,9 C 63 % 1012,4 hPa 0,0 l/m 12,9 km/h (3 Bft) W 270 1 min 0,000 mm 0,0 UV-I 141 W/m 5,7 C 9,1 C 17,7 km/h (3 Bft) 100,00 %
31.12.2017 15:02 12,6 C 3,9 C 63 % 1012,4 hPa 0,0 l/m 12,9 km/h (3 Bft) W-SW 247 1 min 0,000 mm 0,0 UV-I 137 W/m 5,7 C 9,1 C 17,7 km/h (3 Bft) 100,00 %
31.12.2017 15:03 12,6 C 3,9 C 63 % 1012,4 hPa 0,0 l/m 14,5 km/h (3 Bft) W-SW 247 1 min 0,000 mm 0,0 UV-I 137 W/m 5,7 C 8,5 C 17,7 km/h (3 Bft) 95,65 %
31.12.2017 15:04 12,6 C 3,9 C 63 % 1012,3 hPa 0,0 l/m 12,9 km/h (3 Bft) W 270 1 min 0,000 mm 0,0 UV-I 137 W/m 5,7 C 9,1 C 19,3 km/h (3 Bft) 100,00 %
31.12.2017 15:05 12,6 C 3,9 C 63 % 1012,3 hPa 0,0 l/m 12,9 km/h (3 Bft) W-SW 247 1 min 0,000 mm 0,0 UV-I 132 W/m 5,7 C 9,1 C 16,1 km/h (3 Bft) 95,65 %
31.12.2017 15:06 12,6 C 3,9 C 62 % 1012,3 hPa 0,0 l/m 14,5 km/h (3 Bft) W-SW 247 1 min 0,000 mm 0,0 UV-I 130 W/m 5,5 C 8,5 C 17,7 km/h (3 Bft) 100,00 %
31.12.2017 15:07 12,6 C 3,9 C 63 % 1012,3 hPa 0,0 l/m 14,5 km/h (3 Bft) W-SW 247 1 min 0,000 mm 0,0 UV-I 128 W/m 5,7 C 8,5 C 19,3 km/h (3 Bft) 100,00 %
31.12.2017 15:08 12,6 C 3,9 C 62 % 1012,5 hPa 0,0 l/m 16,1 km/h (3 Bft) W-SW 247 1 min 0,000 mm 0,0 UV-I 127 W/m 5,5 C 7,9 C 27,4 km/h (4 Bft) 100,00 %
31.12.2017 15:09 12,6 C 3,9 C 62 % 1012,3 hPa 0,0 l/m 11,3 km/h (2 Bft) W-SW 247 1 min 0,000 mm 0,0 UV-I 125 W/m 5,5 C 9,8 C 17,7 km/h (3 Bft) 100,00 %
31.12.2017 15:10 12,6 C 3,9 C 62 % 1012,3 hPa 0,0 l/m 11,3 km/h (2 Bft) W-SW 247 1 min 0,000 mm 0,0 UV-I 125 W/m 5,5 C 9,8 C 14,5 km/h (3 Bft) 95,65 %
31.12.2017 15:11 12,6 C 3,9 C 62 % 1012,3 hPa 0,0 l/m 9,7 km/h (2 Bft) W-SW 247 1 min 0,000 mm 0,0 UV-I 123 W/m 5,5 C 10,6 C 20,9 km/h (4 Bft) 95,65 %
31.12.2017 15:12 12,6 C 3,9 C 62 % 1012,2 hPa 0,0 l/m 14,5 km/h (3 Bft) W-SW 247 1 min 0,000 mm 0,0 UV-I 121 W/m 5,5 C 8,5 C 17,7 km/h (3 Bft) 95,65 %
31.12.2017 15:13 12,6 C 3,9 C 62 % 1012,3 hPa 0,0 l/m 17,7 km/h (3 Bft) W-SW 247 1 min 0,000 mm 0,0 UV-I 120 W/m 5,5 C 7,3 C 22,5 km/h (4 Bft) 100,00 %
31.12.2017 15:14 12,6 C 3,9 C 62 % 1012,2 hPa 0,0 l/m 12,9 km/h (3 Bft) W-SW 247 1 min 0,000 mm 0,0 UV-I 118 W/m 5,5 C 9,1 C 16,1 km/h (3 Bft) 100,00 %
31.12.2017 15:15 12,6 C 3,9 C 62 % 1012,2 hPa 0,0 l/m 11,3 km/h (2 Bft) SW 225 1 min 0,000 mm 0,0 UV-I 116 W/m 5,5 C 9,8 C 17,7 km/h (3 Bft) 100,00 %
31.12.2017 15:16 12,6 C 3,9 C 62 % 1012,2 hPa 0,0 l/m 14,5 km/h (3 Bft) W-SW 247 1 min 0,000 mm 0,0 UV-I 116 W/m 5,5 C 8,5 C 20,9 km/h (4 Bft) 100,00 %
31.12.2017 15:17 12,6 C 3,9 C 62 % 1012,2 hPa 0,0 l/m 12,9 km/h (3 Bft) W-SW 247 1 min 0,000 mm 0,0 UV-I 116 W/m 5,5 C 9,1 C 22,5 km/h (4 Bft) 100,00 %
31.12.2017 15:18 12,6 C 3,9 C 62 % 1012,2 hPa 0,0 l/m 12,9 km/h (3 Bft) W-SW 247 1 min 0,000 mm 0,0 UV-I 114 W/m 5,5 C 9,1 C 19,3 km/h (3 Bft) 100,00 %
31.12.2017 15:19 12,6 C 3,9 C 62 % 1012,2 hPa 0,0 l/m 16,1 km/h (3 Bft) W-SW 247 1 min 0,000 mm 0,0 UV-I 113 W/m 5,5 C 7,9 C 24,1 km/h (4 Bft) 95,65 %
31.12.2017 15:20 12,6 C 3,9 C 62 % 1012,1 hPa 0,0 l/m 14,5 km/h (3 Bft) W-SW 247 1 min 0,000 mm 0,0 UV-I 113 W/m 5,5 C 8,5 C 24,1 km/h (4 Bft) 95,65 %
31.12.2017 15:21 12,6 C 3,9 C 62 % 1012,1 hPa 0,0 l/m 14,5 km/h (3 Bft) SW 225 1 min 0,000 mm 0,0 UV-I 111 W/m 5,5 C 8,5 C 25,7 km/h (4 Bft) 95,65 %
31.12.2017 15:22 12,6 C 3,9 C 62 % 1012,2 hPa 0,0 l/m 14,5 km/h (3 Bft) W-SW 247 1 min 0,000 mm 0,0 UV-I 111 W/m 5,5 C 8,5 C 20,9 km/h (4 Bft) 100,00 %
31.12.2017 15:23 12,6 C 3,9 C 62 % 1012,2 hPa 0,0 l/m 12,9 km/h (3 Bft) W-SW 247 1 min 0,000 mm 0,0 UV-I 109 W/m 5,5 C 9,1 C 19,3 km/h (3 Bft) 100,00 %
31.12.2017 15:24 12,6 C 3,9 C 62 % 1012,2 hPa 0,0 l/m 16,1 km/h (3 Bft) W-SW 247 1 min 0,000 mm 0,0 UV-I 107 W/m 5,5 C 7,9 C 22,5 km/h (4 Bft) 100,00 %
31.12.2017 15:25 12,6 C 3,9 C 62 % 1012,2 hPa 0,0 l/m 9,7 km/h (2 Bft) W-SW 247 1 min 0,000 mm 0,0 UV-I 105 W/m 5,5 C 10,6 C 17,7 km/h (3 Bft) 100,00 %
31.12.2017 15:26 12,6 C 3,9 C 62 % 1012,2 hPa 0,0 l/m 12,9 km/h (3 Bft) W-SW 247 1 min 0,000 mm 0,0 UV-I 104 W/m 5,5 C 9,1 C 16,1 km/h (3 Bft) 91,30 %
31.12.2017 15:27 12,5 C 3,9 C 62 % 1012,1 hPa 0,0 l/m 8,0 km/h (2 Bft) W-SW 247 1 min 0,000 mm 0,0 UV-I 102 W/m 5,4 C 11,5 C 14,5 km/h (3 Bft) 95,65 %
31.12.2017 15:28 12,5 C 3,9 C 63 % 1012,1 hPa 0,0 l/m 9,7 km/h (2 Bft) W-SW 247 1 min 0,000 mm 0,0 UV-I 100 W/m 5,7 C 10,5 C 14,5 km/h (3 Bft) 100,00 %
31.12.2017 15:29 12,4 C 3,9 C 63 % 1012,1 hPa 0,0 l/m 6,4 km/h (2 Bft) W-SW 247 1 min 0,000 mm 0,0 UV-I 98 W/m 5,6 C 12,4 C 8,0 km/h (2 Bft) 100,00 %
31.12.2017 15:30 12,4 C 3,9 C 63 % 1012,2 hPa 0,0 l/m 11,3 km/h (2 Bft) W-SW 247 1 min 0,000 mm 0,0 UV-I 98 W/m 5,6 C 9,6 C 16,1 km/h (3 Bft) 100,00 %
31.12.2017 15:31 12,4 C 3,9 C 63 % 1012,1 hPa 0,0 l/m 8,0 km/h (2 Bft) W-SW 247 1 min 0,000 mm 0,0 UV-I 95 W/m 5,6 C 11,4 C 12,9 km/h (3 Bft) 100,00 %
31.12.2017 15:32 12,4 C 3,9 C 63 % 1012,1 hPa 0,0 l/m 8,0 km/h (2 Bft) SW 225 1 min 0,000 mm 0,0 UV-I 93 W/m 5,6 C 11,4 C 9,7 km/h (2 Bft) 95,65 %
31.12.2017 15:33 12,4 C 3,9 C 63 % 1012,1 hPa 0,0 l/m 6,4 km/h (2 Bft) W-SW 247 1 min 0,000 mm 0,0 UV-I 93 W/m 5,6 C 12,4 C 11,3 km/h (2 Bft) 95,65 %
31.12.2017 15:34 12,4 C 3,9 C 63 % 1012,1 hPa 0,0 l/m 6,4 km/h (2 Bft) W-SW 247 1 min 0,000 mm 0,0 UV-I 91 W/m 5,6 C 12,4 C 11,3 km/h (2 Bft) 95,65 %
31.12.2017 15:35 12,4 C 3,9 C 63 % 1012,1 hPa 0,0 l/m 8,0 km/h (2 Bft) SW 225 1 min 0,000 mm 0,0 UV-I 90 W/m 5,6 C 11,4 C 9,7 km/h (2 Bft) 100,00 %
31.12.2017 15:36 12,3 C 3,9 C 64 % 1012,1 hPa 0,0 l/m 6,4 km/h (2 Bft) SW 225 1 min 0,000 mm 0,0 UV-I 87 W/m 5,7 C 12,3 C 9,7 km/h (2 Bft) 100,00 %
31.12.2017 15:37 12,3 C 3,9 C 64 % 1012,1 hPa 0,0 l/m 4,8 km/h (1 Bft) SW 225 1 min 0,000 mm 0,0 UV-I 84 W/m 5,7 C 12,3 C 8,0 km/h (2 Bft) 100,00 %
31.12.2017 15:38 12,3 C 3,9 C 64 % 1012,1 hPa 0,0 l/m 8,0 km/h (2 Bft) SW 225 1 min 0,000 mm 0,0 UV-I 83 W/m 5,7 C 11,3 C 12,9 km/h (3 Bft) 95,65 %
31.12.2017 15:39 12,3 C 3,9 C 64 % 1012,1 hPa 0,0 l/m 6,4 km/h (2 Bft) W-SW 247 1 min 0,000 mm 0,0 UV-I 83 W/m 5,7 C 12,3 C 9,7 km/h (2 Bft) 100,00 %
31.12.2017 15:40 12,3 C 3,9 C 64 % 1012,1 hPa 0,0 l/m 9,7 km/h (2 Bft) SW 225 1 min 0,000 mm 0,0 UV-I 70 W/m 5,7 C 10,3 C 12,9 km/h (3 Bft) 91,30 %
31.12.2017 15:41 12,2 C 3,9 C 64 % 1012,0 hPa 0,0 l/m 6,4 km/h (2 Bft) S 180 1 min 0,000 mm 0,0 UV-I 67 W/m 5,6 C 12,2 C 9,7 km/h (2 Bft) 91,30 %
31.12.2017 15:42 12,2 C 3,9 C 65 % 1011,9 hPa 0,0 l/m 6,4 km/h (2 Bft) S-SW 202 1 min 0,000 mm 0,0 UV-I 73 W/m 5,8 C 12,2 C 8,0 km/h (2 Bft) 95,65 %
31.12.2017 15:43 12,1 C 3,9 C 65 % 1012,0 hPa 0,0 l/m 4,8 km/h (1 Bft) S-SW 202 1 min 0,000 mm 0,0 UV-I 70 W/m 5,7 C 12,1 C 6,4 km/h (2 Bft) 100,00 %
31.12.2017 15:44 12,1 C 3,9 C 66 % 1012,0 hPa 0,0 l/m 4,8 km/h (1 Bft) S-SW 202 1 min 0,000 mm 0,0 UV-I 69 W/m 5,9 C 12,1 C 6,4 km/h (2 Bft) 95,65 %
31.12.2017 15:45 12,1 C 3,9 C 66 % 1012,0 hPa 0,0 l/m 4,8 km/h (1 Bft) SW 225 1 min 0,000 mm 0,0 UV-I 63 W/m 5,9 C 12,1 C 6,4 km/h (2 Bft) 100,00 %
31.12.2017 15:46 11,9 C 3,9 C 66 % 1012,0 hPa 0,0 l/m 4,8 km/h (1 Bft) SW 225 1 min 0,000 mm 0,0 UV-I 62 W/m 5,8 C 11,9 C 8,0 km/h (2 Bft) 95,65 %
31.12.2017 15:47 11,9 C 3,9 C 67 % 1012,0 hPa 0,0 l/m 4,8 km/h (1 Bft) S-SW 202 1 min 0,000 mm 0,0 UV-I 58 W/m 6,0 C 11,9 C 6,4 km/h (2 Bft) 91,30 %
31.12.2017 15:48 11,8 C 3,9 C 67 % 1012,0 hPa 0,0 l/m 3,2 km/h (1 Bft) S-SW 202 1 min 0,000 mm 0,0 UV-I 55 W/m 5,9 C 11,8 C 4,8 km/h (1 Bft) 100,00 %
31.12.2017 15:49 11,8 C 3,9 C 67 % 1012,0 hPa 0,0 l/m 3,2 km/h (1 Bft) S-SW 202 1 min 0,000 mm 0,0 UV-I 51 W/m 5,9 C 11,8 C 4,8 km/h (1 Bft) 91,30 %
31.12.2017 15:50 11,7 C 3,9 C 67 % 1012,0 hPa 0,0 l/m 3,2 km/h (1 Bft) S-SW 202 1 min 0,000 mm 0,0 UV-I 47 W/m 5,8 C 11,7 C 6,4 km/h (2 Bft) 100,00 %
31.12.2017 15:51 11,7 C 3,9 C 68 % 1012,0 hPa 0,0 l/m 4,8 km/h (1 Bft) S-SW 202 1 min 0,000 mm 0,0 UV-I 46 W/m 6,0 C 11,7 C 6,4 km/h (2 Bft) 95,65 %
31.12.2017 15:52 11,7 C 3,9 C 68 % 1012,0 hPa 0,0 l/m 3,2 km/h (1 Bft) S-SW 202 1 min 0,000 mm 0,0 UV-I 46 W/m 6,0 C 11,7 C 4,8 km/h (1 Bft) 100,00 %
31.12.2017 15:53 11,7 C 3,9 C 68 % 1012,0 hPa 0,0 l/m 3,2 km/h (1 Bft) S-SW 202 1 min 0,000 mm 0,0 UV-I 46 W/m 6,0 C 11,7 C 4,8 km/h (1 Bft) 95,65 %
31.12.2017 15:54 11,6 C 3,9 C 68 % 1011,9 hPa 0,0 l/m 3,2 km/h (1 Bft) S-SW 202 1 min 0,000 mm 0,0 UV-I 45 W/m 5,9 C 11,6 C 4,8 km/h (1 Bft) 95,65 %
31.12.2017 15:55 11,6 C 3,9 C 68 % 1012,0 hPa 0,0 l/m 4,8 km/h (1 Bft) S-SW 202 1 min 0,000 mm 0,0 UV-I 42 W/m 5,9 C 11,6 C 6,4 km/h (2 Bft) 91,30 %
31.12.2017 15:56 11,6 C 3,9 C 68 % 1012,0 hPa 0,0 l/m 3,2 km/h (1 Bft) S-SW 202 1 min 0,000 mm 0,0 UV-I 40 W/m 5,9 C 11,6 C 4,8 km/h (1 Bft) 100,00 %
31.12.2017 15:57 11,6 C 3,9 C 68 % 1011,9 hPa 0,0 l/m 4,8 km/h (1 Bft) S-SW 202 1 min 0,000 mm 0,0 UV-I 37 W/m 5,9 C 11,6 C 8,0 km/h (2 Bft) 91,30 %
31.12.2017 15:58 11,6 C 3,9 C 68 % 1011,9 hPa 0,0 l/m 4,8 km/h (1 Bft) S-SW 202 1 min 0,000 mm 0,0 UV-I 35 W/m 5,9 C 11,6 C 6,4 km/h (2 Bft) 100,00 %
31.12.2017 15:59 11,6 C 3,9 C 68 % 1011,9 hPa 0,0 l/m 3,2 km/h (1 Bft) S-SW 202 1 min 0,000 mm 0,0 UV-I 33 W/m 5,9 C 11,6 C 4,8 km/h (1 Bft) 95,65 %
31.12.2017 16:00 11,6 C 3,9 C 68 % 1011,9 hPa 0,0 l/m 3,2 km/h (1 Bft) S-SW 202 1 min 0,076 mm 0,0 UV-I 32 W/m 5,9 C 11,6 C 4,8 km/h (1 Bft) 100,00 %
31.12.2017 16:01 11,5 C 3,9 C 68 % 1011,9 hPa 0,0 l/m 1,6 km/h (1 Bft) S-SW 202 1 min 0,000 mm 0,0 UV-I 32 W/m 5,8 C 11,5 C 4,8 km/h (1 Bft) 86,96 %
31.12.2017 16:02 11,4 C 3,9 C 68 % 1011,9 hPa 0,0 l/m 3,2 km/h (1 Bft) S-SW 202 1 min 0,000 mm 0,0 UV-I 32 W/m 5,7 C 11,4 C 4,8 km/h (1 Bft) 100,00 %
31.12.2017 16:03 11,3 C 3,9 C 69 % 1011,9 hPa 0,0 l/m 0,0 km/h (0 Bft) S-SW 202 1 min 0,000 mm 0,0 UV-I 30 W/m 5,8 C 11,3 C 3,2 km/h (1 Bft) 100,00 %
31.12.2017 16:04 11,2 C 3,9 C 69 % 1011,9 hPa 0,0 l/m 0,0 km/h (0 Bft) S-SW 202 1 min 0,000 mm 0,0 UV-I 30 W/m 5,7 C 11,2 C 1,6 km/h (1 Bft) 100,00 %
31.12.2017 16:05 11,1 C 3,9 C 70 % 1011,9 hPa 0,0 l/m 1,6 km/h (1 Bft) S-SW 202 1 min 0,000 mm 0,0 UV-I 22 W/m 5,8 C 11,1 C 3,2 km/h (1 Bft) 95,65 %
31.12.2017 16:06 11,0 C 3,9 C 70 % 1011,9 hPa 0,0 l/m 1,6 km/h (1 Bft) S-SW 202 1 min 0,000 mm 0,0 UV-I 19 W/m 5,7 C 11,0 C 3,2 km/h (1 Bft) 100,00 %
31.12.2017 16:07 10,9 C 3,9 C 70 % 1011,9 hPa 0,0 l/m 4,8 km/h (1 Bft) S-SW 202 1 min 0,000 mm 0,0 UV-I 17 W/m 5,6 C 10,9 C 6,4 km/h (2 Bft) 100,00 %
31.12.2017 16:08 10,9 C 3,9 C 70 % 1011,8 hPa 0,0 l/m 6,4 km/h (2 Bft) S-SW 202 0 min 0,000 mm 0,0 UV-I 14 W/m 5,6 C 10,9 C 9,7 km/h (2 Bft) 95,65 %
31.12.2017 16:09 10,9 C 3,9 C 70 % 1011,8 hPa 0,0 l/m 3,2 km/h (1 Bft) SW 225 0 min 0,000 mm 0,0 UV-I 11 W/m 5,6 C 10,9 C 6,4 km/h (2 Bft) 95,65 %
31.12.2017 16:10 10,9 C 3,9 C 70 % 1011,9 hPa 0,0 l/m 4,8 km/h (1 Bft) S-SW 202 0 min 0,000 mm 0,0 UV-I 9 W/m 5,6 C 10,9 C 8,0 km/h (2 Bft) 91,30 %
31.12.2017 16:11 10,9 C 3,9 C 70 % 1011,9 hPa 0,0 l/m 3,2 km/h (1 Bft) S-SW 202 0 min 0,000 mm 0,0 UV-I 6 W/m 5,6 C 10,9 C 6,4 km/h (2 Bft) 95,65 %
31.12.2017 16:12 10,9 C 3,9 C 70 % 1011,9 hPa 0,0 l/m 4,8 km/h (1 Bft) S-SW 202 0 min 0,000 mm 0,0 UV-I 19 W/m 5,6 C 10,9 C 4,8 km/h (1 Bft) 95,65 %
31.12.2017 16:13 10,9 C 3,9 C 70 % 1011,9 hPa 0,0 l/m 6,4 km/h (2 Bft) SW 225 0 min 0,000 mm 0,0 UV-I 18 W/m 5,6 C 10,9 C 11,3 km/h (2 Bft) 95,65 %
31.12.2017 16:14 10,9 C 3,9 C 70 % 1011,9 hPa 0,0 l/m 4,8 km/h (1 Bft) SW 225 0 min 0,000 mm 0,0 UV-I 16 W/m 5,6 C 10,9 C 8,0 km/h (2 Bft) 100,00 %
31.12.2017 16:15 10,9 C 3,9 C 70 % 1011,9 hPa 0,0 l/m 6,4 km/h (2 Bft) SW 225 0 min 0,000 mm 0,0 UV-I 16 W/m 5,6 C 10,9 C 9,7 km/h (2 Bft) 95,65 %
31.12.2017 16:16 10,9 C 3,9 C 70 % 1011,8 hPa 0,0 l/m 6,4 km/h (2 Bft) SW 225 0 min 0,000 mm 0,0 UV-I 14 W/m 5,6 C 10,9 C 8,0 km/h (2 Bft) 95,65 %
31.12.2017 16:17 10,9 C 3,9 C 70 % 1011,8 hPa 0,0 l/m 4,8 km/h (1 Bft) SW 225 0 min 0,000 mm 0,0 UV-I 12 W/m 5,6 C 10,9 C 8,0 km/h (2 Bft) 95,65 %
31.12.2017 16:18 10,9 C 3,9 C 70 % 1011,8 hPa 0,0 l/m 4,8 km/h (1 Bft) SW 225 0 min 0,000 mm 0,0 UV-I 11 W/m 5,6 C 10,9 C 6,4 km/h (2 Bft) 95,65 %
31.12.2017 16:19 10,8 C 3,9 C 70 % 1011,8 hPa 0,0 l/m 6,4 km/h (2 Bft) SW 225 0 min 0,000 mm 0,0 UV-I 9 W/m 5,6 C 10,8 C 8,0 km/h (2 Bft) 95,65 %
31.12.2017 16:20 10,8 C 3,9 C 70 % 1011,8 hPa 0,0 l/m 6,4 km/h (2 Bft) SW 225 0 min 0,000 mm 0,0 UV-I 9 W/m 5,6 C 10,8 C 9,7 km/h (2 Bft) 95,65 %
31.12.2017 16:21 10,6 C 3,9 C 71 % 1011,8 hPa 0,0 l/m 3,2 km/h (1 Bft) SW 225 0 min 0,000 mm 0,0 UV-I 7 W/m 5,6 C 10,6 C 4,8 km/h (1 Bft) 95,65 %
31.12.2017 16:22 10,5 C 3,9 C 71 % 1011,7 hPa 0,0 l/m 4,8 km/h (1 Bft) SW 225 0 min 0,000 mm 0,0 UV-I 7 W/m 5,5 C 10,5 C 8,0 km/h (2 Bft) 95,65 %
31.12.2017 16:23 10,5 C 3,9 C 71 % 1011,8 hPa 0,0 l/m 4,8 km/h (1 Bft) S-SW 202 0 min 0,000 mm 0,0 UV-I 7 W/m 5,5 C 10,5 C 6,4 km/h (2 Bft) 95,65 %
31.12.2017 16:24 10,5 C 3,9 C 71 % 1011,7 hPa 0,0 l/m 4,8 km/h (1 Bft) S-SW 202 0 min 0,000 mm 0,0 UV-I 7 W/m 5,5 C 10,5 C 8,0 km/h (2 Bft) 95,65 %
31.12.2017 16:25 10,5 C 3,9 C 71 % 1011,7 hPa 0,0 l/m 6,4 km/h (2 Bft) S-SW 202 0 min 0,000 mm 0,0 UV-I 7 W/m 5,5 C 10,5 C 9,7 km/h (2 Bft) 100,00 %
31.12.2017 16:26 10,4 C 3,9 C 71 % 1011,7 hPa 0,0 l/m 3,2 km/h (1 Bft) SW 225 0 min 0,000 mm 0,0 UV-I 7 W/m 5,4 C 10,4 C 6,4 km/h (2 Bft) 95,65 %
31.12.2017 16:27 10,4 C 3,9 C 71 % 1011,7 hPa 0,0 l/m 6,4 km/h (2 Bft) S-SW 202 0 min 0,000 mm 0,0 UV-I 7 W/m 5,4 C 10,4 C 8,0 km/h (2 Bft) 95,65 %
31.12.2017 16:28 10,3 C 3,9 C 71 % 1011,7 hPa 0,0 l/m 4,8 km/h (1 Bft) S-SW 202 0 min 0,000 mm 0,0 UV-I 5 W/m 5,3 C 10,3 C 6,4 km/h (2 Bft) 95,65 %
31.12.2017 16:29 10,3 C 3,9 C 71 % 1011,7 hPa 0,0 l/m 6,4 km/h (2 Bft) S-SW 202 0 min 0,000 mm 0,0 UV-I 5 W/m 5,3 C 10,3 C 8,0 km/h (2 Bft) 95,65 %
31.12.2017 16:30 10,3 C 3,9 C 71 % 1011,7 hPa 0,0 l/m 4,8 km/h (1 Bft) S-SW 202 0 min 0,000 mm 0,0 UV-I 5 W/m 5,3 C 10,3 C 8,0 km/h (2 Bft) 95,65 %
31.12.2017 16:31 10,3 C 3,9 C 71 % 1011,7 hPa 0,0 l/m 4,8 km/h (1 Bft) S-SW 202 0 min 0,000 mm 0,0 UV-I 7 W/m 5,3 C 10,3 C 6,4 km/h (2 Bft) 100,00 %
31.12.2017 16:32 10,3 C 3,9 C 70 % 1011,7 hPa 0,0 l/m 3,2 km/h (1 Bft) S-SW 202 0 min 0,000 mm 0,0 UV-I 7 W/m 5,1 C 10,3 C 4,8 km/h (1 Bft) 91,30 %
31.12.2017 16:33 10,3 C 3,9 C 70 % 1011,6 hPa 0,0 l/m 3,2 km/h (1 Bft) S-SW 202 0 min 0,000 mm 0,0 UV-I 7 W/m 5,1 C 10,3 C 4,8 km/h (1 Bft) 95,65 %
31.12.2017 16:34 10,2 C 3,9 C 71 % 1011,6 hPa 0,0 l/m 1,6 km/h (1 Bft) S-SW 202 0 min 0,000 mm 0,0 UV-I 7 W/m 5,2 C 10,2 C 3,2 km/h (1 Bft) 95,65 %
31.12.2017 16:35 10,0 C 3,9 C 71 % 1011,6 hPa 0,0 l/m 1,6 km/h (1 Bft) S-SW 202 0 min 0,000 mm 0,0 UV-I 7 W/m 5,0 C 10,0 C 3,2 km/h (1 Bft) 95,65 %
31.12.2017 16:36 9,9 C 3,9 C 72 % 1011,6 hPa 0,0 l/m 1,6 km/h (1 Bft) S-SW 202 0 min 0,000 mm 0,0 UV-I 5 W/m 5,1 C 9,9 C 4,8 km/h (1 Bft) 95,65 %
31.12.2017 16:37 9,8 C 3,9 C 72 % 1011,6 hPa 0,0 l/m 1,6 km/h (1 Bft) S-SW 202 0 min 0,000 mm 0,0 UV-I 5 W/m 5,0 C 9,8 C 3,2 km/h (1 Bft) 95,65 %
31.12.2017 16:38 9,7 C 3,9 C 73 % 1011,6 hPa 0,0 l/m 1,6 km/h (1 Bft) S-SW 202 0 min 0,000 mm 0,0 UV-I 5 W/m 5,1 C 9,7 C 3,2 km/h (1 Bft) 100,00 %
31.12.2017 16:39 9,7 C 3,9 C 73 % 1011,6 hPa 0,0 l/m 1,6 km/h (1 Bft) S-SW 202 0 min 0,000 mm 0,0 UV-I 5 W/m 5,1 C 9,7 C 3,2 km/h (1 Bft) 91,30 %
31.12.2017 16:40 9,6 C 3,9 C 74 % 1011,5 hPa 0,0 l/m 3,2 km/h (1 Bft) S 180 0 min 0,000 mm 0,0 UV-I 0 W/m 5,2 C 9,6 C 6,4 km/h (2 Bft) 100,00 %
31.12.2017 16:41 9,7 C 3,9 C 73 % 1011,5 hPa 0,0 l/m 1,6 km/h (1 Bft) S 180 0 min 0,000 mm 0,0 UV-I 0 W/m 5,1 C 9,7 C 3,2 km/h (1 Bft) 95,65 %
31.12.2017 16:42 9,7 C 3,9 C 73 % 1011,5 hPa 0,0 l/m 3,2 km/h (1 Bft) S 180 0 min 0,000 mm 0,0 UV-I 0 W/m 5,1 C 9,7 C 4,8 km/h (1 Bft) 95,65 %
31.12.2017 16:43 9,7 C 3,9 C 73 % 1011,5 hPa 0,0 l/m 3,2 km/h (1 Bft) S 180 0 min 0,000 mm 0,0 UV-I 0 W/m 5,1 C 9,7 C 4,8 km/h (1 Bft) 95,65 %
31.12.2017 16:44 9,7 C 3,9 C 73 % 1011,5 hPa 0,0 l/m 1,6 km/h (1 Bft) S 180 0 min 0,000 mm 0,0 UV-I 0 W/m 5,1 C 9,7 C 3,2 km/h (1 Bft) 95,65 %
31.12.2017 16:45 9,8 C 3,9 C 73 % 1011,5 hPa 0,0 l/m 3,2 km/h (1 Bft) S 180 0 min 0,000 mm 0,0 UV-I 0 W/m 5,2 C 9,8 C 8,0 km/h (2 Bft) 100,00 %
31.12.2017 16:46 9,9 C 3,9 C 72 % 1011,5 hPa 0,0 l/m 4,8 km/h (1 Bft) S-SO 157 0 min 0,000 mm 0,0 UV-I 0 W/m 5,1 C 9,9 C 6,4 km/h (2 Bft) 95,65 %
31.12.2017 16:47 9,9 C 3,9 C 72 % 1011,5 hPa 0,0 l/m 3,2 km/h (1 Bft) S-SO 157 0 min 0,000 mm 0,0 UV-I 0 W/m 5,1 C 9,9 C 4,8 km/h (1 Bft) 100,00 %
31.12.2017 16:48 10,1 C 3,9 C 72 % 1011,5 hPa 0,0 l/m 3,2 km/h (1 Bft) S-SO 157 0 min 0,000 mm 0,0 UV-I 0 W/m 5,3 C 10,1 C 4,8 km/h (1 Bft) 95,65 %
31.12.2017 16:49 10,1 C 3,9 C 72 % 1011,5 hPa 0,0 l/m 3,2 km/h (1 Bft) S-SO 157 0 min 0,000 mm 0,0 UV-I 0 W/m 5,3 C 10,1 C 6,4 km/h (2 Bft) 100,00 %
31.12.2017 16:50 10,2 C 3,9 C 71 % 1011,5 hPa 0,0 l/m 3,2 km/h (1 Bft) S-SO 157 0 min 0,000 mm 0,0 UV-I 0 W/m 5,2 C 10,2 C 4,8 km/h (1 Bft) 91,30 %
31.12.2017 16:51 10,2 C 3,9 C 71 % 1011,5 hPa 0,0 l/m 3,2 km/h (1 Bft) S-SO 157 0 min 0,000 mm 0,0 UV-I 0 W/m 5,2 C 10,2 C 6,4 km/h (2 Bft) 95,65 %
31.12.2017 16:52 10,2 C 3,9 C 71 % 1011,5 hPa 0,0 l/m 4,8 km/h (1 Bft) S-SO 157 0 min 0,000 mm 0,0 UV-I 0 W/m 5,2 C 10,2 C 9,7 km/h (2 Bft) 100,00 %
31.12.2017 16:53 10,2 C 3,9 C 71 % 1011,5 hPa 0,0 l/m 4,8 km/h (1 Bft) S-SO 157 0 min 0,000 mm 0,0 UV-I 0 W/m 5,2 C 10,2 C 9,7 km/h (2 Bft) 91,30 %
31.12.2017 16:54 10,2 C 3,9 C 71 % 1011,5 hPa 0,0 l/m 4,8 km/h (1 Bft) S 180 0 min 0,000 mm 0,0 UV-I 0 W/m 5,2 C 10,2 C 8,0 km/h (2 Bft) 95,65 %
31.12.2017 16:55 10,1 C 3,9 C 71 % 1011,5 hPa 0,0 l/m 6,4 km/h (2 Bft) S-SO 157 0 min 0,000 mm 0,0 UV-I 0 W/m 5,1 C 10,1 C 8,0 km/h (2 Bft) 95,65 %
31.12.2017 16:56 10,1 C 3,9 C 71 % 1011,5 hPa 0,0 l/m 8,0 km/h (2 Bft) S-SO 157 0 min 0,000 mm 0,0 UV-I 0 W/m 5,1 C 9,0 C 9,7 km/h (2 Bft) 95,65 %
31.12.2017 16:57 10,1 C 3,9 C 71 % 1011,5 hPa 0,0 l/m 8,0 km/h (2 Bft) S-SW 202 0 min 0,000 mm 0,0 UV-I 0 W/m 5,1 C 9,0 C 14,5 km/h (3 Bft) 100,00 %
31.12.2017 16:58 10,1 C 3,9 C 70 % 1011,5 hPa 0,0 l/m 6,4 km/h (2 Bft) S 180 0 min 0,000 mm 0,0 UV-I 0 W/m 4,9 C 10,1 C 9,7 km/h (2 Bft) 95,65 %
31.12.2017 16:59 10,1 C 3,9 C 70 % 1011,4 hPa 0,0 l/m 6,4 km/h (2 Bft) S-SW 202 0 min 0,000 mm 0,0 UV-I 0 W/m 4,9 C 10,1 C 11,3 km/h (2 Bft) 95,65 %
31.12.2017 17:00 10,1 C 3,9 C 70 % 1011,4 hPa 0,0 l/m 6,4 km/h (2 Bft) S-SW 202 0 min 0,025 mm 0,0 UV-I 0 W/m 4,9 C 10,1 C 9,7 km/h (2 Bft) 100,00 %
31.12.2017 17:01 10,0 C 3,9 C 71 % 1011,4 hPa 0,0 l/m 6,4 km/h (2 Bft) S-SW 202 0 min 0,000 mm 0,0 UV-I 0 W/m 5,0 C 10,0 C 9,7 km/h (2 Bft) 100,00 %
31.12.2017 17:02 9,9 C 3,9 C 71 % 1011,4 hPa 0,0 l/m 4,8 km/h (1 Bft) S 180 0 min 0,000 mm 0,0 UV-I 0 W/m 4,9 C 9,9 C 6,4 km/h (2 Bft) 100,00 %
31.12.2017 17:03 9,8 C 3,9 C 71 % 1011,4 hPa 0,0 l/m 6,4 km/h (2 Bft) S-SW 202 0 min 0,000 mm 0,0 UV-I 0 W/m 4,8 C 9,8 C 8,0 km/h (2 Bft) 100,00 %
31.12.2017 17:04 9,7 C 3,9 C 72 % 1011,3 hPa 0,0 l/m 4,8 km/h (1 Bft) S-SW 202 0 min 0,000 mm 0,0 UV-I 0 W/m 4,9 C 9,7 C 6,4 km/h (2 Bft) 95,65 %
31.12.2017 17:05 9,6 C 3,9 C 72 % 1011,3 hPa 0,0 l/m 8,0 km/h (2 Bft) S-SW 202 0 min 0,000 mm 0,0 UV-I 0 W/m 4,8 C 8,4 C 9,7 km/h (2 Bft) 95,65 %
31.12.2017 17:06 9,5 C 3,9 C 72 % 1011,3 hPa 0,0 l/m 6,4 km/h (2 Bft) S-SW 202 0 min 0,000 mm 0,0 UV-I 0 W/m 4,7 C 9,5 C 11,3 km/h (2 Bft) 100,00 %
31.12.2017 17:07 9,5 C 3,9 C 72 % 1011,3 hPa 0,0 l/m 6,4 km/h (2 Bft) S-SW 202 0 min 0,000 mm 0,0 UV-I 0 W/m 4,7 C 9,5 C 9,7 km/h (2 Bft) 95,65 %
31.12.2017 17:08 9,5 C 3,9 C 72 % 1011,2 hPa 0,0 l/m 8,0 km/h (2 Bft) S-SW 202 0 min 0,000 mm 0,0 UV-I 0 W/m 4,7 C 8,3 C 9,7 km/h (2 Bft) 95,65 %
31.12.2017 17:09 9,5 C 3,9 C 72 % 1011,2 hPa 0,0 l/m 8,0 km/h (2 Bft) S-SW 202 0 min 0,000 mm 0,0 UV-I 0 W/m 4,7 C 8,3 C 9,7 km/h (2 Bft) 100,00 %
31.12.2017 17:10 9,5 C 3,9 C 72 % 1011,2 hPa 0,0 l/m 6,4 km/h (2 Bft) S-SW 202 0 min 0,000 mm 0,0 UV-I 0 W/m 4,7 C 9,5 C 8,0 km/h (2 Bft) 95,65 %
31.12.2017 17:11 9,6 C 3,9 C 72 % 1011,1 hPa 0,0 l/m 6,4 km/h (2 Bft) S-SW 202 0 min 0,000 mm 0,0 UV-I 0 W/m 4,8 C 9,6 C 11,3 km/h (2 Bft) 95,65 %
31.12.2017 17:12 9,6 C 3,9 C 71 % 1011,2 hPa 0,0 l/m 6,4 km/h (2 Bft) S 180 0 min 0,000 mm 0,0 UV-I 0 W/m 4,6 C 9,6 C 11,3 km/h (2 Bft) 91,30 %
31.12.2017 17:13 9,6 C 3,9 C 71 % 1011,1 hPa 0,0 l/m 6,4 km/h (2 Bft) S 180 0 min 0,000 mm 0,0 UV-I 0 W/m 4,6 C 9,6 C 9,7 km/h (2 Bft) 100,00 %
31.12.2017 17:14 9,6 C 3,9 C 71 % 1011,1 hPa 0,0 l/m 6,4 km/h (2 Bft) S 180 0 min 0,000 mm 0,0 UV-I 0 W/m 4,6 C 9,6 C 11,3 km/h (2 Bft) 95,65 %
31.12.2017 17:15 9,7 C 3,9 C 71 % 1011,1 hPa 0,0 l/m 6,4 km/h (2 Bft) S-SO 157 0 min 0,000 mm 0,0 UV-I 0 W/m 4,7 C 9,7 C 11,3 km/h (2 Bft) 100,00 %
31.12.2017 17:16 9,7 C 3,9 C 71 % 1011,1 hPa 0,0 l/m 6,4 km/h (2 Bft) S-SO 157 0 min 0,000 mm 0,0 UV-I 0 W/m 4,7 C 9,7 C 9,7 km/h (2 Bft) 95,65 %
31.12.2017 17:17 9,7 C 3,9 C 71 % 1010,9 hPa 0,0 l/m 6,4 km/h (2 Bft) S 180 0 min 0,000 mm 0,0 UV-I 0 W/m 4,7 C 9,7 C 11,3 km/h (2 Bft) 100,00 %
31.12.2017 17:18 9,7 C 3,9 C 70 % 1011,0 hPa 0,0 l/m 4,8 km/h (1 Bft) S-SO 157 0 min 0,000 mm 0,0 UV-I 0 W/m 4,5 C 9,7 C 9,7 km/h (2 Bft) 95,65 %
31.12.2017 17:19 9,7 C 3,9 C 70 % 1011,0 hPa 0,0 l/m 4,8 km/h (1 Bft) S-SO 157 0 min 0,000 mm 0,0 UV-I 0 W/m 4,5 C 9,7 C 9,7 km/h (2 Bft) 95,65 %
31.12.2017 17:20 9,8 C 3,9 C 70 % 1010,9 hPa 0,0 l/m 8,0 km/h (2 Bft) S-SO 157 0 min 0,000 mm 0,0 UV-I 0 W/m 4,6 C 8,6 C 11,3 km/h (2 Bft) 95,65 %
31.12.2017 17:21 9,8 C 3,9 C 70 % 1010,9 hPa 0,0 l/m 8,0 km/h (2 Bft) S-SO 157 0 min 0,000 mm 0,0 UV-I 0 W/m 4,6 C 8,6 C 12,9 km/h (3 Bft) 100,00 %
31.12.2017 17:22 9,9 C 3,9 C 70 % 1010,9 hPa 0,0 l/m 6,4 km/h (2 Bft) S-SO 157 0 min 0,000 mm 0,0 UV-I 0 W/m 4,7 C 9,9 C 9,7 km/h (2 Bft) 95,65 %
31.12.2017 17:23 9,9 C 3,9 C 70 % 1010,9 hPa 0,0 l/m 4,8 km/h (1 Bft) S-SO 157 0 min 0,000 mm 0,0 UV-I 0 W/m 4,7 C 9,9 C 8,0 km/h (2 Bft) 95,65 %
31.12.2017 17:24 9,9 C 3,9 C 69 % 1010,9 hPa 0,0 l/m 4,8 km/h (1 Bft) S-SO 157 0 min 0,000 mm 0,0 UV-I 0 W/m 4,5 C 9,9 C 8,0 km/h (2 Bft) 100,00 %
31.12.2017 17:25 9,9 C 3,9 C 69 % 1010,9 hPa 0,0 l/m 6,4 km/h (2 Bft) S-SO 157 0 min 0,000 mm 0,0 UV-I 0 W/m 4,5 C 9,9 C 11,3 km/h (2 Bft) 95,65 %
31.12.2017 17:26 9,9 C 3,9 C 69 % 1010,9 hPa 0,0 l/m 6,4 km/h (2 Bft) S-SO 157 0 min 0,000 mm 0,0 UV-I 0 W/m 4,5 C 9,9 C 11,3 km/h (2 Bft) 91,30 %
31.12.2017 17:27 9,9 C 3,9 C 69 % 1010,9 hPa 0,0 l/m 8,0 km/h (2 Bft) S-SW 202 0 min 0,000 mm 0,0 UV-I 0 W/m 4,5 C 8,7 C 14,5 km/h (3 Bft) 95,65 %
31.12.2017 17:28 9,9 C 3,9 C 69 % 1010,8 hPa 0,0 l/m 6,4 km/h (2 Bft) S-SO 157 0 min 0,000 mm 0,0 UV-I 0 W/m 4,5 C 9,9 C 9,7 km/h (2 Bft) 100,00 %
31.12.2017 17:29 9,9 C 3,9 C 69 % 1010,8 hPa 0,0 l/m 6,4 km/h (2 Bft) S-SO 157 0 min 0,000 mm 0,0 UV-I 0 W/m 4,5 C 9,9 C 11,3 km/h (2 Bft) 95,65 %
31.12.2017 17:30 9,9 C 3,9 C 69 % 1010,7 hPa 0,0 l/m 9,7 km/h (2 Bft) S 180 0 min 0,000 mm 0,0 UV-I 0 W/m 4,5 C 7,7 C 14,5 km/h (3 Bft) 100,00 %
31.12.2017 17:31 9,9 C 3,9 C 69 % 1010,7 hPa 0,0 l/m 4,8 km/h (1 Bft) S 180 0 min 0,000 mm 0,0 UV-I 0 W/m 4,5 C 9,9 C 11,3 km/h (2 Bft) 95,65 %
31.12.2017 17:32 9,9 C 3,9 C 69 % 1010,7 hPa 0,0 l/m 8,0 km/h (2 Bft) S 180 0 min 0,000 mm 0,0 UV-I 0 W/m 4,5 C 8,7 C 12,9 km/h (3 Bft) 100,00 %
31.12.2017 17:33 9,9 C 3,9 C 69 % 1010,7 hPa 0,0 l/m 9,7 km/h (2 Bft) S 180 0 min 0,000 mm 0,0 UV-I 0 W/m 4,5 C 7,7 C 16,1 km/h (3 Bft) 91,30 %
31.12.2017 17:34 9,9 C 3,9 C 69 % 1010,7 hPa 0,0 l/m 6,4 km/h (2 Bft) S 180 0 min 0,000 mm 0,0 UV-I 0 W/m 4,5 C 9,9 C 9,7 km/h (2 Bft) 100,00 %
31.12.2017 17:35 9,9 C 3,9 C 69 % 1010,7 hPa 0,0 l/m 8,0 km/h (2 Bft) S-SO 157 0 min 0,000 mm 0,0 UV-I 0 W/m 4,5 C 8,7 C 17,7 km/h (3 Bft) 100,00 %
31.12.2017 17:36 9,9 C 3,9 C 69 % 1010,7 hPa 0,0 l/m 8,0 km/h (2 Bft) S 180 0 min 0,000 mm 0,0 UV-I 0 W/m 4,5 C 8,7 C 12,9 km/h (3 Bft) 100,00 %
31.12.2017 17:37 9,8 C 3,9 C 69 % 1010,7 hPa 0,0 l/m 8,0 km/h (2 Bft) S 180 0 min 0,000 mm 0,0 UV-I 0 W/m 4,4 C 8,6 C 11,3 km/h (2 Bft) 100,00 %
31.12.2017 17:38 9,8 C 3,9 C 69 % 1010,6 hPa 0,0 l/m 8,0 km/h (2 Bft) S-SO 157 0 min 0,000 mm 0,0 UV-I 0 W/m 4,4 C 8,6 C 12,9 km/h (3 Bft) 100,00 %
31.12.2017 17:39 9,8 C 3,9 C 69 % 1010,6 hPa 0,0 l/m 6,4 km/h (2 Bft) S 180 0 min 0,000 mm 0,0 UV-I 0 W/m 4,4 C 9,8 C 11,3 km/h (2 Bft) 100,00 %
31.12.2017 17:40 9,7 C 3,9 C 69 % 1010,6 hPa 0,0 l/m 8,0 km/h (2 Bft) S 180 0 min 0,000 mm 0,0 UV-I 0 W/m 4,3 C 8,5 C 12,9 km/h (3 Bft) 95,65 %
31.12.2017 17:41 9,8 C 3,9 C 69 % 1010,6 hPa 0,0 l/m 8,0 km/h (2 Bft) S-SO 157 0 min 0,000 mm 0,0 UV-I 0 W/m 4,4 C 8,6 C 12,9 km/h (3 Bft) 100,00 %
31.12.2017 17:42 9,8 C 3,9 C 69 % 1010,6 hPa 0,0 l/m 8,0 km/h (2 Bft) S-SO 157 0 min 0,000 mm 0,0 UV-I 0 W/m 4,4 C 8,6 C 11,3 km/h (2 Bft) 100,00 %
31.12.2017 17:43 9,8 C 3,9 C 69 % 1010,6 hPa 0,0 l/m 6,4 km/h (2 Bft) S-SO 157 0 min 0,000 mm 0,0 UV-I 0 W/m 4,4 C 9,8 C 11,3 km/h (2 Bft) 100,00 %
31.12.2017 17:44 9,8 C 3,9 C 69 % 1010,6 hPa 0,0 l/m 6,4 km/h (2 Bft) S-SO 157 0 min 0,000 mm 0,0 UV-I 0 W/m 4,4 C 9,8 C 12,9 km/h (3 Bft) 100,00 %
31.12.2017 17:45 9,8 C 3,9 C 69 % 1010,6 hPa 0,0 l/m 8,0 km/h (2 Bft) S-SO 157 0 min 0,000 mm 0,0 UV-I 0 W/m 4,4 C 8,6 C 12,9 km/h (3 Bft) 100,00 %
31.12.2017 17:46 9,8 C 3,9 C 69 % 1010,6 hPa 0,0 l/m 8,0 km/h (2 Bft) S-SO 157 0 min 0,000 mm 0,0 UV-I 0 W/m 4,4 C 8,6 C 14,5 km/h (3 Bft) 100,00 %
31.12.2017 17:47 9,8 C 3,9 C 69 % 1010,5 hPa 0,0 l/m 8,0 km/h (2 Bft) S 180 0 min 0,000 mm 0,0 UV-I 0 W/m 4,4 C 8,6 C 12,9 km/h (3 Bft) 95,65 %
31.12.2017 17:48 9,8 C 3,9 C 69 % 1010,5 hPa 0,0 l/m 8,0 km/h (2 Bft) S 180 0 min 0,000 mm 0,0 UV-I 0 W/m 4,4 C 8,6 C 11,3 km/h (2 Bft) 95,65 %
31.12.2017 17:49 9,8 C 3,9 C 69 % 1010,5 hPa 0,0 l/m 8,0 km/h (2 Bft) S-SO 157 0 min 0,000 mm 0,0 UV-I 0 W/m 4,4 C 8,6 C 12,9 km/h (3 Bft) 100,00 %
31.12.2017 17:50 9,8 C 3,9 C 69 % 1010,5 hPa 0,0 l/m 8,0 km/h (2 Bft) S-SO 157 0 min 0,000 mm 0,0 UV-I 0 W/m 4,4 C 8,6 C 11,3 km/h (2 Bft) 100,00 %
31.12.2017 17:51 9,7 C 3,9 C 69 % 1010,5 hPa 0,0 l/m 11,3 km/h (2 Bft) S-SO 157 0 min 0,000 mm 0,0 UV-I 0 W/m 4,3 C 6,5 C 16,1 km/h (3 Bft) 95,65 %
31.12.2017 17:52 9,7 C 3,9 C 69 % 1010,5 hPa 0,0 l/m 11,3 km/h (2 Bft) S-SO 157 0 min 0,000 mm 0,0 UV-I 0 W/m 4,3 C 6,5 C 14,5 km/h (3 Bft) 100,00 %
31.12.2017 17:53 9,7 C 3,9 C 69 % 1010,5 hPa 0,0 l/m 8,0 km/h (2 Bft) S-SO 157 0 min 0,000 mm 0,0 UV-I 0 W/m 4,3 C 8,5 C 11,3 km/h (2 Bft) 95,65 %
31.12.2017 17:54 9,6 C 3,9 C 70 % 1010,5 hPa 0,0 l/m 9,7 km/h (2 Bft) S-SO 157 0 min 0,000 mm 0,0 UV-I 0 W/m 4,4 C 7,3 C 12,9 km/h (3 Bft) 91,30 %
31.12.2017 17:55 9,5 C 3,9 C 70 % 1010,5 hPa 0,0 l/m 8,0 km/h (2 Bft) S-SO 157 0 min 0,000 mm 0,0 UV-I 0 W/m 4,3 C 8,3 C 12,9 km/h (3 Bft) 95,65 %
31.12.2017 17:56 9,5 C 3,9 C 70 % 1010,5 hPa 0,0 l/m 8,0 km/h (2 Bft) S-SO 157 0 min 0,000 mm 0,0 UV-I 0 W/m 4,3 C 8,3 C 9,7 km/h (2 Bft) 100,00 %
31.12.2017 17:57 9,4 C 3,9 C 70 % 1010,6 hPa 0,0 l/m 8,0 km/h (2 Bft) S 180 0 min 0,000 mm 0,0 UV-I 0 W/m 4,2 C 8,2 C 9,7 km/h (2 Bft) 100,00 %
31.12.2017 17:58 9,4 C 3,9 C 70 % 1010,5 hPa 0,0 l/m 9,7 km/h (2 Bft) S-SO 157 0 min 0,000 mm 0,0 UV-I 0 W/m 4,2 C 7,1 C 16,1 km/h (3 Bft) 95,65 %
31.12.2017 17:59 9,4 C 3,9 C 70 % 1010,5 hPa 0,0 l/m 9,7 km/h (2 Bft) S-SO 157 0 min 0,000 mm 0,0 UV-I 0 W/m 4,2 C 7,1 C 14,5 km/h (3 Bft) 100,00 %
31.12.2017 18:00 9,4 C 3,9 C 70 % 1010,5 hPa 0,0 l/m 9,7 km/h (2 Bft) S-SO 157 0 min 0,025 mm 0,0 UV-I 0 W/m 4,2 C 7,1 C 16,1 km/h (3 Bft) 100,00 %
31.12.2017 18:01 9,4 C 3,9 C 70 % 1010,5 hPa 0,0 l/m 8,0 km/h (2 Bft) S-SO 157 0 min 0,000 mm 0,0 UV-I 0 W/m 4,2 C 8,2 C 16,1 km/h (3 Bft) 95,65 %
31.12.2017 18:02 9,4 C 3,9 C 70 % 1010,5 hPa 0,0 l/m 6,4 km/h (2 Bft) S-SO 157 0 min 0,000 mm 0,0 UV-I 0 W/m 4,2 C 9,4 C 11,3 km/h (2 Bft) 100,00 %
31.12.2017 18:03 9,4 C 3,9 C 70 % 1010,5 hPa 0,0 l/m 8,0 km/h (2 Bft) S-SO 157 0 min 0,000 mm 0,0 UV-I 0 W/m 4,2 C 8,2 C 12,9 km/h (3 Bft) 100,00 %
31.12.2017 18:04 9,4 C 3,9 C 70 % 1010,5 hPa 0,0 l/m 8,0 km/h (2 Bft) S-SO 157 0 min 0,000 mm 0,0 UV-I 0 W/m 4,2 C 8,2 C 11,3 km/h (2 Bft) 95,65 %
31.12.2017 18:05 9,4 C 3,9 C 70 % 1010,5 hPa 0,0 l/m 9,7 km/h (2 Bft) S-SO 157 0 min 0,000 mm 0,0 UV-I 0 W/m 4,2 C 7,1 C 14,5 km/h (3 Bft) 100,00 %
31.12.2017 18:06 9,4 C 3,9 C 70 % 1010,5 hPa 0,0 l/m 6,4 km/h (2 Bft) S-SO 157 0 min 0,000 mm 0,0 UV-I 0 W/m 4,2 C 9,4 C 9,7 km/h (2 Bft) 95,65 %
31.12.2017 18:07 9,4 C 3,9 C 70 % 1010,5 hPa 0,0 l/m 6,4 km/h (2 Bft) S-SO 157 0 min 0,000 mm 0,0 UV-I 0 W/m 4,2 C 9,4 C 9,7 km/h (2 Bft) 100,00 %
31.12.2017 18:08 9,5 C 3,9 C 70 % 1010,5 hPa 0,0 l/m 8,0 km/h (2 Bft) S 180 0 min 0,000 mm 0,0 UV-I 0 W/m 4,3 C 8,3 C 16,1 km/h (3 Bft) 95,65 %
31.12.2017 18:09 9,5 C 3,9 C 69 % 1010,5 hPa 0,0 l/m 8,0 km/h (2 Bft) S-SO 157 0 min 0,000 mm 0,0 UV-I 0 W/m 4,1 C 8,3 C 12,9 km/h (3 Bft) 100,00 %
31.12.2017 18:10 9,6 C 3,9 C 69 % 1010,5 hPa 0,0 l/m 9,7 km/h (2 Bft) S-SO 157 0 min 0,000 mm 0,0 UV-I 0 W/m 4,2 C 7,3 C 14,5 km/h (3 Bft) 100,00 %
31.12.2017 18:11 9,6 C 3,9 C 69 % 1010,5 hPa 0,0 l/m 8,0 km/h (2 Bft) S-SO 157 0 min 0,000 mm 0,0 UV-I 0 W/m 4,2 C 8,4 C 11,3 km/h (2 Bft) 100,00 %
31.12.2017 18:12 9,7 C 3,9 C 69 % 1010,5 hPa 0,0 l/m 6,4 km/h (2 Bft) S-SO 157 0 min 0,000 mm 0,0 UV-I 0 W/m 4,3 C 9,7 C 9,7 km/h (2 Bft) 100,00 %
31.12.2017 18:13 9,7 C 3,9 C 69 % 1010,5 hPa 0,0 l/m 6,4 km/h (2 Bft) S-SO 157 0 min 0,000 mm 0,0 UV-I 0 W/m 4,3 C 9,7 C 9,7 km/h (2 Bft) 100,00 %
31.12.2017 18:14 9,7 C 3,9 C 69 % 1010,5 hPa 0,0 l/m 6,4 km/h (2 Bft) S-SO 157 0 min 0,000 mm 0,0 UV-I 0 W/m 4,3 C 9,7 C 8,0 km/h (2 Bft) 100,00 %
31.12.2017 18:15 9,7 C 3,9 C 69 % 1010,4 hPa 0,0 l/m 6,4 km/h (2 Bft) S 180 0 min 0,000 mm 0,0 UV-I 0 W/m 4,3 C 9,7 C 11,3 km/h (2 Bft) 95,65 %
31.12.2017 18:16 9,7 C 3,9 C 68 % 1010,4 hPa 0,0 l/m 4,8 km/h (1 Bft) S-SO 157 0 min 0,000 mm 0,0 UV-I 0 W/m 4,1 C 9,7 C 8,0 km/h (2 Bft) 95,65 %
31.12.2017 18:17 9,6 C 3,9 C 69 % 1010,4 hPa 0,0 l/m 6,4 km/h (2 Bft) S-SO 157 0 min 0,000 mm 0,0 UV-I 0 W/m 4,2 C 9,6 C 14,5 km/h (3 Bft) 95,65 %
31.12.2017 18:18 9,6 C 3,9 C 69 % 1010,4 hPa 0,0 l/m 4,8 km/h (1 Bft) S-SO 157 0 min 0,000 mm 0,0 UV-I 0 W/m 4,2 C 9,6 C 9,7 km/h (2 Bft) 100,00 %
31.12.2017 18:19 9,6 C 3,9 C 69 % 1010,4 hPa 0,0 l/m 6,4 km/h (2 Bft) S-SO 157 0 min 0,000 mm 0,0 UV-I 0 W/m 4,2 C 9,6 C 9,7 km/h (2 Bft) 100,00 %
31.12.2017 18:20 9,6 C 3,9 C 69 % 1010,4 hPa 0,0 l/m 4,8 km/h (1 Bft) S-SO 157 0 min 0,000 mm 0,0 UV-I 0 W/m 4,2 C 9,6 C 9,7 km/h (2 Bft) 100,00 %
31.12.2017 18:21 9,7 C 3,9 C 69 % 1010,4 hPa 0,0 l/m 6,4 km/h (2 Bft) S-SO 157 0 min 0,000 mm 0,0 UV-I 0 W/m 4,3 C 9,7 C 9,7 km/h (2 Bft) 95,65 %
31.12.2017 18:22 9,7 C 3,9 C 68 % 1010,4 hPa 0,0 l/m 4,8 km/h (1 Bft) S-SO 157 0 min 0,000 mm 0,0 UV-I 0 W/m 4,1 C 9,7 C 8,0 km/h (2 Bft) 91,30 %
31.12.2017 18:23 9,7 C 3,9 C 68 % 1010,4 hPa 0,0 l/m 6,4 km/h (2 Bft) S-SO 157 0 min 0,000 mm 0,0 UV-I 0 W/m 4,1 C 9,7 C 12,9 km/h (3 Bft) 95,65 %
31.12.2017 18:24 9,6 C 3,9 C 69 % 1010,4 hPa 0,0 l/m 6,4 km/h (2 Bft) S-SO 157 0 min 0,000 mm 0,0 UV-I 0 W/m 4,2 C 9,6 C 9,7 km/h (2 Bft) 100,00 %
31.12.2017 18:25 9,6 C 3,9 C 69 % 1010,3 hPa 0,0 l/m 6,4 km/h (2 Bft) S 180 0 min 0,000 mm 0,0 UV-I 0 W/m 4,2 C 9,6 C 9,7 km/h (2 Bft) 91,30 %
31.12.2017 18:26 9,6 C 3,9 C 69 % 1010,4 hPa 0,0 l/m 4,8 km/h (1 Bft) S-SO 157 0 min 0,000 mm 0,0 UV-I 0 W/m 4,2 C 9,6 C 9,7 km/h (2 Bft) 95,65 %
31.12.2017 18:27 9,6 C 3,9 C 69 % 1010,3 hPa 0,0 l/m 6,4 km/h (2 Bft) S 180 0 min 0,000 mm 0,0 UV-I 0 W/m 4,2 C 9,6 C 8,0 km/h (2 Bft) 95,65 %
31.12.2017 18:28 9,6 C 3,9 C 69 % 1010,3 hPa 0,0 l/m 6,4 km/h (2 Bft) S-SO 157 0 min 0,000 mm 0,0 UV-I 0 W/m 4,2 C 9,6 C 9,7 km/h (2 Bft) 95,65 %
31.12.2017 18:29 9,6 C 3,9 C 68 % 1010,3 hPa 0,0 l/m 9,7 km/h (2 Bft) S-SO 157 0 min 0,000 mm 0,0 UV-I 0 W/m 4,0 C 7,3 C 22,5 km/h (4 Bft) 95,65 %
31.12.2017 18:30 9,7 C 3,9 C 68 % 1010,3 hPa 0,0 l/m 8,0 km/h (2 Bft) S-SO 157 0 min 0,000 mm 0,0 UV-I 0 W/m 4,1 C 8,5 C 14,5 km/h (3 Bft) 95,65 %
31.12.2017 18:31 9,7 C 3,9 C 68 % 1010,3 hPa 0,0 l/m 6,4 km/h (2 Bft) S-SO 157 0 min 0,000 mm 0,0 UV-I 0 W/m 4,1 C 9,7 C 9,7 km/h (2 Bft) 100,00 %
31.12.2017 18:32 9,6 C 3,9 C 68 % 1010,3 hPa 0,0 l/m 8,0 km/h (2 Bft) S-SO 157 0 min 0,000 mm 0,0 UV-I 0 W/m 4,0 C 8,4 C 16,1 km/h (3 Bft) 95,65 %
31.12.2017 18:33 9,6 C 3,9 C 68 % 1010,3 hPa 0,0 l/m 8,0 km/h (2 Bft) S-SO 157 0 min 0,000 mm 0,0 UV-I 0 W/m 4,0 C 8,4 C 9,7 km/h (2 Bft) 100,00 %
31.12.2017 18:34 9,6 C 3,9 C 68 % 1010,3 hPa 0,0 l/m 4,8 km/h (1 Bft) S-SO 157 0 min 0,000 mm 0,0 UV-I 0 W/m 4,0 C 9,6 C 9,7 km/h (2 Bft) 95,65 %
31.12.2017 18:35 9,6 C 3,9 C 69 % 1010,3 hPa 0,0 l/m 6,4 km/h (2 Bft) S-SO 157 0 min 0,000 mm 0,0 UV-I 0 W/m 4,2 C 9,6 C 9,7 km/h (2 Bft) 91,30 %
31.12.2017 18:36 9,7 C 3,9 C 68 % 1010,3 hPa 0,0 l/m 4,8 km/h (1 Bft) S-SO 157 0 min 0,000 mm 0,0 UV-I 0 W/m 4,1 C 9,7 C 8,0 km/h (2 Bft) 86,96 %
31.12.2017 18:37 9,8 C 3,9 C 68 % 1010,2 hPa 0,0 l/m 4,8 km/h (1 Bft) S-SO 157 0 min 0,000 mm 0,0 UV-I 0 W/m 4,2 C 9,8 C 9,7 km/h (2 Bft) 91,30 %
31.12.2017 18:38 9,8 C 3,9 C 68 % 1010,2 hPa 0,0 l/m 4,8 km/h (1 Bft) S-SO 157 0 min 0,000 mm 0,0 UV-I 0 W/m 4,2 C 9,8 C 9,7 km/h (2 Bft) 100,00 %
31.12.2017 18:39 9,8 C 3,9 C 68 % 1010,2 hPa 0,0 l/m 8,0 km/h (2 Bft) S-SO 157 0 min 0,000 mm 0,0 UV-I 0 W/m 4,2 C 8,6 C 11,3 km/h (2 Bft) 86,96 %
31.12.2017 18:40 9,8 C 3,9 C 68 % 1010,2 hPa 0,0 l/m 4,8 km/h (1 Bft) S-SO 157 0 min 0,000 mm 0,0 UV-I 0 W/m 4,2 C 9,8 C 8,0 km/h (2 Bft) 100,00 %
31.12.2017 18:41 9,8 C 3,9 C 68 % 1010,2 hPa 0,0 l/m 6,4 km/h (2 Bft) S-SO 157 0 min 0,000 mm 0,0 UV-I 0 W/m 4,2 C 9,8 C 8,0 km/h (2 Bft) 91,30 %
31.12.2017 18:42 9,8 C 3,9 C 68 % 1010,2 hPa 0,0 l/m 4,8 km/h (1 Bft) S-SO 157 0 min 0,000 mm 0,0 UV-I 0 W/m 4,2 C 9,8 C 9,7 km/h (2 Bft) 95,65 %
31.12.2017 18:43 9,8 C 3,9 C 68 % 1010,2 hPa 0,0 l/m 3,2 km/h (1 Bft) S-SO 157 0 min 0,000 mm 0,0 UV-I 0 W/m 4,2 C 9,8 C 6,4 km/h (2 Bft) 86,96 %
31.12.2017 18:44 9,8 C 3,9 C 68 % 1010,2 hPa 0,0 l/m 3,2 km/h (1 Bft) S-SO 157 0 min 0,000 mm 0,0 UV-I 0 W/m 4,2 C 9,8 C 8,0 km/h (2 Bft) 91,30 %
31.12.2017 18:45 9,8 C 3,9 C 68 % 1010,2 hPa 0,0 l/m 3,2 km/h (1 Bft) S-SO 157 0 min 0,000 mm 0,0 UV-I 0 W/m 4,2 C 9,8 C 6,4 km/h (2 Bft) 100,00 %
31.12.2017 18:46 9,7 C 3,9 C 68 % 1010,2 hPa 0,0 l/m 4,8 km/h (1 Bft) S-SO 157 0 min 0,000 mm 0,0 UV-I 0 W/m 4,1 C 9,7 C 6,4 km/h (2 Bft) 91,30 %
31.12.2017 18:47 9,6 C 3,9 C 68 % 1010,2 hPa 0,0 l/m 3,2 km/h (1 Bft) S-SO 157 0 min 0,000 mm 0,0 UV-I 0 W/m 4,0 C 9,6 C 8,0 km/h (2 Bft) 100,00 %
31.12.2017 18:48 9,6 C 3,9 C 68 % 1010,2 hPa 0,0 l/m 4,8 km/h (1 Bft) S-SO 157 0 min 0,000 mm 0,0 UV-I 0 W/m 4,0 C 9,6 C 8,0 km/h (2 Bft) 86,96 %
31.12.2017 18:49 9,6 C 3,9 C 68 % 1010,2 hPa 0,0 l/m 6,4 km/h (2 Bft) S-SO 157 0 min 0,000 mm 0,0 UV-I 0 W/m 4,0 C 9,6 C 12,9 km/h (3 Bft) 100,00 %
31.12.2017 18:50 9,6 C 3,9 C 68 % 1010,2 hPa 0,0 l/m 4,8 km/h (1 Bft) S-SO 157 0 min 0,000 mm 0,0 UV-I 0 W/m 4,0 C 9,6 C 8,0 km/h (2 Bft) 86,96 %
31.12.2017 18:51 9,6 C 3,9 C 68 % 1010,1 hPa 0,0 l/m 3,2 km/h (1 Bft) S-SO 157 0 min 0,000 mm 0,0 UV-I 0 W/m 4,0 C 9,6 C 6,4 km/h (2 Bft) 100,00 %
31.12.2017 18:52 9,6 C 3,9 C 68 % 1010,0 hPa 0,0 l/m 4,8 km/h (1 Bft) S-SO 157 0 min 0,000 mm 0,0 UV-I 0 W/m 4,0 C 9,6 C 6,4 km/h (2 Bft) 91,30 %
31.12.2017 18:53 9,6 C 3,9 C 68 % 1010,1 hPa 0,0 l/m 3,2 km/h (1 Bft) S-SO 157 0 min 0,000 mm 0,0 UV-I 0 W/m 4,0 C 9,6 C 8,0 km/h (2 Bft) 95,65 %
31.12.2017 18:54 9,6 C 3,9 C 68 % 1010,1 hPa 0,0 l/m 4,8 km/h (1 Bft) S-SO 157 0 min 0,000 mm 0,0 UV-I 0 W/m 4,0 C 9,6 C 11,3 km/h (2 Bft) 95,65 %
31.12.2017 18:55 9,6 C 3,9 C 68 % 1010,0 hPa 0,0 l/m 3,2 km/h (1 Bft) S-SO 157 0 min 0,000 mm 0,0 UV-I 0 W/m 4,0 C 9,6 C 6,4 km/h (2 Bft) 95,65 %
31.12.2017 18:56 9,7 C 3,9 C 68 % 1010,0 hPa 0,0 l/m 4,8 km/h (1 Bft) S-SO 157 0 min 0,000 mm 0,0 UV-I 0 W/m 4,1 C 9,7 C 8,0 km/h (2 Bft) 95,65 %
31.12.2017 18:57 9,7 C 3,9 C 68 % 1010,0 hPa 0,0 l/m 3,2 km/h (1 Bft) S-SO 157 0 min 0,000 mm 0,0 UV-I 0 W/m 4,1 C 9,7 C 6,4 km/h (2 Bft) 91,30 %
31.12.2017 18:58 9,7 C 3,9 C 68 % 1010,0 hPa 0,0 l/m 3,2 km/h (1 Bft) S-SO 157 0 min 0,000 mm 0,0 UV-I 0 W/m 4,1 C 9,7 C 6,4 km/h (2 Bft) 95,65 %
31.12.2017 18:59 9,6 C 3,9 C 68 % 1010,0 hPa 0,0 l/m 3,2 km/h (1 Bft) S-SO 157 0 min 0,000 mm 0,0 UV-I 0 W/m 4,0 C 9,6 C 8,0 km/h (2 Bft) 100,00 %
31.12.2017 19:00 9,6 C 3,9 C 68 % 1010,0 hPa 0,0 l/m 3,2 km/h (1 Bft) S-SO 157 0 min 0,025 mm 0,0 UV-I 0 W/m 4,0 C 9,6 C 6,4 km/h (2 Bft) 100,00 %
31.12.2017 19:01 9,6 C 3,9 C 68 % 1010,0 hPa 0,0 l/m 3,2 km/h (1 Bft) S-SO 157 0 min 0,000 mm 0,0 UV-I 0 W/m 4,0 C 9,6 C 6,4 km/h (2 Bft) 100,00 %
31.12.2017 19:02 9,4 C 3,9 C 69 % 1010,0 hPa 0,0 l/m 3,2 km/h (1 Bft) S 180 0 min 0,000 mm 0,0 UV-I 0 W/m 4,0 C 9,4 C 4,8 km/h (1 Bft) 100,00 %
31.12.2017 19:03 9,3 C 3,9 C 69 % 1010,0 hPa 0,0 l/m 3,2 km/h (1 Bft) S 180 0 min 0,000 mm 0,0 UV-I 0 W/m 3,9 C 9,3 C 3,2 km/h (1 Bft) 100,00 %
31.12.2017 19:04 8,9 C 3,9 C 70 % 1010,0 hPa 0,0 l/m 3,2 km/h (1 Bft) S 180 0 min 0,000 mm 0,0 UV-I 0 W/m 3,7 C 8,9 C 4,8 km/h (1 Bft) 91,30 %
31.12.2017 19:05 8,6 C 3,9 C 71 % 1010,0 hPa 0,0 l/m 3,2 km/h (1 Bft) S-SO 157 0 min 0,000 mm 0,0 UV-I 0 W/m 3,6 C 8,6 C 4,8 km/h (1 Bft) 95,65 %
31.12.2017 19:06 8,3 C 3,9 C 73 % 1010,0 hPa 0,0 l/m 3,2 km/h (1 Bft) S-SO 157 0 min 0,000 mm 0,0 UV-I 0 W/m 3,8 C 8,3 C 4,8 km/h (1 Bft) 95,65 %
31.12.2017 19:07 8,0 C 3,9 C 73 % 1010,0 hPa 0,0 l/m 3,2 km/h (1 Bft) S-SO 157 0 min 0,000 mm 0,0 UV-I 0 W/m 3,5 C 8,0 C 4,8 km/h (1 Bft) 100,00 %
31.12.2017 19:08 7,7 C 3,9 C 74 % 1010,0 hPa 0,0 l/m 1,6 km/h (1 Bft) S-SO 157 0 min 0,000 mm 0,0 UV-I 0 W/m 3,4 C 7,7 C 3,2 km/h (1 Bft) 100,00 %
31.12.2017 19:09 7,4 C 3,9 C 75 % 1010,0 hPa 0,0 l/m 1,6 km/h (1 Bft) S-SO 157 0 min 0,000 mm 0,0 UV-I 0 W/m 3,3 C 7,4 C 3,2 km/h (1 Bft) 100,00 %
31.12.2017 19:10 7,2 C 3,9 C 76 % 1010,0 hPa 0,0 l/m 3,2 km/h (1 Bft) S-SO 157 0 min 0,000 mm 0,0 UV-I 0 W/m 3,3 C 7,2 C 4,8 km/h (1 Bft) 95,65 %
31.12.2017 19:11 7,0 C 3,9 C 78 % 1009,9 hPa 0,0 l/m 1,6 km/h (1 Bft) S-SO 157 0 min 0,000 mm 0,0 UV-I 0 W/m 3,4 C 7,0 C 3,2 km/h (1 Bft) 91,30 %
31.12.2017 19:12 6,8 C 3,9 C 78 % 1009,9 hPa 0,0 l/m 3,2 km/h (1 Bft) S-SO 157 0 min 0,000 mm 0,0 UV-I 0 W/m 3,2 C 6,8 C 4,8 km/h (1 Bft) 100,00 %
31.12.2017 19:13 6,8 C 3,9 C 78 % 1009,9 hPa 0,0 l/m 3,2 km/h (1 Bft) S-SO 157 0 min 0,000 mm 0,0 UV-I 0 W/m 3,2 C 6,8 C 4,8 km/h (1 Bft) 100,00 %
31.12.2017 19:14 6,8 C 3,9 C 79 % 1009,9 hPa 0,0 l/m 3,2 km/h (1 Bft) S-SO 157 0 min 0,000 mm 0,0 UV-I 0 W/m 3,4 C 6,8 C 4,8 km/h (1 Bft) 100,00 %
31.12.2017 19:15 6,8 C 3,9 C 79 % 1009,9 hPa 0,0 l/m 3,2 km/h (1 Bft) S-SO 157 0 min 0,000 mm 0,0 UV-I 0 W/m 3,4 C 6,8 C 4,8 km/h (1 Bft) 100,00 %
31.12.2017 19:16 6,8 C 3,9 C 79 % 1009,9 hPa 0,0 l/m 3,2 km/h (1 Bft) S-SO 157 0 min 0,000 mm 0,0 UV-I 0 W/m 3,4 C 6,8 C 4,8 km/h (1 Bft) 100,00 %
31.12.2017 19:17 6,8 C 3,9 C 79 % 1009,9 hPa 0,0 l/m 3,2 km/h (1 Bft) S-SO 157 0 min 0,000 mm 0,0 UV-I 0 W/m 3,4 C 6,8 C 4,8 km/h (1 Bft) 100,00 %
31.12.2017 19:18 6,8 C 3,9 C 79 % 1009,9 hPa 0,0 l/m 3,2 km/h (1 Bft) S-SO 157 0 min 0,000 mm 0,0 UV-I 0 W/m 3,4 C 6,8 C 6,4 km/h (2 Bft) 95,65 %
31.12.2017 19:19 6,7 C 3,9 C 79 % 1009,8 hPa 0,0 l/m 3,2 km/h (1 Bft) S-SO 157 0 min 0,000 mm 0,0 UV-I 0 W/m 3,3 C 6,7 C 4,8 km/h (1 Bft) 100,00 %
31.12.2017 19:20 6,8 C 3,9 C 79 % 1009,8 hPa 0,0 l/m 1,6 km/h (1 Bft) S-SO 157 0 min 0,000 mm 0,0 UV-I 0 W/m 3,4 C 6,8 C 3,2 km/h (1 Bft) 100,00 %
31.12.2017 19:21 6,8 C 3,9 C 79 % 1009,8 hPa 0,0 l/m 3,2 km/h (1 Bft) S-SO 157 0 min 0,000 mm 0,0 UV-I 0 W/m 3,4 C 6,8 C 3,2 km/h (1 Bft) 95,65 %
31.12.2017 19:22 6,8 C 3,9 C 80 % 1009,8 hPa 0,0 l/m 3,2 km/h (1 Bft) S-SO 157 0 min 0,000 mm 0,0 UV-I 0 W/m 3,6 C 6,8 C 4,8 km/h (1 Bft) 100,00 %
31.12.2017 19:23 7,0 C 3,9 C 79 % 1009,8 hPa 0,0 l/m 3,2 km/h (1 Bft) S-SO 157 0 min 0,000 mm 0,0 UV-I 0 W/m 3,6 C 7,0 C 4,8 km/h (1 Bft) 100,00 %
31.12.2017 19:24 7,2 C 3,9 C 79 % 1009,8 hPa 0,0 l/m 3,2 km/h (1 Bft) S-SO 157 0 min 0,000 mm 0,0 UV-I 0 W/m 3,8 C 7,2 C 4,8 km/h (1 Bft) 100,00 %
31.12.2017 19:25 7,5 C 3,9 C 78 % 1009,7 hPa 0,0 l/m 3,2 km/h (1 Bft) S 180 0 min 0,000 mm 0,0 UV-I 0 W/m 3,9 C 7,5 C 8,0 km/h (2 Bft) 91,30 %
31.12.2017 19:26 7,8 C 3,9 C 77 % 1009,7 hPa 0,0 l/m 3,2 km/h (1 Bft) S-SO 157 0 min 0,000 mm 0,0 UV-I 0 W/m 4,0 C 7,8 C 8,0 km/h (2 Bft) 100,00 %
31.12.2017 19:27 8,0 C 3,9 C 76 % 1009,7 hPa 0,0 l/m 3,2 km/h (1 Bft) S-SO 157 0 min 0,000 mm 0,0 UV-I 0 W/m 4,0 C 8,0 C 6,4 km/h (2 Bft) 100,00 %
31.12.2017 19:28 8,2 C 3,9 C 74 % 1009,7 hPa 0,0 l/m 3,2 km/h (1 Bft) S-SO 157 0 min 0,000 mm 0,0 UV-I 0 W/m 3,8 C 8,2 C 6,4 km/h (2 Bft) 100,00 %
31.12.2017 19:29 8,3 C 3,9 C 74 % 1009,7 hPa 0,0 l/m 3,2 km/h (1 Bft) S 180 0 min 0,000 mm 0,0 UV-I 0 W/m 3,9 C 8,3 C 6,4 km/h (2 Bft) 100,00 %
31.12.2017 19:30 8,4 C 3,9 C 73 % 1009,7 hPa 0,0 l/m 1,6 km/h (1 Bft) S 180 0 min 0,000 mm 0,0 UV-I 0 W/m 3,8 C 8,4 C 3,2 km/h (1 Bft) 100,00 %
31.12.2017 19:31 8,4 C 3,9 C 73 % 1009,6 hPa 0,0 l/m 3,2 km/h (1 Bft) S 180 0 min 0,000 mm 0,0 UV-I 0 W/m 3,8 C 8,4 C 6,4 km/h (2 Bft) 100,00 %
31.12.2017 19:32 8,3 C 3,9 C 73 % 1009,6 hPa 0,0 l/m 1,6 km/h (1 Bft) S 180 0 min 0,000 mm 0,0 UV-I 0 W/m 3,8 C 8,3 C 3,2 km/h (1 Bft) 95,65 %
31.12.2017 19:33 8,2 C 3,9 C 73 % 1009,6 hPa 0,0 l/m 1,6 km/h (1 Bft) S 180 0 min 0,000 mm 0,0 UV-I 0 W/m 3,7 C 8,2 C 3,2 km/h (1 Bft) 100,00 %
31.12.2017 19:34 7,8 C 3,9 C 74 % 1009,6 hPa 0,0 l/m 1,6 km/h (1 Bft) S 180 0 min 0,000 mm 0,0 UV-I 0 W/m 3,5 C 7,8 C 6,4 km/h (2 Bft) 100,00 %
31.12.2017 19:35 7,6 C 3,9 C 75 % 1009,6 hPa 0,0 l/m 1,6 km/h (1 Bft) S 180 0 min 0,000 mm 0,0 UV-I 0 W/m 3,5 C 7,6 C 3,2 km/h (1 Bft) 100,00 %
31.12.2017 19:36 7,3 C 3,9 C 76 % 1009,6 hPa 0,0 l/m 1,6 km/h (1 Bft) S 180 0 min 0,000 mm 0,0 UV-I 0 W/m 3,4 C 7,3 C 3,2 km/h (1 Bft) 100,00 %
31.12.2017 19:37 7,1 C 3,9 C 77 % 1009,6 hPa 0,0 l/m 3,2 km/h (1 Bft) S 180 0 min 0,000 mm 0,0 UV-I 0 W/m 3,3 C 7,1 C 3,2 km/h (1 Bft) 95,65 %
31.12.2017 19:38 6,8 C 3,9 C 77 % 1009,6 hPa 0,0 l/m 1,6 km/h (1 Bft) S 180 0 min 0,000 mm 0,0 UV-I 0 W/m 3,1 C 6,8 C 3,2 km/h (1 Bft) 100,00 %
31.12.2017 19:39 6,5 C 3,9 C 79 % 1009,6 hPa 0,0 l/m 3,2 km/h (1 Bft) S 180 0 min 0,000 mm 0,0 UV-I 0 W/m 3,1 C 6,5 C 3,2 km/h (1 Bft) 95,65 %
31.12.2017 19:40 6,4 C 3,9 C 80 % 1009,6 hPa 0,0 l/m 3,2 km/h (1 Bft) S 180 0 min 0,000 mm 0,0 UV-I 0 W/m 3,2 C 6,4 C 3,2 km/h (1 Bft) 95,65 %
31.12.2017 19:41 6,4 C 3,9 C 80 % 1009,6 hPa 0,0 l/m 3,2 km/h (1 Bft) S 180 0 min 0,000 mm 0,0 UV-I 0 W/m 3,2 C 6,4 C 6,4 km/h (2 Bft) 100,00 %
31.12.2017 19:42 6,5 C 3,9 C 80 % 1009,6 hPa 0,0 l/m 4,8 km/h (1 Bft) S 180 0 min 0,000 mm 0,0 UV-I 0 W/m 3,3 C 6,5 C 8,0 km/h (2 Bft) 100,00 %
31.12.2017 19:43 6,5 C 3,9 C 80 % 1009,5 hPa 0,0 l/m 3,2 km/h (1 Bft) S 180 0 min 0,000 mm 0,0 UV-I 0 W/m 3,3 C 6,5 C 6,4 km/h (2 Bft) 95,65 %
31.12.2017 19:44 6,5 C 3,9 C 80 % 1009,5 hPa 0,0 l/m 6,4 km/h (2 Bft) S 180 0 min 0,000 mm 0,0 UV-I 0 W/m 3,3 C 6,5 C 8,0 km/h (2 Bft) 100,00 %
31.12.2017 19:45 6,4 C 3,9 C 81 % 1009,5 hPa 0,0 l/m 3,2 km/h (1 Bft) S 180 0 min 0,000 mm 0,0 UV-I 0 W/m 3,4 C 6,4 C 6,4 km/h (2 Bft) 100,00 %
31.12.2017 19:46 6,5 C 3,9 C 81 % 1009,5 hPa 0,0 l/m 3,2 km/h (1 Bft) S 180 0 min 0,000 mm 0,0 UV-I 0 W/m 3,5 C 6,5 C 3,2 km/h (1 Bft) 91,30 %
31.12.2017 19:47 6,5 C 3,9 C 81 % 1009,5 hPa 0,0 l/m 3,2 km/h (1 Bft) S 180 0 min 0,000 mm 0,0 UV-I 0 W/m 3,5 C 6,5 C 3,2 km/h (1 Bft) 100,00 %
31.12.2017 19:48 6,6 C 3,9 C 80 % 1009,4 hPa 0,0 l/m 1,6 km/h (1 Bft) S 180 0 min 0,000 mm 0,0 UV-I 0 W/m 3,4 C 6,6 C 3,2 km/h (1 Bft) 100,00 %
31.12.2017 19:49 6,7 C 3,9 C 80 % 1009,4 hPa 0,0 l/m 1,6 km/h (1 Bft) S 180 0 min 0,000 mm 0,0 UV-I 0 W/m 3,5 C 6,7 C 3,2 km/h (1 Bft) 95,65 %
31.12.2017 19:50 6,9 C 3,9 C 80 % 1009,4 hPa 0,0 l/m 3,2 km/h (1 Bft) S 180 0 min 0,000 mm 0,0 UV-I 0 W/m 3,7 C 6,9 C 6,4 km/h (2 Bft) 100,00 %
31.12.2017 19:51 7,0 C 3,9 C 79 % 1009,5 hPa 0,0 l/m 3,2 km/h (1 Bft) S-SO 157 0 min 0,000 mm 0,0 UV-I 0 W/m 3,6 C 7,0 C 6,4 km/h (2 Bft) 100,00 %
31.12.2017 19:52 7,2 C 3,9 C 78 % 1009,4 hPa 0,0 l/m 3,2 km/h (1 Bft) S-SO 157 0 min 0,000 mm 0,0 UV-I 0 W/m 3,6 C 7,2 C 6,4 km/h (2 Bft) 100,00 %
31.12.2017 19:53 7,2 C 3,9 C 78 % 1009,5 hPa 0,0 l/m 3,2 km/h (1 Bft) S-SO 157 0 min 0,000 mm 0,0 UV-I 0 W/m 3,6 C 7,2 C 6,4 km/h (2 Bft) 95,65 %
31.12.2017 19:54 7,2 C 3,9 C 78 % 1009,5 hPa 0,0 l/m 3,2 km/h (1 Bft) S-SO 157 0 min 0,000 mm 0,0 UV-I 0 W/m 3,6 C 7,2 C 8,0 km/h (2 Bft) 100,00 %
31.12.2017 19:55 6,9 C 3,9 C 78 % 1009,5 hPa 0,0 l/m 3,2 km/h (1 Bft) S 180 0 min 0,000 mm 0,0 UV-I 0 W/m 3,3 C 6,9 C 6,4 km/h (2 Bft) 100,00 %
31.12.2017 19:56 6,8 C 3,9 C 78 % 1009,5 hPa 0,0 l/m 3,2 km/h (1 Bft) S 180 0 min 0,000 mm 0,0 UV-I 0 W/m 3,2 C 6,8 C 6,4 km/h (2 Bft) 95,65 %
31.12.2017 19:57 6,6 C 3,9 C 79 % 1009,4 hPa 0,0 l/m 1,6 km/h (1 Bft) S 180 0 min 0,000 mm 0,0 UV-I 0 W/m 3,2 C 6,6 C 3,2 km/h (1 Bft) 100,00 %
31.12.2017 19:58 6,5 C 3,9 C 80 % 1009,4 hPa 0,0 l/m 3,2 km/h (1 Bft) S 180 0 min 0,000 mm 0,0 UV-I 0 W/m 3,3 C 6,5 C 6,4 km/h (2 Bft) 100,00 %
31.12.2017 19:59 6,4 C 3,9 C 80 % 1009,3 hPa 0,0 l/m 4,8 km/h (1 Bft) S 180 0 min 0,000 mm 0,0 UV-I 0 W/m 3,2 C 6,4 C 6,4 km/h (2 Bft) 100,00 %
31.12.2017 20:00 6,3 C 3,9 C 81 % 1009,3 hPa 0,0 l/m 4,8 km/h (1 Bft) S 180 0 min 0,000 mm 0,0 UV-I 0 W/m 3,3 C 6,3 C 6,4 km/h (2 Bft) 95,65 %
31.12.2017 20:01 6,3 C 3,9 C 81 % 1009,3 hPa 0,0 l/m 3,2 km/h (1 Bft) S 180 0 min 0,000 mm 0,0 UV-I 0 W/m 3,3 C 6,3 C 6,4 km/h (2 Bft) 100,00 %
31.12.2017 20:02 6,2 C 3,9 C 81 % 1009,3 hPa 0,0 l/m 3,2 km/h (1 Bft) S 180 0 min 0,000 mm 0,0 UV-I 0 W/m 3,2 C 6,2 C 6,4 km/h (2 Bft) 100,00 %
31.12.2017 20:03 6,2 C 3,9 C 81 % 1009,3 hPa 0,0 l/m 3,2 km/h (1 Bft) S 180 0 min 0,000 mm 0,0 UV-I 0 W/m 3,2 C 6,2 C 6,4 km/h (2 Bft) 100,00 %
31.12.2017 20:04 6,1 C 3,9 C 81 % 1009,3 hPa 0,0 l/m 3,2 km/h (1 Bft) S 180 0 min 0,000 mm 0,0 UV-I 0 W/m 3,1 C 6,1 C 3,2 km/h (1 Bft) 100,00 %
31.12.2017 20:05 6,0 C 3,9 C 81 % 1009,3 hPa 0,0 l/m 1,6 km/h (1 Bft) S 180 0 min 0,000 mm 0,0 UV-I 0 W/m 3,0 C 6,0 C 3,2 km/h (1 Bft) 95,65 %
31.12.2017 20:06 5,9 C 3,9 C 82 % 1009,3 hPa 0,0 l/m 3,2 km/h (1 Bft) S 180 0 min 0,000 mm 0,0 UV-I 0 W/m 3,1 C 5,9 C 6,4 km/h (2 Bft) 100,00 %
31.12.2017 20:07 5,8 C 3,9 C 82 % 1009,3 hPa 0,0 l/m 3,2 km/h (1 Bft) S 180 0 min 0,000 mm 0,0 UV-I 0 W/m 3,0 C 5,8 C 6,4 km/h (2 Bft) 91,30 %
31.12.2017 20:08 5,7 C 3,9 C 83 % 1009,3 hPa 0,0 l/m 3,2 km/h (1 Bft) S 180 0 min 0,000 mm 0,0 UV-I 0 W/m 3,0 C 5,7 C 6,4 km/h (2 Bft) 100,00 %
31.12.2017 20:09 5,6 C 3,9 C 83 % 1009,3 hPa 0,0 l/m 3,2 km/h (1 Bft) S 180 0 min 0,000 mm 0,0 UV-I 0 W/m 2,9 C 5,6 C 6,4 km/h (2 Bft) 95,65 %
31.12.2017 20:10 5,6 C 3,9 C 83 % 1009,3 hPa 0,0 l/m 4,8 km/h (1 Bft) S-SW 202 0 min 0,000 mm 0,0 UV-I 0 W/m 2,9 C 5,6 C 6,4 km/h (2 Bft) 100,00 %
31.12.2017 20:11 5,6 C 3,9 C 83 % 1009,2 hPa 0,0 l/m 3,2 km/h (1 Bft) S-SW 202 0 min 0,000 mm 0,0 UV-I 0 W/m 2,9 C 5,6 C 4,8 km/h (1 Bft) 100,00 %
31.12.2017 20:12 5,6 C 3,9 C 83 % 1009,2 hPa 0,0 l/m 3,2 km/h (1 Bft) S-SW 202 0 min 0,000 mm 0,0 UV-I 0 W/m 2,9 C 5,6 C 4,8 km/h (1 Bft) 95,65 %
31.12.2017 20:13 5,6 C 3,9 C 84 % 1009,3 hPa 0,0 l/m 3,2 km/h (1 Bft) S-SW 202 0 min 0,000 mm 0,0 UV-I 0 W/m 3,1 C 5,6 C 4,8 km/h (1 Bft) 95,65 %
31.12.2017 20:14 5,6 C 3,9 C 84 % 1009,3 hPa 0,0 l/m 1,6 km/h (1 Bft) S-SW 202 0 min 0,000 mm 0,0 UV-I 0 W/m 3,1 C 5,6 C 4,8 km/h (1 Bft) 95,65 %
31.12.2017 20:15 5,6 C 3,9 C 83 % 1009,3 hPa 0,0 l/m 1,6 km/h (1 Bft) S-SW 202 0 min 0,000 mm 0,0 UV-I 0 W/m 2,9 C 5,6 C 1,6 km/h (1 Bft) 95,65 %
31.12.2017 20:16 5,3 C 3,9 C 83 % 1009,2 hPa 0,0 l/m 1,6 km/h (1 Bft) S-SW 202 0 min 0,000 mm 0,0 UV-I 0 W/m 2,7 C 5,3 C 3,2 km/h (1 Bft) 100,00 %
31.12.2017 20:17 5,1 C 3,9 C 84 % 1009,2 hPa 0,0 l/m 1,6 km/h (1 Bft) S-SW 202 0 min 0,000 mm 0,0 UV-I 0 W/m 2,6 C 5,1 C 3,2 km/h (1 Bft) 95,65 %
31.12.2017 20:18 4,9 C 3,9 C 85 % 1009,2 hPa 0,0 l/m 1,6 km/h (1 Bft) S-SW 202 0 min 0,000 mm 0,0 UV-I 0 W/m 2,6 C 4,9 C 3,2 km/h (1 Bft) 95,65 %
31.12.2017 20:19 4,9 C 3,9 C 86 % 1009,2 hPa 0,0 l/m 1,6 km/h (1 Bft) S-SW 202 0 min 0,000 mm 0,0 UV-I 0 W/m 2,8 C 4,9 C 3,2 km/h (1 Bft) 91,30 %
31.12.2017 20:20 5,0 C 3,9 C 86 % 1009,2 hPa 0,0 l/m 3,2 km/h (1 Bft) S-SW 202 0 min 0,000 mm 0,0 UV-I 0 W/m 2,9 C 5,0 C 3,2 km/h (1 Bft) 95,65 %
31.12.2017 20:21 5,1 C 3,9 C 86 % 1009,2 hPa 0,0 l/m 1,6 km/h (1 Bft) S-SW 202 0 min 0,000 mm 0,0 UV-I 0 W/m 3,0 C 5,1 C 3,2 km/h (1 Bft) 91,30 %
31.12.2017 20:22 5,2 C 3,9 C 86 % 1009,2 hPa 0,0 l/m 1,6 km/h (1 Bft) S-SW 202 0 min 0,000 mm 0,0 UV-I 0 W/m 3,1 C 5,2 C 3,2 km/h (1 Bft) 91,30 %
31.12.2017 20:23 5,3 C 3,9 C 85 % 1009,2 hPa 0,0 l/m 3,2 km/h (1 Bft) S-SW 202 0 min 0,000 mm 0,0 UV-I 0 W/m 3,0 C 5,3 C 4,8 km/h (1 Bft) 100,00 %
31.12.2017 20:24 5,3 C 3,9 C 85 % 1009,2 hPa 0,0 l/m 3,2 km/h (1 Bft) S-SW 202 0 min 0,000 mm 0,0 UV-I 0 W/m 3,0 C 5,3 C 4,8 km/h (1 Bft) 95,65 %
31.12.2017 20:25 5,4 C 3,9 C 85 % 1009,2 hPa 0,0 l/m 3,2 km/h (1 Bft) S-SW 202 0 min 0,000 mm 0,0 UV-I 0 W/m 3,1 C 5,4 C 4,8 km/h (1 Bft) 100,00 %
31.12.2017 20:26 5,4 C 3,9 C 84 % 1009,2 hPa 0,0 l/m 4,8 km/h (1 Bft) S-SW 202 0 min 0,000 mm 0,0 UV-I 0 W/m 2,9 C 5,4 C 4,8 km/h (1 Bft) 95,65 %
31.12.2017 20:27 5,5 C 3,9 C 84 % 1009,2 hPa 0,0 l/m 4,8 km/h (1 Bft) O-SO 112 0 min 0,000 mm 0,0 UV-I 0 W/m 3,0 C 5,5 C 4,8 km/h (1 Bft) 100,00 %
31.12.2017 20:28 5,6 C 3,9 C 84 % 1009,2 hPa 0,0 l/m 4,8 km/h (1 Bft) O-SO 112 0 min 0,000 mm 0,0 UV-I 0 W/m 3,1 C 5,6 C 4,8 km/h (1 Bft) 91,30 %
31.12.2017 20:29 5,7 C 3,9 C 84 % 1009,2 hPa 0,0 l/m 4,8 km/h (1 Bft) O 90 0 min 0,000 mm 0,0 UV-I 0 W/m 3,2 C 5,7 C 6,4 km/h (2 Bft) 100,00 %
31.12.2017 20:30 5,8 C 3,9 C 84 % 1009,2 hPa 0,0 l/m 4,8 km/h (1 Bft) O 90 0 min 0,000 mm 0,0 UV-I 0 W/m 3,3 C 5,8 C 4,8 km/h (1 Bft) 91,30 %
31.12.2017 20:31 5,7 C 3,9 C 83 % 1009,2 hPa 0,0 l/m 4,8 km/h (1 Bft) O 90 0 min 0,000 mm 0,0 UV-I 0 W/m 3,0 C 5,7 C 4,8 km/h (1 Bft) 95,65 %
31.12.2017 20:32 5,7 C 3,9 C 84 % 1009,3 hPa 0,0 l/m 3,2 km/h (1 Bft) O 90 0 min 0,000 mm 0,0 UV-I 0 W/m 3,2 C 5,7 C 3,2 km/h (1 Bft) 95,65 %
31.12.2017 20:33 5,7 C 3,9 C 84 % 1009,2 hPa 0,0 l/m 1,6 km/h (1 Bft) O 90 0 min 0,000 mm 0,0 UV-I 0 W/m 3,2 C 5,7 C 3,2 km/h (1 Bft) 100,00 %
31.12.2017 20:34 5,7 C 3,9 C 84 % 1009,3 hPa 0,0 l/m 0,0 km/h (0 Bft) O 90 0 min 0,000 mm 0,0 UV-I 0 W/m 3,2 C 5,7 C 1,6 km/h (1 Bft) 95,65 %
31.12.2017 20:35 5,7 C 3,9 C 84 % 1009,3 hPa 0,0 l/m 1,6 km/h (1 Bft) O 90 0 min 0,000 mm 0,0 UV-I 0 W/m 3,2 C 5,7 C 3,2 km/h (1 Bft) 95,65 %
31.12.2017 20:36 5,7 C 3,9 C 84 % 1009,2 hPa 0,0 l/m 1,6 km/h (1 Bft) O 90 0 min 0,000 mm 0,0 UV-I 0 W/m 3,2 C 5,7 C 3,2 km/h (1 Bft) 95,65 %
31.12.2017 20:37 5,6 C 3,9 C 83 % 1009,2 hPa 0,0 l/m 1,6 km/h (1 Bft) O 90 0 min 0,000 mm 0,0 UV-I 0 W/m 2,9 C 5,6 C 3,2 km/h (1 Bft) 95,65 %
31.12.2017 20:38 5,5 C 3,9 C 83 % 1009,2 hPa 0,0 l/m 1,6 km/h (1 Bft) O 90 0 min 0,000 mm 0,0 UV-I 0 W/m 2,8 C 5,5 C 1,6 km/h (1 Bft) 100,00 %
31.12.2017 20:39 5,4 C 3,9 C 84 % 1009,2 hPa 0,0 l/m 1,6 km/h (1 Bft) O 90 0 min 0,000 mm 0,0 UV-I 0 W/m 2,9 C 5,4 C 3,2 km/h (1 Bft) 95,65 %
31.12.2017 20:40 5,3 C 3,9 C 84 % 1009,2 hPa 0,0 l/m 1,6 km/h (1 Bft) O 90 0 min 0,000 mm 0,0 UV-I 0 W/m 2,8 C 5,3 C 3,2 km/h (1 Bft) 100,00 %
31.12.2017 20:41 5,3 C 3,9 C 84 % 1009,2 hPa 0,0 l/m 0,0 km/h (0 Bft) O 90 0 min 0,000 mm 0,0 UV-I 0 W/m 2,8 C 5,3 C 1,6 km/h (1 Bft) 95,65 %
31.12.2017 20:42 5,2 C 3,9 C 85 % 1009,2 hPa 0,0 l/m 0,0 km/h (0 Bft) O 90 0 min 0,000 mm 0,0 UV-I 0 W/m 2,9 C 5,2 C 1,6 km/h (1 Bft) 95,65 %
31.12.2017 20:43 5,2 C 3,9 C 85 % 1009,1 hPa 0,0 l/m 0,0 km/h (0 Bft) N 0 0 min 0,000 mm 0,0 UV-I 0 W/m 2,9 C 5,2 C 0,0 km/h (0 Bft) 95,65 %
31.12.2017 20:44 5,2 C 3,9 C 85 % 1009,1 hPa 0,0 l/m 1,6 km/h (1 Bft) O 90 0 min 0,000 mm 0,0 UV-I 0 W/m 2,9 C 5,2 C 3,2 km/h (1 Bft) 91,30 %
31.12.2017 20:45 5,1 C 3,9 C 85 % 1009,1 hPa 0,0 l/m 3,2 km/h (1 Bft) O 90 0 min 0,000 mm 0,0 UV-I 0 W/m 2,8 C 5,1 C 3,2 km/h (1 Bft) 95,65 %
31.12.2017 20:46 5,1 C 3,9 C 85 % 1009,0 hPa 0,0 l/m 3,2 km/h (1 Bft) O 90 0 min 0,000 mm 0,0 UV-I 0 W/m 2,8 C 5,1 C 3,2 km/h (1 Bft) 95,65 %
31.12.2017 20:47 5,1 C 3,9 C 86 % 1009,1 hPa 0,0 l/m 1,6 km/h (1 Bft) O 90 0 min 0,000 mm 0,0 UV-I 0 W/m 3,0 C 5,1 C 3,2 km/h (1 Bft) 100,00 %
31.12.2017 20:48 5,1 C 3,9 C 86 % 1009,0 hPa 0,0 l/m 3,2 km/h (1 Bft) O 90 0 min 0,000 mm 0,0 UV-I 0 W/m 3,0 C 5,1 C 3,2 km/h (1 Bft) 95,65 %
31.12.2017 20:49 5,2 C 3,9 C 86 % 1009,0 hPa 0,0 l/m 3,2 km/h (1 Bft) O 90 0 min 0,000 mm 0,0 UV-I 0 W/m 3,1 C 5,2 C 4,8 km/h (1 Bft) 95,65 %
31.12.2017 20:50 5,2 C 3,9 C 86 % 1009,0 hPa 0,0 l/m 3,2 km/h (1 Bft) O 90 0 min 0,000 mm 0,0 UV-I 0 W/m 3,1 C 5,2 C 4,8 km/h (1 Bft) 95,65 %
31.12.2017 20:51 5,2 C 3,9 C 85 % 1008,9 hPa 0,0 l/m 3,2 km/h (1 Bft) O 90 0 min 0,000 mm 0,0 UV-I 0 W/m 2,9 C 5,2 C 3,2 km/h (1 Bft) 100,00 %
31.12.2017 20:52 5,2 C 3,9 C 86 % 1008,9 hPa 0,0 l/m 3,2 km/h (1 Bft) O 90 0 min 0,000 mm 0,0 UV-I 0 W/m 3,1 C 5,2 C 3,2 km/h (1 Bft) 95,65 %
31.12.2017 20:53 5,2 C 3,9 C 86 % 1009,0 hPa 0,0 l/m 1,6 km/h (1 Bft) O 90 0 min 0,000 mm 0,0 UV-I 0 W/m 3,1 C 5,2 C 3,2 km/h (1 Bft) 95,65 %
31.12.2017 20:54 5,2 C 3,9 C 86 % 1008,9 hPa 0,0 l/m 1,6 km/h (1 Bft) O 90 0 min 0,000 mm 0,0 UV-I 0 W/m 3,1 C 5,2 C 3,2 km/h (1 Bft) 100,00 %
31.12.2017 20:55 5,2 C 3,9 C 86 % 1008,9 hPa 0,0 l/m 1,6 km/h (1 Bft) O 90 0 min 0,000 mm 0,0 UV-I 0 W/m 3,1 C 5,2 C 3,2 km/h (1 Bft) 91,30 %
31.12.2017 20:56 5,3 C 3,9 C 85 % 1008,9 hPa 0,0 l/m 1,6 km/h (1 Bft) O 90 0 min 0,000 mm 0,0 UV-I 0 W/m 3,0 C 5,3 C 3,2 km/h (1 Bft) 95,65 %
31.12.2017 20:57 5,1 C 3,9 C 85 % 1008,9 hPa 0,0 l/m 1,6 km/h (1 Bft) O 90 0 min 0,000 mm 0,0 UV-I 0 W/m 2,8 C 5,1 C 3,2 km/h (1 Bft) 91,30 %
31.12.2017 20:58 4,8 C 3,9 C 85 % 1008,9 hPa 0,0 l/m 1,6 km/h (1 Bft) O 90 0 min 0,000 mm 0,0 UV-I 0 W/m 2,5 C 4,8 C 3,2 km/h (1 Bft) 100,00 %
31.12.2017 20:59 4,7 C 3,9 C 86 % 1008,9 hPa 0,0 l/m 0,0 km/h (0 Bft) O 90 0 min 0,000 mm 0,0 UV-I 0 W/m 2,6 C 4,7 C 1,6 km/h (1 Bft) 95,65 %
31.12.2017 21:00 4,7 C 3,9 C 86 % 1008,9 hPa 0,0 l/m 0,0 km/h (0 Bft) N 0 0 min 0,000 mm 0,0 UV-I 0 W/m 2,6 C 4,7 C 0,0 km/h (0 Bft) 100,00 %
31.12.2017 21:01 4,6 C 3,9 C 87 % 1008,8 hPa 0,0 l/m 0,0 km/h (0 Bft) N 0 0 min 0,000 mm 0,0 UV-I 0 W/m 2,6 C 4,6 C 0,0 km/h (0 Bft) 95,65 %
31.12.2017 21:02 4,5 C 3,9 C 87 % 1008,8 hPa 0,0 l/m 0,0 km/h (0 Bft) O 90 0 min 0,000 mm 0,0 UV-I 0 W/m 2,5 C 4,5 C 1,6 km/h (1 Bft) 95,65 %
31.12.2017 21:03 4,4 C 3,9 C 88 % 1008,8 hPa 0,0 l/m 1,6 km/h (1 Bft) O 90 0 min 0,000 mm 0,0 UV-I 0 W/m 2,6 C 4,4 C 3,2 km/h (1 Bft) 95,65 %
31.12.2017 21:04 4,4 C 3,9 C 88 % 1008,8 hPa 0,0 l/m 1,6 km/h (1 Bft) O 90 0 min 0,000 mm 0,0 UV-I 0 W/m 2,6 C 4,4 C 3,2 km/h (1 Bft) 95,65 %
31.12.2017 21:05 4,4 C 3,9 C 88 % 1008,8 hPa 0,0 l/m 0,0 km/h (0 Bft) O 90 0 min 0,000 mm 0,0 UV-I 0 W/m 2,6 C 4,4 C 1,6 km/h (1 Bft) 95,65 %
31.12.2017 21:06 4,4 C 3,9 C 89 % 1008,8 hPa 0,0 l/m 0,0 km/h (0 Bft) N 0 0 min 0,000 mm 0,0 UV-I 0 W/m 2,7 C 4,4 C 0,0 km/h (0 Bft) 95,65 %
31.12.2017 21:07 4,5 C 3,9 C 88 % 1008,8 hPa 0,0 l/m 0,0 km/h (0 Bft) N 0 0 min 0,000 mm 0,0 UV-I 0 W/m 2,7 C 4,5 C 0,0 km/h (0 Bft) 95,65 %
31.12.2017 21:08 4,4 C 3,9 C 88 % 1008,8 hPa 0,0 l/m 0,0 km/h (0 Bft) N 0 0 min 0,000 mm 0,0 UV-I 0 W/m 2,6 C 4,4 C 0,0 km/h (0 Bft) 95,65 %
31.12.2017 21:09 4,5 C 3,9 C 88 % 1008,8 hPa 0,0 l/m 0,0 km/h (0 Bft) N 0 0 min 0,000 mm 0,0 UV-I 0 W/m 2,7 C 4,5 C 0,0 km/h (0 Bft) 100,00 %
31.12.2017 21:10 4,6 C 3,9 C 89 % 1008,8 hPa 0,0 l/m 0,0 km/h (0 Bft) N 0 0 min 0,000 mm 0,0 UV-I 0 W/m 2,9 C 4,6 C 0,0 km/h (0 Bft) 91,30 %
31.12.2017 21:11 4,7 C 3,9 C 89 % 1008,8 hPa 0,0 l/m 0,0 km/h (0 Bft) N 0 0 min 0,000 mm 0,0 UV-I 0 W/m 3,0 C 4,7 C 0,0 km/h (0 Bft) 95,65 %
31.12.2017 21:12 4,7 C 3,9 C 88 % 1008,8 hPa 0,0 l/m 0,0 km/h (0 Bft) O 90 0 min 0,000 mm 0,0 UV-I 0 W/m 2,9 C 4,7 C 1,6 km/h (1 Bft) 100,00 %
31.12.2017 21:13 4,8 C 3,9 C 88 % 1008,7 hPa 0,0 l/m 0,0 km/h (0 Bft) O 90 0 min 0,000 mm 0,0 UV-I 0 W/m 3,0 C 4,8 C 1,6 km/h (1 Bft) 100,00 %
31.12.2017 21:14 4,8 C 3,9 C 88 % 1008,7 hPa 0,0 l/m 0,0 km/h (0 Bft) O 90 0 min 0,000 mm 0,0 UV-I 0 W/m 3,0 C 4,8 C 1,6 km/h (1 Bft) 100,00 %
31.12.2017 21:15 4,8 C 3,9 C 87 % 1008,7 hPa 0,0 l/m 0,0 km/h (0 Bft) N 0 0 min 0,000 mm 0,0 UV-I 0 W/m 2,8 C 4,8 C 0,0 km/h (0 Bft) 100,00 %
31.12.2017 21:16 4,7 C 3,9 C 87 % 1008,7 hPa 0,0 l/m 0,0 km/h (0 Bft) N 0 0 min 0,000 mm 0,0 UV-I 0 W/m 2,7 C 4,7 C 0,0 km/h (0 Bft) 100,00 %
31.12.2017 21:17 4,5 C 3,9 C 87 % 1008,6 hPa 0,0 l/m 0,0 km/h (0 Bft) N 0 0 min 0,000 mm 0,0 UV-I 0 W/m 2,5 C 4,5 C 0,0 km/h (0 Bft) 91,30 %
31.12.2017 21:18 4,3 C 3,9 C 87 % 1008,7 hPa 0,0 l/m 0,0 km/h (0 Bft) N 0 0 min 0,000 mm 0,0 UV-I 0 W/m 2,3 C 4,3 C 0,0 km/h (0 Bft) 95,65 %
31.12.2017 21:19 4,2 C 3,9 C 88 % 1008,7 hPa 0,0 l/m 0,0 km/h (0 Bft) N 0 0 min 0,000 mm 0,0 UV-I 0 W/m 2,4 C 4,2 C 0,0 km/h (0 Bft) 100,00 %
31.12.2017 21:20 4,0 C 3,9 C 88 % 1008,7 hPa 0,0 l/m 0,0 km/h (0 Bft) N 0 0 min 0,000 mm 0,0 UV-I 0 W/m 2,2 C 4,0 C 0,0 km/h (0 Bft) 100,00 %
31.12.2017 21:21 4,0 C 3,9 C 89 % 1008,7 hPa 0,0 l/m 0,0 km/h (0 Bft) N 0 0 min 0,000 mm 0,0 UV-I 0 W/m 2,4 C 4,0 C 0,0 km/h (0 Bft) 100,00 %
31.12.2017 21:22 4,1 C 3,9 C 90 % 1008,8 hPa 0,0 l/m 0,0 km/h (0 Bft) N 0 0 min 0,000 mm 0,0 UV-I 0 W/m 2,6 C 4,1 C 0,0 km/h (0 Bft) 100,00 %
31.12.2017 21:23 4,1 C 3,9 C 90 % 1008,7 hPa 0,0 l/m 0,0 km/h (0 Bft) N 0 0 min 0,000 mm 0,0 UV-I 0 W/m 2,6 C 4,1 C 0,0 km/h (0 Bft) 100,00 %
31.12.2017 21:24 4,2 C 3,9 C 90 % 1008,7 hPa 0,0 l/m 0,0 km/h (0 Bft) N 0 0 min 0,000 mm 0,0 UV-I 0 W/m 2,7 C 4,2 C 0,0 km/h (0 Bft) 95,65 %
31.12.2017 21:25 4,3 C 3,9 C 90 % 1008,6 hPa 0,0 l/m 0,0 km/h (0 Bft) O 90 0 min 0,000 mm 0,0 UV-I 0 W/m 2,8 C 4,3 C 1,6 km/h (1 Bft) 100,00 %
31.12.2017 21:26 4,3 C 3,9 C 90 % 1008,6 hPa 0,0 l/m 0,0 km/h (0 Bft) N 0 0 min 0,000 mm 0,0 UV-I 0 W/m 2,8 C 4,3 C 0,0 km/h (0 Bft) 100,00 %
31.12.2017 21:27 4,4 C 3,9 C 89 % 1008,6 hPa 0,0 l/m 0,0 km/h (0 Bft) O 90 0 min 0,000 mm 0,0 UV-I 0 W/m 2,7 C 4,4 C 1,6 km/h (1 Bft) 100,00 %
31.12.2017 21:28 4,6 C 3,9 C 89 % 1008,6 hPa 0,0 l/m 1,6 km/h (1 Bft) O 90 0 min 0,000 mm 0,0 UV-I 0 W/m 2,9 C 4,6 C 3,2 km/h (1 Bft) 100,00 %
31.12.2017 21:29 4,7 C 3,9 C 89 % 1008,5 hPa 0,0 l/m 1,6 km/h (1 Bft) O 90 0 min 0,000 mm 0,0 UV-I 0 W/m 3,0 C 4,7 C 3,2 km/h (1 Bft) 91,30 %
31.12.2017 21:30 4,8 C 3,9 C 89 % 1008,5 hPa 0,0 l/m 1,6 km/h (1 Bft) O 90 0 min 0,000 mm 0,0 UV-I 0 W/m 3,1 C 4,8 C 1,6 km/h (1 Bft) 100,00 %
31.12.2017 21:31 4,8 C 3,9 C 88 % 1008,5 hPa 0,0 l/m 1,6 km/h (1 Bft) O 90 0 min 0,000 mm 0,0 UV-I 0 W/m 3,0 C 4,8 C 3,2 km/h (1 Bft) 95,65 %
31.12.2017 21:32 4,9 C 3,9 C 88 % 1008,5 hPa 0,0 l/m 1,6 km/h (1 Bft) O 90 0 min 0,000 mm 0,0 UV-I 0 W/m 3,1 C 4,9 C 1,6 km/h (1 Bft) 100,00 %
31.12.2017 21:33 4,8 C 3,9 C 87 % 1008,5 hPa 0,0 l/m 1,6 km/h (1 Bft) O 90 0 min 0,000 mm 0,0 UV-I 0 W/m 2,8 C 4,8 C 1,6 km/h (1 Bft) 100,00 %
31.12.2017 21:34 4,7 C 3,9 C 87 % 1008,5 hPa 0,0 l/m 1,6 km/h (1 Bft) O 90 0 min 0,000 mm 0,0 UV-I 0 W/m 2,7 C 4,7 C 3,2 km/h (1 Bft) 95,65 %
31.12.2017 21:35 4,4 C 3,9 C 87 % 1008,4 hPa 0,0 l/m 1,6 km/h (1 Bft) O 90 0 min 0,000 mm 0,0 UV-I 0 W/m 2,4 C 4,4 C 3,2 km/h (1 Bft) 95,65 %
31.12.2017 21:36 4,3 C 3,9 C 88 % 1008,4 hPa 0,0 l/m 3,2 km/h (1 Bft) O 90 0 min 0,000 mm 0,0 UV-I 0 W/m 2,5 C 4,3 C 3,2 km/h (1 Bft) 95,65 %
31.12.2017 21:37 4,3 C 3,9 C 89 % 1008,4 hPa 0,0 l/m 3,2 km/h (1 Bft) O 90 0 min 0,000 mm 0,0 UV-I 0 W/m 2,7 C 4,3 C 3,2 km/h (1 Bft) 100,00 %
31.12.2017 21:38 4,2 C 3,9 C 89 % 1008,4 hPa 0,0 l/m 3,2 km/h (1 Bft) O 90 0 min 0,000 mm 0,0 UV-I 0 W/m 2,6 C 4,2 C 3,2 km/h (1 Bft) 91,30 %
31.12.2017 21:39 4,2 C 3,9 C 89 % 1008,3 hPa 0,0 l/m 3,2 km/h (1 Bft) O 90 0 min 0,000 mm 0,0 UV-I 0 W/m 2,6 C 4,2 C 3,2 km/h (1 Bft) 95,65 %
31.12.2017 21:40 4,2 C 3,9 C 89 % 1008,3 hPa 0,0 l/m 1,6 km/h (1 Bft) O 90 0 min 0,000 mm 0,0 UV-I 0 W/m 2,6 C 4,2 C 3,2 km/h (1 Bft) 100,00 %
31.12.2017 21:41 4,2 C 3,9 C 89 % 1008,3 hPa 0,0 l/m 1,6 km/h (1 Bft) O 90 0 min 0,000 mm 0,0 UV-I 0 W/m 2,6 C 4,2 C 3,2 km/h (1 Bft) 95,65 %
31.12.2017 21:42 4,2 C 3,9 C 90 % 1008,3 hPa 0,0 l/m 1,6 km/h (1 Bft) O 90 0 min 0,000 mm 0,0 UV-I 0 W/m 2,7 C 4,2 C 3,2 km/h (1 Bft) 100,00 %
31.12.2017 21:43 4,3 C 3,9 C 90 % 1008,2 hPa 0,0 l/m 3,2 km/h (1 Bft) O 90 0 min 0,000 mm 0,0 UV-I 0 W/m 2,8 C 4,3 C 3,2 km/h (1 Bft) 95,65 %
31.12.2017 21:44 4,4 C 3,9 C 90 % 1008,2 hPa 0,0 l/m 3,2 km/h (1 Bft) O 90 0 min 0,000 mm 0,0 UV-I 0 W/m 2,9 C 4,4 C 3,2 km/h (1 Bft) 100,00 %
31.12.2017 21:45 4,6 C 3,9 C 89 % 1008,2 hPa 0,0 l/m 1,6 km/h (1 Bft) O 90 0 min 0,000 mm 0,0 UV-I 0 W/m 2,9 C 4,6 C 3,2 km/h (1 Bft) 86,96 %
31.12.2017 21:46 4,7 C 3,9 C 89 % 1008,2 hPa 0,0 l/m 1,6 km/h (1 Bft) O 90 0 min 0,000 mm 0,0 UV-I 0 W/m 3,0 C 4,7 C 3,2 km/h (1 Bft) 100,00 %
31.12.2017 21:47 4,6 C 3,9 C 88 % 1008,1 hPa 0,0 l/m 3,2 km/h (1 Bft) O 90 0 min 0,000 mm 0,0 UV-I 0 W/m 2,8 C 4,6 C 3,2 km/h (1 Bft) 95,65 %
31.12.2017 21:48 4,4 C 3,9 C 88 % 1008,2 hPa 0,0 l/m 3,2 km/h (1 Bft) O 90 0 min 0,000 mm 0,0 UV-I 0 W/m 2,6 C 4,4 C 4,8 km/h (1 Bft) 100,00 %
31.12.2017 21:49 4,2 C 3,9 C 88 % 1008,1 hPa 0,0 l/m 3,2 km/h (1 Bft) O 90 0 min 0,000 mm 0,0 UV-I 0 W/m 2,4 C 4,2 C 4,8 km/h (1 Bft) 95,65 %
31.12.2017 21:50 4,1 C 3,9 C 89 % 1008,1 hPa 0,0 l/m 4,8 km/h (1 Bft) O 90 0 min 0,000 mm 0,0 UV-I 0 W/m 2,5 C 4,1 C 4,8 km/h (1 Bft) 100,00 %
31.12.2017 21:51 4,1 C 3,9 C 89 % 1008,1 hPa 0,0 l/m 4,8 km/h (1 Bft) O 90 0 min 0,000 mm 0,0 UV-I 0 W/m 2,5 C 4,1 C 6,4 km/h (2 Bft) 91,30 %
31.12.2017 21:52 4,3 C 3,9 C 90 % 1008,1 hPa 0,0 l/m 6,4 km/h (2 Bft) O-NO 67 0 min 0,000 mm 0,0 UV-I 0 W/m 2,8 C 4,3 C 8,0 km/h (2 Bft) 95,65 %
31.12.2017 21:53 4,6 C 3,9 C 90 % 1008,1 hPa 0,0 l/m 4,8 km/h (1 Bft) NO 45 0 min 0,000 mm 0,0 UV-I 0 W/m 3,1 C 4,6 C 6,4 km/h (2 Bft) 95,65 %
31.12.2017 21:54 4,7 C 3,9 C 89 % 1008,1 hPa 0,0 l/m 4,8 km/h (1 Bft) NO 45 0 min 0,000 mm 0,0 UV-I 0 W/m 3,0 C 4,7 C 6,4 km/h (2 Bft) 95,65 %
31.12.2017 21:55 4,9 C 3,9 C 89 % 1008,2 hPa 0,0 l/m 4,8 km/h (1 Bft) O-NO 67 0 min 0,000 mm 0,0 UV-I 0 W/m 3,2 C 4,9 C 6,4 km/h (2 Bft) 100,00 %
31.12.2017 21:56 4,9 C 3,9 C 88 % 1008,2 hPa 0,0 l/m 3,2 km/h (1 Bft) O 90 0 min 0,000 mm 0,0 UV-I 0 W/m 3,1 C 4,9 C 4,8 km/h (1 Bft) 95,65 %
31.12.2017 21:57 4,8 C 3,9 C 87 % 1008,2 hPa 0,0 l/m 1,6 km/h (1 Bft) O 90 0 min 0,000 mm 0,0 UV-I 0 W/m 2,8 C 4,8 C 3,2 km/h (1 Bft) 95,65 %
31.12.2017 21:58 4,7 C 3,9 C 87 % 1008,2 hPa 0,0 l/m 1,6 km/h (1 Bft) O 90 0 min 0,000 mm 0,0 UV-I 0 W/m 2,7 C 4,7 C 3,2 km/h (1 Bft) 95,65 %
31.12.2017 21:59 4,6 C 3,9 C 87 % 1008,2 hPa 0,0 l/m 1,6 km/h (1 Bft) O 90 0 min 0,000 mm 0,0 UV-I 0 W/m 2,6 C 4,6 C 3,2 km/h (1 Bft) 95,65 %
31.12.2017 22:00 4,6 C 3,9 C 88 % 1008,2 hPa 0,0 l/m 1,6 km/h (1 Bft) O 90 0 min 0,000 mm 0,0 UV-I 0 W/m 2,8 C 4,6 C 3,2 km/h (1 Bft) 95,65 %
31.12.2017 22:01 4,6 C 3,9 C 88 % 1008,2 hPa 0,0 l/m 1,6 km/h (1 Bft) O 90 0 min 0,000 mm 0,0 UV-I 0 W/m 2,8 C 4,6 C 1,6 km/h (1 Bft) 95,65 %
31.12.2017 22:02 4,5 C 3,9 C 88 % 1008,2 hPa 0,0 l/m 0,0 km/h (0 Bft) O 90 0 min 0,000 mm 0,0 UV-I 0 W/m 2,7 C 4,5 C 1,6 km/h (1 Bft) 95,65 %
31.12.2017 22:03 4,4 C 3,9 C 88 % 1008,2 hPa 0,0 l/m 0,0 km/h (0 Bft) N 0 0 min 0,000 mm 0,0 UV-I 0 W/m 2,6 C 4,4 C 0,0 km/h (0 Bft) 100,00 %
31.12.2017 22:04 4,4 C 3,9 C 88 % 1008,2 hPa 0,0 l/m 0,0 km/h (0 Bft) N 0 0 min 0,000 mm 0,0 UV-I 0 W/m 2,6 C 4,4 C 0,0 km/h (0 Bft) 100,00 %
31.12.2017 22:05 4,3 C 3,9 C 88 % 1008,2 hPa 0,0 l/m 0,0 km/h (0 Bft) O 90 0 min 0,000 mm 0,0 UV-I 0 W/m 2,5 C 4,3 C 1,6 km/h (1 Bft) 100,00 %
31.12.2017 22:06 4,2 C 3,9 C 89 % 1008,2 hPa 0,0 l/m 1,6 km/h (1 Bft) O 90 0 min 0,000 mm 0,0 UV-I 0 W/m 2,6 C 4,2 C 3,2 km/h (1 Bft) 95,65 %
31.12.2017 22:07 4,1 C 3,9 C 89 % 1008,2 hPa 0,0 l/m 3,2 km/h (1 Bft) O 90 0 min 0,000 mm 0,0 UV-I 0 W/m 2,5 C 4,1 C 3,2 km/h (1 Bft) 100,00 %
31.12.2017 22:08 4,0 C 3,9 C 89 % 1008,1 hPa 0,0 l/m 0,0 km/h (0 Bft) O 90 0 min 0,000 mm 0,0 UV-I 0 W/m 2,4 C 4,0 C 1,6 km/h (1 Bft) 100,00 %
31.12.2017 22:09 3,9 C 3,9 C 89 % 1008,1 hPa 0,0 l/m 0,0 km/h (0 Bft) O 90 0 min 0,000 mm 0,0 UV-I 0 W/m 2,3 C 3,9 C 1,6 km/h (1 Bft) 100,00 %
31.12.2017 22:10 3,8 C 3,9 C 89 % 1008,1 hPa 0,0 l/m 0,0 km/h (0 Bft) N 0 0 min 0,000 mm 0,0 UV-I 0 W/m 2,2 C 3,8 C 0,0 km/h (0 Bft) 100,00 %
31.12.2017 22:11 3,7 C 3,9 C 89 % 1008,1 hPa 0,0 l/m 1,6 km/h (1 Bft) O 90 0 min 0,000 mm 0,0 UV-I 0 W/m 2,1 C 3,7 C 3,2 km/h (1 Bft) 100,00 %
31.12.2017 22:12 3,6 C 3,9 C 90 % 1008,0 hPa 0,0 l/m 1,6 km/h (1 Bft) O 90 0 min 0,000 mm 0,0 UV-I 0 W/m 2,1 C 3,6 C 3,2 km/h (1 Bft) 100,00 %
31.12.2017 22:13 3,5 C 3,9 C 90 % 1008,0 hPa 0,0 l/m 1,6 km/h (1 Bft) O 90 0 min 0,000 mm 0,0 UV-I 0 W/m 2,0 C 3,5 C 3,2 km/h (1 Bft) 95,65 %
31.12.2017 22:14 3,4 C 3,9 C 91 % 1008,0 hPa 0,0 l/m 3,2 km/h (1 Bft) O 90 0 min 0,000 mm 0,0 UV-I 0 W/m 2,1 C 3,4 C 3,2 km/h (1 Bft) 100,00 %
31.12.2017 22:15 3,4 C 3,9 C 91 % 1008,0 hPa 0,0 l/m 1,6 km/h (1 Bft) O 90 0 min 0,000 mm 0,0 UV-I 0 W/m 2,1 C 3,4 C 3,2 km/h (1 Bft) 100,00 %
31.12.2017 22:16 3,4 C 3,9 C 91 % 1008,0 hPa 0,0 l/m 1,6 km/h (1 Bft) O 90 0 min 0,000 mm 0,0 UV-I 0 W/m 2,1 C 3,4 C 3,2 km/h (1 Bft) 100,00 %
31.12.2017 22:17 3,4 C 3,9 C 91 % 1008,0 hPa 0,0 l/m 1,6 km/h (1 Bft) O 90 0 min 0,000 mm 0,0 UV-I 0 W/m 2,1 C 3,4 C 3,2 km/h (1 Bft) 100,00 %
31.12.2017 22:18 3,4 C 3,9 C 91 % 1008,0 hPa 0,0 l/m 1,6 km/h (1 Bft) O 90 0 min 0,000 mm 0,0 UV-I 0 W/m 2,1 C 3,4 C 3,2 km/h (1 Bft) 100,00 %
31.12.2017 22:19 3,4 C 3,9 C 91 % 1007,9 hPa 0,0 l/m 1,6 km/h (1 Bft) O 90 0 min 0,000 mm 0,0 UV-I 0 W/m 2,1 C 3,4 C 3,2 km/h (1 Bft) 100,00 %
31.12.2017 22:20 3,4 C 3,9 C 90 % 1007,9 hPa 0,0 l/m 1,6 km/h (1 Bft) O 90 0 min 0,000 mm 0,0 UV-I 0 W/m 1,9 C 3,4 C 3,2 km/h (1 Bft) 95,65 %
31.12.2017 22:21 3,4 C 3,9 C 91 % 1007,9 hPa 0,0 l/m 1,6 km/h (1 Bft) O 90 0 min 0,000 mm 0,0 UV-I 0 W/m 2,1 C 3,4 C 1,6 km/h (1 Bft) 100,00 %
31.12.2017 22:22 3,4 C 3,9 C 91 % 1007,9 hPa 0,0 l/m 0,0 km/h (0 Bft) O 90 0 min 0,000 mm 0,0 UV-I 0 W/m 2,1 C 3,4 C 1,6 km/h (1 Bft) 100,00 %
31.12.2017 22:23 3,5 C 3,9 C 91 % 1007,9 hPa 0,0 l/m 0,0 km/h (0 Bft) O 90 0 min 0,000 mm 0,0 UV-I 0 W/m 2,2 C 3,5 C 1,6 km/h (1 Bft) 100,00 %
31.12.2017 22:24 3,4 C 3,9 C 91 % 1007,9 hPa 0,0 l/m 0,0 km/h (0 Bft) N 0 0 min 0,000 mm 0,0 UV-I 0 W/m 2,1 C 3,4 C 0,0 km/h (0 Bft) 100,00 %
31.12.2017 22:25 3,4 C 3,9 C 91 % 1007,8 hPa 0,0 l/m 0,0 km/h (0 Bft) N 0 0 min 0,000 mm 0,0 UV-I 0 W/m 2,1 C 3,4 C 0,0 km/h (0 Bft) 100,00 %
31.12.2017 22:26 3,3 C 3,9 C 91 % 1007,8 hPa 0,0 l/m 0,0 km/h (0 Bft) N 0 0 min 0,000 mm 0,0 UV-I 0 W/m 2,0 C 3,3 C 0,0 km/h (0 Bft) 100,00 %
31.12.2017 22:27 3,2 C 3,9 C 90 % 1007,8 hPa 0,0 l/m 0,0 km/h (0 Bft) N 0 0 min 0,000 mm 0,0 UV-I 0 W/m 1,7 C 3,2 C 0,0 km/h (0 Bft) 95,65 %
31.12.2017 22:28 3,1 C 3,9 C 90 % 1007,7 hPa 0,0 l/m 1,6 km/h (1 Bft) O 90 0 min 0,000 mm 0,0 UV-I 0 W/m 1,6 C 3,1 C 3,2 km/h (1 Bft) 100,00 %
31.12.2017 22:29 2,9 C 3,9 C 91 % 1007,7 hPa 0,0 l/m 3,2 km/h (1 Bft) O 90 0 min 0,000 mm 0,0 UV-I 0 W/m 1,6 C 2,9 C 4,8 km/h (1 Bft) 100,00 %
31.12.2017 22:30 2,8 C 3,9 C 91 % 1007,7 hPa 0,0 l/m 3,2 km/h (1 Bft) O 90 0 min 0,000 mm 0,0 UV-I 0 W/m 1,5 C 2,8 C 4,8 km/h (1 Bft) 100,00 %
31.12.2017 22:31 2,7 C 3,9 C 92 % 1007,8 hPa 0,0 l/m 4,8 km/h (1 Bft) O 90 0 min 0,000 mm 0,0 UV-I 0 W/m 1,5 C 2,7 C 4,8 km/h (1 Bft) 100,00 %
31.12.2017 22:32 2,8 C 3,9 C 92 % 1007,8 hPa 0,0 l/m 4,8 km/h (1 Bft) O 90 0 min 0,000 mm 0,0 UV-I 0 W/m 1,6 C 2,8 C 4,8 km/h (1 Bft) 100,00 %
31.12.2017 22:33 2,8 C 3,9 C 92 % 1007,8 hPa 0,0 l/m 4,8 km/h (1 Bft) O 90 0 min 0,000 mm 0,0 UV-I 0 W/m 1,6 C 2,8 C 6,4 km/h (2 Bft) 95,65 %
31.12.2017 22:34 2,9 C 3,9 C 93 % 1007,8 hPa 0,0 l/m 3,2 km/h (1 Bft) O 90 0 min 0,000 mm 0,0 UV-I 0 W/m 1,9 C 2,9 C 4,8 km/h (1 Bft) 95,65 %
31.12.2017 22:35 3,0 C 3,9 C 93 % 1007,7 hPa 0,0 l/m 3,2 km/h (1 Bft) O 90 0 min 0,000 mm 0,0 UV-I 0 W/m 2,0 C 3,0 C 4,8 km/h (1 Bft) 100,00 %
31.12.2017 22:36 3,1 C 3,9 C 93 % 1007,7 hPa 0,0 l/m 3,2 km/h (1 Bft) O 90 0 min 0,000 mm 0,0 UV-I 0 W/m 2,1 C 3,1 C 4,8 km/h (1 Bft) 100,00 %
31.12.2017 22:37 3,1 C 3,9 C 93 % 1007,7 hPa 0,0 l/m 4,8 km/h (1 Bft) O 90 0 min 0,000 mm 0,0 UV-I 0 W/m 2,1 C 3,1 C 6,4 km/h (2 Bft) 100,00 %
31.12.2017 22:38 3,3 C 3,9 C 93 % 1007,7 hPa 0,0 l/m 4,8 km/h (1 Bft) O 90 0 min 0,000 mm 0,0 UV-I 0 W/m 2,3 C 3,3 C 6,4 km/h (2 Bft) 100,00 %
31.12.2017 22:39 3,6 C 3,9 C 93 % 1007,7 hPa 0,0 l/m 4,8 km/h (1 Bft) O 90 0 min 0,000 mm 0,0 UV-I 0 W/m 2,6 C 3,6 C 4,8 km/h (1 Bft) 100,00 %
31.12.2017 22:40 3,8 C 3,9 C 93 % 1007,7 hPa 0,0 l/m 4,8 km/h (1 Bft) O 90 0 min 0,000 mm 0,0 UV-I 0 W/m 2,8 C 3,8 C 4,8 km/h (1 Bft) 100,00 %
31.12.2017 22:41 4,2 C 3,9 C 92 % 1007,7 hPa 0,0 l/m 4,8 km/h (1 Bft) O 90 0 min 0,000 mm 0,0 UV-I 0 W/m 3,0 C 4,2 C 4,8 km/h (1 Bft) 100,00 %
31.12.2017 22:42 4,3 C 3,9 C 91 % 1007,7 hPa 0,0 l/m 4,8 km/h (1 Bft) O 90 0 min 0,000 mm 0,0 UV-I 0 W/m 3,0 C 4,3 C 6,4 km/h (2 Bft) 91,30 %
31.12.2017 22:43 4,4 C 3,9 C 90 % 1007,7 hPa 0,0 l/m 8,0 km/h (2 Bft) O 90 0 min 0,000 mm 0,0 UV-I 0 W/m 2,9 C 3,0 C 11,3 km/h (2 Bft) 100,00 %
31.12.2017 22:44 4,4 C 3,9 C 89 % 1007,7 hPa 0,0 l/m 6,4 km/h (2 Bft) O-NO 67 0 min 0,000 mm 0,0 UV-I 0 W/m 2,7 C 4,4 C 11,3 km/h (2 Bft) 100,00 %
31.12.2017 22:45 4,3 C 3,9 C 88 % 1007,7 hPa 0,0 l/m 3,2 km/h (1 Bft) O-SO 112 0 min 0,000 mm 0,0 UV-I 0 W/m 2,5 C 4,3 C 4,8 km/h (1 Bft) 95,65 %
31.12.2017 22:46 4,2 C 3,9 C 88 % 1007,7 hPa 0,0 l/m 3,2 km/h (1 Bft) O-SO 112 0 min 0,000 mm 0,0 UV-I 0 W/m 2,4 C 4,2 C 4,8 km/h (1 Bft) 100,00 %
31.12.2017 22:47 4,1 C 3,9 C 89 % 1007,7 hPa 0,0 l/m 1,6 km/h (1 Bft) O-SO 112 0 min 0,000 mm 0,0 UV-I 0 W/m 2,5 C 4,1 C 3,2 km/h (1 Bft) 100,00 %
31.12.2017 22:48 4,0 C 3,9 C 89 % 1007,6 hPa 0,0 l/m 1,6 km/h (1 Bft) O-SO 112 0 min 0,000 mm 0,0 UV-I 0 W/m 2,4 C 4,0 C 4,8 km/h (1 Bft) 100,00 %
31.12.2017 22:49 3,9 C 3,9 C 89 % 1007,7 hPa 0,0 l/m 3,2 km/h (1 Bft) O-SO 112 0 min 0,000 mm 0,0 UV-I 0 W/m 2,3 C 3,9 C 4,8 km/h (1 Bft) 91,30 %
31.12.2017 22:50 4,0 C 3,9 C 90 % 1007,7 hPa 0,0 l/m 1,6 km/h (1 Bft) O-SO 112 0 min 0,000 mm 0,0 UV-I 0 W/m 2,5 C 4,0 C 4,8 km/h (1 Bft) 100,00 %
31.12.2017 22:51 3,9 C 3,9 C 89 % 1007,7 hPa 0,0 l/m 3,2 km/h (1 Bft) O-SO 112 0 min 0,000 mm 0,0 UV-I 0 W/m 2,3 C 3,9 C 4,8 km/h (1 Bft) 100,00 %
31.12.2017 22:52 3,8 C 3,9 C 89 % 1007,7 hPa 0,0 l/m 0,0 km/h (0 Bft) O-SO 112 0 min 0,000 mm 0,0 UV-I 0 W/m 2,2 C 3,8 C 1,6 km/h (1 Bft) 100,00 %
31.12.2017 22:53 3,6 C 3,9 C 89 % 1007,7 hPa 0,0 l/m 3,2 km/h (1 Bft) O-SO 112 0 min 0,000 mm 0,0 UV-I 0 W/m 2,0 C 3,6 C 4,8 km/h (1 Bft) 95,65 %
31.12.2017 22:54 3,3 C 3,9 C 89 % 1007,7 hPa 0,0 l/m 1,6 km/h (1 Bft) O-SO 112 0 min 0,000 mm 0,0 UV-I 0 W/m 1,7 C 3,3 C 3,2 km/h (1 Bft) 95,65 %
31.12.2017 22:55 3,1 C 3,9 C 89 % 1007,7 hPa 0,0 l/m 0,0 km/h (0 Bft) O-SO 112 0 min 0,000 mm 0,0 UV-I 0 W/m 1,5 C 3,1 C 1,6 km/h (1 Bft) 100,00 %
31.12.2017 22:56 2,9 C 3,9 C 89 % 1007,8 hPa 0,0 l/m 1,6 km/h (1 Bft) O-SO 112 0 min 0,000 mm 0,0 UV-I 0 W/m 1,3 C 2,9 C 1,6 km/h (1 Bft) 95,65 %
31.12.2017 22:57 2,7 C 3,9 C 90 % 1007,7 hPa 0,0 l/m 1,6 km/h (1 Bft) O-SO 112 0 min 0,000 mm 0,0 UV-I 0 W/m 1,2 C 2,7 C 3,2 km/h (1 Bft) 100,00 %
31.12.2017 22:58 2,6 C 3,9 C 90 % 1007,8 hPa 0,0 l/m 1,6 km/h (1 Bft) O-SO 112 0 min 0,000 mm 0,0 UV-I 0 W/m 1,1 C 2,6 C 3,2 km/h (1 Bft) 100,00 %
31.12.2017 22:59 2,7 C 3,9 C 92 % 1007,8 hPa 0,0 l/m 1,6 km/h (1 Bft) O-SO 112 0 min 0,000 mm 0,0 UV-I 0 W/m 1,5 C 2,7 C 3,2 km/h (1 Bft) 95,65 %
31.12.2017 23:00 2,7 C 3,9 C 92 % 1007,8 hPa 0,0 l/m 3,2 km/h (1 Bft) O-SO 112 0 min 0,000 mm 0,0 UV-I 0 W/m 1,5 C 2,7 C 3,2 km/h (1 Bft) 100,00 %
31.12.2017 23:01 2,8 C 3,9 C 92 % 1007,8 hPa 0,0 l/m 3,2 km/h (1 Bft) O-SO 112 0 min 0,000 mm 0,0 UV-I 0 W/m 1,6 C 2,8 C 3,2 km/h (1 Bft) 95,65 %
31.12.2017 23:02 2,7 C 3,9 C 92 % 1007,7 hPa 0,0 l/m 3,2 km/h (1 Bft) O-SO 112 0 min 0,000 mm 0,0 UV-I 0 W/m 1,5 C 2,7 C 3,2 km/h (1 Bft) 100,00 %
31.12.2017 23:03 2,7 C 3,9 C 92 % 1007,8 hPa 0,0 l/m 1,6 km/h (1 Bft) O-SO 112 0 min 0,000 mm 0,0 UV-I 0 W/m 1,5 C 2,7 C 3,2 km/h (1 Bft) 91,30 %
31.12.2017 23:04 2,7 C 3,9 C 92 % 1007,7 hPa 0,0 l/m 1,6 km/h (1 Bft) O-SO 112 0 min 0,000 mm 0,0 UV-I 0 W/m 1,5 C 2,7 C 3,2 km/h (1 Bft) 95,65 %
31.12.2017 23:05 2,7 C 3,9 C 92 % 1007,7 hPa 0,0 l/m 1,6 km/h (1 Bft) O-SO 112 0 min 0,000 mm 0,0 UV-I 0 W/m 1,5 C 2,7 C 3,2 km/h (1 Bft) 100,00 %
31.12.2017 23:06 2,6 C 3,9 C 92 % 1007,7 hPa 0,0 l/m 3,2 km/h (1 Bft) O-SO 112 0 min 0,000 mm 0,0 UV-I 0 W/m 1,4 C 2,6 C 4,8 km/h (1 Bft) 95,65 %
31.12.2017 23:07 2,6 C 3,9 C 92 % 1007,7 hPa 0,0 l/m 3,2 km/h (1 Bft) O-SO 112 0 min 0,000 mm 0,0 UV-I 0 W/m 1,4 C 2,6 C 3,2 km/h (1 Bft) 100,00 %
31.12.2017 23:08 2,6 C 3,9 C 92 % 1007,6 hPa 0,0 l/m 3,2 km/h (1 Bft) O-SO 112 0 min 0,000 mm 0,0 UV-I 0 W/m 1,4 C 2,6 C 4,8 km/h (1 Bft) 95,65 %
31.12.2017 23:09 2,6 C 3,9 C 93 % 1007,6 hPa 0,0 l/m 4,8 km/h (1 Bft) O-SO 112 0 min 0,000 mm 0,0 UV-I 0 W/m 1,6 C 2,6 C 4,8 km/h (1 Bft) 100,00 %
31.12.2017 23:10 2,7 C 3,9 C 93 % 1007,5 hPa 0,0 l/m 8,0 km/h (2 Bft) O-NO 67 0 min 0,000 mm 0,0 UV-I 0 W/m 1,7 C 1,2 C 11,3 km/h (2 Bft) 86,96 %
31.12.2017 23:11 2,8 C 3,9 C 93 % 1007,5 hPa 0,0 l/m 9,7 km/h (2 Bft) O 90 0 min 0,000 mm 0,0 UV-I 0 W/m 1,8 C -0,1 C 14,5 km/h (3 Bft) 100,00 %
31.12.2017 23:12 3,3 C 3,9 C 94 % 1007,4 hPa 0,0 l/m 8,0 km/h (2 Bft) O 90 0 min 0,000 mm 0,0 UV-I 0 W/m 2,4 C 1,8 C 12,9 km/h (3 Bft) 91,30 %
31.12.2017 23:13 3,7 C 3,9 C 94 % 1007,4 hPa 0,0 l/m 6,4 km/h (2 Bft) O-SO 112 0 min 0,000 mm 0,0 UV-I 0 W/m 2,8 C 3,7 C 9,7 km/h (2 Bft) 95,65 %
31.12.2017 23:14 3,8 C 3,9 C 92 % 1007,4 hPa 0,0 l/m 4,8 km/h (1 Bft) O-SO 112 0 min 0,000 mm 0,0 UV-I 0 W/m 2,6 C 3,8 C 6,4 km/h (2 Bft) 95,65 %
31.12.2017 23:15 3,9 C 3,9 C 91 % 1007,4 hPa 0,0 l/m 4,8 km/h (1 Bft) O-SO 112 0 min 0,000 mm 0,0 UV-I 0 W/m 2,6 C 3,9 C 6,4 km/h (2 Bft) 91,30 %
31.12.2017 23:16 3,9 C 3,9 C 90 % 1007,4 hPa 0,0 l/m 4,8 km/h (1 Bft) O-SO 112 0 min 0,000 mm 0,0 UV-I 0 W/m 2,4 C 3,9 C 9,7 km/h (2 Bft) 100,00 %
31.12.2017 23:17 3,8 C 3,9 C 90 % 1007,4 hPa 0,0 l/m 4,8 km/h (1 Bft) O-SO 112 0 min 0,000 mm 0,0 UV-I 0 W/m 2,3 C 3,8 C 6,4 km/h (2 Bft) 82,61 %
31.12.2017 23:18 3,8 C 3,9 C 90 % 1007,3 hPa 0,0 l/m 4,8 km/h (1 Bft) O-SO 112 0 min 0,000 mm 0,0 UV-I 0 W/m 2,3 C 3,8 C 6,4 km/h (2 Bft) 100,00 %
31.12.2017 23:19 3,8 C 3,9 C 90 % 1007,3 hPa 0,0 l/m 3,2 km/h (1 Bft) O-SO 112 0 min 0,000 mm 0,0 UV-I 0 W/m 2,3 C 3,8 C 6,4 km/h (2 Bft) 91,30 %
31.12.2017 23:20 3,9 C 3,9 C 90 % 1007,3 hPa 0,0 l/m 3,2 km/h (1 Bft) O-SO 112 0 min 0,000 mm 0,0 UV-I 0 W/m 2,4 C 3,9 C 4,8 km/h (1 Bft) 95,65 %
31.12.2017 23:21 4,0 C 3,9 C 90 % 1007,4 hPa 0,0 l/m 4,8 km/h (1 Bft) SO 135 0 min 0,000 mm 0,0 UV-I 0 W/m 2,5 C 4,0 C 6,4 km/h (2 Bft) 95,65 %
31.12.2017 23:22 4,0 C 3,9 C 90 % 1007,4 hPa 0,0 l/m 4,8 km/h (1 Bft) SO 135 0 min 0,000 mm 0,0 UV-I 0 W/m 2,5 C 4,0 C 6,4 km/h (2 Bft) 95,65 %
31.12.2017 23:23 4,0 C 3,9 C 90 % 1007,4 hPa 0,0 l/m 4,8 km/h (1 Bft) SO 135 0 min 0,000 mm 0,0 UV-I 0 W/m 2,5 C 4,0 C 6,4 km/h (2 Bft) 95,65 %
31.12.2017 23:24 4,1 C 3,9 C 90 % 1007,4 hPa 0,0 l/m 3,2 km/h (1 Bft) SO 135 0 min 0,000 mm 0,0 UV-I 0 W/m 2,6 C 4,1 C 4,8 km/h (1 Bft) 91,30 %
31.12.2017 23:25 4,1 C 3,9 C 89 % 1007,4 hPa 0,0 l/m 1,6 km/h (1 Bft) SO 135 0 min 0,000 mm 0,0 UV-I 0 W/m 2,5 C 4,1 C 3,2 km/h (1 Bft) 95,65 %
31.12.2017 23:26 4,0 C 3,9 C 89 % 1007,4 hPa 0,0 l/m 1,6 km/h (1 Bft) SO 135 0 min 0,000 mm 0,0 UV-I 0 W/m 2,4 C 4,0 C 3,2 km/h (1 Bft) 95,65 %
31.12.2017 23:27 3,8 C 3,9 C 89 % 1007,4 hPa 0,0 l/m 1,6 km/h (1 Bft) SO 135 0 min 0,000 mm 0,0 UV-I 0 W/m 2,2 C 3,8 C 1,6 km/h (1 Bft) 95,65 %
31.12.2017 23:28 3,5 C 3,9 C 88 % 1007,4 hPa 0,0 l/m 1,6 km/h (1 Bft) SO 135 0 min 0,000 mm 0,0 UV-I 0 W/m 1,7 C 3,5 C 1,6 km/h (1 Bft) 95,65 %
31.12.2017 23:29 3,2 C 3,9 C 88 % 1007,4 hPa 0,0 l/m 0,0 km/h (0 Bft) SO 135 0 min 0,000 mm 0,0 UV-I 0 W/m 1,4 C 3,2 C 1,6 km/h (1 Bft) 91,30 %
31.12.2017 23:30 3,1 C 3,9 C 89 % 1007,4 hPa 0,0 l/m 1,6 km/h (1 Bft) SO 135 0 min 0,000 mm 0,0 UV-I 0 W/m 1,5 C 3,1 C 3,2 km/h (1 Bft) 91,30 %
31.12.2017 23:31 2,9 C 3,9 C 90 % 1007,4 hPa 0,0 l/m 1,6 km/h (1 Bft) SO 135 0 min 0,000 mm 0,0 UV-I 0 W/m 1,4 C 2,9 C 3,2 km/h (1 Bft) 86,96 %
31.12.2017 23:32 2,9 C 3,9 C 91 % 1007,4 hPa 0,0 l/m 1,6 km/h (1 Bft) SO 135 0 min 0,000 mm 0,0 UV-I 0 W/m 1,6 C 2,9 C 1,6 km/h (1 Bft) 95,65 %
31.12.2017 23:33 3,0 C 3,9 C 91 % 1007,3 hPa 0,0 l/m 0,0 km/h (0 Bft) N 0 0 min 0,000 mm 0,0 UV-I 0 W/m 1,7 C 3,0 C 0,0 km/h (0 Bft) 86,96 %
31.12.2017 23:34 3,0 C 3,9 C 91 % 1007,3 hPa 0,0 l/m 0,0 km/h (0 Bft) SO 135 0 min 0,000 mm 0,0 UV-I 0 W/m 1,7 C 3,0 C 1,6 km/h (1 Bft) 95,65 %
31.12.2017 23:35 3,1 C 3,9 C 92 % 1007,2 hPa 0,0 l/m 0,0 km/h (0 Bft) SO 135 0 min 0,000 mm 0,0 UV-I 0 W/m 1,9 C 3,1 C 1,6 km/h (1 Bft) 95,65 %
31.12.2017 23:36 3,2 C 3,9 C 92 % 1007,2 hPa 0,0 l/m 0,0 km/h (0 Bft) N 0 0 min 0,000 mm 0,0 UV-I 0 W/m 2,0 C 3,2 C 0,0 km/h (0 Bft) 95,65 %
31.12.2017 23:37 3,3 C 3,9 C 92 % 1007,2 hPa 0,0 l/m 0,0 km/h (0 Bft) N 0 0 min 0,000 mm 0,0 UV-I 0 W/m 2,1 C 3,3 C 0,0 km/h (0 Bft) 91,30 %
31.12.2017 23:38 3,4 C 3,9 C 92 % 1007,2 hPa 0,0 l/m 1,6 km/h (1 Bft) SO 135 0 min 0,000 mm 0,0 UV-I 0 W/m 2,2 C 3,4 C 3,2 km/h (1 Bft) 91,30 %
31.12.2017 23:39 3,4 C 3,9 C 91 % 1007,2 hPa 0,0 l/m 1,6 km/h (1 Bft) SO 135 0 min 0,000 mm 0,0 UV-I 0 W/m 2,1 C 3,4 C 3,2 km/h (1 Bft) 100,00 %
31.12.2017 23:40 3,5 C 3,9 C 92 % 1007,2 hPa 0,0 l/m 1,6 km/h (1 Bft) SO 135 0 min 0,000 mm 0,0 UV-I 0 W/m 2,3 C 3,5 C 3,2 km/h (1 Bft) 95,65 %
31.12.2017 23:41 3,6 C 3,9 C 91 % 1007,2 hPa 0,0 l/m 0,0 km/h (0 Bft) SO 135 0 min 0,000 mm 0,0 UV-I 0 W/m 2,3 C 3,6 C 1,6 km/h (1 Bft) 95,65 %
31.12.2017 23:42 3,7 C 3,9 C 91 % 1007,2 hPa 0,0 l/m 3,2 km/h (1 Bft) SO 135 0 min 0,000 mm 0,0 UV-I 0 W/m 2,4 C 3,7 C 4,8 km/h (1 Bft) 95,65 %
31.12.2017 23:43 3,7 C 3,9 C 91 % 1007,2 hPa 0,0 l/m 3,2 km/h (1 Bft) SO 135 0 min 0,000 mm 0,0 UV-I 0 W/m 2,4 C 3,7 C 3,2 km/h (1 Bft) 100,00 %
31.12.2017 23:44 3,7 C 3,9 C 91 % 1007,3 hPa 0,0 l/m 1,6 km/h (1 Bft) SO 135 0 min 0,000 mm 0,0 UV-I 0 W/m 2,4 C 3,7 C 1,6 km/h (1 Bft) 100,00 %
31.12.2017 23:45 3,7 C 3,9 C 91 % 1007,2 hPa 0,0 l/m 1,6 km/h (1 Bft) SO 135 0 min 0,000 mm 0,0 UV-I 0 W/m 2,4 C 3,7 C 1,6 km/h (1 Bft) 95,65 %
31.12.2017 23:46 3,7 C 3,9 C 90 % 1007,2 hPa 0,0 l/m 1,6 km/h (1 Bft) SO 135 0 min 0,000 mm 0,0 UV-I 0 W/m 2,2 C 3,7 C 1,6 km/h (1 Bft) 100,00 %
31.12.2017 23:47 3,7 C 3,9 C 90 % 1007,2 hPa 0,0 l/m 1,6 km/h (1 Bft) SO 135 0 min 0,000 mm 0,0 UV-I 0 W/m 2,2 C 3,7 C 1,6 km/h (1 Bft) 100,00 %
31.12.2017 23:48 3,7 C 3,9 C 91 % 1007,1 hPa 0,0 l/m 1,6 km/h (1 Bft) SO 135 0 min 0,000 mm 0,0 UV-I 0 W/m 2,4 C 3,7 C 3,2 km/h (1 Bft) 100,00 %
31.12.2017 23:49 3,7 C 3,9 C 91 % 1007,1 hPa 0,0 l/m 1,6 km/h (1 Bft) SO 135 0 min 0,000 mm 0,0 UV-I 0 W/m 2,4 C 3,7 C 3,2 km/h (1 Bft) 100,00 %
31.12.2017 23:50 3,6 C 3,9 C 91 % 1007,1 hPa 0,0 l/m 1,6 km/h (1 Bft) SO 135 0 min 0,000 mm 0,0 UV-I 0 W/m 2,3 C 3,6 C 1,6 km/h (1 Bft) 100,00 %
31.12.2017 23:51 3,5 C 3,9 C 90 % 1007,1 hPa 0,0 l/m 0,0 km/h (0 Bft) SO 135 0 min 0,000 mm 0,0 UV-I 0 W/m 2,0 C 3,5 C 1,6 km/h (1 Bft) 100,00 %
31.12.2017 23:52 3,4 C 3,9 C 90 % 1007,1 hPa 0,0 l/m 0,0 km/h (0 Bft) N 0 0 min 0,000 mm 0,0 UV-I 0 W/m 1,9 C 3,4 C 0,0 km/h (0 Bft) 95,65 %
31.12.2017 23:53 3,3 C 3,9 C 90 % 1007,1 hPa 0,0 l/m 1,6 km/h (1 Bft) SO 135 0 min 0,000 mm 0,0 UV-I 0 W/m 1,8 C 3,3 C 1,6 km/h (1 Bft) 95,65 %
31.12.2017 23:54 3,3 C 3,9 C 91 % 1007,2 hPa 0,0 l/m 1,6 km/h (1 Bft) SO 135 0 min 0,000 mm 0,0 UV-I 0 W/m 2,0 C 3,3 C 3,2 km/h (1 Bft) 100,00 %
31.12.2017 23:55 3,3 C 3,9 C 91 % 1007,2 hPa 0,0 l/m 1,6 km/h (1 Bft) SO 135 0 min 0,000 mm 0,0 UV-I 0 W/m 2,0 C 3,3 C 3,2 km/h (1 Bft) 100,00 %
31.12.2017 23:56 3,2 C 3,9 C 91 % 1007,2 hPa 0,0 l/m 3,2 km/h (1 Bft) SO 135 0 min 0,000 mm 0,0 UV-I 0 W/m 1,9 C 3,2 C 3,2 km/h (1 Bft) 100,00 %
31.12.2017 23:57 3,1 C 3,9 C 91 % 1007,2 hPa 0,0 l/m 3,2 km/h (1 Bft) SO 135 0 min 0,000 mm 0,0 UV-I 0 W/m 1,8 C 3,1 C 3,2 km/h (1 Bft) 100,00 %
31.12.2017 23:58 3,1 C 3,9 C 91 % 1007,2 hPa 0,0 l/m 3,2 km/h (1 Bft) SO 135 0 min 0,000 mm 0,0 UV-I 0 W/m 1,8 C 3,1 C 3,2 km/h (1 Bft) 100,00 %
31.12.2017 23:59 3,0 C 3,9 C 91 % 1007,2 hPa 0,0 l/m 3,2 km/h (1 Bft) SO 135 0 min 0,000 mm 0,0 UV-I 0 W/m 1,7 C 3,0 C 4,8 km/h (1 Bft) 95,65 %
31.12.2017 23:59 2,9 C 3,9 C 91 % 1007,2 hPa 0,0 l/m 3,2 km/h (1 Bft) NW 315 0 min 0,000 mm 0,0 UV-I 0 W/m 1,6 C 2,9 C 4,8 km/h (1 Bft) 95,65 %
_ Min-Zeit 00:04 00:04 12:52 23:48 - 00:00 - - - - - - 22:58 02:51 00:22 01:13
Minimum _ 1,5 C 3,3 C 58 % 1007,1 hPa - 0,0 km/h (0 Bft) - - - - - - 1,1 C -1,3 C 0,0 km/h (0 Bft) 8,70 %
_ Max-Zeit 12:50 00:00 01:51 10:06 00:00 13:04 - - 08:07 13:00 11:52 13:09 03:15 15:29 13:31 00:03
Maximum _ 13,7 C 3,9 C 99 % 1014,2 hPa 0,2 l/m 35,4 km/h
W-SW (5 Bft)
- - 1 min 0,254 mm 0,6 UV-I 397 W/m 8,6 C 12,4 C 53,1 km/h
W-SW (7 Bft)
100,00 %
Durchschnitt _ 8,8 C 3,6 C 78 % 1011,4 hPa #6,0 l/m 12,6 km/h (3 Bft) W-SW - #4:01 h #1,421 mm 0,6 UV-I 128 W/m 5,0 C 5,3 C 18,1 km/h (3 Bft) 97,02 %